<?xml version="1.0" encoding="UTF-8" standalone="no" ?>
<gpx xmlns="http://www.topografix.com/GPX/1/1" xmlns:xsi="http://www.w3.org/2001/XMLSchema-instance" xsi:schemaLocation="http://www.topografix.com/GPX/1/1 http://www.topografix.com/GPX/1/1/gpx.xsd" version="1.1" creator="VisuGPX - https://www.visugpx.com">
  <metadata>
    <name>BRM 300km du 08 mai 2019</name>
    <desc><![CDATA[Brm 300 organisé par le Cyclo Tourisme Herbretais
et validé auprès de l'audax club Paris

Départ ouvert de 5 à 6:00 h
Parc Equestre La Rebouchonnière
85500 Les Herbiers]]></desc>
  </metadata>
  <trk>
    <name><![CDATA[9083896-Brevet 300km]]></name>
    <trkseg>
      <trkpt lat="46.86988" lon="-1.04139">
        <ele>96</ele>
        <time>2019-04-29T09:57:57Z</time>
      </trkpt>
      <trkpt lat="46.872" lon="-1.04009">
        <ele>92</ele>
        <time>2019-04-29T09:58:57Z</time>
      </trkpt>
      <trkpt lat="46.87206" lon="-1.04041">
        <ele>92</ele>
        <time>2019-04-29T09:59:57Z</time>
      </trkpt>
      <trkpt lat="46.87213" lon="-1.04106">
        <ele>92</ele>
        <time>2019-04-29T10:00:57Z</time>
      </trkpt>
      <trkpt lat="46.87221" lon="-1.04151">
        <ele>91</ele>
        <time>2019-04-29T10:01:57Z</time>
      </trkpt>
      <trkpt lat="46.87239" lon="-1.04208">
        <ele>89</ele>
        <time>2019-04-29T10:02:57Z</time>
      </trkpt>
      <trkpt lat="46.87276" lon="-1.04301">
        <ele>88</ele>
        <time>2019-04-29T10:03:57Z</time>
      </trkpt>
      <trkpt lat="46.8755" lon="-1.04952">
        <ele>88</ele>
        <time>2019-04-29T10:04:57Z</time>
      </trkpt>
      <trkpt lat="46.87599" lon="-1.05073">
        <ele>87</ele>
        <time>2019-04-29T10:05:57Z</time>
      </trkpt>
      <trkpt lat="46.87618" lon="-1.05124">
        <ele>87</ele>
        <time>2019-04-29T10:06:57Z</time>
      </trkpt>
      <trkpt lat="46.87636" lon="-1.05182">
        <ele>87</ele>
        <time>2019-04-29T10:07:57Z</time>
      </trkpt>
      <trkpt lat="46.87647" lon="-1.05234">
        <ele>87</ele>
        <time>2019-04-29T10:08:57Z</time>
      </trkpt>
      <trkpt lat="46.87667" lon="-1.05353">
        <ele>87</ele>
        <time>2019-04-29T10:09:57Z</time>
      </trkpt>
      <trkpt lat="46.87672" lon="-1.05404">
        <ele>86</ele>
        <time>2019-04-29T10:10:57Z</time>
      </trkpt>
      <trkpt lat="46.87672" lon="-1.05447">
        <ele>86</ele>
        <time>2019-04-29T10:11:57Z</time>
      </trkpt>
      <trkpt lat="46.87664" lon="-1.055">
        <ele>85</ele>
        <time>2019-04-29T10:12:57Z</time>
      </trkpt>
      <trkpt lat="46.87632" lon="-1.05667">
        <ele>87</ele>
        <time>2019-04-29T10:13:57Z</time>
      </trkpt>
      <trkpt lat="46.876" lon="-1.05841">
        <ele>85</ele>
        <time>2019-04-29T10:14:57Z</time>
      </trkpt>
      <trkpt lat="46.87509" lon="-1.06371">
        <ele>85</ele>
        <time>2019-04-29T10:15:57Z</time>
      </trkpt>
      <trkpt lat="46.87494" lon="-1.06506">
        <ele>85</ele>
        <time>2019-04-29T10:16:57Z</time>
      </trkpt>
      <trkpt lat="46.87491" lon="-1.06556">
        <ele>86</ele>
        <time>2019-04-29T10:17:57Z</time>
      </trkpt>
      <trkpt lat="46.87492" lon="-1.06599">
        <ele>86</ele>
        <time>2019-04-29T10:18:57Z</time>
      </trkpt>
      <trkpt lat="46.87529" lon="-1.06849">
        <ele>85</ele>
        <time>2019-04-29T10:19:57Z</time>
      </trkpt>
      <trkpt lat="46.87537" lon="-1.06919">
        <ele>84</ele>
        <time>2019-04-29T10:20:57Z</time>
      </trkpt>
      <trkpt lat="46.87559" lon="-1.07226">
        <ele>83</ele>
        <time>2019-04-29T10:21:57Z</time>
      </trkpt>
      <trkpt lat="46.8756" lon="-1.0729">
        <ele>82</ele>
        <time>2019-04-29T10:22:57Z</time>
      </trkpt>
      <trkpt lat="46.87558" lon="-1.07329">
        <ele>82</ele>
        <time>2019-04-29T10:23:57Z</time>
      </trkpt>
      <trkpt lat="46.87532" lon="-1.07565">
        <ele>83</ele>
        <time>2019-04-29T10:24:57Z</time>
      </trkpt>
      <trkpt lat="46.87523" lon="-1.07621">
        <ele>84</ele>
        <time>2019-04-29T10:25:57Z</time>
      </trkpt>
      <trkpt lat="46.8751" lon="-1.07666">
        <ele>85</ele>
        <time>2019-04-29T10:26:57Z</time>
      </trkpt>
      <trkpt lat="46.87405" lon="-1.07982">
        <ele>91</ele>
        <time>2019-04-29T10:27:57Z</time>
      </trkpt>
      <trkpt lat="46.87252" lon="-1.08453">
        <ele>96</ele>
        <time>2019-04-29T10:28:57Z</time>
      </trkpt>
      <trkpt lat="46.87239" lon="-1.08489">
        <ele>96</ele>
        <time>2019-04-29T10:29:57Z</time>
      </trkpt>
      <trkpt lat="46.8723" lon="-1.08508">
        <ele>96</ele>
        <time>2019-04-29T10:30:57Z</time>
      </trkpt>
      <trkpt lat="46.87213" lon="-1.0854">
        <ele>96</ele>
        <time>2019-04-29T10:31:57Z</time>
      </trkpt>
      <trkpt lat="46.87198" lon="-1.08561">
        <ele>95</ele>
        <time>2019-04-29T10:32:57Z</time>
      </trkpt>
      <trkpt lat="46.87164" lon="-1.08596">
        <ele>95</ele>
        <time>2019-04-29T10:33:57Z</time>
      </trkpt>
      <trkpt lat="46.86694" lon="-1.09003">
        <ele>96</ele>
        <time>2019-04-29T10:34:57Z</time>
      </trkpt>
      <trkpt lat="46.86443" lon="-1.09217">
        <ele>88</ele>
        <time>2019-04-29T10:35:57Z</time>
      </trkpt>
      <trkpt lat="46.86377" lon="-1.09275">
        <ele>85</ele>
        <time>2019-04-29T10:36:57Z</time>
      </trkpt>
      <trkpt lat="46.8636" lon="-1.09293">
        <ele>84</ele>
        <time>2019-04-29T10:37:57Z</time>
      </trkpt>
      <trkpt lat="46.86329" lon="-1.0934">
        <ele>82</ele>
        <time>2019-04-29T10:38:57Z</time>
      </trkpt>
      <trkpt lat="46.86193" lon="-1.09616">
        <ele>79</ele>
        <time>2019-04-29T10:39:57Z</time>
      </trkpt>
      <trkpt lat="46.86184" lon="-1.09641">
        <ele>79</ele>
        <time>2019-04-29T10:40:57Z</time>
      </trkpt>
      <trkpt lat="46.86178" lon="-1.09671">
        <ele>79</ele>
        <time>2019-04-29T10:41:57Z</time>
      </trkpt>
      <trkpt lat="46.8617" lon="-1.09787">
        <ele>82</ele>
        <time>2019-04-29T10:42:57Z</time>
      </trkpt>
      <trkpt lat="46.86161" lon="-1.09811">
        <ele>83</ele>
        <time>2019-04-29T10:43:57Z</time>
      </trkpt>
      <trkpt lat="46.86147" lon="-1.0983">
        <ele>85</ele>
        <time>2019-04-29T10:44:57Z</time>
      </trkpt>
      <trkpt lat="46.86077" lon="-1.09901">
        <ele>88</ele>
        <time>2019-04-29T10:45:57Z</time>
      </trkpt>
      <trkpt lat="46.86049" lon="-1.09936">
        <ele>89</ele>
        <time>2019-04-29T10:46:57Z</time>
      </trkpt>
      <trkpt lat="46.86078" lon="-1.09996">
        <ele>88</ele>
        <time>2019-04-29T10:47:57Z</time>
      </trkpt>
      <trkpt lat="46.86118" lon="-1.1004">
        <ele>87</ele>
        <time>2019-04-29T10:48:57Z</time>
      </trkpt>
      <trkpt lat="46.86142" lon="-1.10071">
        <ele>86</ele>
        <time>2019-04-29T10:49:57Z</time>
      </trkpt>
      <trkpt lat="46.86156" lon="-1.10101">
        <ele>87</ele>
        <time>2019-04-29T10:50:57Z</time>
      </trkpt>
      <trkpt lat="46.86314" lon="-1.10535">
        <ele>94</ele>
        <time>2019-04-29T10:51:57Z</time>
      </trkpt>
      <trkpt lat="46.86355" lon="-1.10653">
        <ele>93</ele>
        <time>2019-04-29T10:52:57Z</time>
      </trkpt>
      <trkpt lat="46.86365" lon="-1.1069">
        <ele>93</ele>
        <time>2019-04-29T10:53:57Z</time>
      </trkpt>
      <trkpt lat="46.8637" lon="-1.10715">
        <ele>94</ele>
        <time>2019-04-29T10:54:57Z</time>
      </trkpt>
      <trkpt lat="46.86441" lon="-1.11147">
        <ele>97</ele>
        <time>2019-04-29T10:55:57Z</time>
      </trkpt>
      <trkpt lat="46.86449" lon="-1.1119">
        <ele>96</ele>
        <time>2019-04-29T10:56:57Z</time>
      </trkpt>
      <trkpt lat="46.86461" lon="-1.11239">
        <ele>95</ele>
        <time>2019-04-29T10:57:57Z</time>
      </trkpt>
      <trkpt lat="46.8662" lon="-1.11814">
        <ele>85</ele>
        <time>2019-04-29T10:58:57Z</time>
      </trkpt>
      <trkpt lat="46.86624" lon="-1.11833">
        <ele>85</ele>
        <time>2019-04-29T10:59:57Z</time>
      </trkpt>
      <trkpt lat="46.86628" lon="-1.11874">
        <ele>86</ele>
        <time>2019-04-29T11:00:57Z</time>
      </trkpt>
      <trkpt lat="46.86634" lon="-1.11876">
        <ele>87</ele>
        <time>2019-04-29T11:01:57Z</time>
      </trkpt>
      <trkpt lat="46.86628" lon="-1.11874">
        <ele>86</ele>
        <time>2019-04-29T11:02:57Z</time>
      </trkpt>
      <trkpt lat="46.86626" lon="-1.11891">
        <ele>87</ele>
        <time>2019-04-29T11:03:57Z</time>
      </trkpt>
      <trkpt lat="46.86613" lon="-1.1194">
        <ele>89</ele>
        <time>2019-04-29T11:04:57Z</time>
      </trkpt>
      <trkpt lat="46.86527" lon="-1.12226">
        <ele>93</ele>
        <time>2019-04-29T11:05:57Z</time>
      </trkpt>
      <trkpt lat="46.86515" lon="-1.12276">
        <ele>94</ele>
        <time>2019-04-29T11:06:57Z</time>
      </trkpt>
      <trkpt lat="46.86506" lon="-1.12319">
        <ele>95</ele>
        <time>2019-04-29T11:07:57Z</time>
      </trkpt>
      <trkpt lat="46.86421" lon="-1.12829">
        <ele>100</ele>
        <time>2019-04-29T11:08:57Z</time>
      </trkpt>
      <trkpt lat="46.86409" lon="-1.1288">
        <ele>99</ele>
        <time>2019-04-29T11:09:57Z</time>
      </trkpt>
      <trkpt lat="46.86344" lon="-1.13112">
        <ele>101</ele>
        <time>2019-04-29T11:10:57Z</time>
      </trkpt>
      <trkpt lat="46.86321" lon="-1.13175">
        <ele>102</ele>
        <time>2019-04-29T11:11:57Z</time>
      </trkpt>
      <trkpt lat="46.85989" lon="-1.13834">
        <ele>103</ele>
        <time>2019-04-29T11:12:57Z</time>
      </trkpt>
      <trkpt lat="46.85967" lon="-1.13869">
        <ele>103</ele>
        <time>2019-04-29T11:13:57Z</time>
      </trkpt>
      <trkpt lat="46.85949" lon="-1.13893">
        <ele>104</ele>
        <time>2019-04-29T11:14:57Z</time>
      </trkpt>
      <trkpt lat="46.85929" lon="-1.13914">
        <ele>104</ele>
        <time>2019-04-29T11:15:57Z</time>
      </trkpt>
      <trkpt lat="46.85902" lon="-1.13939">
        <ele>104</ele>
        <time>2019-04-29T11:16:57Z</time>
      </trkpt>
      <trkpt lat="46.85881" lon="-1.13954">
        <ele>103</ele>
        <time>2019-04-29T11:17:57Z</time>
      </trkpt>
      <trkpt lat="46.85815" lon="-1.13993">
        <ele>103</ele>
        <time>2019-04-29T11:18:57Z</time>
      </trkpt>
      <trkpt lat="46.85772" lon="-1.14026">
        <ele>103</ele>
        <time>2019-04-29T11:19:57Z</time>
      </trkpt>
      <trkpt lat="46.85754" lon="-1.14048">
        <ele>102</ele>
        <time>2019-04-29T11:20:57Z</time>
      </trkpt>
      <trkpt lat="46.85736" lon="-1.14073">
        <ele>102</ele>
        <time>2019-04-29T11:21:57Z</time>
      </trkpt>
      <trkpt lat="46.85714" lon="-1.14113">
        <ele>101</ele>
        <time>2019-04-29T11:22:57Z</time>
      </trkpt>
      <trkpt lat="46.85699" lon="-1.14153">
        <ele>100</ele>
        <time>2019-04-29T11:23:57Z</time>
      </trkpt>
      <trkpt lat="46.85691" lon="-1.14182">
        <ele>100</ele>
        <time>2019-04-29T11:24:57Z</time>
      </trkpt>
      <trkpt lat="46.85684" lon="-1.14212">
        <ele>99</ele>
        <time>2019-04-29T11:25:57Z</time>
      </trkpt>
      <trkpt lat="46.85678" lon="-1.14253">
        <ele>99</ele>
        <time>2019-04-29T11:26:57Z</time>
      </trkpt>
      <trkpt lat="46.85629" lon="-1.14667">
        <ele>97</ele>
        <time>2019-04-29T11:27:57Z</time>
      </trkpt>
      <trkpt lat="46.85622" lon="-1.14712">
        <ele>97</ele>
        <time>2019-04-29T11:28:57Z</time>
      </trkpt>
      <trkpt lat="46.85566" lon="-1.14978">
        <ele>97</ele>
        <time>2019-04-29T11:29:57Z</time>
      </trkpt>
      <trkpt lat="46.85369" lon="-1.15871">
        <ele>95</ele>
        <time>2019-04-29T11:30:57Z</time>
      </trkpt>
      <trkpt lat="46.85203" lon="-1.16598">
        <ele>88</ele>
        <time>2019-04-29T11:31:57Z</time>
      </trkpt>
      <trkpt lat="46.85189" lon="-1.16649">
        <ele>88</ele>
        <time>2019-04-29T11:32:57Z</time>
      </trkpt>
      <trkpt lat="46.8519" lon="-1.16668">
        <ele>88</ele>
        <time>2019-04-29T11:33:57Z</time>
      </trkpt>
      <trkpt lat="46.85195" lon="-1.16676">
        <ele>88</ele>
        <time>2019-04-29T11:34:57Z</time>
      </trkpt>
      <trkpt lat="46.85196" lon="-1.16688">
        <ele>88</ele>
        <time>2019-04-29T11:35:57Z</time>
      </trkpt>
      <trkpt lat="46.85192" lon="-1.167">
        <ele>87</ele>
        <time>2019-04-29T11:36:57Z</time>
      </trkpt>
      <trkpt lat="46.85182" lon="-1.16706">
        <ele>87</ele>
        <time>2019-04-29T11:37:57Z</time>
      </trkpt>
      <trkpt lat="46.85173" lon="-1.16728">
        <ele>87</ele>
        <time>2019-04-29T11:38:57Z</time>
      </trkpt>
      <trkpt lat="46.85172" lon="-1.16735">
        <ele>87</ele>
        <time>2019-04-29T11:39:57Z</time>
      </trkpt>
      <trkpt lat="46.85151" lon="-1.16794">
        <ele>86</ele>
        <time>2019-04-29T11:40:57Z</time>
      </trkpt>
      <trkpt lat="46.85066" lon="-1.16996">
        <ele>81</ele>
        <time>2019-04-29T11:41:57Z</time>
      </trkpt>
      <trkpt lat="46.85055" lon="-1.1703">
        <ele>81</ele>
        <time>2019-04-29T11:42:57Z</time>
      </trkpt>
      <trkpt lat="46.85018" lon="-1.17177">
        <ele>79</ele>
        <time>2019-04-29T11:43:57Z</time>
      </trkpt>
      <trkpt lat="46.85006" lon="-1.17222">
        <ele>79</ele>
        <time>2019-04-29T11:44:57Z</time>
      </trkpt>
      <trkpt lat="46.84996" lon="-1.17294">
        <ele>79</ele>
        <time>2019-04-29T11:45:57Z</time>
      </trkpt>
      <trkpt lat="46.84999" lon="-1.17299">
        <ele>78</ele>
        <time>2019-04-29T11:46:57Z</time>
      </trkpt>
      <trkpt lat="46.84998" lon="-1.17304">
        <ele>78</ele>
        <time>2019-04-29T11:47:57Z</time>
      </trkpt>
      <trkpt lat="46.85023" lon="-1.17376">
        <ele>77</ele>
        <time>2019-04-29T11:48:57Z</time>
      </trkpt>
      <trkpt lat="46.8503" lon="-1.17415">
        <ele>76</ele>
        <time>2019-04-29T11:49:57Z</time>
      </trkpt>
      <trkpt lat="46.85033" lon="-1.1745">
        <ele>76</ele>
        <time>2019-04-29T11:50:57Z</time>
      </trkpt>
      <trkpt lat="46.85029" lon="-1.1748">
        <ele>76</ele>
        <time>2019-04-29T11:51:57Z</time>
      </trkpt>
      <trkpt lat="46.85036" lon="-1.17525">
        <ele>76</ele>
        <time>2019-04-29T11:52:57Z</time>
      </trkpt>
      <trkpt lat="46.85041" lon="-1.17546">
        <ele>76</ele>
        <time>2019-04-29T11:53:57Z</time>
      </trkpt>
      <trkpt lat="46.85056" lon="-1.17598">
        <ele>77</ele>
        <time>2019-04-29T11:54:57Z</time>
      </trkpt>
      <trkpt lat="46.85058" lon="-1.17612">
        <ele>77</ele>
        <time>2019-04-29T11:55:57Z</time>
      </trkpt>
      <trkpt lat="46.85113" lon="-1.17601">
        <ele>78</ele>
        <time>2019-04-29T11:56:57Z</time>
      </trkpt>
      <trkpt lat="46.85143" lon="-1.17613">
        <ele>79</ele>
        <time>2019-04-29T11:57:57Z</time>
      </trkpt>
      <trkpt lat="46.85208" lon="-1.17654">
        <ele>81</ele>
        <time>2019-04-29T11:58:57Z</time>
      </trkpt>
      <trkpt lat="46.85225" lon="-1.17669">
        <ele>82</ele>
        <time>2019-04-29T11:59:57Z</time>
      </trkpt>
      <trkpt lat="46.85227" lon="-1.17667">
        <ele>82</ele>
        <time>2019-04-29T12:00:57Z</time>
      </trkpt>
      <trkpt lat="46.85233" lon="-1.17667">
        <ele>82</ele>
        <time>2019-04-29T12:01:57Z</time>
      </trkpt>
      <trkpt lat="46.85236" lon="-1.17672">
        <ele>83</ele>
        <time>2019-04-29T12:02:57Z</time>
      </trkpt>
      <trkpt lat="46.85235" lon="-1.17681">
        <ele>83</ele>
        <time>2019-04-29T12:03:57Z</time>
      </trkpt>
      <trkpt lat="46.85239" lon="-1.17686">
        <ele>83</ele>
        <time>2019-04-29T12:04:57Z</time>
      </trkpt>
      <trkpt lat="46.85472" lon="-1.17949">
        <ele>86</ele>
        <time>2019-04-29T12:05:57Z</time>
      </trkpt>
      <trkpt lat="46.85426" lon="-1.18037">
        <ele>85</ele>
        <time>2019-04-29T12:06:57Z</time>
      </trkpt>
      <trkpt lat="46.85419" lon="-1.18056">
        <ele>84</ele>
        <time>2019-04-29T12:07:57Z</time>
      </trkpt>
      <trkpt lat="46.85414" lon="-1.18079">
        <ele>84</ele>
        <time>2019-04-29T12:08:57Z</time>
      </trkpt>
      <trkpt lat="46.85388" lon="-1.18286">
        <ele>83</ele>
        <time>2019-04-29T12:09:57Z</time>
      </trkpt>
      <trkpt lat="46.85387" lon="-1.18307">
        <ele>83</ele>
        <time>2019-04-29T12:10:57Z</time>
      </trkpt>
      <trkpt lat="46.85392" lon="-1.18368">
        <ele>83</ele>
        <time>2019-04-29T12:11:57Z</time>
      </trkpt>
      <trkpt lat="46.85422" lon="-1.18512">
        <ele>82</ele>
        <time>2019-04-29T12:12:57Z</time>
      </trkpt>
      <trkpt lat="46.85526" lon="-1.1894">
        <ele>81</ele>
        <time>2019-04-29T12:13:57Z</time>
      </trkpt>
      <trkpt lat="46.85532" lon="-1.18974">
        <ele>80</ele>
        <time>2019-04-29T12:14:57Z</time>
      </trkpt>
      <trkpt lat="46.85536" lon="-1.19045">
        <ele>79</ele>
        <time>2019-04-29T12:15:57Z</time>
      </trkpt>
      <trkpt lat="46.85533" lon="-1.19194">
        <ele>78</ele>
        <time>2019-04-29T12:16:57Z</time>
      </trkpt>
      <trkpt lat="46.85536" lon="-1.19222">
        <ele>78</ele>
        <time>2019-04-29T12:17:57Z</time>
      </trkpt>
      <trkpt lat="46.85543" lon="-1.19251">
        <ele>78</ele>
        <time>2019-04-29T12:18:57Z</time>
      </trkpt>
      <trkpt lat="46.85553" lon="-1.19278">
        <ele>78</ele>
        <time>2019-04-29T12:19:57Z</time>
      </trkpt>
      <trkpt lat="46.85593" lon="-1.19377">
        <ele>77</ele>
        <time>2019-04-29T12:20:57Z</time>
      </trkpt>
      <trkpt lat="46.85748" lon="-1.19744">
        <ele>72</ele>
        <time>2019-04-29T12:21:57Z</time>
      </trkpt>
      <trkpt lat="46.85834" lon="-1.19973">
        <ele>70</ele>
        <time>2019-04-29T12:22:57Z</time>
      </trkpt>
      <trkpt lat="46.85849" lon="-1.20007">
        <ele>69</ele>
        <time>2019-04-29T12:23:57Z</time>
      </trkpt>
      <trkpt lat="46.85858" lon="-1.20017">
        <ele>69</ele>
        <time>2019-04-29T12:24:57Z</time>
      </trkpt>
      <trkpt lat="46.85869" lon="-1.20024">
        <ele>68</ele>
        <time>2019-04-29T12:25:57Z</time>
      </trkpt>
      <trkpt lat="46.85888" lon="-1.2003">
        <ele>67</ele>
        <time>2019-04-29T12:26:57Z</time>
      </trkpt>
      <trkpt lat="46.85934" lon="-1.20035">
        <ele>65</ele>
        <time>2019-04-29T12:27:57Z</time>
      </trkpt>
      <trkpt lat="46.8595" lon="-1.20039">
        <ele>65</ele>
        <time>2019-04-29T12:28:57Z</time>
      </trkpt>
      <trkpt lat="46.85982" lon="-1.20068">
        <ele>64</ele>
        <time>2019-04-29T12:29:57Z</time>
      </trkpt>
      <trkpt lat="46.85998" lon="-1.2009">
        <ele>63</ele>
        <time>2019-04-29T12:30:57Z</time>
      </trkpt>
      <trkpt lat="46.86043" lon="-1.20159">
        <ele>63</ele>
        <time>2019-04-29T12:31:57Z</time>
      </trkpt>
      <trkpt lat="46.86064" lon="-1.20213">
        <ele>62</ele>
        <time>2019-04-29T12:32:57Z</time>
      </trkpt>
      <trkpt lat="46.8607" lon="-1.20242">
        <ele>62</ele>
        <time>2019-04-29T12:33:57Z</time>
      </trkpt>
      <trkpt lat="46.86072" lon="-1.20263">
        <ele>61</ele>
        <time>2019-04-29T12:34:57Z</time>
      </trkpt>
      <trkpt lat="46.86073" lon="-1.20299">
        <ele>59</ele>
        <time>2019-04-29T12:35:57Z</time>
      </trkpt>
      <trkpt lat="46.8607" lon="-1.20353">
        <ele>56</ele>
        <time>2019-04-29T12:36:57Z</time>
      </trkpt>
      <trkpt lat="46.86063" lon="-1.20417">
        <ele>53</ele>
        <time>2019-04-29T12:37:57Z</time>
      </trkpt>
      <trkpt lat="46.86054" lon="-1.20452">
        <ele>56</ele>
        <time>2019-04-29T12:38:57Z</time>
      </trkpt>
      <trkpt lat="46.86043" lon="-1.20473">
        <ele>57</ele>
        <time>2019-04-29T12:39:57Z</time>
      </trkpt>
      <trkpt lat="46.86036" lon="-1.2048">
        <ele>58</ele>
        <time>2019-04-29T12:40:57Z</time>
      </trkpt>
      <trkpt lat="46.85957" lon="-1.20539">
        <ele>61</ele>
        <time>2019-04-29T12:41:57Z</time>
      </trkpt>
      <trkpt lat="46.85951" lon="-1.20548">
        <ele>61</ele>
        <time>2019-04-29T12:42:57Z</time>
      </trkpt>
      <trkpt lat="46.85939" lon="-1.20571">
        <ele>61</ele>
        <time>2019-04-29T12:43:57Z</time>
      </trkpt>
      <trkpt lat="46.85935" lon="-1.20594">
        <ele>62</ele>
        <time>2019-04-29T12:44:57Z</time>
      </trkpt>
      <trkpt lat="46.85893" lon="-1.20887">
        <ele>69</ele>
        <time>2019-04-29T12:45:57Z</time>
      </trkpt>
      <trkpt lat="46.85894" lon="-1.20924">
        <ele>70</ele>
        <time>2019-04-29T12:46:57Z</time>
      </trkpt>
      <trkpt lat="46.85897" lon="-1.20941">
        <ele>70</ele>
        <time>2019-04-29T12:47:57Z</time>
      </trkpt>
      <trkpt lat="46.85976" lon="-1.21183">
        <ele>76</ele>
        <time>2019-04-29T12:48:57Z</time>
      </trkpt>
      <trkpt lat="46.86068" lon="-1.21518">
        <ele>77</ele>
        <time>2019-04-29T12:49:57Z</time>
      </trkpt>
      <trkpt lat="46.86087" lon="-1.21582">
        <ele>77</ele>
        <time>2019-04-29T12:50:57Z</time>
      </trkpt>
      <trkpt lat="46.86203" lon="-1.2194">
        <ele>76</ele>
        <time>2019-04-29T12:51:57Z</time>
      </trkpt>
      <trkpt lat="46.86227" lon="-1.2203">
        <ele>75</ele>
        <time>2019-04-29T12:52:57Z</time>
      </trkpt>
      <trkpt lat="46.86344" lon="-1.22546">
        <ele>71</ele>
        <time>2019-04-29T12:53:57Z</time>
      </trkpt>
      <trkpt lat="46.86353" lon="-1.2257">
        <ele>71</ele>
        <time>2019-04-29T12:54:57Z</time>
      </trkpt>
      <trkpt lat="46.86367" lon="-1.22597">
        <ele>71</ele>
        <time>2019-04-29T12:55:57Z</time>
      </trkpt>
      <trkpt lat="46.86408" lon="-1.22662">
        <ele>73</ele>
        <time>2019-04-29T12:56:57Z</time>
      </trkpt>
      <trkpt lat="46.86433" lon="-1.22698">
        <ele>73</ele>
        <time>2019-04-29T12:57:57Z</time>
      </trkpt>
      <trkpt lat="46.86491" lon="-1.22769">
        <ele>72</ele>
        <time>2019-04-29T12:58:57Z</time>
      </trkpt>
      <trkpt lat="46.86503" lon="-1.22786">
        <ele>72</ele>
        <time>2019-04-29T12:59:57Z</time>
      </trkpt>
      <trkpt lat="46.86521" lon="-1.22819">
        <ele>72</ele>
        <time>2019-04-29T13:00:57Z</time>
      </trkpt>
      <trkpt lat="46.8654" lon="-1.22869">
        <ele>72</ele>
        <time>2019-04-29T13:01:57Z</time>
      </trkpt>
      <trkpt lat="46.86554" lon="-1.22914">
        <ele>72</ele>
        <time>2019-04-29T13:02:57Z</time>
      </trkpt>
      <trkpt lat="46.86567" lon="-1.22977">
        <ele>72</ele>
        <time>2019-04-29T13:03:57Z</time>
      </trkpt>
      <trkpt lat="46.86618" lon="-1.23241">
        <ele>72</ele>
        <time>2019-04-29T13:04:57Z</time>
      </trkpt>
      <trkpt lat="46.86622" lon="-1.23271">
        <ele>71</ele>
        <time>2019-04-29T13:05:57Z</time>
      </trkpt>
      <trkpt lat="46.86658" lon="-1.23712">
        <ele>68</ele>
        <time>2019-04-29T13:06:57Z</time>
      </trkpt>
      <trkpt lat="46.86677" lon="-1.2382">
        <ele>68</ele>
        <time>2019-04-29T13:07:57Z</time>
      </trkpt>
      <trkpt lat="46.8668" lon="-1.23871">
        <ele>68</ele>
        <time>2019-04-29T13:08:57Z</time>
      </trkpt>
      <trkpt lat="46.86681" lon="-1.23931">
        <ele>68</ele>
        <time>2019-04-29T13:09:57Z</time>
      </trkpt>
      <trkpt lat="46.86675" lon="-1.24012">
        <ele>68</ele>
        <time>2019-04-29T13:10:57Z</time>
      </trkpt>
      <trkpt lat="46.8668" lon="-1.24054">
        <ele>67</ele>
        <time>2019-04-29T13:11:57Z</time>
      </trkpt>
      <trkpt lat="46.86712" lon="-1.24272">
        <ele>58</ele>
        <time>2019-04-29T13:12:57Z</time>
      </trkpt>
      <trkpt lat="46.86712" lon="-1.24327">
        <ele>57</ele>
        <time>2019-04-29T13:13:57Z</time>
      </trkpt>
      <trkpt lat="46.86707" lon="-1.24437">
        <ele>55</ele>
        <time>2019-04-29T13:14:57Z</time>
      </trkpt>
      <trkpt lat="46.86704" lon="-1.24474">
        <ele>53</ele>
        <time>2019-04-29T13:15:57Z</time>
      </trkpt>
      <trkpt lat="46.86698" lon="-1.24496">
        <ele>53</ele>
        <time>2019-04-29T13:16:57Z</time>
      </trkpt>
      <trkpt lat="46.86674" lon="-1.24544">
        <ele>54</ele>
        <time>2019-04-29T13:17:57Z</time>
      </trkpt>
      <trkpt lat="46.8665" lon="-1.24602">
        <ele>54</ele>
        <time>2019-04-29T13:18:57Z</time>
      </trkpt>
      <trkpt lat="46.8661" lon="-1.24714">
        <ele>52</ele>
        <time>2019-04-29T13:19:57Z</time>
      </trkpt>
      <trkpt lat="46.86602" lon="-1.24726">
        <ele>51</ele>
        <time>2019-04-29T13:20:57Z</time>
      </trkpt>
      <trkpt lat="46.86594" lon="-1.24737">
        <ele>50</ele>
        <time>2019-04-29T13:21:57Z</time>
      </trkpt>
      <trkpt lat="46.86582" lon="-1.24745">
        <ele>49</ele>
        <time>2019-04-29T13:22:57Z</time>
      </trkpt>
      <trkpt lat="46.8655" lon="-1.24756">
        <ele>49</ele>
        <time>2019-04-29T13:23:57Z</time>
      </trkpt>
      <trkpt lat="46.86473" lon="-1.2477">
        <ele>49</ele>
        <time>2019-04-29T13:24:57Z</time>
      </trkpt>
      <trkpt lat="46.86459" lon="-1.24778">
        <ele>49</ele>
        <time>2019-04-29T13:25:57Z</time>
      </trkpt>
      <trkpt lat="46.86452" lon="-1.24785">
        <ele>49</ele>
        <time>2019-04-29T13:26:57Z</time>
      </trkpt>
      <trkpt lat="46.86445" lon="-1.24795">
        <ele>49</ele>
        <time>2019-04-29T13:27:57Z</time>
      </trkpt>
      <trkpt lat="46.86384" lon="-1.24935">
        <ele>51</ele>
        <time>2019-04-29T13:28:57Z</time>
      </trkpt>
      <trkpt lat="46.86376" lon="-1.24969">
        <ele>53</ele>
        <time>2019-04-29T13:29:57Z</time>
      </trkpt>
      <trkpt lat="46.86374" lon="-1.25045">
        <ele>55</ele>
        <time>2019-04-29T13:30:57Z</time>
      </trkpt>
      <trkpt lat="46.86366" lon="-1.25073">
        <ele>56</ele>
        <time>2019-04-29T13:31:57Z</time>
      </trkpt>
      <trkpt lat="46.86316" lon="-1.25157">
        <ele>57</ele>
        <time>2019-04-29T13:32:57Z</time>
      </trkpt>
      <trkpt lat="46.863" lon="-1.25189">
        <ele>58</ele>
        <time>2019-04-29T13:33:57Z</time>
      </trkpt>
      <trkpt lat="46.86193" lon="-1.25481">
        <ele>63</ele>
        <time>2019-04-29T13:34:57Z</time>
      </trkpt>
      <trkpt lat="46.8613" lon="-1.25637">
        <ele>66</ele>
        <time>2019-04-29T13:35:57Z</time>
      </trkpt>
      <trkpt lat="46.86124" lon="-1.25656">
        <ele>66</ele>
        <time>2019-04-29T13:36:57Z</time>
      </trkpt>
      <trkpt lat="46.86124" lon="-1.25676">
        <ele>66</ele>
        <time>2019-04-29T13:37:57Z</time>
      </trkpt>
      <trkpt lat="46.86155" lon="-1.25787">
        <ele>65</ele>
        <time>2019-04-29T13:38:57Z</time>
      </trkpt>
      <trkpt lat="46.86214" lon="-1.25973">
        <ele>63</ele>
        <time>2019-04-29T13:39:57Z</time>
      </trkpt>
      <trkpt lat="46.8623" lon="-1.26032">
        <ele>61</ele>
        <time>2019-04-29T13:40:57Z</time>
      </trkpt>
      <trkpt lat="46.8624" lon="-1.26092">
        <ele>59</ele>
        <time>2019-04-29T13:41:57Z</time>
      </trkpt>
      <trkpt lat="46.86246" lon="-1.26146">
        <ele>58</ele>
        <time>2019-04-29T13:42:57Z</time>
      </trkpt>
      <trkpt lat="46.86248" lon="-1.2617">
        <ele>58</ele>
        <time>2019-04-29T13:43:57Z</time>
      </trkpt>
      <trkpt lat="46.86247" lon="-1.26184">
        <ele>58</ele>
        <time>2019-04-29T13:44:57Z</time>
      </trkpt>
      <trkpt lat="46.86277" lon="-1.26205">
        <ele>58</ele>
        <time>2019-04-29T13:45:57Z</time>
      </trkpt>
      <trkpt lat="46.86332" lon="-1.26233">
        <ele>56</ele>
        <time>2019-04-29T13:46:57Z</time>
      </trkpt>
      <trkpt lat="46.86359" lon="-1.26251">
        <ele>57</ele>
        <time>2019-04-29T13:47:57Z</time>
      </trkpt>
      <trkpt lat="46.86435" lon="-1.26318">
        <ele>60</ele>
        <time>2019-04-29T13:48:57Z</time>
      </trkpt>
      <trkpt lat="46.86467" lon="-1.26335">
        <ele>61</ele>
        <time>2019-04-29T13:49:57Z</time>
      </trkpt>
      <trkpt lat="46.86483" lon="-1.2634">
        <ele>61</ele>
        <time>2019-04-29T13:50:57Z</time>
      </trkpt>
      <trkpt lat="46.865" lon="-1.26342">
        <ele>62</ele>
        <time>2019-04-29T13:51:57Z</time>
      </trkpt>
      <trkpt lat="46.86521" lon="-1.26339">
        <ele>62</ele>
        <time>2019-04-29T13:52:57Z</time>
      </trkpt>
      <trkpt lat="46.86542" lon="-1.26329">
        <ele>62</ele>
        <time>2019-04-29T13:53:57Z</time>
      </trkpt>
      <trkpt lat="46.86559" lon="-1.26315">
        <ele>62</ele>
        <time>2019-04-29T13:54:57Z</time>
      </trkpt>
      <trkpt lat="46.86612" lon="-1.26251">
        <ele>62</ele>
        <time>2019-04-29T13:55:57Z</time>
      </trkpt>
      <trkpt lat="46.86631" lon="-1.26241">
        <ele>61</ele>
        <time>2019-04-29T13:56:57Z</time>
      </trkpt>
      <trkpt lat="46.86642" lon="-1.26241">
        <ele>61</ele>
        <time>2019-04-29T13:57:57Z</time>
      </trkpt>
      <trkpt lat="46.86654" lon="-1.26245">
        <ele>61</ele>
        <time>2019-04-29T13:58:57Z</time>
      </trkpt>
      <trkpt lat="46.86812" lon="-1.26324">
        <ele>63</ele>
        <time>2019-04-29T13:59:57Z</time>
      </trkpt>
      <trkpt lat="46.86822" lon="-1.26333">
        <ele>63</ele>
        <time>2019-04-29T14:00:57Z</time>
      </trkpt>
      <trkpt lat="46.86828" lon="-1.26341">
        <ele>63</ele>
        <time>2019-04-29T14:01:57Z</time>
      </trkpt>
      <trkpt lat="46.86853" lon="-1.26322">
        <ele>63</ele>
        <time>2019-04-29T14:02:57Z</time>
      </trkpt>
      <trkpt lat="46.8686" lon="-1.26329">
        <ele>63</ele>
        <time>2019-04-29T14:03:57Z</time>
      </trkpt>
      <trkpt lat="46.87042" lon="-1.2644">
        <ele>64</ele>
        <time>2019-04-29T14:04:57Z</time>
      </trkpt>
      <trkpt lat="46.87087" lon="-1.26462">
        <ele>65</ele>
        <time>2019-04-29T14:05:57Z</time>
      </trkpt>
      <trkpt lat="46.87124" lon="-1.26472">
        <ele>65</ele>
        <time>2019-04-29T14:06:57Z</time>
      </trkpt>
      <trkpt lat="46.87523" lon="-1.26559">
        <ele>69</ele>
        <time>2019-04-29T14:07:57Z</time>
      </trkpt>
      <trkpt lat="46.87542" lon="-1.26567">
        <ele>70</ele>
        <time>2019-04-29T14:08:57Z</time>
      </trkpt>
      <trkpt lat="46.87566" lon="-1.26579">
        <ele>70</ele>
        <time>2019-04-29T14:09:57Z</time>
      </trkpt>
      <trkpt lat="46.87639" lon="-1.26626">
        <ele>69</ele>
        <time>2019-04-29T14:10:57Z</time>
      </trkpt>
      <trkpt lat="46.87733" lon="-1.26693">
        <ele>68</ele>
        <time>2019-04-29T14:11:57Z</time>
      </trkpt>
      <trkpt lat="46.87759" lon="-1.26722">
        <ele>68</ele>
        <time>2019-04-29T14:12:57Z</time>
      </trkpt>
      <trkpt lat="46.87945" lon="-1.2696">
        <ele>71</ele>
        <time>2019-04-29T14:13:57Z</time>
      </trkpt>
      <trkpt lat="46.87967" lon="-1.26981">
        <ele>71</ele>
        <time>2019-04-29T14:14:57Z</time>
      </trkpt>
      <trkpt lat="46.87973" lon="-1.26986">
        <ele>71</ele>
        <time>2019-04-29T14:15:57Z</time>
      </trkpt>
      <trkpt lat="46.88042" lon="-1.27008">
        <ele>73</ele>
        <time>2019-04-29T14:16:57Z</time>
      </trkpt>
      <trkpt lat="46.88057" lon="-1.27009">
        <ele>73</ele>
        <time>2019-04-29T14:17:57Z</time>
      </trkpt>
      <trkpt lat="46.88062" lon="-1.27008">
        <ele>73</ele>
        <time>2019-04-29T14:18:57Z</time>
      </trkpt>
      <trkpt lat="46.88067" lon="-1.27014">
        <ele>73</ele>
        <time>2019-04-29T14:19:57Z</time>
      </trkpt>
      <trkpt lat="46.88081" lon="-1.27039">
        <ele>73</ele>
        <time>2019-04-29T14:20:57Z</time>
      </trkpt>
      <trkpt lat="46.8809" lon="-1.27062">
        <ele>73</ele>
        <time>2019-04-29T14:21:57Z</time>
      </trkpt>
      <trkpt lat="46.88098" lon="-1.27096">
        <ele>72</ele>
        <time>2019-04-29T14:22:57Z</time>
      </trkpt>
      <trkpt lat="46.88101" lon="-1.27113">
        <ele>72</ele>
        <time>2019-04-29T14:23:57Z</time>
      </trkpt>
      <trkpt lat="46.88102" lon="-1.27152">
        <ele>71</ele>
        <time>2019-04-29T14:24:57Z</time>
      </trkpt>
      <trkpt lat="46.88094" lon="-1.27552">
        <ele>66</ele>
        <time>2019-04-29T14:25:57Z</time>
      </trkpt>
      <trkpt lat="46.88085" lon="-1.27601">
        <ele>66</ele>
        <time>2019-04-29T14:26:57Z</time>
      </trkpt>
      <trkpt lat="46.88057" lon="-1.2772">
        <ele>66</ele>
        <time>2019-04-29T14:27:57Z</time>
      </trkpt>
      <trkpt lat="46.8802" lon="-1.27828">
        <ele>68</ele>
        <time>2019-04-29T14:28:57Z</time>
      </trkpt>
      <trkpt lat="46.87862" lon="-1.28038">
        <ele>71</ele>
        <time>2019-04-29T14:29:57Z</time>
      </trkpt>
      <trkpt lat="46.87851" lon="-1.28059">
        <ele>71</ele>
        <time>2019-04-29T14:30:57Z</time>
      </trkpt>
      <trkpt lat="46.87817" lon="-1.28127">
        <ele>72</ele>
        <time>2019-04-29T14:31:57Z</time>
      </trkpt>
      <trkpt lat="46.87728" lon="-1.28392">
        <ele>70</ele>
        <time>2019-04-29T14:32:57Z</time>
      </trkpt>
      <trkpt lat="46.87712" lon="-1.28461">
        <ele>70</ele>
        <time>2019-04-29T14:33:57Z</time>
      </trkpt>
      <trkpt lat="46.87701" lon="-1.28525">
        <ele>70</ele>
        <time>2019-04-29T14:34:57Z</time>
      </trkpt>
      <trkpt lat="46.87698" lon="-1.28578">
        <ele>69</ele>
        <time>2019-04-29T14:35:57Z</time>
      </trkpt>
      <trkpt lat="46.87696" lon="-1.28773">
        <ele>71</ele>
        <time>2019-04-29T14:36:57Z</time>
      </trkpt>
      <trkpt lat="46.87692" lon="-1.28845">
        <ele>71</ele>
        <time>2019-04-29T14:37:57Z</time>
      </trkpt>
      <trkpt lat="46.87682" lon="-1.28907">
        <ele>72</ele>
        <time>2019-04-29T14:38:57Z</time>
      </trkpt>
      <trkpt lat="46.87677" lon="-1.28932">
        <ele>73</ele>
        <time>2019-04-29T14:39:57Z</time>
      </trkpt>
      <trkpt lat="46.8764" lon="-1.29063">
        <ele>73</ele>
        <time>2019-04-29T14:40:57Z</time>
      </trkpt>
      <trkpt lat="46.87626" lon="-1.29145">
        <ele>73</ele>
        <time>2019-04-29T14:41:57Z</time>
      </trkpt>
      <trkpt lat="46.87614" lon="-1.29254">
        <ele>70</ele>
        <time>2019-04-29T14:42:57Z</time>
      </trkpt>
      <trkpt lat="46.87628" lon="-1.29316">
        <ele>71</ele>
        <time>2019-04-29T14:43:57Z</time>
      </trkpt>
      <trkpt lat="46.87751" lon="-1.29636">
        <ele>72</ele>
        <time>2019-04-29T14:44:57Z</time>
      </trkpt>
      <trkpt lat="46.87762" lon="-1.29691">
        <ele>72</ele>
        <time>2019-04-29T14:45:57Z</time>
      </trkpt>
      <trkpt lat="46.87771" lon="-1.29753">
        <ele>72</ele>
        <time>2019-04-29T14:46:57Z</time>
      </trkpt>
      <trkpt lat="46.8778" lon="-1.29836">
        <ele>72</ele>
        <time>2019-04-29T14:47:57Z</time>
      </trkpt>
      <trkpt lat="46.87779" lon="-1.29944">
        <ele>72</ele>
        <time>2019-04-29T14:48:57Z</time>
      </trkpt>
      <trkpt lat="46.87774" lon="-1.30275">
        <ele>72</ele>
        <time>2019-04-29T14:49:57Z</time>
      </trkpt>
      <trkpt lat="46.8778" lon="-1.30325">
        <ele>71</ele>
        <time>2019-04-29T14:50:57Z</time>
      </trkpt>
      <trkpt lat="46.87902" lon="-1.30865">
        <ele>71</ele>
        <time>2019-04-29T14:51:57Z</time>
      </trkpt>
      <trkpt lat="46.87923" lon="-1.30926">
        <ele>70</ele>
        <time>2019-04-29T14:52:57Z</time>
      </trkpt>
      <trkpt lat="46.87987" lon="-1.31061">
        <ele>69</ele>
        <time>2019-04-29T14:53:57Z</time>
      </trkpt>
      <trkpt lat="46.88036" lon="-1.31172">
        <ele>69</ele>
        <time>2019-04-29T14:54:57Z</time>
      </trkpt>
      <trkpt lat="46.88046" lon="-1.31192">
        <ele>68</ele>
        <time>2019-04-29T14:55:57Z</time>
      </trkpt>
      <trkpt lat="46.88055" lon="-1.31202">
        <ele>68</ele>
        <time>2019-04-29T14:56:57Z</time>
      </trkpt>
      <trkpt lat="46.88079" lon="-1.31217">
        <ele>68</ele>
        <time>2019-04-29T14:57:57Z</time>
      </trkpt>
      <trkpt lat="46.8818" lon="-1.31258">
        <ele>67</ele>
        <time>2019-04-29T14:58:57Z</time>
      </trkpt>
      <trkpt lat="46.88207" lon="-1.31272">
        <ele>67</ele>
        <time>2019-04-29T14:59:57Z</time>
      </trkpt>
      <trkpt lat="46.88269" lon="-1.31319">
        <ele>68</ele>
        <time>2019-04-29T15:00:57Z</time>
      </trkpt>
      <trkpt lat="46.88284" lon="-1.31338">
        <ele>68</ele>
        <time>2019-04-29T15:01:57Z</time>
      </trkpt>
      <trkpt lat="46.88374" lon="-1.3147">
        <ele>68</ele>
        <time>2019-04-29T15:02:57Z</time>
      </trkpt>
      <trkpt lat="46.88406" lon="-1.31522">
        <ele>68</ele>
        <time>2019-04-29T15:03:57Z</time>
      </trkpt>
      <trkpt lat="46.8842" lon="-1.31551">
        <ele>67</ele>
        <time>2019-04-29T15:04:57Z</time>
      </trkpt>
      <trkpt lat="46.88459" lon="-1.31681">
        <ele>66</ele>
        <time>2019-04-29T15:05:57Z</time>
      </trkpt>
      <trkpt lat="46.88467" lon="-1.31702">
        <ele>65</ele>
        <time>2019-04-29T15:06:57Z</time>
      </trkpt>
      <trkpt lat="46.88483" lon="-1.31733">
        <ele>65</ele>
        <time>2019-04-29T15:07:57Z</time>
      </trkpt>
      <trkpt lat="46.88599" lon="-1.31942">
        <ele>65</ele>
        <time>2019-04-29T15:08:57Z</time>
      </trkpt>
      <trkpt lat="46.88606" lon="-1.31959">
        <ele>65</ele>
        <time>2019-04-29T15:09:57Z</time>
      </trkpt>
      <trkpt lat="46.88634" lon="-1.32051">
        <ele>65</ele>
        <time>2019-04-29T15:10:57Z</time>
      </trkpt>
      <trkpt lat="46.88659" lon="-1.32105">
        <ele>65</ele>
        <time>2019-04-29T15:11:57Z</time>
      </trkpt>
      <trkpt lat="46.88658" lon="-1.32124">
        <ele>65</ele>
        <time>2019-04-29T15:12:57Z</time>
      </trkpt>
      <trkpt lat="46.88685" lon="-1.32164">
        <ele>66</ele>
        <time>2019-04-29T15:13:57Z</time>
      </trkpt>
      <trkpt lat="46.88734" lon="-1.32243">
        <ele>65</ele>
        <time>2019-04-29T15:14:57Z</time>
      </trkpt>
      <trkpt lat="46.88747" lon="-1.32268">
        <ele>65</ele>
        <time>2019-04-29T15:15:57Z</time>
      </trkpt>
      <trkpt lat="46.88912" lon="-1.32697">
        <ele>52</ele>
        <time>2019-04-29T15:16:57Z</time>
      </trkpt>
      <trkpt lat="46.88935" lon="-1.32743">
        <ele>52</ele>
        <time>2019-04-29T15:17:57Z</time>
      </trkpt>
      <trkpt lat="46.89002" lon="-1.32819">
        <ele>55</ele>
        <time>2019-04-29T15:18:57Z</time>
      </trkpt>
      <trkpt lat="46.89101" lon="-1.32919">
        <ele>56</ele>
        <time>2019-04-29T15:19:57Z</time>
      </trkpt>
      <trkpt lat="46.89298" lon="-1.33124">
        <ele>61</ele>
        <time>2019-04-29T15:20:57Z</time>
      </trkpt>
      <trkpt lat="46.8935" lon="-1.33181">
        <ele>60</ele>
        <time>2019-04-29T15:21:57Z</time>
      </trkpt>
      <trkpt lat="46.89372" lon="-1.33215">
        <ele>61</ele>
        <time>2019-04-29T15:22:57Z</time>
      </trkpt>
      <trkpt lat="46.89603" lon="-1.33781">
        <ele>49</ele>
        <time>2019-04-29T15:23:57Z</time>
      </trkpt>
      <trkpt lat="46.89681" lon="-1.33977">
        <ele>48</ele>
        <time>2019-04-29T15:24:57Z</time>
      </trkpt>
      <trkpt lat="46.89935" lon="-1.34829">
        <ele>61</ele>
        <time>2019-04-29T15:25:57Z</time>
      </trkpt>
      <trkpt lat="46.89942" lon="-1.34856">
        <ele>61</ele>
        <time>2019-04-29T15:26:57Z</time>
      </trkpt>
      <trkpt lat="46.89945" lon="-1.34887">
        <ele>61</ele>
        <time>2019-04-29T15:27:57Z</time>
      </trkpt>
      <trkpt lat="46.89947" lon="-1.3493">
        <ele>62</ele>
        <time>2019-04-29T15:28:57Z</time>
      </trkpt>
      <trkpt lat="46.89948" lon="-1.35197">
        <ele>62</ele>
        <time>2019-04-29T15:29:57Z</time>
      </trkpt>
      <trkpt lat="46.89951" lon="-1.35235">
        <ele>61</ele>
        <time>2019-04-29T15:30:57Z</time>
      </trkpt>
      <trkpt lat="46.89954" lon="-1.35261">
        <ele>61</ele>
        <time>2019-04-29T15:31:57Z</time>
      </trkpt>
      <trkpt lat="46.89963" lon="-1.35286">
        <ele>62</ele>
        <time>2019-04-29T15:32:57Z</time>
      </trkpt>
      <trkpt lat="46.89979" lon="-1.35319">
        <ele>62</ele>
        <time>2019-04-29T15:33:57Z</time>
      </trkpt>
      <trkpt lat="46.90066" lon="-1.35393">
        <ele>63</ele>
        <time>2019-04-29T15:34:57Z</time>
      </trkpt>
      <trkpt lat="46.90088" lon="-1.35419">
        <ele>63</ele>
        <time>2019-04-29T15:35:57Z</time>
      </trkpt>
      <trkpt lat="46.90096" lon="-1.35432">
        <ele>63</ele>
        <time>2019-04-29T15:36:57Z</time>
      </trkpt>
      <trkpt lat="46.90104" lon="-1.35449">
        <ele>63</ele>
        <time>2019-04-29T15:37:57Z</time>
      </trkpt>
      <trkpt lat="46.90113" lon="-1.35471">
        <ele>63</ele>
        <time>2019-04-29T15:38:57Z</time>
      </trkpt>
      <trkpt lat="46.9012" lon="-1.35499">
        <ele>63</ele>
        <time>2019-04-29T15:39:57Z</time>
      </trkpt>
      <trkpt lat="46.90132" lon="-1.35552">
        <ele>63</ele>
        <time>2019-04-29T15:40:57Z</time>
      </trkpt>
      <trkpt lat="46.90159" lon="-1.35702">
        <ele>65</ele>
        <time>2019-04-29T15:41:57Z</time>
      </trkpt>
      <trkpt lat="46.90189" lon="-1.35797">
        <ele>66</ele>
        <time>2019-04-29T15:42:57Z</time>
      </trkpt>
      <trkpt lat="46.90202" lon="-1.35833">
        <ele>66</ele>
        <time>2019-04-29T15:43:57Z</time>
      </trkpt>
      <trkpt lat="46.90329" lon="-1.3613">
        <ele>64</ele>
        <time>2019-04-29T15:44:57Z</time>
      </trkpt>
      <trkpt lat="46.90429" lon="-1.36405">
        <ele>61</ele>
        <time>2019-04-29T15:45:57Z</time>
      </trkpt>
      <trkpt lat="46.90505" lon="-1.36538">
        <ele>61</ele>
        <time>2019-04-29T15:46:57Z</time>
      </trkpt>
      <trkpt lat="46.90591" lon="-1.36732">
        <ele>61</ele>
        <time>2019-04-29T15:47:57Z</time>
      </trkpt>
      <trkpt lat="46.90755" lon="-1.37083">
        <ele>66</ele>
        <time>2019-04-29T15:48:57Z</time>
      </trkpt>
      <trkpt lat="46.90794" lon="-1.37161">
        <ele>66</ele>
        <time>2019-04-29T15:49:57Z</time>
      </trkpt>
      <trkpt lat="46.90812" lon="-1.37188">
        <ele>66</ele>
        <time>2019-04-29T15:50:57Z</time>
      </trkpt>
      <trkpt lat="46.90852" lon="-1.37223">
        <ele>65</ele>
        <time>2019-04-29T15:51:57Z</time>
      </trkpt>
      <trkpt lat="46.90858" lon="-1.3723">
        <ele>65</ele>
        <time>2019-04-29T15:52:57Z</time>
      </trkpt>
      <trkpt lat="46.90864" lon="-1.37239">
        <ele>65</ele>
        <time>2019-04-29T15:53:57Z</time>
      </trkpt>
      <trkpt lat="46.90872" lon="-1.37259">
        <ele>65</ele>
        <time>2019-04-29T15:54:57Z</time>
      </trkpt>
      <trkpt lat="46.90882" lon="-1.373">
        <ele>65</ele>
        <time>2019-04-29T15:55:57Z</time>
      </trkpt>
      <trkpt lat="46.90885" lon="-1.37318">
        <ele>65</ele>
        <time>2019-04-29T15:56:57Z</time>
      </trkpt>
      <trkpt lat="46.90902" lon="-1.37328">
        <ele>65</ele>
        <time>2019-04-29T15:57:57Z</time>
      </trkpt>
      <trkpt lat="46.90927" lon="-1.37364">
        <ele>65</ele>
        <time>2019-04-29T15:58:57Z</time>
      </trkpt>
      <trkpt lat="46.90935" lon="-1.37372">
        <ele>65</ele>
        <time>2019-04-29T15:59:57Z</time>
      </trkpt>
      <trkpt lat="46.90958" lon="-1.37387">
        <ele>65</ele>
        <time>2019-04-29T16:00:57Z</time>
      </trkpt>
      <trkpt lat="46.91041" lon="-1.37427">
        <ele>65</ele>
        <time>2019-04-29T16:01:57Z</time>
      </trkpt>
      <trkpt lat="46.91112" lon="-1.37466">
        <ele>64</ele>
        <time>2019-04-29T16:02:57Z</time>
      </trkpt>
      <trkpt lat="46.91119" lon="-1.37471">
        <ele>64</ele>
        <time>2019-04-29T16:03:57Z</time>
      </trkpt>
      <trkpt lat="46.91126" lon="-1.37481">
        <ele>64</ele>
        <time>2019-04-29T16:04:57Z</time>
      </trkpt>
      <trkpt lat="46.91127" lon="-1.37486">
        <ele>64</ele>
        <time>2019-04-29T16:05:57Z</time>
      </trkpt>
      <trkpt lat="46.90888" lon="-1.3765">
        <ele>66</ele>
        <time>2019-04-29T16:06:57Z</time>
      </trkpt>
      <trkpt lat="46.90934" lon="-1.37742">
        <ele>66</ele>
        <time>2019-04-29T16:07:57Z</time>
      </trkpt>
      <trkpt lat="46.90967" lon="-1.37811">
        <ele>67</ele>
        <time>2019-04-29T16:08:57Z</time>
      </trkpt>
      <trkpt lat="46.90986" lon="-1.37849">
        <ele>67</ele>
        <time>2019-04-29T16:09:57Z</time>
      </trkpt>
      <trkpt lat="46.91007" lon="-1.37881">
        <ele>66</ele>
        <time>2019-04-29T16:10:57Z</time>
      </trkpt>
      <trkpt lat="46.91094" lon="-1.37995">
        <ele>65</ele>
        <time>2019-04-29T16:11:57Z</time>
      </trkpt>
      <trkpt lat="46.91135" lon="-1.38042">
        <ele>64</ele>
        <time>2019-04-29T16:12:57Z</time>
      </trkpt>
      <trkpt lat="46.9117" lon="-1.38071">
        <ele>64</ele>
        <time>2019-04-29T16:13:57Z</time>
      </trkpt>
      <trkpt lat="46.91186" lon="-1.38076">
        <ele>63</ele>
        <time>2019-04-29T16:14:57Z</time>
      </trkpt>
      <trkpt lat="46.9119" lon="-1.38073">
        <ele>63</ele>
        <time>2019-04-29T16:15:57Z</time>
      </trkpt>
      <trkpt lat="46.91195" lon="-1.38071">
        <ele>63</ele>
        <time>2019-04-29T16:16:57Z</time>
      </trkpt>
      <trkpt lat="46.912" lon="-1.38072">
        <ele>63</ele>
        <time>2019-04-29T16:17:57Z</time>
      </trkpt>
      <trkpt lat="46.91204" lon="-1.38076">
        <ele>63</ele>
        <time>2019-04-29T16:18:57Z</time>
      </trkpt>
      <trkpt lat="46.91206" lon="-1.38082">
        <ele>63</ele>
        <time>2019-04-29T16:19:57Z</time>
      </trkpt>
      <trkpt lat="46.91207" lon="-1.38089">
        <ele>63</ele>
        <time>2019-04-29T16:20:57Z</time>
      </trkpt>
      <trkpt lat="46.91221" lon="-1.38103">
        <ele>63</ele>
        <time>2019-04-29T16:21:57Z</time>
      </trkpt>
      <trkpt lat="46.91247" lon="-1.38114">
        <ele>62</ele>
        <time>2019-04-29T16:22:57Z</time>
      </trkpt>
      <trkpt lat="46.91279" lon="-1.38133">
        <ele>62</ele>
        <time>2019-04-29T16:23:57Z</time>
      </trkpt>
      <trkpt lat="46.91297" lon="-1.38149">
        <ele>61</ele>
        <time>2019-04-29T16:24:57Z</time>
      </trkpt>
      <trkpt lat="46.91349" lon="-1.38229">
        <ele>60</ele>
        <time>2019-04-29T16:25:57Z</time>
      </trkpt>
      <trkpt lat="46.91417" lon="-1.38307">
        <ele>60</ele>
        <time>2019-04-29T16:26:57Z</time>
      </trkpt>
      <trkpt lat="46.91507" lon="-1.38426">
        <ele>61</ele>
        <time>2019-04-29T16:27:57Z</time>
      </trkpt>
      <trkpt lat="46.91737" lon="-1.3874">
        <ele>61</ele>
        <time>2019-04-29T16:28:57Z</time>
      </trkpt>
      <trkpt lat="46.91829" lon="-1.38868">
        <ele>59</ele>
        <time>2019-04-29T16:29:57Z</time>
      </trkpt>
      <trkpt lat="46.91968" lon="-1.39055">
        <ele>57</ele>
        <time>2019-04-29T16:30:57Z</time>
      </trkpt>
      <trkpt lat="46.92205" lon="-1.39383">
        <ele>52</ele>
        <time>2019-04-29T16:31:57Z</time>
      </trkpt>
      <trkpt lat="46.92475" lon="-1.39748">
        <ele>55</ele>
        <time>2019-04-29T16:32:57Z</time>
      </trkpt>
      <trkpt lat="46.92543" lon="-1.39824">
        <ele>54</ele>
        <time>2019-04-29T16:33:57Z</time>
      </trkpt>
      <trkpt lat="46.92633" lon="-1.399">
        <ele>53</ele>
        <time>2019-04-29T16:34:57Z</time>
      </trkpt>
      <trkpt lat="46.93416" lon="-1.4049">
        <ele>47</ele>
        <time>2019-04-29T16:35:57Z</time>
      </trkpt>
      <trkpt lat="46.93571" lon="-1.40605">
        <ele>47</ele>
        <time>2019-04-29T16:36:57Z</time>
      </trkpt>
      <trkpt lat="46.93822" lon="-1.40796">
        <ele>47</ele>
        <time>2019-04-29T16:37:57Z</time>
      </trkpt>
      <trkpt lat="46.93871" lon="-1.40841">
        <ele>46</ele>
        <time>2019-04-29T16:38:57Z</time>
      </trkpt>
      <trkpt lat="46.9414" lon="-1.41115">
        <ele>50</ele>
        <time>2019-04-29T16:39:57Z</time>
      </trkpt>
      <trkpt lat="46.94171" lon="-1.41144">
        <ele>51</ele>
        <time>2019-04-29T16:40:57Z</time>
      </trkpt>
      <trkpt lat="46.94201" lon="-1.41167">
        <ele>51</ele>
        <time>2019-04-29T16:41:57Z</time>
      </trkpt>
      <trkpt lat="46.94534" lon="-1.41343">
        <ele>49</ele>
        <time>2019-04-29T16:42:57Z</time>
      </trkpt>
      <trkpt lat="46.94592" lon="-1.41378">
        <ele>48</ele>
        <time>2019-04-29T16:43:57Z</time>
      </trkpt>
      <trkpt lat="46.94953" lon="-1.41603">
        <ele>49</ele>
        <time>2019-04-29T16:44:57Z</time>
      </trkpt>
      <trkpt lat="46.9507" lon="-1.41674">
        <ele>46</ele>
        <time>2019-04-29T16:45:57Z</time>
      </trkpt>
      <trkpt lat="46.95222" lon="-1.41771">
        <ele>43</ele>
        <time>2019-04-29T16:46:57Z</time>
      </trkpt>
      <trkpt lat="46.96006" lon="-1.42263">
        <ele>41</ele>
        <time>2019-04-29T16:47:57Z</time>
      </trkpt>
      <trkpt lat="46.96426" lon="-1.42524">
        <ele>35</ele>
        <time>2019-04-29T16:48:57Z</time>
      </trkpt>
      <trkpt lat="46.96524" lon="-1.42588">
        <ele>35</ele>
        <time>2019-04-29T16:49:57Z</time>
      </trkpt>
      <trkpt lat="46.96543" lon="-1.42604">
        <ele>35</ele>
        <time>2019-04-29T16:50:57Z</time>
      </trkpt>
      <trkpt lat="46.96802" lon="-1.4288">
        <ele>32</ele>
        <time>2019-04-29T16:51:57Z</time>
      </trkpt>
      <trkpt lat="46.9682" lon="-1.42901">
        <ele>31</ele>
        <time>2019-04-29T16:52:57Z</time>
      </trkpt>
      <trkpt lat="46.9683" lon="-1.42915">
        <ele>30</ele>
        <time>2019-04-29T16:53:57Z</time>
      </trkpt>
      <trkpt lat="46.96897" lon="-1.42984">
        <ele>32</ele>
        <time>2019-04-29T16:54:57Z</time>
      </trkpt>
      <trkpt lat="46.9692" lon="-1.43006">
        <ele>33</ele>
        <time>2019-04-29T16:55:57Z</time>
      </trkpt>
      <trkpt lat="46.9696" lon="-1.43055">
        <ele>36</ele>
        <time>2019-04-29T16:56:57Z</time>
      </trkpt>
      <trkpt lat="46.96965" lon="-1.43064">
        <ele>37</ele>
        <time>2019-04-29T16:57:57Z</time>
      </trkpt>
      <trkpt lat="46.96968" lon="-1.43076">
        <ele>38</ele>
        <time>2019-04-29T16:58:57Z</time>
      </trkpt>
      <trkpt lat="46.96988" lon="-1.4324">
        <ele>41</ele>
        <time>2019-04-29T16:59:57Z</time>
      </trkpt>
      <trkpt lat="46.96988" lon="-1.43263">
        <ele>41</ele>
        <time>2019-04-29T17:00:57Z</time>
      </trkpt>
      <trkpt lat="46.97092" lon="-1.43237">
        <ele>40</ele>
        <time>2019-04-29T17:01:57Z</time>
      </trkpt>
      <trkpt lat="46.97092" lon="-1.43256">
        <ele>41</ele>
        <time>2019-04-29T17:02:57Z</time>
      </trkpt>
      <trkpt lat="46.97124" lon="-1.43368">
        <ele>40</ele>
        <time>2019-04-29T17:03:57Z</time>
      </trkpt>
      <trkpt lat="46.97131" lon="-1.43403">
        <ele>40</ele>
        <time>2019-04-29T17:04:57Z</time>
      </trkpt>
      <trkpt lat="46.97138" lon="-1.434">
        <ele>40</ele>
        <time>2019-04-29T17:05:57Z</time>
      </trkpt>
      <trkpt lat="46.97146" lon="-1.434">
        <ele>40</ele>
        <time>2019-04-29T17:06:57Z</time>
      </trkpt>
      <trkpt lat="46.97151" lon="-1.43388">
        <ele>40</ele>
        <time>2019-04-29T17:07:57Z</time>
      </trkpt>
      <trkpt lat="46.97157" lon="-1.43386">
        <ele>40</ele>
        <time>2019-04-29T17:08:57Z</time>
      </trkpt>
      <trkpt lat="46.97163" lon="-1.43389">
        <ele>40</ele>
        <time>2019-04-29T17:09:57Z</time>
      </trkpt>
      <trkpt lat="46.97167" lon="-1.43397">
        <ele>40</ele>
        <time>2019-04-29T17:10:57Z</time>
      </trkpt>
      <trkpt lat="46.97167" lon="-1.43404">
        <ele>40</ele>
        <time>2019-04-29T17:11:57Z</time>
      </trkpt>
      <trkpt lat="46.97164" lon="-1.43413">
        <ele>40</ele>
        <time>2019-04-29T17:12:57Z</time>
      </trkpt>
      <trkpt lat="46.97156" lon="-1.43417">
        <ele>40</ele>
        <time>2019-04-29T17:13:57Z</time>
      </trkpt>
      <trkpt lat="46.97152" lon="-1.43416">
        <ele>40</ele>
        <time>2019-04-29T17:14:57Z</time>
      </trkpt>
      <trkpt lat="46.97145" lon="-1.43448">
        <ele>39</ele>
        <time>2019-04-29T17:15:57Z</time>
      </trkpt>
      <trkpt lat="46.9714" lon="-1.43476">
        <ele>39</ele>
        <time>2019-04-29T17:16:57Z</time>
      </trkpt>
      <trkpt lat="46.97139" lon="-1.43508">
        <ele>39</ele>
        <time>2019-04-29T17:17:57Z</time>
      </trkpt>
      <trkpt lat="46.97251" lon="-1.43718">
        <ele>41</ele>
        <time>2019-04-29T17:18:57Z</time>
      </trkpt>
      <trkpt lat="46.9729" lon="-1.43783">
        <ele>40</ele>
        <time>2019-04-29T17:19:57Z</time>
      </trkpt>
      <trkpt lat="46.97312" lon="-1.43816">
        <ele>39</ele>
        <time>2019-04-29T17:20:57Z</time>
      </trkpt>
      <trkpt lat="46.97327" lon="-1.43842">
        <ele>39</ele>
        <time>2019-04-29T17:21:57Z</time>
      </trkpt>
      <trkpt lat="46.97335" lon="-1.43839">
        <ele>39</ele>
        <time>2019-04-29T17:22:57Z</time>
      </trkpt>
      <trkpt lat="46.97339" lon="-1.43844">
        <ele>39</ele>
        <time>2019-04-29T17:23:57Z</time>
      </trkpt>
      <trkpt lat="46.9734" lon="-1.43851">
        <ele>39</ele>
        <time>2019-04-29T17:24:57Z</time>
      </trkpt>
      <trkpt lat="46.97338" lon="-1.43857">
        <ele>39</ele>
        <time>2019-04-29T17:25:57Z</time>
      </trkpt>
      <trkpt lat="46.97381" lon="-1.43927">
        <ele>38</ele>
        <time>2019-04-29T17:26:57Z</time>
      </trkpt>
      <trkpt lat="46.97393" lon="-1.43958">
        <ele>38</ele>
        <time>2019-04-29T17:27:57Z</time>
      </trkpt>
      <trkpt lat="46.97428" lon="-1.44103">
        <ele>37</ele>
        <time>2019-04-29T17:28:57Z</time>
      </trkpt>
      <trkpt lat="46.9744" lon="-1.44138">
        <ele>37</ele>
        <time>2019-04-29T17:29:57Z</time>
      </trkpt>
      <trkpt lat="46.97503" lon="-1.44279">
        <ele>39</ele>
        <time>2019-04-29T17:30:57Z</time>
      </trkpt>
      <trkpt lat="46.97509" lon="-1.44298">
        <ele>38</ele>
        <time>2019-04-29T17:31:57Z</time>
      </trkpt>
      <trkpt lat="46.97515" lon="-1.44332">
        <ele>38</ele>
        <time>2019-04-29T17:32:57Z</time>
      </trkpt>
      <trkpt lat="46.97535" lon="-1.44622">
        <ele>38</ele>
        <time>2019-04-29T17:33:57Z</time>
      </trkpt>
      <trkpt lat="46.97538" lon="-1.44726">
        <ele>36</ele>
        <time>2019-04-29T17:34:57Z</time>
      </trkpt>
      <trkpt lat="46.97534" lon="-1.44807">
        <ele>35</ele>
        <time>2019-04-29T17:35:57Z</time>
      </trkpt>
      <trkpt lat="46.97514" lon="-1.45021">
        <ele>34</ele>
        <time>2019-04-29T17:36:57Z</time>
      </trkpt>
      <trkpt lat="46.97514" lon="-1.45057">
        <ele>33</ele>
        <time>2019-04-29T17:37:57Z</time>
      </trkpt>
      <trkpt lat="46.97525" lon="-1.45114">
        <ele>31</ele>
        <time>2019-04-29T17:38:57Z</time>
      </trkpt>
      <trkpt lat="46.97692" lon="-1.45885">
        <ele>30</ele>
        <time>2019-04-29T17:39:57Z</time>
      </trkpt>
      <trkpt lat="46.97708" lon="-1.4598">
        <ele>28</ele>
        <time>2019-04-29T17:40:57Z</time>
      </trkpt>
      <trkpt lat="46.97766" lon="-1.46402">
        <ele>26</ele>
        <time>2019-04-29T17:41:57Z</time>
      </trkpt>
      <trkpt lat="46.97769" lon="-1.4646">
        <ele>24</ele>
        <time>2019-04-29T17:42:57Z</time>
      </trkpt>
      <trkpt lat="46.97766" lon="-1.46493">
        <ele>23</ele>
        <time>2019-04-29T17:43:57Z</time>
      </trkpt>
      <trkpt lat="46.97762" lon="-1.4652">
        <ele>23</ele>
        <time>2019-04-29T17:44:57Z</time>
      </trkpt>
      <trkpt lat="46.97717" lon="-1.46749">
        <ele>25</ele>
        <time>2019-04-29T17:45:57Z</time>
      </trkpt>
      <trkpt lat="46.97713" lon="-1.46775">
        <ele>26</ele>
        <time>2019-04-29T17:46:57Z</time>
      </trkpt>
      <trkpt lat="46.97715" lon="-1.46794">
        <ele>26</ele>
        <time>2019-04-29T17:47:57Z</time>
      </trkpt>
      <trkpt lat="46.97719" lon="-1.46805">
        <ele>26</ele>
        <time>2019-04-29T17:48:57Z</time>
      </trkpt>
      <trkpt lat="46.97729" lon="-1.46822">
        <ele>26</ele>
        <time>2019-04-29T17:49:57Z</time>
      </trkpt>
      <trkpt lat="46.97901" lon="-1.47008">
        <ele>25</ele>
        <time>2019-04-29T17:50:57Z</time>
      </trkpt>
      <trkpt lat="46.97914" lon="-1.47026">
        <ele>25</ele>
        <time>2019-04-29T17:51:57Z</time>
      </trkpt>
      <trkpt lat="46.97932" lon="-1.4706">
        <ele>26</ele>
        <time>2019-04-29T17:52:57Z</time>
      </trkpt>
      <trkpt lat="46.97974" lon="-1.47181">
        <ele>26</ele>
        <time>2019-04-29T17:53:57Z</time>
      </trkpt>
      <trkpt lat="46.98001" lon="-1.47246">
        <ele>27</ele>
        <time>2019-04-29T17:54:57Z</time>
      </trkpt>
      <trkpt lat="46.9801" lon="-1.47262">
        <ele>27</ele>
        <time>2019-04-29T17:55:57Z</time>
      </trkpt>
      <trkpt lat="46.98033" lon="-1.47297">
        <ele>26</ele>
        <time>2019-04-29T17:56:57Z</time>
      </trkpt>
      <trkpt lat="46.98074" lon="-1.47349">
        <ele>24</ele>
        <time>2019-04-29T17:57:57Z</time>
      </trkpt>
      <trkpt lat="46.98086" lon="-1.47374">
        <ele>25</ele>
        <time>2019-04-29T17:58:57Z</time>
      </trkpt>
      <trkpt lat="46.98092" lon="-1.47399">
        <ele>25</ele>
        <time>2019-04-29T17:59:57Z</time>
      </trkpt>
      <trkpt lat="46.98096" lon="-1.47427">
        <ele>25</ele>
        <time>2019-04-29T18:00:57Z</time>
      </trkpt>
      <trkpt lat="46.98101" lon="-1.47477">
        <ele>24</ele>
        <time>2019-04-29T18:01:57Z</time>
      </trkpt>
      <trkpt lat="46.98101" lon="-1.4767">
        <ele>23</ele>
        <time>2019-04-29T18:02:57Z</time>
      </trkpt>
      <trkpt lat="46.98097" lon="-1.4799">
        <ele>27</ele>
        <time>2019-04-29T18:03:57Z</time>
      </trkpt>
      <trkpt lat="46.98098" lon="-1.48023">
        <ele>27</ele>
        <time>2019-04-29T18:04:57Z</time>
      </trkpt>
      <trkpt lat="46.98102" lon="-1.48067">
        <ele>27</ele>
        <time>2019-04-29T18:05:57Z</time>
      </trkpt>
      <trkpt lat="46.98107" lon="-1.48097">
        <ele>27</ele>
        <time>2019-04-29T18:06:57Z</time>
      </trkpt>
      <trkpt lat="46.98148" lon="-1.48292">
        <ele>28</ele>
        <time>2019-04-29T18:07:57Z</time>
      </trkpt>
      <trkpt lat="46.98163" lon="-1.48361">
        <ele>29</ele>
        <time>2019-04-29T18:08:57Z</time>
      </trkpt>
      <trkpt lat="46.9817" lon="-1.48383">
        <ele>28</ele>
        <time>2019-04-29T18:09:57Z</time>
      </trkpt>
      <trkpt lat="46.98183" lon="-1.4842">
        <ele>28</ele>
        <time>2019-04-29T18:10:57Z</time>
      </trkpt>
      <trkpt lat="46.98198" lon="-1.48453">
        <ele>28</ele>
        <time>2019-04-29T18:11:57Z</time>
      </trkpt>
      <trkpt lat="46.9828" lon="-1.48592">
        <ele>28</ele>
        <time>2019-04-29T18:12:57Z</time>
      </trkpt>
      <trkpt lat="46.98297" lon="-1.48628">
        <ele>29</ele>
        <time>2019-04-29T18:13:57Z</time>
      </trkpt>
      <trkpt lat="46.98308" lon="-1.48661">
        <ele>29</ele>
        <time>2019-04-29T18:14:57Z</time>
      </trkpt>
      <trkpt lat="46.98315" lon="-1.48699">
        <ele>30</ele>
        <time>2019-04-29T18:15:57Z</time>
      </trkpt>
      <trkpt lat="46.98319" lon="-1.48739">
        <ele>31</ele>
        <time>2019-04-29T18:16:57Z</time>
      </trkpt>
      <trkpt lat="46.98324" lon="-1.48844">
        <ele>33</ele>
        <time>2019-04-29T18:17:57Z</time>
      </trkpt>
      <trkpt lat="46.98324" lon="-1.4889">
        <ele>32</ele>
        <time>2019-04-29T18:18:57Z</time>
      </trkpt>
      <trkpt lat="46.9832" lon="-1.48942">
        <ele>31</ele>
        <time>2019-04-29T18:19:57Z</time>
      </trkpt>
      <trkpt lat="46.98312" lon="-1.48991">
        <ele>31</ele>
        <time>2019-04-29T18:20:57Z</time>
      </trkpt>
      <trkpt lat="46.98192" lon="-1.49434">
        <ele>31</ele>
        <time>2019-04-29T18:21:57Z</time>
      </trkpt>
      <trkpt lat="46.98174" lon="-1.49493">
        <ele>31</ele>
        <time>2019-04-29T18:22:57Z</time>
      </trkpt>
      <trkpt lat="46.98167" lon="-1.49507">
        <ele>31</ele>
        <time>2019-04-29T18:23:57Z</time>
      </trkpt>
      <trkpt lat="46.98037" lon="-1.49742">
        <ele>31</ele>
        <time>2019-04-29T18:24:57Z</time>
      </trkpt>
      <trkpt lat="46.9803" lon="-1.49756">
        <ele>31</ele>
        <time>2019-04-29T18:25:57Z</time>
      </trkpt>
      <trkpt lat="46.98019" lon="-1.4979">
        <ele>31</ele>
        <time>2019-04-29T18:26:57Z</time>
      </trkpt>
      <trkpt lat="46.98016" lon="-1.49809">
        <ele>31</ele>
        <time>2019-04-29T18:27:57Z</time>
      </trkpt>
      <trkpt lat="46.98015" lon="-1.49853">
        <ele>31</ele>
        <time>2019-04-29T18:28:57Z</time>
      </trkpt>
      <trkpt lat="46.9802" lon="-1.49882">
        <ele>31</ele>
        <time>2019-04-29T18:29:57Z</time>
      </trkpt>
      <trkpt lat="46.98029" lon="-1.49907">
        <ele>30</ele>
        <time>2019-04-29T18:30:57Z</time>
      </trkpt>
      <trkpt lat="46.9804" lon="-1.49925">
        <ele>30</ele>
        <time>2019-04-29T18:31:57Z</time>
      </trkpt>
      <trkpt lat="46.98162" lon="-1.50064">
        <ele>29</ele>
        <time>2019-04-29T18:32:57Z</time>
      </trkpt>
      <trkpt lat="46.98203" lon="-1.50119">
        <ele>30</ele>
        <time>2019-04-29T18:33:57Z</time>
      </trkpt>
      <trkpt lat="46.98254" lon="-1.50204">
        <ele>29</ele>
        <time>2019-04-29T18:34:57Z</time>
      </trkpt>
      <trkpt lat="46.98275" lon="-1.50244">
        <ele>28</ele>
        <time>2019-04-29T18:35:57Z</time>
      </trkpt>
      <trkpt lat="46.98313" lon="-1.50327">
        <ele>27</ele>
        <time>2019-04-29T18:36:57Z</time>
      </trkpt>
      <trkpt lat="46.9838" lon="-1.50501">
        <ele>24</ele>
        <time>2019-04-29T18:37:57Z</time>
      </trkpt>
      <trkpt lat="46.98392" lon="-1.50554">
        <ele>24</ele>
        <time>2019-04-29T18:38:57Z</time>
      </trkpt>
      <trkpt lat="46.98418" lon="-1.50724">
        <ele>23</ele>
        <time>2019-04-29T18:39:57Z</time>
      </trkpt>
      <trkpt lat="46.98424" lon="-1.50757">
        <ele>22</ele>
        <time>2019-04-29T18:40:57Z</time>
      </trkpt>
      <trkpt lat="46.98438" lon="-1.50793">
        <ele>21</ele>
        <time>2019-04-29T18:41:57Z</time>
      </trkpt>
      <trkpt lat="46.98451" lon="-1.50817">
        <ele>20</ele>
        <time>2019-04-29T18:42:57Z</time>
      </trkpt>
      <trkpt lat="46.98531" lon="-1.50937">
        <ele>20</ele>
        <time>2019-04-29T18:43:57Z</time>
      </trkpt>
      <trkpt lat="46.98543" lon="-1.5096">
        <ele>21</ele>
        <time>2019-04-29T18:44:57Z</time>
      </trkpt>
      <trkpt lat="46.98555" lon="-1.50988">
        <ele>23</ele>
        <time>2019-04-29T18:45:57Z</time>
      </trkpt>
      <trkpt lat="46.98575" lon="-1.51046">
        <ele>25</ele>
        <time>2019-04-29T18:46:57Z</time>
      </trkpt>
      <trkpt lat="46.98578" lon="-1.51045">
        <ele>25</ele>
        <time>2019-04-29T18:47:57Z</time>
      </trkpt>
      <trkpt lat="46.98585" lon="-1.51048">
        <ele>25</ele>
        <time>2019-04-29T18:48:57Z</time>
      </trkpt>
      <trkpt lat="46.98587" lon="-1.51052">
        <ele>25</ele>
        <time>2019-04-29T18:49:57Z</time>
      </trkpt>
      <trkpt lat="46.98588" lon="-1.51062">
        <ele>26</ele>
        <time>2019-04-29T18:50:57Z</time>
      </trkpt>
      <trkpt lat="46.98584" lon="-1.51071">
        <ele>26</ele>
        <time>2019-04-29T18:51:57Z</time>
      </trkpt>
      <trkpt lat="46.98581" lon="-1.51073">
        <ele>26</ele>
        <time>2019-04-29T18:52:57Z</time>
      </trkpt>
      <trkpt lat="46.9859" lon="-1.51122">
        <ele>27</ele>
        <time>2019-04-29T18:53:57Z</time>
      </trkpt>
      <trkpt lat="46.98594" lon="-1.51163">
        <ele>28</ele>
        <time>2019-04-29T18:54:57Z</time>
      </trkpt>
      <trkpt lat="46.98594" lon="-1.5122">
        <ele>28</ele>
        <time>2019-04-29T18:55:57Z</time>
      </trkpt>
      <trkpt lat="46.98588" lon="-1.51324">
        <ele>27</ele>
        <time>2019-04-29T18:56:57Z</time>
      </trkpt>
      <trkpt lat="46.98589" lon="-1.51351">
        <ele>27</ele>
        <time>2019-04-29T18:57:57Z</time>
      </trkpt>
      <trkpt lat="46.98595" lon="-1.5139">
        <ele>27</ele>
        <time>2019-04-29T18:58:57Z</time>
      </trkpt>
      <trkpt lat="46.98596" lon="-1.51418">
        <ele>27</ele>
        <time>2019-04-29T18:59:57Z</time>
      </trkpt>
      <trkpt lat="46.986" lon="-1.51419">
        <ele>27</ele>
        <time>2019-04-29T19:00:57Z</time>
      </trkpt>
      <trkpt lat="46.98608" lon="-1.51426">
        <ele>27</ele>
        <time>2019-04-29T19:01:57Z</time>
      </trkpt>
      <trkpt lat="46.98611" lon="-1.51432">
        <ele>27</ele>
        <time>2019-04-29T19:02:57Z</time>
      </trkpt>
      <trkpt lat="46.98612" lon="-1.51439">
        <ele>27</ele>
        <time>2019-04-29T19:03:57Z</time>
      </trkpt>
      <trkpt lat="46.9861" lon="-1.51452">
        <ele>27</ele>
        <time>2019-04-29T19:04:57Z</time>
      </trkpt>
      <trkpt lat="46.98607" lon="-1.51457">
        <ele>27</ele>
        <time>2019-04-29T19:05:57Z</time>
      </trkpt>
      <trkpt lat="46.98618" lon="-1.51482">
        <ele>26</ele>
        <time>2019-04-29T19:06:57Z</time>
      </trkpt>
      <trkpt lat="46.98663" lon="-1.51673">
        <ele>25</ele>
        <time>2019-04-29T19:07:57Z</time>
      </trkpt>
      <trkpt lat="46.98672" lon="-1.51694">
        <ele>25</ele>
        <time>2019-04-29T19:08:57Z</time>
      </trkpt>
      <trkpt lat="46.98717" lon="-1.51778">
        <ele>26</ele>
        <time>2019-04-29T19:09:57Z</time>
      </trkpt>
      <trkpt lat="46.98729" lon="-1.51812">
        <ele>25</ele>
        <time>2019-04-29T19:10:57Z</time>
      </trkpt>
      <trkpt lat="46.98738" lon="-1.51851">
        <ele>23</ele>
        <time>2019-04-29T19:11:57Z</time>
      </trkpt>
      <trkpt lat="46.98751" lon="-1.51962">
        <ele>24</ele>
        <time>2019-04-29T19:12:57Z</time>
      </trkpt>
      <trkpt lat="46.98744" lon="-1.51973">
        <ele>24</ele>
        <time>2019-04-29T19:13:57Z</time>
      </trkpt>
      <trkpt lat="46.98735" lon="-1.51981">
        <ele>24</ele>
        <time>2019-04-29T19:14:57Z</time>
      </trkpt>
      <trkpt lat="46.985" lon="-1.52131">
        <ele>18</ele>
        <time>2019-04-29T19:15:57Z</time>
      </trkpt>
      <trkpt lat="46.98507" lon="-1.52155">
        <ele>18</ele>
        <time>2019-04-29T19:16:57Z</time>
      </trkpt>
      <trkpt lat="46.98509" lon="-1.52177">
        <ele>19</ele>
        <time>2019-04-29T19:17:57Z</time>
      </trkpt>
      <trkpt lat="46.98509" lon="-1.52192">
        <ele>19</ele>
        <time>2019-04-29T19:18:57Z</time>
      </trkpt>
      <trkpt lat="46.98511" lon="-1.52243">
        <ele>20</ele>
        <time>2019-04-29T19:19:57Z</time>
      </trkpt>
      <trkpt lat="46.98513" lon="-1.52254">
        <ele>20</ele>
        <time>2019-04-29T19:20:57Z</time>
      </trkpt>
      <trkpt lat="46.98519" lon="-1.5227">
        <ele>21</ele>
        <time>2019-04-29T19:21:57Z</time>
      </trkpt>
      <trkpt lat="46.98527" lon="-1.52287">
        <ele>21</ele>
        <time>2019-04-29T19:22:57Z</time>
      </trkpt>
      <trkpt lat="46.98558" lon="-1.5232">
        <ele>22</ele>
        <time>2019-04-29T19:23:57Z</time>
      </trkpt>
      <trkpt lat="46.98611" lon="-1.52392">
        <ele>22</ele>
        <time>2019-04-29T19:24:57Z</time>
      </trkpt>
      <trkpt lat="46.98645" lon="-1.52426">
        <ele>22</ele>
        <time>2019-04-29T19:25:57Z</time>
      </trkpt>
      <trkpt lat="46.98787" lon="-1.52581">
        <ele>29</ele>
        <time>2019-04-29T19:26:57Z</time>
      </trkpt>
      <trkpt lat="46.98804" lon="-1.52606">
        <ele>30</ele>
        <time>2019-04-29T19:27:57Z</time>
      </trkpt>
      <trkpt lat="46.9887" lon="-1.52733">
        <ele>31</ele>
        <time>2019-04-29T19:28:57Z</time>
      </trkpt>
      <trkpt lat="46.9889" lon="-1.52781">
        <ele>30</ele>
        <time>2019-04-29T19:29:57Z</time>
      </trkpt>
      <trkpt lat="46.98924" lon="-1.5287">
        <ele>29</ele>
        <time>2019-04-29T19:30:57Z</time>
      </trkpt>
      <trkpt lat="46.98928" lon="-1.52887">
        <ele>29</ele>
        <time>2019-04-29T19:31:57Z</time>
      </trkpt>
      <trkpt lat="46.98932" lon="-1.52919">
        <ele>28</ele>
        <time>2019-04-29T19:32:57Z</time>
      </trkpt>
      <trkpt lat="46.98932" lon="-1.53091">
        <ele>25</ele>
        <time>2019-04-29T19:33:57Z</time>
      </trkpt>
      <trkpt lat="46.98937" lon="-1.53143">
        <ele>23</ele>
        <time>2019-04-29T19:34:57Z</time>
      </trkpt>
      <trkpt lat="46.98982" lon="-1.53405">
        <ele>21</ele>
        <time>2019-04-29T19:35:57Z</time>
      </trkpt>
      <trkpt lat="46.98984" lon="-1.53425">
        <ele>21</ele>
        <time>2019-04-29T19:36:57Z</time>
      </trkpt>
      <trkpt lat="46.98985" lon="-1.53458">
        <ele>21</ele>
        <time>2019-04-29T19:37:57Z</time>
      </trkpt>
      <trkpt lat="46.98979" lon="-1.5362">
        <ele>22</ele>
        <time>2019-04-29T19:38:57Z</time>
      </trkpt>
      <trkpt lat="46.98982" lon="-1.53646">
        <ele>22</ele>
        <time>2019-04-29T19:39:57Z</time>
      </trkpt>
      <trkpt lat="46.98989" lon="-1.53678">
        <ele>21</ele>
        <time>2019-04-29T19:40:57Z</time>
      </trkpt>
      <trkpt lat="46.99034" lon="-1.53818">
        <ele>19</ele>
        <time>2019-04-29T19:41:57Z</time>
      </trkpt>
      <trkpt lat="46.99037" lon="-1.53833">
        <ele>18</ele>
        <time>2019-04-29T19:42:57Z</time>
      </trkpt>
      <trkpt lat="46.99037" lon="-1.53851">
        <ele>18</ele>
        <time>2019-04-29T19:43:57Z</time>
      </trkpt>
      <trkpt lat="46.99035" lon="-1.53919">
        <ele>15</ele>
        <time>2019-04-29T19:44:57Z</time>
      </trkpt>
      <trkpt lat="46.99038" lon="-1.53946">
        <ele>15</ele>
        <time>2019-04-29T19:45:57Z</time>
      </trkpt>
      <trkpt lat="46.99043" lon="-1.53961">
        <ele>15</ele>
        <time>2019-04-29T19:46:57Z</time>
      </trkpt>
      <trkpt lat="46.99051" lon="-1.53974">
        <ele>15</ele>
        <time>2019-04-29T19:47:57Z</time>
      </trkpt>
      <trkpt lat="46.99086" lon="-1.54018">
        <ele>15</ele>
        <time>2019-04-29T19:48:57Z</time>
      </trkpt>
      <trkpt lat="46.99095" lon="-1.54048">
        <ele>15</ele>
        <time>2019-04-29T19:49:57Z</time>
      </trkpt>
      <trkpt lat="46.99095" lon="-1.54074">
        <ele>14</ele>
        <time>2019-04-29T19:50:57Z</time>
      </trkpt>
      <trkpt lat="46.99094" lon="-1.54085">
        <ele>13</ele>
        <time>2019-04-29T19:51:57Z</time>
      </trkpt>
      <trkpt lat="46.99085" lon="-1.54125">
        <ele>14</ele>
        <time>2019-04-29T19:52:57Z</time>
      </trkpt>
      <trkpt lat="46.99079" lon="-1.54155">
        <ele>15</ele>
        <time>2019-04-29T19:53:57Z</time>
      </trkpt>
      <trkpt lat="46.99076" lon="-1.54189">
        <ele>16</ele>
        <time>2019-04-29T19:54:57Z</time>
      </trkpt>
      <trkpt lat="46.99074" lon="-1.54222">
        <ele>17</ele>
        <time>2019-04-29T19:55:57Z</time>
      </trkpt>
      <trkpt lat="46.99075" lon="-1.54275">
        <ele>19</ele>
        <time>2019-04-29T19:56:57Z</time>
      </trkpt>
      <trkpt lat="46.99079" lon="-1.54308">
        <ele>19</ele>
        <time>2019-04-29T19:57:57Z</time>
      </trkpt>
      <trkpt lat="46.99099" lon="-1.54388">
        <ele>20</ele>
        <time>2019-04-29T19:58:57Z</time>
      </trkpt>
      <trkpt lat="46.99105" lon="-1.54442">
        <ele>21</ele>
        <time>2019-04-29T19:59:57Z</time>
      </trkpt>
      <trkpt lat="46.99105" lon="-1.54501">
        <ele>20</ele>
        <time>2019-04-29T20:00:57Z</time>
      </trkpt>
      <trkpt lat="46.99109" lon="-1.54519">
        <ele>20</ele>
        <time>2019-04-29T20:01:57Z</time>
      </trkpt>
      <trkpt lat="46.99115" lon="-1.5453">
        <ele>20</ele>
        <time>2019-04-29T20:02:57Z</time>
      </trkpt>
      <trkpt lat="46.99132" lon="-1.54544">
        <ele>20</ele>
        <time>2019-04-29T20:03:57Z</time>
      </trkpt>
      <trkpt lat="46.99184" lon="-1.54578">
        <ele>20</ele>
        <time>2019-04-29T20:04:57Z</time>
      </trkpt>
      <trkpt lat="46.99207" lon="-1.54585">
        <ele>20</ele>
        <time>2019-04-29T20:05:57Z</time>
      </trkpt>
      <trkpt lat="46.99254" lon="-1.5458">
        <ele>19</ele>
        <time>2019-04-29T20:06:57Z</time>
      </trkpt>
      <trkpt lat="46.99277" lon="-1.54581">
        <ele>19</ele>
        <time>2019-04-29T20:07:57Z</time>
      </trkpt>
      <trkpt lat="46.993" lon="-1.54586">
        <ele>19</ele>
        <time>2019-04-29T20:08:57Z</time>
      </trkpt>
      <trkpt lat="46.99311" lon="-1.54591">
        <ele>19</ele>
        <time>2019-04-29T20:09:57Z</time>
      </trkpt>
      <trkpt lat="46.99331" lon="-1.54607">
        <ele>19</ele>
        <time>2019-04-29T20:10:57Z</time>
      </trkpt>
      <trkpt lat="46.99341" lon="-1.54618">
        <ele>19</ele>
        <time>2019-04-29T20:11:57Z</time>
      </trkpt>
      <trkpt lat="46.99417" lon="-1.54723">
        <ele>16</ele>
        <time>2019-04-29T20:12:57Z</time>
      </trkpt>
      <trkpt lat="46.99424" lon="-1.54735">
        <ele>16</ele>
        <time>2019-04-29T20:13:57Z</time>
      </trkpt>
      <trkpt lat="46.99436" lon="-1.54765">
        <ele>14</ele>
        <time>2019-04-29T20:14:57Z</time>
      </trkpt>
      <trkpt lat="46.99574" lon="-1.55241">
        <ele>23</ele>
        <time>2019-04-29T20:15:57Z</time>
      </trkpt>
      <trkpt lat="46.99588" lon="-1.55276">
        <ele>23</ele>
        <time>2019-04-29T20:16:57Z</time>
      </trkpt>
      <trkpt lat="46.99609" lon="-1.55318">
        <ele>23</ele>
        <time>2019-04-29T20:17:57Z</time>
      </trkpt>
      <trkpt lat="46.9978" lon="-1.55602">
        <ele>25</ele>
        <time>2019-04-29T20:18:57Z</time>
      </trkpt>
      <trkpt lat="46.998" lon="-1.55635">
        <ele>24</ele>
        <time>2019-04-29T20:19:57Z</time>
      </trkpt>
      <trkpt lat="46.99819" lon="-1.55659">
        <ele>24</ele>
        <time>2019-04-29T20:20:57Z</time>
      </trkpt>
      <trkpt lat="46.99853" lon="-1.55689">
        <ele>24</ele>
        <time>2019-04-29T20:21:57Z</time>
      </trkpt>
      <trkpt lat="47.00014" lon="-1.55807">
        <ele>22</ele>
        <time>2019-04-29T20:22:57Z</time>
      </trkpt>
      <trkpt lat="47.00038" lon="-1.55826">
        <ele>22</ele>
        <time>2019-04-29T20:23:57Z</time>
      </trkpt>
      <trkpt lat="47.0005" lon="-1.5584">
        <ele>21</ele>
        <time>2019-04-29T20:24:57Z</time>
      </trkpt>
      <trkpt lat="47.00061" lon="-1.55856">
        <ele>22</ele>
        <time>2019-04-29T20:25:57Z</time>
      </trkpt>
      <trkpt lat="47.00103" lon="-1.55947">
        <ele>22</ele>
        <time>2019-04-29T20:26:57Z</time>
      </trkpt>
      <trkpt lat="47.00163" lon="-1.5605">
        <ele>23</ele>
        <time>2019-04-29T20:27:57Z</time>
      </trkpt>
      <trkpt lat="47.0018" lon="-1.56082">
        <ele>24</ele>
        <time>2019-04-29T20:28:57Z</time>
      </trkpt>
      <trkpt lat="47.00206" lon="-1.56154">
        <ele>24</ele>
        <time>2019-04-29T20:29:57Z</time>
      </trkpt>
      <trkpt lat="47.00215" lon="-1.56182">
        <ele>24</ele>
        <time>2019-04-29T20:30:57Z</time>
      </trkpt>
      <trkpt lat="47.00221" lon="-1.5622">
        <ele>25</ele>
        <time>2019-04-29T20:31:57Z</time>
      </trkpt>
      <trkpt lat="47.00262" lon="-1.56658">
        <ele>25</ele>
        <time>2019-04-29T20:32:57Z</time>
      </trkpt>
      <trkpt lat="47.00281" lon="-1.56848">
        <ele>24</ele>
        <time>2019-04-29T20:33:57Z</time>
      </trkpt>
      <trkpt lat="47.00285" lon="-1.56868">
        <ele>24</ele>
        <time>2019-04-29T20:34:57Z</time>
      </trkpt>
      <trkpt lat="47.00299" lon="-1.56906">
        <ele>24</ele>
        <time>2019-04-29T20:35:57Z</time>
      </trkpt>
      <trkpt lat="47.00306" lon="-1.56929">
        <ele>25</ele>
        <time>2019-04-29T20:36:57Z</time>
      </trkpt>
      <trkpt lat="47.00307" lon="-1.56943">
        <ele>25</ele>
        <time>2019-04-29T20:37:57Z</time>
      </trkpt>
      <trkpt lat="47.00303" lon="-1.5698">
        <ele>25</ele>
        <time>2019-04-29T20:38:57Z</time>
      </trkpt>
      <trkpt lat="47.00301" lon="-1.57042">
        <ele>25</ele>
        <time>2019-04-29T20:39:57Z</time>
      </trkpt>
      <trkpt lat="47.00303" lon="-1.57072">
        <ele>25</ele>
        <time>2019-04-29T20:40:57Z</time>
      </trkpt>
      <trkpt lat="47.00307" lon="-1.5709">
        <ele>25</ele>
        <time>2019-04-29T20:41:57Z</time>
      </trkpt>
      <trkpt lat="47.00335" lon="-1.57174">
        <ele>25</ele>
        <time>2019-04-29T20:42:57Z</time>
      </trkpt>
      <trkpt lat="47.00376" lon="-1.57275">
        <ele>24</ele>
        <time>2019-04-29T20:43:57Z</time>
      </trkpt>
      <trkpt lat="47.00432" lon="-1.57389">
        <ele>24</ele>
        <time>2019-04-29T20:44:57Z</time>
      </trkpt>
      <trkpt lat="47.0045" lon="-1.57431">
        <ele>24</ele>
        <time>2019-04-29T20:45:57Z</time>
      </trkpt>
      <trkpt lat="47.0049" lon="-1.57555">
        <ele>25</ele>
        <time>2019-04-29T20:46:57Z</time>
      </trkpt>
      <trkpt lat="47.005" lon="-1.57585">
        <ele>25</ele>
        <time>2019-04-29T20:47:57Z</time>
      </trkpt>
      <trkpt lat="47.00513" lon="-1.57615">
        <ele>24</ele>
        <time>2019-04-29T20:48:57Z</time>
      </trkpt>
      <trkpt lat="47.00541" lon="-1.57667">
        <ele>24</ele>
        <time>2019-04-29T20:49:57Z</time>
      </trkpt>
      <trkpt lat="47.00616" lon="-1.57792">
        <ele>23</ele>
        <time>2019-04-29T20:50:57Z</time>
      </trkpt>
      <trkpt lat="47.00638" lon="-1.57833">
        <ele>23</ele>
        <time>2019-04-29T20:51:57Z</time>
      </trkpt>
      <trkpt lat="47.00655" lon="-1.57872">
        <ele>24</ele>
        <time>2019-04-29T20:52:57Z</time>
      </trkpt>
      <trkpt lat="47.0069" lon="-1.57964">
        <ele>23</ele>
        <time>2019-04-29T20:53:57Z</time>
      </trkpt>
      <trkpt lat="47.00718" lon="-1.58029">
        <ele>22</ele>
        <time>2019-04-29T20:54:57Z</time>
      </trkpt>
      <trkpt lat="47.00763" lon="-1.58114">
        <ele>21</ele>
        <time>2019-04-29T20:55:57Z</time>
      </trkpt>
      <trkpt lat="47.00847" lon="-1.58253">
        <ele>19</ele>
        <time>2019-04-29T20:56:57Z</time>
      </trkpt>
      <trkpt lat="47.00856" lon="-1.58271">
        <ele>19</ele>
        <time>2019-04-29T20:57:57Z</time>
      </trkpt>
      <trkpt lat="47.00878" lon="-1.58305">
        <ele>19</ele>
        <time>2019-04-29T20:58:57Z</time>
      </trkpt>
      <trkpt lat="47.00883" lon="-1.58308">
        <ele>19</ele>
        <time>2019-04-29T20:59:57Z</time>
      </trkpt>
      <trkpt lat="47.00892" lon="-1.58309">
        <ele>19</ele>
        <time>2019-04-29T21:00:57Z</time>
      </trkpt>
      <trkpt lat="47.0092" lon="-1.58297">
        <ele>18</ele>
        <time>2019-04-29T21:01:57Z</time>
      </trkpt>
      <trkpt lat="47.00936" lon="-1.58295">
        <ele>19</ele>
        <time>2019-04-29T21:02:57Z</time>
      </trkpt>
      <trkpt lat="47.00949" lon="-1.58304">
        <ele>18</ele>
        <time>2019-04-29T21:03:57Z</time>
      </trkpt>
      <trkpt lat="47.00967" lon="-1.58338">
        <ele>18</ele>
        <time>2019-04-29T21:04:57Z</time>
      </trkpt>
      <trkpt lat="47.00977" lon="-1.58348">
        <ele>18</ele>
        <time>2019-04-29T21:05:57Z</time>
      </trkpt>
      <trkpt lat="47.00988" lon="-1.58347">
        <ele>18</ele>
        <time>2019-04-29T21:06:57Z</time>
      </trkpt>
      <trkpt lat="47.01012" lon="-1.58331">
        <ele>18</ele>
        <time>2019-04-29T21:07:57Z</time>
      </trkpt>
      <trkpt lat="47.01039" lon="-1.58393">
        <ele>17</ele>
        <time>2019-04-29T21:08:57Z</time>
      </trkpt>
      <trkpt lat="47.01064" lon="-1.58444">
        <ele>16</ele>
        <time>2019-04-29T21:09:57Z</time>
      </trkpt>
      <trkpt lat="47.01087" lon="-1.58481">
        <ele>14</ele>
        <time>2019-04-29T21:10:57Z</time>
      </trkpt>
      <trkpt lat="47.01101" lon="-1.58501">
        <ele>14</ele>
        <time>2019-04-29T21:11:57Z</time>
      </trkpt>
      <trkpt lat="47.0112" lon="-1.58519">
        <ele>14</ele>
        <time>2019-04-29T21:12:57Z</time>
      </trkpt>
      <trkpt lat="47.01135" lon="-1.58527">
        <ele>14</ele>
        <time>2019-04-29T21:13:57Z</time>
      </trkpt>
      <trkpt lat="47.01163" lon="-1.58535">
        <ele>14</ele>
        <time>2019-04-29T21:14:57Z</time>
      </trkpt>
      <trkpt lat="47.01282" lon="-1.58556">
        <ele>14</ele>
        <time>2019-04-29T21:15:57Z</time>
      </trkpt>
      <trkpt lat="47.0131" lon="-1.58564">
        <ele>14</ele>
        <time>2019-04-29T21:16:57Z</time>
      </trkpt>
      <trkpt lat="47.01348" lon="-1.5858">
        <ele>13</ele>
        <time>2019-04-29T21:17:57Z</time>
      </trkpt>
      <trkpt lat="47.01387" lon="-1.58609">
        <ele>11</ele>
        <time>2019-04-29T21:18:57Z</time>
      </trkpt>
      <trkpt lat="47.01475" lon="-1.58703">
        <ele>12</ele>
        <time>2019-04-29T21:19:57Z</time>
      </trkpt>
      <trkpt lat="47.0154" lon="-1.58768">
        <ele>11</ele>
        <time>2019-04-29T21:20:57Z</time>
      </trkpt>
      <trkpt lat="47.01559" lon="-1.58791">
        <ele>11</ele>
        <time>2019-04-29T21:21:57Z</time>
      </trkpt>
      <trkpt lat="47.01566" lon="-1.58802">
        <ele>11</ele>
        <time>2019-04-29T21:22:57Z</time>
      </trkpt>
      <trkpt lat="47.01576" lon="-1.58824">
        <ele>10</ele>
        <time>2019-04-29T21:23:57Z</time>
      </trkpt>
      <trkpt lat="47.01584" lon="-1.58851">
        <ele>9</ele>
        <time>2019-04-29T21:24:57Z</time>
      </trkpt>
      <trkpt lat="47.01591" lon="-1.58907">
        <ele>8</ele>
        <time>2019-04-29T21:25:57Z</time>
      </trkpt>
      <trkpt lat="47.01609" lon="-1.59192">
        <ele>10</ele>
        <time>2019-04-29T21:26:57Z</time>
      </trkpt>
      <trkpt lat="47.01619" lon="-1.59263">
        <ele>11</ele>
        <time>2019-04-29T21:27:57Z</time>
      </trkpt>
      <trkpt lat="47.01643" lon="-1.59347">
        <ele>12</ele>
        <time>2019-04-29T21:28:57Z</time>
      </trkpt>
      <trkpt lat="47.0255" lon="-1.6156">
        <ele>13</ele>
        <time>2019-04-29T21:29:57Z</time>
      </trkpt>
      <trkpt lat="47.02761" lon="-1.62069">
        <ele>10</ele>
        <time>2019-04-29T21:30:57Z</time>
      </trkpt>
      <trkpt lat="47.02784" lon="-1.62116">
        <ele>9</ele>
        <time>2019-04-29T21:31:57Z</time>
      </trkpt>
      <trkpt lat="47.02812" lon="-1.62164">
        <ele>9</ele>
        <time>2019-04-29T21:32:57Z</time>
      </trkpt>
      <trkpt lat="47.02896" lon="-1.62291">
        <ele>7</ele>
        <time>2019-04-29T21:33:57Z</time>
      </trkpt>
      <trkpt lat="47.02984" lon="-1.6243">
        <ele>6</ele>
        <time>2019-04-29T21:34:57Z</time>
      </trkpt>
      <trkpt lat="47.03001" lon="-1.6245">
        <ele>6</ele>
        <time>2019-04-29T21:35:57Z</time>
      </trkpt>
      <trkpt lat="47.03005" lon="-1.62448">
        <ele>6</ele>
        <time>2019-04-29T21:36:57Z</time>
      </trkpt>
      <trkpt lat="47.03014" lon="-1.62451">
        <ele>7</ele>
        <time>2019-04-29T21:37:57Z</time>
      </trkpt>
      <trkpt lat="47.03019" lon="-1.62457">
        <ele>7</ele>
        <time>2019-04-29T21:38:57Z</time>
      </trkpt>
      <trkpt lat="47.03022" lon="-1.62465">
        <ele>7</ele>
        <time>2019-04-29T21:39:57Z</time>
      </trkpt>
      <trkpt lat="47.03023" lon="-1.62474">
        <ele>7</ele>
        <time>2019-04-29T21:40:57Z</time>
      </trkpt>
      <trkpt lat="47.03021" lon="-1.62482">
        <ele>7</ele>
        <time>2019-04-29T21:41:57Z</time>
      </trkpt>
      <trkpt lat="47.03017" lon="-1.62489">
        <ele>7</ele>
        <time>2019-04-29T21:42:57Z</time>
      </trkpt>
      <trkpt lat="47.03016" lon="-1.62509">
        <ele>7</ele>
        <time>2019-04-29T21:43:57Z</time>
      </trkpt>
      <trkpt lat="47.03017" lon="-1.62523">
        <ele>7</ele>
        <time>2019-04-29T21:44:57Z</time>
      </trkpt>
      <trkpt lat="47.03026" lon="-1.62571">
        <ele>6</ele>
        <time>2019-04-29T21:45:57Z</time>
      </trkpt>
      <trkpt lat="47.03086" lon="-1.62859">
        <ele>6</ele>
        <time>2019-04-29T21:46:57Z</time>
      </trkpt>
      <trkpt lat="47.03099" lon="-1.62893">
        <ele>5</ele>
        <time>2019-04-29T21:47:57Z</time>
      </trkpt>
      <trkpt lat="47.03102" lon="-1.62894">
        <ele>5</ele>
        <time>2019-04-29T21:48:57Z</time>
      </trkpt>
      <trkpt lat="47.03108" lon="-1.62902">
        <ele>5</ele>
        <time>2019-04-29T21:49:57Z</time>
      </trkpt>
      <trkpt lat="47.03108" lon="-1.62915">
        <ele>5</ele>
        <time>2019-04-29T21:50:57Z</time>
      </trkpt>
      <trkpt lat="47.03105" lon="-1.62923">
        <ele>5</ele>
        <time>2019-04-29T21:51:57Z</time>
      </trkpt>
      <trkpt lat="47.03105" lon="-1.62932">
        <ele>5</ele>
        <time>2019-04-29T21:52:57Z</time>
      </trkpt>
      <trkpt lat="47.03109" lon="-1.62969">
        <ele>5</ele>
        <time>2019-04-29T21:53:57Z</time>
      </trkpt>
      <trkpt lat="47.03234" lon="-1.63575">
        <ele>8</ele>
        <time>2019-04-29T21:54:57Z</time>
      </trkpt>
      <trkpt lat="47.03236" lon="-1.63587">
        <ele>8</ele>
        <time>2019-04-29T21:55:57Z</time>
      </trkpt>
      <trkpt lat="47.03235" lon="-1.63602">
        <ele>8</ele>
        <time>2019-04-29T21:56:57Z</time>
      </trkpt>
      <trkpt lat="47.03227" lon="-1.63621">
        <ele>8</ele>
        <time>2019-04-29T21:57:57Z</time>
      </trkpt>
      <trkpt lat="47.03237" lon="-1.63631">
        <ele>8</ele>
        <time>2019-04-29T21:58:57Z</time>
      </trkpt>
      <trkpt lat="47.0325" lon="-1.63637">
        <ele>7</ele>
        <time>2019-04-29T21:59:57Z</time>
      </trkpt>
      <trkpt lat="47.03266" lon="-1.63652">
        <ele>7</ele>
        <time>2019-04-29T22:00:57Z</time>
      </trkpt>
      <trkpt lat="47.03284" lon="-1.63672">
        <ele>7</ele>
        <time>2019-04-29T22:01:57Z</time>
      </trkpt>
      <trkpt lat="47.03515" lon="-1.63882">
        <ele>4</ele>
        <time>2019-04-29T22:02:57Z</time>
      </trkpt>
      <trkpt lat="47.03517" lon="-1.63879">
        <ele>4</ele>
        <time>2019-04-29T22:03:57Z</time>
      </trkpt>
      <trkpt lat="47.03523" lon="-1.63875">
        <ele>4</ele>
        <time>2019-04-29T22:04:57Z</time>
      </trkpt>
      <trkpt lat="47.03526" lon="-1.63876">
        <ele>4</ele>
        <time>2019-04-29T22:05:57Z</time>
      </trkpt>
      <trkpt lat="47.03529" lon="-1.6388">
        <ele>4</ele>
        <time>2019-04-29T22:06:57Z</time>
      </trkpt>
      <trkpt lat="47.03536" lon="-1.63897">
        <ele>4</ele>
        <time>2019-04-29T22:07:57Z</time>
      </trkpt>
      <trkpt lat="47.03537" lon="-1.639">
        <ele>4</ele>
        <time>2019-04-29T22:08:57Z</time>
      </trkpt>
      <trkpt lat="47.03533" lon="-1.6391">
        <ele>3</ele>
        <time>2019-04-29T22:09:57Z</time>
      </trkpt>
      <trkpt lat="47.03579" lon="-1.64019">
        <ele>5</ele>
        <time>2019-04-29T22:10:57Z</time>
      </trkpt>
      <trkpt lat="47.03586" lon="-1.64014">
        <ele>5</ele>
        <time>2019-04-29T22:11:57Z</time>
      </trkpt>
      <trkpt lat="47.0359" lon="-1.64015">
        <ele>5</ele>
        <time>2019-04-29T22:12:57Z</time>
      </trkpt>
      <trkpt lat="47.03596" lon="-1.64016">
        <ele>6</ele>
        <time>2019-04-29T22:13:57Z</time>
      </trkpt>
      <trkpt lat="47.03603" lon="-1.64023">
        <ele>6</ele>
        <time>2019-04-29T22:14:57Z</time>
      </trkpt>
      <trkpt lat="47.03669" lon="-1.64183">
        <ele>7</ele>
        <time>2019-04-29T22:15:57Z</time>
      </trkpt>
      <trkpt lat="47.03669" lon="-1.64193">
        <ele>7</ele>
        <time>2019-04-29T22:16:57Z</time>
      </trkpt>
      <trkpt lat="47.03668" lon="-1.64199">
        <ele>7</ele>
        <time>2019-04-29T22:17:57Z</time>
      </trkpt>
      <trkpt lat="47.03658" lon="-1.64208">
        <ele>7</ele>
        <time>2019-04-29T22:18:57Z</time>
      </trkpt>
      <trkpt lat="47.03679" lon="-1.64258">
        <ele>6</ele>
        <time>2019-04-29T22:19:57Z</time>
      </trkpt>
      <trkpt lat="47.03726" lon="-1.64349">
        <ele>5</ele>
        <time>2019-04-29T22:20:57Z</time>
      </trkpt>
      <trkpt lat="47.03745" lon="-1.64408">
        <ele>6</ele>
        <time>2019-04-29T22:21:57Z</time>
      </trkpt>
      <trkpt lat="47.03754" lon="-1.64446">
        <ele>6</ele>
        <time>2019-04-29T22:22:57Z</time>
      </trkpt>
      <trkpt lat="47.03756" lon="-1.64507">
        <ele>6</ele>
        <time>2019-04-29T22:23:57Z</time>
      </trkpt>
      <trkpt lat="47.03756" lon="-1.64529">
        <ele>6</ele>
        <time>2019-04-29T22:24:57Z</time>
      </trkpt>
      <trkpt lat="47.03742" lon="-1.64704">
        <ele>6</ele>
        <time>2019-04-29T22:25:57Z</time>
      </trkpt>
      <trkpt lat="47.03738" lon="-1.64719">
        <ele>6</ele>
        <time>2019-04-29T22:26:57Z</time>
      </trkpt>
      <trkpt lat="47.03731" lon="-1.64739">
        <ele>6</ele>
        <time>2019-04-29T22:27:57Z</time>
      </trkpt>
      <trkpt lat="47.03732" lon="-1.64753">
        <ele>6</ele>
        <time>2019-04-29T22:28:57Z</time>
      </trkpt>
      <trkpt lat="47.03727" lon="-1.64786">
        <ele>7</ele>
        <time>2019-04-29T22:29:57Z</time>
      </trkpt>
      <trkpt lat="47.03681" lon="-1.64911">
        <ele>8</ele>
        <time>2019-04-29T22:30:57Z</time>
      </trkpt>
      <trkpt lat="47.03661" lon="-1.64959">
        <ele>8</ele>
        <time>2019-04-29T22:31:57Z</time>
      </trkpt>
      <trkpt lat="47.03665" lon="-1.64969">
        <ele>8</ele>
        <time>2019-04-29T22:32:57Z</time>
      </trkpt>
      <trkpt lat="47.03664" lon="-1.64972">
        <ele>8</ele>
        <time>2019-04-29T22:33:57Z</time>
      </trkpt>
      <trkpt lat="47.03662" lon="-1.64977">
        <ele>8</ele>
        <time>2019-04-29T22:34:57Z</time>
      </trkpt>
      <trkpt lat="47.03656" lon="-1.64977">
        <ele>8</ele>
        <time>2019-04-29T22:35:57Z</time>
      </trkpt>
      <trkpt lat="47.03527" lon="-1.65331">
        <ele>12</ele>
        <time>2019-04-29T22:36:57Z</time>
      </trkpt>
      <trkpt lat="47.0348" lon="-1.65454">
        <ele>13</ele>
        <time>2019-04-29T22:37:57Z</time>
      </trkpt>
      <trkpt lat="47.03466" lon="-1.65477">
        <ele>13</ele>
        <time>2019-04-29T22:38:57Z</time>
      </trkpt>
      <trkpt lat="47.03468" lon="-1.65487">
        <ele>13</ele>
        <time>2019-04-29T22:39:57Z</time>
      </trkpt>
      <trkpt lat="47.03466" lon="-1.65493">
        <ele>13</ele>
        <time>2019-04-29T22:40:57Z</time>
      </trkpt>
      <trkpt lat="47.03464" lon="-1.65495">
        <ele>13</ele>
        <time>2019-04-29T22:41:57Z</time>
      </trkpt>
      <trkpt lat="47.03458" lon="-1.65496">
        <ele>13</ele>
        <time>2019-04-29T22:42:57Z</time>
      </trkpt>
      <trkpt lat="47.03454" lon="-1.65491">
        <ele>13</ele>
        <time>2019-04-29T22:43:57Z</time>
      </trkpt>
      <trkpt lat="47.03435" lon="-1.65506">
        <ele>14</ele>
        <time>2019-04-29T22:44:57Z</time>
      </trkpt>
      <trkpt lat="47.03427" lon="-1.6551">
        <ele>14</ele>
        <time>2019-04-29T22:45:57Z</time>
      </trkpt>
      <trkpt lat="47.03383" lon="-1.65522">
        <ele>15</ele>
        <time>2019-04-29T22:46:57Z</time>
      </trkpt>
      <trkpt lat="47.0334" lon="-1.65561">
        <ele>16</ele>
        <time>2019-04-29T22:47:57Z</time>
      </trkpt>
      <trkpt lat="47.03344" lon="-1.6557">
        <ele>16</ele>
        <time>2019-04-29T22:48:57Z</time>
      </trkpt>
      <trkpt lat="47.03345" lon="-1.65581">
        <ele>16</ele>
        <time>2019-04-29T22:49:57Z</time>
      </trkpt>
      <trkpt lat="47.03344" lon="-1.6559">
        <ele>16</ele>
        <time>2019-04-29T22:50:57Z</time>
      </trkpt>
      <trkpt lat="47.03341" lon="-1.65599">
        <ele>16</ele>
        <time>2019-04-29T22:51:57Z</time>
      </trkpt>
      <trkpt lat="47.03337" lon="-1.65606">
        <ele>16</ele>
        <time>2019-04-29T22:52:57Z</time>
      </trkpt>
      <trkpt lat="47.03331" lon="-1.6561">
        <ele>16</ele>
        <time>2019-04-29T22:53:57Z</time>
      </trkpt>
      <trkpt lat="47.03325" lon="-1.65612">
        <ele>17</ele>
        <time>2019-04-29T22:54:57Z</time>
      </trkpt>
      <trkpt lat="47.03318" lon="-1.65611">
        <ele>17</ele>
        <time>2019-04-29T22:55:57Z</time>
      </trkpt>
      <trkpt lat="47.03313" lon="-1.65652">
        <ele>17</ele>
        <time>2019-04-29T22:56:57Z</time>
      </trkpt>
      <trkpt lat="47.03313" lon="-1.65679">
        <ele>17</ele>
        <time>2019-04-29T22:57:57Z</time>
      </trkpt>
      <trkpt lat="47.03315" lon="-1.65706">
        <ele>17</ele>
        <time>2019-04-29T22:58:57Z</time>
      </trkpt>
      <trkpt lat="47.03323" lon="-1.65738">
        <ele>16</ele>
        <time>2019-04-29T22:59:57Z</time>
      </trkpt>
      <trkpt lat="47.03329" lon="-1.65753">
        <ele>16</ele>
        <time>2019-04-29T23:00:57Z</time>
      </trkpt>
      <trkpt lat="47.03374" lon="-1.6585">
        <ele>16</ele>
        <time>2019-04-29T23:01:57Z</time>
      </trkpt>
      <trkpt lat="47.03385" lon="-1.65875">
        <ele>17</ele>
        <time>2019-04-29T23:02:57Z</time>
      </trkpt>
      <trkpt lat="47.03393" lon="-1.65905">
        <ele>18</ele>
        <time>2019-04-29T23:03:57Z</time>
      </trkpt>
      <trkpt lat="47.03397" lon="-1.65929">
        <ele>19</ele>
        <time>2019-04-29T23:04:57Z</time>
      </trkpt>
      <trkpt lat="47.03402" lon="-1.65994">
        <ele>20</ele>
        <time>2019-04-29T23:05:57Z</time>
      </trkpt>
      <trkpt lat="47.03411" lon="-1.66028">
        <ele>20</ele>
        <time>2019-04-29T23:06:57Z</time>
      </trkpt>
      <trkpt lat="47.03412" lon="-1.66035">
        <ele>20</ele>
        <time>2019-04-29T23:07:57Z</time>
      </trkpt>
      <trkpt lat="47.03418" lon="-1.6604">
        <ele>20</ele>
        <time>2019-04-29T23:08:57Z</time>
      </trkpt>
      <trkpt lat="47.03422" lon="-1.66048">
        <ele>20</ele>
        <time>2019-04-29T23:09:57Z</time>
      </trkpt>
      <trkpt lat="47.03425" lon="-1.66057">
        <ele>20</ele>
        <time>2019-04-29T23:10:57Z</time>
      </trkpt>
      <trkpt lat="47.03426" lon="-1.66067">
        <ele>20</ele>
        <time>2019-04-29T23:11:57Z</time>
      </trkpt>
      <trkpt lat="47.03436" lon="-1.66089">
        <ele>20</ele>
        <time>2019-04-29T23:12:57Z</time>
      </trkpt>
      <trkpt lat="47.03444" lon="-1.66097">
        <ele>19</ele>
        <time>2019-04-29T23:13:57Z</time>
      </trkpt>
      <trkpt lat="47.03455" lon="-1.66122">
        <ele>20</ele>
        <time>2019-04-29T23:14:57Z</time>
      </trkpt>
      <trkpt lat="47.03459" lon="-1.66146">
        <ele>20</ele>
        <time>2019-04-29T23:15:57Z</time>
      </trkpt>
      <trkpt lat="47.03485" lon="-1.66549">
        <ele>17</ele>
        <time>2019-04-29T23:16:57Z</time>
      </trkpt>
      <trkpt lat="47.03492" lon="-1.66684">
        <ele>17</ele>
        <time>2019-04-29T23:17:57Z</time>
      </trkpt>
      <trkpt lat="47.03482" lon="-1.66918">
        <ele>18</ele>
        <time>2019-04-29T23:18:57Z</time>
      </trkpt>
      <trkpt lat="47.03482" lon="-1.66965">
        <ele>19</ele>
        <time>2019-04-29T23:19:57Z</time>
      </trkpt>
      <trkpt lat="47.03484" lon="-1.66997">
        <ele>20</ele>
        <time>2019-04-29T23:20:57Z</time>
      </trkpt>
      <trkpt lat="47.03505" lon="-1.67135">
        <ele>19</ele>
        <time>2019-04-29T23:21:57Z</time>
      </trkpt>
      <trkpt lat="47.03511" lon="-1.67183">
        <ele>19</ele>
        <time>2019-04-29T23:22:57Z</time>
      </trkpt>
      <trkpt lat="47.03513" lon="-1.67217">
        <ele>19</ele>
        <time>2019-04-29T23:23:57Z</time>
      </trkpt>
      <trkpt lat="47.03516" lon="-1.67494">
        <ele>20</ele>
        <time>2019-04-29T23:24:57Z</time>
      </trkpt>
      <trkpt lat="47.0352" lon="-1.68317">
        <ele>33</ele>
        <time>2019-04-29T23:25:57Z</time>
      </trkpt>
      <trkpt lat="47.03552" lon="-1.68996">
        <ele>35</ele>
        <time>2019-04-29T23:26:57Z</time>
      </trkpt>
      <trkpt lat="47.03556" lon="-1.69048">
        <ele>36</ele>
        <time>2019-04-29T23:27:57Z</time>
      </trkpt>
      <trkpt lat="47.03629" lon="-1.69472">
        <ele>36</ele>
        <time>2019-04-29T23:28:57Z</time>
      </trkpt>
      <trkpt lat="47.03638" lon="-1.69519">
        <ele>35</ele>
        <time>2019-04-29T23:29:57Z</time>
      </trkpt>
      <trkpt lat="47.03649" lon="-1.69565">
        <ele>35</ele>
        <time>2019-04-29T23:30:57Z</time>
      </trkpt>
      <trkpt lat="47.03657" lon="-1.69587">
        <ele>35</ele>
        <time>2019-04-29T23:31:57Z</time>
      </trkpt>
      <trkpt lat="47.03673" lon="-1.69622">
        <ele>34</ele>
        <time>2019-04-29T23:32:57Z</time>
      </trkpt>
      <trkpt lat="47.03858" lon="-1.69982">
        <ele>32</ele>
        <time>2019-04-29T23:33:57Z</time>
      </trkpt>
      <trkpt lat="47.03863" lon="-1.69994">
        <ele>32</ele>
        <time>2019-04-29T23:34:57Z</time>
      </trkpt>
      <trkpt lat="47.03876" lon="-1.70036">
        <ele>32</ele>
        <time>2019-04-29T23:35:57Z</time>
      </trkpt>
      <trkpt lat="47.03881" lon="-1.7008">
        <ele>32</ele>
        <time>2019-04-29T23:36:57Z</time>
      </trkpt>
      <trkpt lat="47.03864" lon="-1.70431">
        <ele>35</ele>
        <time>2019-04-29T23:37:57Z</time>
      </trkpt>
      <trkpt lat="47.03865" lon="-1.70491">
        <ele>34</ele>
        <time>2019-04-29T23:38:57Z</time>
      </trkpt>
      <trkpt lat="47.03867" lon="-1.70526">
        <ele>34</ele>
        <time>2019-04-29T23:39:57Z</time>
      </trkpt>
      <trkpt lat="47.0387" lon="-1.70551">
        <ele>34</ele>
        <time>2019-04-29T23:40:57Z</time>
      </trkpt>
      <trkpt lat="47.0388" lon="-1.70591">
        <ele>33</ele>
        <time>2019-04-29T23:41:57Z</time>
      </trkpt>
      <trkpt lat="47.03892" lon="-1.70623">
        <ele>33</ele>
        <time>2019-04-29T23:42:57Z</time>
      </trkpt>
      <trkpt lat="47.03939" lon="-1.70733">
        <ele>32</ele>
        <time>2019-04-29T23:43:57Z</time>
      </trkpt>
      <trkpt lat="47.04184" lon="-1.71285">
        <ele>32</ele>
        <time>2019-04-29T23:44:57Z</time>
      </trkpt>
      <trkpt lat="47.04303" lon="-1.71549">
        <ele>34</ele>
        <time>2019-04-29T23:45:57Z</time>
      </trkpt>
      <trkpt lat="47.04332" lon="-1.71606">
        <ele>34</ele>
        <time>2019-04-29T23:46:57Z</time>
      </trkpt>
      <trkpt lat="47.04376" lon="-1.7167">
        <ele>33</ele>
        <time>2019-04-29T23:47:57Z</time>
      </trkpt>
      <trkpt lat="47.04484" lon="-1.71814">
        <ele>34</ele>
        <time>2019-04-29T23:48:57Z</time>
      </trkpt>
      <trkpt lat="47.04595" lon="-1.71995">
        <ele>33</ele>
        <time>2019-04-29T23:49:57Z</time>
      </trkpt>
      <trkpt lat="47.04608" lon="-1.72012">
        <ele>33</ele>
        <time>2019-04-29T23:50:57Z</time>
      </trkpt>
      <trkpt lat="47.04628" lon="-1.72035">
        <ele>32</ele>
        <time>2019-04-29T23:51:57Z</time>
      </trkpt>
      <trkpt lat="47.04692" lon="-1.72087">
        <ele>32</ele>
        <time>2019-04-29T23:52:57Z</time>
      </trkpt>
      <trkpt lat="47.0469" lon="-1.72094">
        <ele>32</ele>
        <time>2019-04-29T23:53:57Z</time>
      </trkpt>
      <trkpt lat="47.0469" lon="-1.72114">
        <ele>32</ele>
        <time>2019-04-29T23:54:57Z</time>
      </trkpt>
      <trkpt lat="47.04692" lon="-1.72124">
        <ele>33</ele>
        <time>2019-04-29T23:55:57Z</time>
      </trkpt>
      <trkpt lat="47.04756" lon="-1.72452">
        <ele>29</ele>
        <time>2019-04-29T23:56:57Z</time>
      </trkpt>
      <trkpt lat="47.04801" lon="-1.72747">
        <ele>32</ele>
        <time>2019-04-29T23:57:57Z</time>
      </trkpt>
      <trkpt lat="47.04813" lon="-1.72849">
        <ele>33</ele>
        <time>2019-04-29T23:58:57Z</time>
      </trkpt>
      <trkpt lat="47.04817" lon="-1.72868">
        <ele>33</ele>
        <time>2019-04-29T23:59:57Z</time>
      </trkpt>
      <trkpt lat="47.04838" lon="-1.72926">
        <ele>34</ele>
        <time>2019-04-30T00:00:57Z</time>
      </trkpt>
      <trkpt lat="47.04895" lon="-1.73069">
        <ele>34</ele>
        <time>2019-04-30T00:01:57Z</time>
      </trkpt>
      <trkpt lat="47.049" lon="-1.73085">
        <ele>34</ele>
        <time>2019-04-30T00:02:57Z</time>
      </trkpt>
      <trkpt lat="47.04907" lon="-1.73129">
        <ele>34</ele>
        <time>2019-04-30T00:03:57Z</time>
      </trkpt>
      <trkpt lat="47.0491" lon="-1.73195">
        <ele>34</ele>
        <time>2019-04-30T00:04:57Z</time>
      </trkpt>
      <trkpt lat="47.04912" lon="-1.73209">
        <ele>34</ele>
        <time>2019-04-30T00:05:57Z</time>
      </trkpt>
      <trkpt lat="47.0492" lon="-1.73234">
        <ele>34</ele>
        <time>2019-04-30T00:06:57Z</time>
      </trkpt>
      <trkpt lat="47.04958" lon="-1.73308">
        <ele>33</ele>
        <time>2019-04-30T00:07:57Z</time>
      </trkpt>
      <trkpt lat="47.05128" lon="-1.73628">
        <ele>27</ele>
        <time>2019-04-30T00:08:57Z</time>
      </trkpt>
      <trkpt lat="47.0514" lon="-1.73645">
        <ele>27</ele>
        <time>2019-04-30T00:09:57Z</time>
      </trkpt>
      <trkpt lat="47.05165" lon="-1.73671">
        <ele>25</ele>
        <time>2019-04-30T00:10:57Z</time>
      </trkpt>
      <trkpt lat="47.05206" lon="-1.73695">
        <ele>23</ele>
        <time>2019-04-30T00:11:57Z</time>
      </trkpt>
      <trkpt lat="47.05237" lon="-1.73692">
        <ele>22</ele>
        <time>2019-04-30T00:12:57Z</time>
      </trkpt>
      <trkpt lat="47.05236" lon="-1.73711">
        <ele>22</ele>
        <time>2019-04-30T00:13:57Z</time>
      </trkpt>
      <trkpt lat="47.0523" lon="-1.73964">
        <ele>21</ele>
        <time>2019-04-30T00:14:57Z</time>
      </trkpt>
      <trkpt lat="47.05224" lon="-1.7436">
        <ele>15</ele>
        <time>2019-04-30T00:15:57Z</time>
      </trkpt>
      <trkpt lat="47.05223" lon="-1.74452">
        <ele>14</ele>
        <time>2019-04-30T00:16:57Z</time>
      </trkpt>
      <trkpt lat="47.05228" lon="-1.74489">
        <ele>14</ele>
        <time>2019-04-30T00:17:57Z</time>
      </trkpt>
      <trkpt lat="47.05237" lon="-1.74524">
        <ele>13</ele>
        <time>2019-04-30T00:18:57Z</time>
      </trkpt>
      <trkpt lat="47.05243" lon="-1.74541">
        <ele>13</ele>
        <time>2019-04-30T00:19:57Z</time>
      </trkpt>
      <trkpt lat="47.05273" lon="-1.74608">
        <ele>12</ele>
        <time>2019-04-30T00:20:57Z</time>
      </trkpt>
      <trkpt lat="47.05336" lon="-1.7474">
        <ele>9</ele>
        <time>2019-04-30T00:21:57Z</time>
      </trkpt>
      <trkpt lat="47.0536" lon="-1.74777">
        <ele>9</ele>
        <time>2019-04-30T00:22:57Z</time>
      </trkpt>
      <trkpt lat="47.05536" lon="-1.74933">
        <ele>11</ele>
        <time>2019-04-30T00:23:57Z</time>
      </trkpt>
      <trkpt lat="47.05608" lon="-1.75004">
        <ele>14</ele>
        <time>2019-04-30T00:24:57Z</time>
      </trkpt>
      <trkpt lat="47.05666" lon="-1.75066">
        <ele>15</ele>
        <time>2019-04-30T00:25:57Z</time>
      </trkpt>
      <trkpt lat="47.05702" lon="-1.75125">
        <ele>18</ele>
        <time>2019-04-30T00:26:57Z</time>
      </trkpt>
      <trkpt lat="47.05827" lon="-1.75406">
        <ele>23</ele>
        <time>2019-04-30T00:27:57Z</time>
      </trkpt>
      <trkpt lat="47.05944" lon="-1.75744">
        <ele>25</ele>
        <time>2019-04-30T00:28:57Z</time>
      </trkpt>
      <trkpt lat="47.05975" lon="-1.75796">
        <ele>24</ele>
        <time>2019-04-30T00:29:57Z</time>
      </trkpt>
      <trkpt lat="47.06245" lon="-1.76115">
        <ele>29</ele>
        <time>2019-04-30T00:30:57Z</time>
      </trkpt>
      <trkpt lat="47.06276" lon="-1.76154">
        <ele>30</ele>
        <time>2019-04-30T00:31:57Z</time>
      </trkpt>
      <trkpt lat="47.06284" lon="-1.76171">
        <ele>30</ele>
        <time>2019-04-30T00:32:57Z</time>
      </trkpt>
      <trkpt lat="47.06292" lon="-1.76191">
        <ele>30</ele>
        <time>2019-04-30T00:33:57Z</time>
      </trkpt>
      <trkpt lat="47.06296" lon="-1.76207">
        <ele>30</ele>
        <time>2019-04-30T00:34:57Z</time>
      </trkpt>
      <trkpt lat="47.06302" lon="-1.76244">
        <ele>29</ele>
        <time>2019-04-30T00:35:57Z</time>
      </trkpt>
      <trkpt lat="47.063" lon="-1.76289">
        <ele>29</ele>
        <time>2019-04-30T00:36:57Z</time>
      </trkpt>
      <trkpt lat="47.06312" lon="-1.76359">
        <ele>28</ele>
        <time>2019-04-30T00:37:57Z</time>
      </trkpt>
      <trkpt lat="47.06316" lon="-1.76369">
        <ele>28</ele>
        <time>2019-04-30T00:38:57Z</time>
      </trkpt>
      <trkpt lat="47.06316" lon="-1.76374">
        <ele>28</ele>
        <time>2019-04-30T00:39:57Z</time>
      </trkpt>
      <trkpt lat="47.06368" lon="-1.76401">
        <ele>29</ele>
        <time>2019-04-30T00:40:57Z</time>
      </trkpt>
      <trkpt lat="47.06379" lon="-1.76409">
        <ele>29</ele>
        <time>2019-04-30T00:41:57Z</time>
      </trkpt>
      <trkpt lat="47.06396" lon="-1.76426">
        <ele>29</ele>
        <time>2019-04-30T00:42:57Z</time>
      </trkpt>
      <trkpt lat="47.06407" lon="-1.76443">
        <ele>29</ele>
        <time>2019-04-30T00:43:57Z</time>
      </trkpt>
      <trkpt lat="47.06416" lon="-1.7646">
        <ele>29</ele>
        <time>2019-04-30T00:44:57Z</time>
      </trkpt>
      <trkpt lat="47.06462" lon="-1.76574">
        <ele>30</ele>
        <time>2019-04-30T00:45:57Z</time>
      </trkpt>
      <trkpt lat="47.06479" lon="-1.76611">
        <ele>31</ele>
        <time>2019-04-30T00:46:57Z</time>
      </trkpt>
      <trkpt lat="47.06756" lon="-1.77082">
        <ele>27</ele>
        <time>2019-04-30T00:47:57Z</time>
      </trkpt>
      <trkpt lat="47.06814" lon="-1.77179">
        <ele>28</ele>
        <time>2019-04-30T00:48:57Z</time>
      </trkpt>
      <trkpt lat="47.06834" lon="-1.77208">
        <ele>27</ele>
        <time>2019-04-30T00:49:57Z</time>
      </trkpt>
      <trkpt lat="47.06991" lon="-1.77426">
        <ele>25</ele>
        <time>2019-04-30T00:50:57Z</time>
      </trkpt>
      <trkpt lat="47.07011" lon="-1.77462">
        <ele>24</ele>
        <time>2019-04-30T00:51:57Z</time>
      </trkpt>
      <trkpt lat="47.07123" lon="-1.77744">
        <ele>23</ele>
        <time>2019-04-30T00:52:57Z</time>
      </trkpt>
      <trkpt lat="47.0714" lon="-1.77778">
        <ele>23</ele>
        <time>2019-04-30T00:53:57Z</time>
      </trkpt>
      <trkpt lat="47.0716" lon="-1.77807">
        <ele>23</ele>
        <time>2019-04-30T00:54:57Z</time>
      </trkpt>
      <trkpt lat="47.07377" lon="-1.7807">
        <ele>19</ele>
        <time>2019-04-30T00:55:57Z</time>
      </trkpt>
      <trkpt lat="47.07413" lon="-1.7811">
        <ele>17</ele>
        <time>2019-04-30T00:56:57Z</time>
      </trkpt>
      <trkpt lat="47.07453" lon="-1.78145">
        <ele>18</ele>
        <time>2019-04-30T00:57:57Z</time>
      </trkpt>
      <trkpt lat="47.07488" lon="-1.78184">
        <ele>18</ele>
        <time>2019-04-30T00:58:57Z</time>
      </trkpt>
      <trkpt lat="47.07521" lon="-1.78237">
        <ele>18</ele>
        <time>2019-04-30T00:59:57Z</time>
      </trkpt>
      <trkpt lat="47.07612" lon="-1.78408">
        <ele>18</ele>
        <time>2019-04-30T01:00:57Z</time>
      </trkpt>
      <trkpt lat="47.07636" lon="-1.78466">
        <ele>18</ele>
        <time>2019-04-30T01:01:57Z</time>
      </trkpt>
      <trkpt lat="47.07662" lon="-1.78553">
        <ele>19</ele>
        <time>2019-04-30T01:02:57Z</time>
      </trkpt>
      <trkpt lat="47.07675" lon="-1.78588">
        <ele>20</ele>
        <time>2019-04-30T01:03:57Z</time>
      </trkpt>
      <trkpt lat="47.07751" lon="-1.78748">
        <ele>15</ele>
        <time>2019-04-30T01:04:57Z</time>
      </trkpt>
      <trkpt lat="47.07764" lon="-1.78784">
        <ele>14</ele>
        <time>2019-04-30T01:05:57Z</time>
      </trkpt>
      <trkpt lat="47.07772" lon="-1.78814">
        <ele>12</ele>
        <time>2019-04-30T01:06:57Z</time>
      </trkpt>
      <trkpt lat="47.07945" lon="-1.79477">
        <ele>15</ele>
        <time>2019-04-30T01:07:57Z</time>
      </trkpt>
      <trkpt lat="47.07959" lon="-1.79542">
        <ele>16</ele>
        <time>2019-04-30T01:08:57Z</time>
      </trkpt>
      <trkpt lat="47.07964" lon="-1.79578">
        <ele>17</ele>
        <time>2019-04-30T01:09:57Z</time>
      </trkpt>
      <trkpt lat="47.07966" lon="-1.79615">
        <ele>17</ele>
        <time>2019-04-30T01:10:57Z</time>
      </trkpt>
      <trkpt lat="47.07966" lon="-1.79681">
        <ele>17</ele>
        <time>2019-04-30T01:11:57Z</time>
      </trkpt>
      <trkpt lat="47.07956" lon="-1.79789">
        <ele>15</ele>
        <time>2019-04-30T01:12:57Z</time>
      </trkpt>
      <trkpt lat="47.0794" lon="-1.7984">
        <ele>14</ele>
        <time>2019-04-30T01:13:57Z</time>
      </trkpt>
      <trkpt lat="47.07915" lon="-1.79909">
        <ele>14</ele>
        <time>2019-04-30T01:14:57Z</time>
      </trkpt>
      <trkpt lat="47.07904" lon="-1.79951">
        <ele>14</ele>
        <time>2019-04-30T01:15:57Z</time>
      </trkpt>
      <trkpt lat="47.07899" lon="-1.79999">
        <ele>15</ele>
        <time>2019-04-30T01:16:57Z</time>
      </trkpt>
      <trkpt lat="47.07898" lon="-1.80076">
        <ele>15</ele>
        <time>2019-04-30T01:17:57Z</time>
      </trkpt>
      <trkpt lat="47.07901" lon="-1.80256">
        <ele>15</ele>
        <time>2019-04-30T01:18:57Z</time>
      </trkpt>
      <trkpt lat="47.079" lon="-1.80431">
        <ele>16</ele>
        <time>2019-04-30T01:19:57Z</time>
      </trkpt>
      <trkpt lat="47.07903" lon="-1.80471">
        <ele>15</ele>
        <time>2019-04-30T01:20:57Z</time>
      </trkpt>
      <trkpt lat="47.07907" lon="-1.80492">
        <ele>15</ele>
        <time>2019-04-30T01:21:57Z</time>
      </trkpt>
      <trkpt lat="47.07919" lon="-1.80525">
        <ele>15</ele>
        <time>2019-04-30T01:22:57Z</time>
      </trkpt>
      <trkpt lat="47.07939" lon="-1.80563">
        <ele>14</ele>
        <time>2019-04-30T01:23:57Z</time>
      </trkpt>
      <trkpt lat="47.0795" lon="-1.80573">
        <ele>14</ele>
        <time>2019-04-30T01:24:57Z</time>
      </trkpt>
      <trkpt lat="47.07965" lon="-1.80578">
        <ele>14</ele>
        <time>2019-04-30T01:25:57Z</time>
      </trkpt>
      <trkpt lat="47.08001" lon="-1.80579">
        <ele>14</ele>
        <time>2019-04-30T01:26:57Z</time>
      </trkpt>
      <trkpt lat="47.08024" lon="-1.80575">
        <ele>15</ele>
        <time>2019-04-30T01:27:57Z</time>
      </trkpt>
      <trkpt lat="47.08121" lon="-1.8055">
        <ele>18</ele>
        <time>2019-04-30T01:28:57Z</time>
      </trkpt>
      <trkpt lat="47.08148" lon="-1.8054">
        <ele>19</ele>
        <time>2019-04-30T01:29:57Z</time>
      </trkpt>
      <trkpt lat="47.08249" lon="-1.80495">
        <ele>22</ele>
        <time>2019-04-30T01:30:57Z</time>
      </trkpt>
      <trkpt lat="47.08324" lon="-1.80471">
        <ele>23</ele>
        <time>2019-04-30T01:31:57Z</time>
      </trkpt>
      <trkpt lat="47.08447" lon="-1.80466">
        <ele>21</ele>
        <time>2019-04-30T01:32:57Z</time>
      </trkpt>
      <trkpt lat="47.08475" lon="-1.80468">
        <ele>20</ele>
        <time>2019-04-30T01:33:57Z</time>
      </trkpt>
      <trkpt lat="47.08509" lon="-1.80476">
        <ele>20</ele>
        <time>2019-04-30T01:34:57Z</time>
      </trkpt>
      <trkpt lat="47.08661" lon="-1.80517">
        <ele>17</ele>
        <time>2019-04-30T01:35:57Z</time>
      </trkpt>
      <trkpt lat="47.08678" lon="-1.80528">
        <ele>17</ele>
        <time>2019-04-30T01:36:57Z</time>
      </trkpt>
      <trkpt lat="47.0874" lon="-1.80575">
        <ele>15</ele>
        <time>2019-04-30T01:37:57Z</time>
      </trkpt>
      <trkpt lat="47.08767" lon="-1.806">
        <ele>15</ele>
        <time>2019-04-30T01:38:57Z</time>
      </trkpt>
      <trkpt lat="47.08782" lon="-1.80618">
        <ele>15</ele>
        <time>2019-04-30T01:39:57Z</time>
      </trkpt>
      <trkpt lat="47.08905" lon="-1.80831">
        <ele>13</ele>
        <time>2019-04-30T01:40:57Z</time>
      </trkpt>
      <trkpt lat="47.08923" lon="-1.80859">
        <ele>13</ele>
        <time>2019-04-30T01:41:57Z</time>
      </trkpt>
      <trkpt lat="47.08949" lon="-1.80885">
        <ele>12</ele>
        <time>2019-04-30T01:42:57Z</time>
      </trkpt>
      <trkpt lat="47.09172" lon="-1.8105">
        <ele>9</ele>
        <time>2019-04-30T01:43:57Z</time>
      </trkpt>
      <trkpt lat="47.09219" lon="-1.81091">
        <ele>8</ele>
        <time>2019-04-30T01:44:57Z</time>
      </trkpt>
      <trkpt lat="47.09233" lon="-1.81074">
        <ele>8</ele>
        <time>2019-04-30T01:45:57Z</time>
      </trkpt>
      <trkpt lat="47.09255" lon="-1.81059">
        <ele>8</ele>
        <time>2019-04-30T01:46:57Z</time>
      </trkpt>
      <trkpt lat="47.09467" lon="-1.8093">
        <ele>11</ele>
        <time>2019-04-30T01:47:57Z</time>
      </trkpt>
      <trkpt lat="47.09486" lon="-1.80925">
        <ele>11</ele>
        <time>2019-04-30T01:48:57Z</time>
      </trkpt>
      <trkpt lat="47.09505" lon="-1.80925">
        <ele>11</ele>
        <time>2019-04-30T01:49:57Z</time>
      </trkpt>
      <trkpt lat="47.096" lon="-1.80944">
        <ele>14</ele>
        <time>2019-04-30T01:50:57Z</time>
      </trkpt>
      <trkpt lat="47.09705" lon="-1.80969">
        <ele>16</ele>
        <time>2019-04-30T01:51:57Z</time>
      </trkpt>
      <trkpt lat="47.09792" lon="-1.80986">
        <ele>17</ele>
        <time>2019-04-30T01:52:57Z</time>
      </trkpt>
      <trkpt lat="47.09812" lon="-1.80987">
        <ele>17</ele>
        <time>2019-04-30T01:53:57Z</time>
      </trkpt>
      <trkpt lat="47.09987" lon="-1.80974">
        <ele>13</ele>
        <time>2019-04-30T01:54:57Z</time>
      </trkpt>
      <trkpt lat="47.10143" lon="-1.80966">
        <ele>10</ele>
        <time>2019-04-30T01:55:57Z</time>
      </trkpt>
      <trkpt lat="47.10169" lon="-1.80984">
        <ele>10</ele>
        <time>2019-04-30T01:56:57Z</time>
      </trkpt>
      <trkpt lat="47.10201" lon="-1.80999">
        <ele>11</ele>
        <time>2019-04-30T01:57:57Z</time>
      </trkpt>
      <trkpt lat="47.10232" lon="-1.81008">
        <ele>12</ele>
        <time>2019-04-30T01:58:57Z</time>
      </trkpt>
      <trkpt lat="47.10304" lon="-1.81009">
        <ele>15</ele>
        <time>2019-04-30T01:59:57Z</time>
      </trkpt>
      <trkpt lat="47.10336" lon="-1.81013">
        <ele>16</ele>
        <time>2019-04-30T02:00:57Z</time>
      </trkpt>
      <trkpt lat="47.10342" lon="-1.81003">
        <ele>16</ele>
        <time>2019-04-30T02:01:57Z</time>
      </trkpt>
      <trkpt lat="47.10351" lon="-1.80996">
        <ele>16</ele>
        <time>2019-04-30T02:02:57Z</time>
      </trkpt>
      <trkpt lat="47.10373" lon="-1.80986">
        <ele>16</ele>
        <time>2019-04-30T02:03:57Z</time>
      </trkpt>
      <trkpt lat="47.10372" lon="-1.81001">
        <ele>16</ele>
        <time>2019-04-30T02:04:57Z</time>
      </trkpt>
      <trkpt lat="47.10366" lon="-1.81023">
        <ele>17</ele>
        <time>2019-04-30T02:05:57Z</time>
      </trkpt>
      <trkpt lat="47.1035" lon="-1.81056">
        <ele>18</ele>
        <time>2019-04-30T02:06:57Z</time>
      </trkpt>
      <trkpt lat="47.10295" lon="-1.81115">
        <ele>16</ele>
        <time>2019-04-30T02:07:57Z</time>
      </trkpt>
      <trkpt lat="47.10209" lon="-1.81193">
        <ele>14</ele>
        <time>2019-04-30T02:08:57Z</time>
      </trkpt>
      <trkpt lat="47.10119" lon="-1.81265">
        <ele>12</ele>
        <time>2019-04-30T02:09:57Z</time>
      </trkpt>
      <trkpt lat="47.10105" lon="-1.81279">
        <ele>12</ele>
        <time>2019-04-30T02:10:57Z</time>
      </trkpt>
      <trkpt lat="47.10056" lon="-1.81342">
        <ele>11</ele>
        <time>2019-04-30T02:11:57Z</time>
      </trkpt>
      <trkpt lat="47.09943" lon="-1.81502">
        <ele>14</ele>
        <time>2019-04-30T02:12:57Z</time>
      </trkpt>
      <trkpt lat="47.09925" lon="-1.81531">
        <ele>15</ele>
        <time>2019-04-30T02:13:57Z</time>
      </trkpt>
      <trkpt lat="47.0991" lon="-1.81565">
        <ele>15</ele>
        <time>2019-04-30T02:14:57Z</time>
      </trkpt>
      <trkpt lat="47.09872" lon="-1.81664">
        <ele>17</ele>
        <time>2019-04-30T02:15:57Z</time>
      </trkpt>
      <trkpt lat="47.09831" lon="-1.81763">
        <ele>17</ele>
        <time>2019-04-30T02:16:57Z</time>
      </trkpt>
      <trkpt lat="47.09822" lon="-1.8179">
        <ele>17</ele>
        <time>2019-04-30T02:17:57Z</time>
      </trkpt>
      <trkpt lat="47.09824" lon="-1.81799">
        <ele>17</ele>
        <time>2019-04-30T02:18:57Z</time>
      </trkpt>
      <trkpt lat="47.09823" lon="-1.81807">
        <ele>17</ele>
        <time>2019-04-30T02:19:57Z</time>
      </trkpt>
      <trkpt lat="47.09819" lon="-1.81813">
        <ele>17</ele>
        <time>2019-04-30T02:20:57Z</time>
      </trkpt>
      <trkpt lat="47.09813" lon="-1.81815">
        <ele>17</ele>
        <time>2019-04-30T02:21:57Z</time>
      </trkpt>
      <trkpt lat="47.09797" lon="-1.81844">
        <ele>17</ele>
        <time>2019-04-30T02:22:57Z</time>
      </trkpt>
      <trkpt lat="47.09756" lon="-1.81942">
        <ele>18</ele>
        <time>2019-04-30T02:23:57Z</time>
      </trkpt>
      <trkpt lat="47.0969" lon="-1.82153">
        <ele>19</ele>
        <time>2019-04-30T02:24:57Z</time>
      </trkpt>
      <trkpt lat="47.09672" lon="-1.82202">
        <ele>19</ele>
        <time>2019-04-30T02:25:57Z</time>
      </trkpt>
      <trkpt lat="47.09476" lon="-1.82669">
        <ele>17</ele>
        <time>2019-04-30T02:26:57Z</time>
      </trkpt>
      <trkpt lat="47.09234" lon="-1.83237">
        <ele>15</ele>
        <time>2019-04-30T02:27:57Z</time>
      </trkpt>
      <trkpt lat="47.09203" lon="-1.83291">
        <ele>16</ele>
        <time>2019-04-30T02:28:57Z</time>
      </trkpt>
      <trkpt lat="47.09178" lon="-1.83327">
        <ele>17</ele>
        <time>2019-04-30T02:29:57Z</time>
      </trkpt>
      <trkpt lat="47.09107" lon="-1.83416">
        <ele>17</ele>
        <time>2019-04-30T02:30:57Z</time>
      </trkpt>
      <trkpt lat="47.09026" lon="-1.83515">
        <ele>17</ele>
        <time>2019-04-30T02:31:57Z</time>
      </trkpt>
      <trkpt lat="47.09014" lon="-1.83531">
        <ele>16</ele>
        <time>2019-04-30T02:32:57Z</time>
      </trkpt>
      <trkpt lat="47.08996" lon="-1.83563">
        <ele>15</ele>
        <time>2019-04-30T02:33:57Z</time>
      </trkpt>
      <trkpt lat="47.08952" lon="-1.83653">
        <ele>12</ele>
        <time>2019-04-30T02:34:57Z</time>
      </trkpt>
      <trkpt lat="47.08931" lon="-1.83715">
        <ele>11</ele>
        <time>2019-04-30T02:35:57Z</time>
      </trkpt>
      <trkpt lat="47.08908" lon="-1.83806">
        <ele>9</ele>
        <time>2019-04-30T02:36:57Z</time>
      </trkpt>
      <trkpt lat="47.08818" lon="-1.84254">
        <ele>10</ele>
        <time>2019-04-30T02:37:57Z</time>
      </trkpt>
      <trkpt lat="47.08808" lon="-1.84293">
        <ele>12</ele>
        <time>2019-04-30T02:38:57Z</time>
      </trkpt>
      <trkpt lat="47.08783" lon="-1.84364">
        <ele>12</ele>
        <time>2019-04-30T02:39:57Z</time>
      </trkpt>
      <trkpt lat="47.08701" lon="-1.84567">
        <ele>11</ele>
        <time>2019-04-30T02:40:57Z</time>
      </trkpt>
      <trkpt lat="47.08681" lon="-1.8462">
        <ele>11</ele>
        <time>2019-04-30T02:41:57Z</time>
      </trkpt>
      <trkpt lat="47.08669" lon="-1.84658">
        <ele>12</ele>
        <time>2019-04-30T02:42:57Z</time>
      </trkpt>
      <trkpt lat="47.08653" lon="-1.84721">
        <ele>13</ele>
        <time>2019-04-30T02:43:57Z</time>
      </trkpt>
      <trkpt lat="47.08636" lon="-1.84827">
        <ele>12</ele>
        <time>2019-04-30T02:44:57Z</time>
      </trkpt>
      <trkpt lat="47.0861" lon="-1.85006">
        <ele>12</ele>
        <time>2019-04-30T02:45:57Z</time>
      </trkpt>
      <trkpt lat="47.08599" lon="-1.85114">
        <ele>13</ele>
        <time>2019-04-30T02:46:57Z</time>
      </trkpt>
      <trkpt lat="47.08595" lon="-1.85231">
        <ele>15</ele>
        <time>2019-04-30T02:47:57Z</time>
      </trkpt>
      <trkpt lat="47.08595" lon="-1.85395">
        <ele>15</ele>
        <time>2019-04-30T02:48:57Z</time>
      </trkpt>
      <trkpt lat="47.08591" lon="-1.85449">
        <ele>16</ele>
        <time>2019-04-30T02:49:57Z</time>
      </trkpt>
      <trkpt lat="47.0858" lon="-1.85522">
        <ele>18</ele>
        <time>2019-04-30T02:50:57Z</time>
      </trkpt>
      <trkpt lat="47.0856" lon="-1.85604">
        <ele>19</ele>
        <time>2019-04-30T02:51:57Z</time>
      </trkpt>
      <trkpt lat="47.08548" lon="-1.85638">
        <ele>19</ele>
        <time>2019-04-30T02:52:57Z</time>
      </trkpt>
      <trkpt lat="47.08508" lon="-1.85734">
        <ele>19</ele>
        <time>2019-04-30T02:53:57Z</time>
      </trkpt>
      <trkpt lat="47.08452" lon="-1.85855">
        <ele>21</ele>
        <time>2019-04-30T02:54:57Z</time>
      </trkpt>
      <trkpt lat="47.08415" lon="-1.8593">
        <ele>22</ele>
        <time>2019-04-30T02:55:57Z</time>
      </trkpt>
      <trkpt lat="47.08313" lon="-1.86106">
        <ele>24</ele>
        <time>2019-04-30T02:56:57Z</time>
      </trkpt>
      <trkpt lat="47.08281" lon="-1.86178">
        <ele>24</ele>
        <time>2019-04-30T02:57:57Z</time>
      </trkpt>
      <trkpt lat="47.08054" lon="-1.86723">
        <ele>22</ele>
        <time>2019-04-30T02:58:57Z</time>
      </trkpt>
      <trkpt lat="47.07938" lon="-1.87022">
        <ele>24</ele>
        <time>2019-04-30T02:59:57Z</time>
      </trkpt>
      <trkpt lat="47.07892" lon="-1.87131">
        <ele>26</ele>
        <time>2019-04-30T03:00:57Z</time>
      </trkpt>
      <trkpt lat="47.07867" lon="-1.87181">
        <ele>26</ele>
        <time>2019-04-30T03:01:57Z</time>
      </trkpt>
      <trkpt lat="47.07836" lon="-1.87237">
        <ele>27</ele>
        <time>2019-04-30T03:02:57Z</time>
      </trkpt>
      <trkpt lat="47.07804" lon="-1.87288">
        <ele>27</ele>
        <time>2019-04-30T03:03:57Z</time>
      </trkpt>
      <trkpt lat="47.07729" lon="-1.87399">
        <ele>26</ele>
        <time>2019-04-30T03:04:57Z</time>
      </trkpt>
      <trkpt lat="47.07697" lon="-1.87459">
        <ele>25</ele>
        <time>2019-04-30T03:05:57Z</time>
      </trkpt>
      <trkpt lat="47.07681" lon="-1.87498">
        <ele>24</ele>
        <time>2019-04-30T03:06:57Z</time>
      </trkpt>
      <trkpt lat="47.07669" lon="-1.87535">
        <ele>24</ele>
        <time>2019-04-30T03:07:57Z</time>
      </trkpt>
      <trkpt lat="47.0765" lon="-1.87613">
        <ele>23</ele>
        <time>2019-04-30T03:08:57Z</time>
      </trkpt>
      <trkpt lat="47.07642" lon="-1.87664">
        <ele>24</ele>
        <time>2019-04-30T03:09:57Z</time>
      </trkpt>
      <trkpt lat="47.07639" lon="-1.87709">
        <ele>23</ele>
        <time>2019-04-30T03:10:57Z</time>
      </trkpt>
      <trkpt lat="47.07637" lon="-1.87765">
        <ele>23</ele>
        <time>2019-04-30T03:11:57Z</time>
      </trkpt>
      <trkpt lat="47.07642" lon="-1.87966">
        <ele>26</ele>
        <time>2019-04-30T03:12:57Z</time>
      </trkpt>
      <trkpt lat="47.07641" lon="-1.88126">
        <ele>26</ele>
        <time>2019-04-30T03:13:57Z</time>
      </trkpt>
      <trkpt lat="47.07636" lon="-1.88194">
        <ele>26</ele>
        <time>2019-04-30T03:14:57Z</time>
      </trkpt>
      <trkpt lat="47.07628" lon="-1.88269">
        <ele>27</ele>
        <time>2019-04-30T03:15:57Z</time>
      </trkpt>
      <trkpt lat="47.07608" lon="-1.88402">
        <ele>26</ele>
        <time>2019-04-30T03:16:57Z</time>
      </trkpt>
      <trkpt lat="47.07584" lon="-1.88528">
        <ele>26</ele>
        <time>2019-04-30T03:17:57Z</time>
      </trkpt>
      <trkpt lat="47.07566" lon="-1.88599">
        <ele>26</ele>
        <time>2019-04-30T03:18:57Z</time>
      </trkpt>
      <trkpt lat="47.07517" lon="-1.88776">
        <ele>26</ele>
        <time>2019-04-30T03:19:57Z</time>
      </trkpt>
      <trkpt lat="47.07489" lon="-1.88862">
        <ele>26</ele>
        <time>2019-04-30T03:20:57Z</time>
      </trkpt>
      <trkpt lat="47.07403" lon="-1.89119">
        <ele>27</ele>
        <time>2019-04-30T03:21:57Z</time>
      </trkpt>
      <trkpt lat="47.07338" lon="-1.89348">
        <ele>28</ele>
        <time>2019-04-30T03:22:57Z</time>
      </trkpt>
      <trkpt lat="47.07305" lon="-1.89461">
        <ele>27</ele>
        <time>2019-04-30T03:23:57Z</time>
      </trkpt>
      <trkpt lat="47.07288" lon="-1.89509">
        <ele>26</ele>
        <time>2019-04-30T03:24:57Z</time>
      </trkpt>
      <trkpt lat="47.07069" lon="-1.90096">
        <ele>21</ele>
        <time>2019-04-30T03:25:57Z</time>
      </trkpt>
      <trkpt lat="47.07036" lon="-1.90175">
        <ele>22</ele>
        <time>2019-04-30T03:26:57Z</time>
      </trkpt>
      <trkpt lat="47.06967" lon="-1.90327">
        <ele>24</ele>
        <time>2019-04-30T03:27:57Z</time>
      </trkpt>
      <trkpt lat="47.0687" lon="-1.90532">
        <ele>22</ele>
        <time>2019-04-30T03:28:57Z</time>
      </trkpt>
      <trkpt lat="47.06818" lon="-1.9063">
        <ele>22</ele>
        <time>2019-04-30T03:29:57Z</time>
      </trkpt>
      <trkpt lat="47.06764" lon="-1.90715">
        <ele>22</ele>
        <time>2019-04-30T03:30:57Z</time>
      </trkpt>
      <trkpt lat="47.06635" lon="-1.90898">
        <ele>23</ele>
        <time>2019-04-30T03:31:57Z</time>
      </trkpt>
      <trkpt lat="47.066" lon="-1.90955">
        <ele>24</ele>
        <time>2019-04-30T03:32:57Z</time>
      </trkpt>
      <trkpt lat="47.06581" lon="-1.90993">
        <ele>24</ele>
        <time>2019-04-30T03:33:57Z</time>
      </trkpt>
      <trkpt lat="47.06565" lon="-1.91032">
        <ele>25</ele>
        <time>2019-04-30T03:34:57Z</time>
      </trkpt>
      <trkpt lat="47.06543" lon="-1.91091">
        <ele>25</ele>
        <time>2019-04-30T03:35:57Z</time>
      </trkpt>
      <trkpt lat="47.06467" lon="-1.91329">
        <ele>24</ele>
        <time>2019-04-30T03:36:57Z</time>
      </trkpt>
      <trkpt lat="47.06432" lon="-1.91425">
        <ele>22</ele>
        <time>2019-04-30T03:37:57Z</time>
      </trkpt>
      <trkpt lat="47.06412" lon="-1.91466">
        <ele>22</ele>
        <time>2019-04-30T03:38:57Z</time>
      </trkpt>
      <trkpt lat="47.0639" lon="-1.91507">
        <ele>21</ele>
        <time>2019-04-30T03:39:57Z</time>
      </trkpt>
      <trkpt lat="47.06359" lon="-1.91554">
        <ele>20</ele>
        <time>2019-04-30T03:40:57Z</time>
      </trkpt>
      <trkpt lat="47.06328" lon="-1.91593">
        <ele>20</ele>
        <time>2019-04-30T03:41:57Z</time>
      </trkpt>
      <trkpt lat="47.06302" lon="-1.91622">
        <ele>19</ele>
        <time>2019-04-30T03:42:57Z</time>
      </trkpt>
      <trkpt lat="47.05811" lon="-1.92034">
        <ele>25</ele>
        <time>2019-04-30T03:43:57Z</time>
      </trkpt>
      <trkpt lat="47.05781" lon="-1.92063">
        <ele>25</ele>
        <time>2019-04-30T03:44:57Z</time>
      </trkpt>
      <trkpt lat="47.05766" lon="-1.92079">
        <ele>25</ele>
        <time>2019-04-30T03:45:57Z</time>
      </trkpt>
      <trkpt lat="47.05636" lon="-1.92231">
        <ele>23</ele>
        <time>2019-04-30T03:46:57Z</time>
      </trkpt>
      <trkpt lat="47.05598" lon="-1.9228">
        <ele>23</ele>
        <time>2019-04-30T03:47:57Z</time>
      </trkpt>
      <trkpt lat="47.05509" lon="-1.92424">
        <ele>21</ele>
        <time>2019-04-30T03:48:57Z</time>
      </trkpt>
      <trkpt lat="47.04866" lon="-1.93501">
        <ele>21</ele>
        <time>2019-04-30T03:49:57Z</time>
      </trkpt>
      <trkpt lat="47.04698" lon="-1.93779">
        <ele>20</ele>
        <time>2019-04-30T03:50:57Z</time>
      </trkpt>
      <trkpt lat="47.04633" lon="-1.93897">
        <ele>17</ele>
        <time>2019-04-30T03:51:57Z</time>
      </trkpt>
      <trkpt lat="47.04602" lon="-1.93968">
        <ele>16</ele>
        <time>2019-04-30T03:52:57Z</time>
      </trkpt>
      <trkpt lat="47.04588" lon="-1.94006">
        <ele>16</ele>
        <time>2019-04-30T03:53:57Z</time>
      </trkpt>
      <trkpt lat="47.04576" lon="-1.9405">
        <ele>16</ele>
        <time>2019-04-30T03:54:57Z</time>
      </trkpt>
      <trkpt lat="47.04563" lon="-1.94109">
        <ele>15</ele>
        <time>2019-04-30T03:55:57Z</time>
      </trkpt>
      <trkpt lat="47.04462" lon="-1.94796">
        <ele>8</ele>
        <time>2019-04-30T03:56:57Z</time>
      </trkpt>
      <trkpt lat="47.04446" lon="-1.94865">
        <ele>7</ele>
        <time>2019-04-30T03:57:57Z</time>
      </trkpt>
      <trkpt lat="47.04425" lon="-1.94927">
        <ele>8</ele>
        <time>2019-04-30T03:58:57Z</time>
      </trkpt>
      <trkpt lat="47.04413" lon="-1.94952">
        <ele>8</ele>
        <time>2019-04-30T03:59:57Z</time>
      </trkpt>
      <trkpt lat="47.04339" lon="-1.95065">
        <ele>9</ele>
        <time>2019-04-30T04:00:57Z</time>
      </trkpt>
      <trkpt lat="47.04308" lon="-1.95109">
        <ele>9</ele>
        <time>2019-04-30T04:01:57Z</time>
      </trkpt>
      <trkpt lat="47.04295" lon="-1.95124">
        <ele>9</ele>
        <time>2019-04-30T04:02:57Z</time>
      </trkpt>
      <trkpt lat="47.04328" lon="-1.95203">
        <ele>8</ele>
        <time>2019-04-30T04:03:57Z</time>
      </trkpt>
      <trkpt lat="47.04336" lon="-1.95227">
        <ele>8</ele>
        <time>2019-04-30T04:04:57Z</time>
      </trkpt>
      <trkpt lat="47.04334" lon="-1.95233">
        <ele>7</ele>
        <time>2019-04-30T04:05:57Z</time>
      </trkpt>
      <trkpt lat="47.04293" lon="-1.95283">
        <ele>6</ele>
        <time>2019-04-30T04:06:57Z</time>
      </trkpt>
      <trkpt lat="47.04292" lon="-1.95289">
        <ele>6</ele>
        <time>2019-04-30T04:07:57Z</time>
      </trkpt>
      <trkpt lat="47.04305" lon="-1.95321">
        <ele>6</ele>
        <time>2019-04-30T04:08:57Z</time>
      </trkpt>
      <trkpt lat="47.04317" lon="-1.95344">
        <ele>5</ele>
        <time>2019-04-30T04:09:57Z</time>
      </trkpt>
      <trkpt lat="47.04316" lon="-1.95349">
        <ele>5</ele>
        <time>2019-04-30T04:10:57Z</time>
      </trkpt>
      <trkpt lat="47.0432" lon="-1.95356">
        <ele>5</ele>
        <time>2019-04-30T04:11:57Z</time>
      </trkpt>
      <trkpt lat="47.04319" lon="-1.95362">
        <ele>4</ele>
        <time>2019-04-30T04:12:57Z</time>
      </trkpt>
      <trkpt lat="47.04317" lon="-1.95366">
        <ele>4</ele>
        <time>2019-04-30T04:13:57Z</time>
      </trkpt>
      <trkpt lat="47.04312" lon="-1.95367">
        <ele>4</ele>
        <time>2019-04-30T04:14:57Z</time>
      </trkpt>
      <trkpt lat="47.04309" lon="-1.95364">
        <ele>5</ele>
        <time>2019-04-30T04:15:57Z</time>
      </trkpt>
      <trkpt lat="47.04307" lon="-1.95356">
        <ele>5</ele>
        <time>2019-04-30T04:16:57Z</time>
      </trkpt>
      <trkpt lat="47.04293" lon="-1.95354">
        <ele>5</ele>
        <time>2019-04-30T04:17:57Z</time>
      </trkpt>
      <trkpt lat="47.04287" lon="-1.95359">
        <ele>5</ele>
        <time>2019-04-30T04:18:57Z</time>
      </trkpt>
      <trkpt lat="47.04228" lon="-1.95427">
        <ele>4</ele>
        <time>2019-04-30T04:19:57Z</time>
      </trkpt>
      <trkpt lat="47.04197" lon="-1.95484">
        <ele>4</ele>
        <time>2019-04-30T04:20:57Z</time>
      </trkpt>
      <trkpt lat="47.04116" lon="-1.95584">
        <ele>2</ele>
        <time>2019-04-30T04:21:57Z</time>
      </trkpt>
      <trkpt lat="47.04043" lon="-1.95678">
        <ele>3.7</ele>
        <time>2019-04-30T04:22:57Z</time>
      </trkpt>
      <trkpt lat="47.04033" lon="-1.95695">
        <ele>4</ele>
        <time>2019-04-30T04:23:57Z</time>
      </trkpt>
      <trkpt lat="47.04024" lon="-1.95719">
        <ele>1</ele>
        <time>2019-04-30T04:24:57Z</time>
      </trkpt>
      <trkpt lat="47.04027" lon="-1.95729">
        <ele>1</ele>
        <time>2019-04-30T04:25:57Z</time>
      </trkpt>
      <trkpt lat="47.04028" lon="-1.95744">
        <ele>1</ele>
        <time>2019-04-30T04:26:57Z</time>
      </trkpt>
      <trkpt lat="47.04028" lon="-1.95759">
        <ele>1</ele>
        <time>2019-04-30T04:27:57Z</time>
      </trkpt>
      <trkpt lat="47.04023" lon="-1.95775">
        <ele>1</ele>
        <time>2019-04-30T04:28:57Z</time>
      </trkpt>
      <trkpt lat="47.04016" lon="-1.95788">
        <ele>1</ele>
        <time>2019-04-30T04:29:57Z</time>
      </trkpt>
      <trkpt lat="47.04006" lon="-1.95798">
        <ele>1</ele>
        <time>2019-04-30T04:30:57Z</time>
      </trkpt>
      <trkpt lat="47.03994" lon="-1.95802">
        <ele>1</ele>
        <time>2019-04-30T04:31:57Z</time>
      </trkpt>
      <trkpt lat="47.03986" lon="-1.95803">
        <ele>1</ele>
        <time>2019-04-30T04:32:57Z</time>
      </trkpt>
      <trkpt lat="47.03972" lon="-1.95797">
        <ele>1</ele>
        <time>2019-04-30T04:33:57Z</time>
      </trkpt>
      <trkpt lat="47.03961" lon="-1.95799">
        <ele>1</ele>
        <time>2019-04-30T04:34:57Z</time>
      </trkpt>
      <trkpt lat="47.03951" lon="-1.95804">
        <ele>3.2</ele>
        <time>2019-04-30T04:35:57Z</time>
      </trkpt>
      <trkpt lat="47.03938" lon="-1.95817">
        <ele>3</ele>
        <time>2019-04-30T04:36:57Z</time>
      </trkpt>
      <trkpt lat="47.03831" lon="-1.95956">
        <ele>1</ele>
        <time>2019-04-30T04:37:57Z</time>
      </trkpt>
      <trkpt lat="47.03805" lon="-1.95987">
        <ele>1</ele>
        <time>2019-04-30T04:38:57Z</time>
      </trkpt>
      <trkpt lat="47.03746" lon="-1.96048">
        <ele>3</ele>
        <time>2019-04-30T04:39:57Z</time>
      </trkpt>
      <trkpt lat="47.03703" lon="-1.96086">
        <ele>1</ele>
        <time>2019-04-30T04:40:57Z</time>
      </trkpt>
      <trkpt lat="47.03684" lon="-1.961">
        <ele>1</ele>
        <time>2019-04-30T04:41:57Z</time>
      </trkpt>
      <trkpt lat="47.03607" lon="-1.96146">
        <ele>1</ele>
        <time>2019-04-30T04:42:57Z</time>
      </trkpt>
      <trkpt lat="47.03326" lon="-1.963">
        <ele>1</ele>
        <time>2019-04-30T04:43:57Z</time>
      </trkpt>
      <trkpt lat="47.0328" lon="-1.96321">
        <ele>3</ele>
        <time>2019-04-30T04:44:57Z</time>
      </trkpt>
      <trkpt lat="47.03229" lon="-1.96338">
        <ele>3.8</ele>
        <time>2019-04-30T04:45:57Z</time>
      </trkpt>
      <trkpt lat="47.03185" lon="-1.96349">
        <ele>3.4</ele>
        <time>2019-04-30T04:46:57Z</time>
      </trkpt>
      <trkpt lat="47.03126" lon="-1.96356">
        <ele>1</ele>
        <time>2019-04-30T04:47:57Z</time>
      </trkpt>
      <trkpt lat="47.03055" lon="-1.96354">
        <ele>2</ele>
        <time>2019-04-30T04:48:57Z</time>
      </trkpt>
      <trkpt lat="47.03001" lon="-1.96345">
        <ele>2</ele>
        <time>2019-04-30T04:49:57Z</time>
      </trkpt>
      <trkpt lat="47.02936" lon="-1.96326">
        <ele>1</ele>
        <time>2019-04-30T04:50:57Z</time>
      </trkpt>
      <trkpt lat="47.01501" lon="-1.95786">
        <ele>1</ele>
        <time>2019-04-30T04:51:57Z</time>
      </trkpt>
      <trkpt lat="47.01475" lon="-1.95779">
        <ele>1</ele>
        <time>2019-04-30T04:52:57Z</time>
      </trkpt>
      <trkpt lat="47.01461" lon="-1.9578">
        <ele>1</ele>
        <time>2019-04-30T04:53:57Z</time>
      </trkpt>
      <trkpt lat="47.01439" lon="-1.95789">
        <ele>2.6</ele>
        <time>2019-04-30T04:54:57Z</time>
      </trkpt>
      <trkpt lat="47.01422" lon="-1.95801">
        <ele>2.7</ele>
        <time>2019-04-30T04:55:57Z</time>
      </trkpt>
      <trkpt lat="47.014" lon="-1.9583">
        <ele>3.1</ele>
        <time>2019-04-30T04:56:57Z</time>
      </trkpt>
      <trkpt lat="47.01337" lon="-1.9596">
        <ele>2.5</ele>
        <time>2019-04-30T04:57:57Z</time>
      </trkpt>
      <trkpt lat="47.01308" lon="-1.96017">
        <ele>1</ele>
        <time>2019-04-30T04:58:57Z</time>
      </trkpt>
      <trkpt lat="47.01294" lon="-1.96036">
        <ele>1</ele>
        <time>2019-04-30T04:59:57Z</time>
      </trkpt>
      <trkpt lat="47.01276" lon="-1.96055">
        <ele>1</ele>
        <time>2019-04-30T05:00:57Z</time>
      </trkpt>
      <trkpt lat="47.01253" lon="-1.96072">
        <ele>1</ele>
        <time>2019-04-30T05:01:57Z</time>
      </trkpt>
      <trkpt lat="47.01217" lon="-1.96087">
        <ele>1</ele>
        <time>2019-04-30T05:02:57Z</time>
      </trkpt>
      <trkpt lat="47.00621" lon="-1.96257">
        <ele>2.3</ele>
        <time>2019-04-30T05:03:57Z</time>
      </trkpt>
      <trkpt lat="47.00414" lon="-1.963">
        <ele>3</ele>
        <time>2019-04-30T05:04:57Z</time>
      </trkpt>
      <trkpt lat="47.00378" lon="-1.9631">
        <ele>2.6</ele>
        <time>2019-04-30T05:05:57Z</time>
      </trkpt>
      <trkpt lat="47.00126" lon="-1.96393">
        <ele>3.4</ele>
        <time>2019-04-30T05:06:57Z</time>
      </trkpt>
      <trkpt lat="47.00098" lon="-1.96404">
        <ele>1</ele>
        <time>2019-04-30T05:07:57Z</time>
      </trkpt>
      <trkpt lat="47.00071" lon="-1.96424">
        <ele>1</ele>
        <time>2019-04-30T05:08:57Z</time>
      </trkpt>
      <trkpt lat="46.99893" lon="-1.96584">
        <ele>1</ele>
        <time>2019-04-30T05:09:57Z</time>
      </trkpt>
      <trkpt lat="46.99853" lon="-1.96616">
        <ele>1</ele>
        <time>2019-04-30T05:10:57Z</time>
      </trkpt>
      <trkpt lat="46.99378" lon="-1.96862">
        <ele>2</ele>
        <time>2019-04-30T05:11:57Z</time>
      </trkpt>
      <trkpt lat="46.99363" lon="-1.96875">
        <ele>2</ele>
        <time>2019-04-30T05:12:57Z</time>
      </trkpt>
      <trkpt lat="46.99349" lon="-1.96891">
        <ele>2</ele>
        <time>2019-04-30T05:13:57Z</time>
      </trkpt>
      <trkpt lat="46.99337" lon="-1.96915">
        <ele>2</ele>
        <time>2019-04-30T05:14:57Z</time>
      </trkpt>
      <trkpt lat="46.99207" lon="-1.97252">
        <ele>3</ele>
        <time>2019-04-30T05:15:57Z</time>
      </trkpt>
      <trkpt lat="46.99193" lon="-1.97281">
        <ele>1</ele>
        <time>2019-04-30T05:16:57Z</time>
      </trkpt>
      <trkpt lat="46.99176" lon="-1.97309">
        <ele>1</ele>
        <time>2019-04-30T05:17:57Z</time>
      </trkpt>
      <trkpt lat="46.99072" lon="-1.97455">
        <ele>1</ele>
        <time>2019-04-30T05:18:57Z</time>
      </trkpt>
      <trkpt lat="46.98586" lon="-1.98124">
        <ele>3</ele>
        <time>2019-04-30T05:19:57Z</time>
      </trkpt>
      <trkpt lat="46.98522" lon="-1.9821">
        <ele>2</ele>
        <time>2019-04-30T05:20:57Z</time>
      </trkpt>
      <trkpt lat="46.98483" lon="-1.98251">
        <ele>2</ele>
        <time>2019-04-30T05:21:57Z</time>
      </trkpt>
      <trkpt lat="46.98459" lon="-1.98268">
        <ele>2</ele>
        <time>2019-04-30T05:22:57Z</time>
      </trkpt>
      <trkpt lat="46.98435" lon="-1.98282">
        <ele>1</ele>
        <time>2019-04-30T05:23:57Z</time>
      </trkpt>
      <trkpt lat="46.98124" lon="-1.9842">
        <ele>2</ele>
        <time>2019-04-30T05:24:57Z</time>
      </trkpt>
      <trkpt lat="46.98093" lon="-1.98435">
        <ele>2</ele>
        <time>2019-04-30T05:25:57Z</time>
      </trkpt>
      <trkpt lat="46.98079" lon="-1.98447">
        <ele>2</ele>
        <time>2019-04-30T05:26:57Z</time>
      </trkpt>
      <trkpt lat="46.98057" lon="-1.9847">
        <ele>2</ele>
        <time>2019-04-30T05:27:57Z</time>
      </trkpt>
      <trkpt lat="46.97781" lon="-1.98839">
        <ele>1</ele>
        <time>2019-04-30T05:28:57Z</time>
      </trkpt>
      <trkpt lat="46.9778" lon="-1.98844">
        <ele>1</ele>
        <time>2019-04-30T05:29:57Z</time>
      </trkpt>
      <trkpt lat="46.97772" lon="-1.98859">
        <ele>1</ele>
        <time>2019-04-30T05:30:57Z</time>
      </trkpt>
      <trkpt lat="46.97769" lon="-1.98867">
        <ele>1</ele>
        <time>2019-04-30T05:31:57Z</time>
      </trkpt>
      <trkpt lat="46.97768" lon="-1.98884">
        <ele>1</ele>
        <time>2019-04-30T05:32:57Z</time>
      </trkpt>
      <trkpt lat="46.97762" lon="-1.98893">
        <ele>1</ele>
        <time>2019-04-30T05:33:57Z</time>
      </trkpt>
      <trkpt lat="46.97757" lon="-1.98897">
        <ele>1</ele>
        <time>2019-04-30T05:34:57Z</time>
      </trkpt>
      <trkpt lat="46.97749" lon="-1.98897">
        <ele>1</ele>
        <time>2019-04-30T05:35:57Z</time>
      </trkpt>
      <trkpt lat="46.97741" lon="-1.98901">
        <ele>1</ele>
        <time>2019-04-30T05:36:57Z</time>
      </trkpt>
      <trkpt lat="46.97733" lon="-1.9891">
        <ele>1</ele>
        <time>2019-04-30T05:37:57Z</time>
      </trkpt>
      <trkpt lat="46.97729" lon="-1.98911">
        <ele>1</ele>
        <time>2019-04-30T05:38:57Z</time>
      </trkpt>
      <trkpt lat="46.97709" lon="-1.98945">
        <ele>1</ele>
        <time>2019-04-30T05:39:57Z</time>
      </trkpt>
      <trkpt lat="46.97662" lon="-1.99038">
        <ele>1</ele>
        <time>2019-04-30T05:40:57Z</time>
      </trkpt>
      <trkpt lat="46.97657" lon="-1.99054">
        <ele>2</ele>
        <time>2019-04-30T05:41:57Z</time>
      </trkpt>
      <trkpt lat="46.9766" lon="-1.99061">
        <ele>2</ele>
        <time>2019-04-30T05:42:57Z</time>
      </trkpt>
      <trkpt lat="46.97658" lon="-1.99065">
        <ele>2</ele>
        <time>2019-04-30T05:43:57Z</time>
      </trkpt>
      <trkpt lat="46.97655" lon="-1.99067">
        <ele>2</ele>
        <time>2019-04-30T05:44:57Z</time>
      </trkpt>
      <trkpt lat="46.97651" lon="-1.99065">
        <ele>2</ele>
        <time>2019-04-30T05:45:57Z</time>
      </trkpt>
      <trkpt lat="46.97649" lon="-1.99067">
        <ele>2</ele>
        <time>2019-04-30T05:46:57Z</time>
      </trkpt>
      <trkpt lat="46.97637" lon="-1.99087">
        <ele>2</ele>
        <time>2019-04-30T05:47:57Z</time>
      </trkpt>
      <trkpt lat="46.97533" lon="-1.99306">
        <ele>2</ele>
        <time>2019-04-30T05:48:57Z</time>
      </trkpt>
      <trkpt lat="46.97494" lon="-1.99376">
        <ele>4</ele>
        <time>2019-04-30T05:49:57Z</time>
      </trkpt>
      <trkpt lat="46.97475" lon="-1.99406">
        <ele>4</ele>
        <time>2019-04-30T05:50:57Z</time>
      </trkpt>
      <trkpt lat="46.97373" lon="-1.99583">
        <ele>4</ele>
        <time>2019-04-30T05:51:57Z</time>
      </trkpt>
      <trkpt lat="46.97344" lon="-1.99615">
        <ele>3</ele>
        <time>2019-04-30T05:52:57Z</time>
      </trkpt>
      <trkpt lat="46.97299" lon="-1.99671">
        <ele>3</ele>
        <time>2019-04-30T05:53:57Z</time>
      </trkpt>
      <trkpt lat="46.97273" lon="-1.997">
        <ele>3</ele>
        <time>2019-04-30T05:54:57Z</time>
      </trkpt>
      <trkpt lat="46.97212" lon="-1.99774">
        <ele>2</ele>
        <time>2019-04-30T05:55:57Z</time>
      </trkpt>
      <trkpt lat="46.97104" lon="-1.99979">
        <ele>2</ele>
        <time>2019-04-30T05:56:57Z</time>
      </trkpt>
      <trkpt lat="46.9707" lon="-2.00048">
        <ele>2</ele>
        <time>2019-04-30T05:57:57Z</time>
      </trkpt>
      <trkpt lat="46.97033" lon="-2.00117">
        <ele>2</ele>
        <time>2019-04-30T05:58:57Z</time>
      </trkpt>
      <trkpt lat="46.97014" lon="-2.00147">
        <ele>2</ele>
        <time>2019-04-30T05:59:57Z</time>
      </trkpt>
      <trkpt lat="46.97001" lon="-2.00163">
        <ele>3</ele>
        <time>2019-04-30T06:00:57Z</time>
      </trkpt>
      <trkpt lat="46.96876" lon="-2.0025">
        <ele>1</ele>
        <time>2019-04-30T06:01:57Z</time>
      </trkpt>
      <trkpt lat="46.96613" lon="-2.00432">
        <ele>2</ele>
        <time>2019-04-30T06:02:57Z</time>
      </trkpt>
      <trkpt lat="46.96569" lon="-2.00458">
        <ele>2</ele>
        <time>2019-04-30T06:03:57Z</time>
      </trkpt>
      <trkpt lat="46.96541" lon="-2.00465">
        <ele>1</ele>
        <time>2019-04-30T06:04:57Z</time>
      </trkpt>
      <trkpt lat="46.96419" lon="-2.00468">
        <ele>3</ele>
        <time>2019-04-30T06:05:57Z</time>
      </trkpt>
      <trkpt lat="46.96396" lon="-2.00473">
        <ele>3</ele>
        <time>2019-04-30T06:06:57Z</time>
      </trkpt>
      <trkpt lat="46.96375" lon="-2.00483">
        <ele>3</ele>
        <time>2019-04-30T06:07:57Z</time>
      </trkpt>
      <trkpt lat="46.96356" lon="-2.00496">
        <ele>3</ele>
        <time>2019-04-30T06:08:57Z</time>
      </trkpt>
      <trkpt lat="46.96101" lon="-2.00709">
        <ele>3</ele>
        <time>2019-04-30T06:09:57Z</time>
      </trkpt>
      <trkpt lat="46.96032" lon="-2.00767">
        <ele>3</ele>
        <time>2019-04-30T06:10:57Z</time>
      </trkpt>
      <trkpt lat="46.96012" lon="-2.00787">
        <ele>3</ele>
        <time>2019-04-30T06:11:57Z</time>
      </trkpt>
      <trkpt lat="46.95959" lon="-2.00855">
        <ele>1</ele>
        <time>2019-04-30T06:12:57Z</time>
      </trkpt>
      <trkpt lat="46.95928" lon="-2.00908">
        <ele>3</ele>
        <time>2019-04-30T06:13:57Z</time>
      </trkpt>
      <trkpt lat="46.95916" lon="-2.00933">
        <ele>3</ele>
        <time>2019-04-30T06:14:57Z</time>
      </trkpt>
      <trkpt lat="46.95808" lon="-2.01259">
        <ele>1</ele>
        <time>2019-04-30T06:15:57Z</time>
      </trkpt>
      <trkpt lat="46.95758" lon="-2.01413">
        <ele>2</ele>
        <time>2019-04-30T06:16:57Z</time>
      </trkpt>
      <trkpt lat="46.95749" lon="-2.01434">
        <ele>2</ele>
        <time>2019-04-30T06:17:57Z</time>
      </trkpt>
      <trkpt lat="46.95737" lon="-2.01453">
        <ele>2</ele>
        <time>2019-04-30T06:18:57Z</time>
      </trkpt>
      <trkpt lat="46.95724" lon="-2.01466">
        <ele>2</ele>
        <time>2019-04-30T06:19:57Z</time>
      </trkpt>
      <trkpt lat="46.95707" lon="-2.01476">
        <ele>2</ele>
        <time>2019-04-30T06:20:57Z</time>
      </trkpt>
      <trkpt lat="46.95525" lon="-2.0155">
        <ele>2</ele>
        <time>2019-04-30T06:21:57Z</time>
      </trkpt>
      <trkpt lat="46.95433" lon="-2.0159">
        <ele>2</ele>
        <time>2019-04-30T06:22:57Z</time>
      </trkpt>
      <trkpt lat="46.95395" lon="-2.0162">
        <ele>1</ele>
        <time>2019-04-30T06:23:57Z</time>
      </trkpt>
      <trkpt lat="46.95375" lon="-2.01644">
        <ele>1</ele>
        <time>2019-04-30T06:24:57Z</time>
      </trkpt>
      <trkpt lat="46.95357" lon="-2.0167">
        <ele>1</ele>
        <time>2019-04-30T06:25:57Z</time>
      </trkpt>
      <trkpt lat="46.95291" lon="-2.01802">
        <ele>1</ele>
        <time>2019-04-30T06:26:57Z</time>
      </trkpt>
      <trkpt lat="46.95115" lon="-2.02163">
        <ele>1</ele>
        <time>2019-04-30T06:27:57Z</time>
      </trkpt>
      <trkpt lat="46.9509" lon="-2.022">
        <ele>1</ele>
        <time>2019-04-30T06:28:57Z</time>
      </trkpt>
      <trkpt lat="46.95069" lon="-2.02226">
        <ele>1</ele>
        <time>2019-04-30T06:29:57Z</time>
      </trkpt>
      <trkpt lat="46.95049" lon="-2.02248">
        <ele>1</ele>
        <time>2019-04-30T06:30:57Z</time>
      </trkpt>
      <trkpt lat="46.93497" lon="-2.03467">
        <ele>1</ele>
        <time>2019-04-30T06:31:57Z</time>
      </trkpt>
      <trkpt lat="46.92734" lon="-2.04064">
        <ele>2</ele>
        <time>2019-04-30T06:32:57Z</time>
      </trkpt>
      <trkpt lat="46.92704" lon="-2.04083">
        <ele>2</ele>
        <time>2019-04-30T06:33:57Z</time>
      </trkpt>
      <trkpt lat="46.92689" lon="-2.04087">
        <ele>2</ele>
        <time>2019-04-30T06:34:57Z</time>
      </trkpt>
      <trkpt lat="46.92673" lon="-2.04087">
        <ele>2</ele>
        <time>2019-04-30T06:35:57Z</time>
      </trkpt>
      <trkpt lat="46.92657" lon="-2.04085">
        <ele>2</ele>
        <time>2019-04-30T06:36:57Z</time>
      </trkpt>
      <trkpt lat="46.92533" lon="-2.04054">
        <ele>2</ele>
        <time>2019-04-30T06:37:57Z</time>
      </trkpt>
      <trkpt lat="46.92507" lon="-2.04051">
        <ele>3</ele>
        <time>2019-04-30T06:38:57Z</time>
      </trkpt>
      <trkpt lat="46.92479" lon="-2.04057">
        <ele>3</ele>
        <time>2019-04-30T06:39:57Z</time>
      </trkpt>
      <trkpt lat="46.92254" lon="-2.04157">
        <ele>3</ele>
        <time>2019-04-30T06:40:57Z</time>
      </trkpt>
      <trkpt lat="46.92032" lon="-2.04261">
        <ele>4</ele>
        <time>2019-04-30T06:41:57Z</time>
      </trkpt>
      <trkpt lat="46.91997" lon="-2.04283">
        <ele>4</ele>
        <time>2019-04-30T06:42:57Z</time>
      </trkpt>
      <trkpt lat="46.91897" lon="-2.04362">
        <ele>4</ele>
        <time>2019-04-30T06:43:57Z</time>
      </trkpt>
      <trkpt lat="46.91861" lon="-2.04401">
        <ele>4</ele>
        <time>2019-04-30T06:44:57Z</time>
      </trkpt>
      <trkpt lat="46.91856" lon="-2.04408">
        <ele>4</ele>
        <time>2019-04-30T06:45:57Z</time>
      </trkpt>
      <trkpt lat="46.91858" lon="-2.04412">
        <ele>4</ele>
        <time>2019-04-30T06:46:57Z</time>
      </trkpt>
      <trkpt lat="46.91856" lon="-2.04422">
        <ele>4</ele>
        <time>2019-04-30T06:47:57Z</time>
      </trkpt>
      <trkpt lat="46.91851" lon="-2.04426">
        <ele>4</ele>
        <time>2019-04-30T06:48:57Z</time>
      </trkpt>
      <trkpt lat="46.91845" lon="-2.04422">
        <ele>4</ele>
        <time>2019-04-30T06:49:57Z</time>
      </trkpt>
      <trkpt lat="46.91843" lon="-2.04414">
        <ele>4</ele>
        <time>2019-04-30T06:50:57Z</time>
      </trkpt>
      <trkpt lat="46.91844" lon="-2.04409">
        <ele>4</ele>
        <time>2019-04-30T06:51:57Z</time>
      </trkpt>
      <trkpt lat="46.918" lon="-2.04385">
        <ele>4</ele>
        <time>2019-04-30T06:52:57Z</time>
      </trkpt>
      <trkpt lat="46.91758" lon="-2.04354">
        <ele>3</ele>
        <time>2019-04-30T06:53:57Z</time>
      </trkpt>
      <trkpt lat="46.9174" lon="-2.04336">
        <ele>3</ele>
        <time>2019-04-30T06:54:57Z</time>
      </trkpt>
      <trkpt lat="46.91726" lon="-2.04319">
        <ele>4</ele>
        <time>2019-04-30T06:55:57Z</time>
      </trkpt>
      <trkpt lat="46.91683" lon="-2.04258">
        <ele>5</ele>
        <time>2019-04-30T06:56:57Z</time>
      </trkpt>
      <trkpt lat="46.91664" lon="-2.04243">
        <ele>5</ele>
        <time>2019-04-30T06:57:57Z</time>
      </trkpt>
      <trkpt lat="46.91637" lon="-2.04228">
        <ele>6</ele>
        <time>2019-04-30T06:58:57Z</time>
      </trkpt>
      <trkpt lat="46.91604" lon="-2.04161">
        <ele>6</ele>
        <time>2019-04-30T06:59:57Z</time>
      </trkpt>
      <trkpt lat="46.91593" lon="-2.04141">
        <ele>6</ele>
        <time>2019-04-30T07:00:57Z</time>
      </trkpt>
      <trkpt lat="46.91575" lon="-2.04126">
        <ele>6</ele>
        <time>2019-04-30T07:01:57Z</time>
      </trkpt>
      <trkpt lat="46.91567" lon="-2.04116">
        <ele>6</ele>
        <time>2019-04-30T07:02:57Z</time>
      </trkpt>
      <trkpt lat="46.91545" lon="-2.04079">
        <ele>5</ele>
        <time>2019-04-30T07:03:57Z</time>
      </trkpt>
      <trkpt lat="46.91519" lon="-2.04046">
        <ele>6</ele>
        <time>2019-04-30T07:04:57Z</time>
      </trkpt>
      <trkpt lat="46.91506" lon="-2.04041">
        <ele>6</ele>
        <time>2019-04-30T07:05:57Z</time>
      </trkpt>
      <trkpt lat="46.91501" lon="-2.04034">
        <ele>6</ele>
        <time>2019-04-30T07:06:57Z</time>
      </trkpt>
      <trkpt lat="46.91453" lon="-2.04013">
        <ele>6</ele>
        <time>2019-04-30T07:07:57Z</time>
      </trkpt>
      <trkpt lat="46.91393" lon="-2.0398">
        <ele>7</ele>
        <time>2019-04-30T07:08:57Z</time>
      </trkpt>
      <trkpt lat="46.91338" lon="-2.03945">
        <ele>8</ele>
        <time>2019-04-30T07:09:57Z</time>
      </trkpt>
      <trkpt lat="46.91316" lon="-2.03929">
        <ele>8</ele>
        <time>2019-04-30T07:10:57Z</time>
      </trkpt>
      <trkpt lat="46.91292" lon="-2.03907">
        <ele>8</ele>
        <time>2019-04-30T07:11:57Z</time>
      </trkpt>
      <trkpt lat="46.91273" lon="-2.03875">
        <ele>8</ele>
        <time>2019-04-30T07:12:57Z</time>
      </trkpt>
      <trkpt lat="46.9124" lon="-2.03802">
        <ele>8</ele>
        <time>2019-04-30T07:13:57Z</time>
      </trkpt>
      <trkpt lat="46.91215" lon="-2.03752">
        <ele>7</ele>
        <time>2019-04-30T07:14:57Z</time>
      </trkpt>
      <trkpt lat="46.9114" lon="-2.0359">
        <ele>11</ele>
        <time>2019-04-30T07:15:57Z</time>
      </trkpt>
      <trkpt lat="46.90875" lon="-2.03028">
        <ele>18</ele>
        <time>2019-04-30T07:16:57Z</time>
      </trkpt>
      <trkpt lat="46.90871" lon="-2.03009">
        <ele>18</ele>
        <time>2019-04-30T07:17:57Z</time>
      </trkpt>
      <trkpt lat="46.90867" lon="-2.03008">
        <ele>18</ele>
        <time>2019-04-30T07:18:57Z</time>
      </trkpt>
      <trkpt lat="46.90862" lon="-2.03003">
        <ele>18</ele>
        <time>2019-04-30T07:19:57Z</time>
      </trkpt>
      <trkpt lat="46.9086" lon="-2.02993">
        <ele>18</ele>
        <time>2019-04-30T07:20:57Z</time>
      </trkpt>
      <trkpt lat="46.90862" lon="-2.02988">
        <ele>18</ele>
        <time>2019-04-30T07:21:57Z</time>
      </trkpt>
      <trkpt lat="46.90851" lon="-2.02977">
        <ele>18</ele>
        <time>2019-04-30T07:22:57Z</time>
      </trkpt>
      <trkpt lat="46.90845" lon="-2.02965">
        <ele>18</ele>
        <time>2019-04-30T07:23:57Z</time>
      </trkpt>
      <trkpt lat="46.90665" lon="-2.02584">
        <ele>19</ele>
        <time>2019-04-30T07:24:57Z</time>
      </trkpt>
      <trkpt lat="46.90646" lon="-2.02541">
        <ele>20</ele>
        <time>2019-04-30T07:25:57Z</time>
      </trkpt>
      <trkpt lat="46.9063" lon="-2.02501">
        <ele>20</ele>
        <time>2019-04-30T07:26:57Z</time>
      </trkpt>
      <trkpt lat="46.90552" lon="-2.0226">
        <ele>18</ele>
        <time>2019-04-30T07:27:57Z</time>
      </trkpt>
      <trkpt lat="46.90533" lon="-2.02186">
        <ele>17</ele>
        <time>2019-04-30T07:28:57Z</time>
      </trkpt>
      <trkpt lat="46.90407" lon="-2.01478">
        <ele>11</ele>
        <time>2019-04-30T07:29:57Z</time>
      </trkpt>
      <trkpt lat="46.90397" lon="-2.01449">
        <ele>11</ele>
        <time>2019-04-30T07:30:57Z</time>
      </trkpt>
      <trkpt lat="46.9039" lon="-2.01444">
        <ele>10</ele>
        <time>2019-04-30T07:31:57Z</time>
      </trkpt>
      <trkpt lat="46.90386" lon="-2.01435">
        <ele>10</ele>
        <time>2019-04-30T07:32:57Z</time>
      </trkpt>
      <trkpt lat="46.90387" lon="-2.01424">
        <ele>10</ele>
        <time>2019-04-30T07:33:57Z</time>
      </trkpt>
      <trkpt lat="46.90391" lon="-2.01415">
        <ele>10</ele>
        <time>2019-04-30T07:34:57Z</time>
      </trkpt>
      <trkpt lat="46.90389" lon="-2.01378">
        <ele>10</ele>
        <time>2019-04-30T07:35:57Z</time>
      </trkpt>
      <trkpt lat="46.90318" lon="-2.0098">
        <ele>7</ele>
        <time>2019-04-30T07:36:57Z</time>
      </trkpt>
      <trkpt lat="46.90254" lon="-2.00612">
        <ele>6</ele>
        <time>2019-04-30T07:37:57Z</time>
      </trkpt>
      <trkpt lat="46.90254" lon="-2.00594">
        <ele>5</ele>
        <time>2019-04-30T07:38:57Z</time>
      </trkpt>
      <trkpt lat="46.90256" lon="-2.00509">
        <ele>6</ele>
        <time>2019-04-30T07:39:57Z</time>
      </trkpt>
      <trkpt lat="46.90263" lon="-2.00394">
        <ele>6</ele>
        <time>2019-04-30T07:40:57Z</time>
      </trkpt>
      <trkpt lat="46.90249" lon="-2.00286">
        <ele>6</ele>
        <time>2019-04-30T07:41:57Z</time>
      </trkpt>
      <trkpt lat="46.9024" lon="-2.00136">
        <ele>6</ele>
        <time>2019-04-30T07:42:57Z</time>
      </trkpt>
      <trkpt lat="46.90242" lon="-2.00088">
        <ele>7</ele>
        <time>2019-04-30T07:43:57Z</time>
      </trkpt>
      <trkpt lat="46.90174" lon="-2.00099">
        <ele>6</ele>
        <time>2019-04-30T07:44:57Z</time>
      </trkpt>
      <trkpt lat="46.90149" lon="-2.00105">
        <ele>6</ele>
        <time>2019-04-30T07:45:57Z</time>
      </trkpt>
      <trkpt lat="46.9005" lon="-2.00134">
        <ele>4</ele>
        <time>2019-04-30T07:46:57Z</time>
      </trkpt>
      <trkpt lat="46.8996" lon="-2.00164">
        <ele>4</ele>
        <time>2019-04-30T07:47:57Z</time>
      </trkpt>
      <trkpt lat="46.89926" lon="-2.00179">
        <ele>4</ele>
        <time>2019-04-30T07:48:57Z</time>
      </trkpt>
      <trkpt lat="46.89927" lon="-2.00185">
        <ele>4</ele>
        <time>2019-04-30T07:49:57Z</time>
      </trkpt>
      <trkpt lat="46.89926" lon="-2.00195">
        <ele>4</ele>
        <time>2019-04-30T07:50:57Z</time>
      </trkpt>
      <trkpt lat="46.89923" lon="-2.00203">
        <ele>4</ele>
        <time>2019-04-30T07:51:57Z</time>
      </trkpt>
      <trkpt lat="46.89918" lon="-2.00208">
        <ele>4</ele>
        <time>2019-04-30T07:52:57Z</time>
      </trkpt>
      <trkpt lat="46.89912" lon="-2.00211">
        <ele>3</ele>
        <time>2019-04-30T07:53:57Z</time>
      </trkpt>
      <trkpt lat="46.89906" lon="-2.00211">
        <ele>4</ele>
        <time>2019-04-30T07:54:57Z</time>
      </trkpt>
      <trkpt lat="46.899" lon="-2.00207">
        <ele>4</ele>
        <time>2019-04-30T07:55:57Z</time>
      </trkpt>
      <trkpt lat="46.89896" lon="-2.00202">
        <ele>4</ele>
        <time>2019-04-30T07:56:57Z</time>
      </trkpt>
      <trkpt lat="46.89893" lon="-2.00192">
        <ele>4</ele>
        <time>2019-04-30T07:57:57Z</time>
      </trkpt>
      <trkpt lat="46.89664" lon="-2.00293">
        <ele>3</ele>
        <time>2019-04-30T07:58:57Z</time>
      </trkpt>
      <trkpt lat="46.89519" lon="-2.00355">
        <ele>3</ele>
        <time>2019-04-30T07:59:57Z</time>
      </trkpt>
      <trkpt lat="46.89199" lon="-2.00549">
        <ele>1</ele>
        <time>2019-04-30T08:00:57Z</time>
      </trkpt>
      <trkpt lat="46.89152" lon="-2.00569">
        <ele>2</ele>
        <time>2019-04-30T08:01:57Z</time>
      </trkpt>
      <trkpt lat="46.89027" lon="-2.00611">
        <ele>2</ele>
        <time>2019-04-30T08:02:57Z</time>
      </trkpt>
      <trkpt lat="46.88642" lon="-2.00735">
        <ele>3</ele>
        <time>2019-04-30T08:03:57Z</time>
      </trkpt>
      <trkpt lat="46.88422" lon="-2.00787">
        <ele>4</ele>
        <time>2019-04-30T08:04:57Z</time>
      </trkpt>
      <trkpt lat="46.88395" lon="-2.00792">
        <ele>4</ele>
        <time>2019-04-30T08:05:57Z</time>
      </trkpt>
      <trkpt lat="46.88338" lon="-2.00797">
        <ele>4</ele>
        <time>2019-04-30T08:06:57Z</time>
      </trkpt>
      <trkpt lat="46.8813" lon="-2.00805">
        <ele>2</ele>
        <time>2019-04-30T08:07:57Z</time>
      </trkpt>
      <trkpt lat="46.88115" lon="-2.00807">
        <ele>2</ele>
        <time>2019-04-30T08:08:57Z</time>
      </trkpt>
      <trkpt lat="46.88109" lon="-2.00813">
        <ele>2</ele>
        <time>2019-04-30T08:09:57Z</time>
      </trkpt>
      <trkpt lat="46.88101" lon="-2.00811">
        <ele>2</ele>
        <time>2019-04-30T08:10:57Z</time>
      </trkpt>
      <trkpt lat="46.88092" lon="-2.00813">
        <ele>1</ele>
        <time>2019-04-30T08:11:57Z</time>
      </trkpt>
      <trkpt lat="46.88055" lon="-2.00824">
        <ele>1</ele>
        <time>2019-04-30T08:12:57Z</time>
      </trkpt>
      <trkpt lat="46.88015" lon="-2.00833">
        <ele>2</ele>
        <time>2019-04-30T08:13:57Z</time>
      </trkpt>
      <trkpt lat="46.87909" lon="-2.00898">
        <ele>2</ele>
        <time>2019-04-30T08:14:57Z</time>
      </trkpt>
      <trkpt lat="46.87869" lon="-2.00917">
        <ele>2</ele>
        <time>2019-04-30T08:15:57Z</time>
      </trkpt>
      <trkpt lat="46.87841" lon="-2.00927">
        <ele>2</ele>
        <time>2019-04-30T08:16:57Z</time>
      </trkpt>
      <trkpt lat="46.87823" lon="-2.0093">
        <ele>2</ele>
        <time>2019-04-30T08:17:57Z</time>
      </trkpt>
      <trkpt lat="46.87784" lon="-2.00932">
        <ele>2</ele>
        <time>2019-04-30T08:18:57Z</time>
      </trkpt>
      <trkpt lat="46.87684" lon="-2.00927">
        <ele>3</ele>
        <time>2019-04-30T08:19:57Z</time>
      </trkpt>
      <trkpt lat="46.87672" lon="-2.0093">
        <ele>3</ele>
        <time>2019-04-30T08:20:57Z</time>
      </trkpt>
      <trkpt lat="46.87671" lon="-2.00936">
        <ele>3</ele>
        <time>2019-04-30T08:21:57Z</time>
      </trkpt>
      <trkpt lat="46.87665" lon="-2.0094">
        <ele>3</ele>
        <time>2019-04-30T08:22:57Z</time>
      </trkpt>
      <trkpt lat="46.87662" lon="-2.00937">
        <ele>3</ele>
        <time>2019-04-30T08:23:57Z</time>
      </trkpt>
      <trkpt lat="46.87661" lon="-2.00929">
        <ele>3</ele>
        <time>2019-04-30T08:24:57Z</time>
      </trkpt>
      <trkpt lat="46.87655" lon="-2.0093">
        <ele>3</ele>
        <time>2019-04-30T08:25:57Z</time>
      </trkpt>
      <trkpt lat="46.87637" lon="-2.0094">
        <ele>3</ele>
        <time>2019-04-30T08:26:57Z</time>
      </trkpt>
      <trkpt lat="46.87417" lon="-2.01038">
        <ele>1</ele>
        <time>2019-04-30T08:27:57Z</time>
      </trkpt>
      <trkpt lat="46.87409" lon="-2.01043">
        <ele>1</ele>
        <time>2019-04-30T08:28:57Z</time>
      </trkpt>
      <trkpt lat="46.87366" lon="-2.01086">
        <ele>1.8</ele>
        <time>2019-04-30T08:29:57Z</time>
      </trkpt>
      <trkpt lat="46.87335" lon="-2.01124">
        <ele>1.4</ele>
        <time>2019-04-30T08:30:57Z</time>
      </trkpt>
      <trkpt lat="46.87267" lon="-2.01231">
        <ele>2</ele>
        <time>2019-04-30T08:31:57Z</time>
      </trkpt>
      <trkpt lat="46.87252" lon="-2.01249">
        <ele>2</ele>
        <time>2019-04-30T08:32:57Z</time>
      </trkpt>
      <trkpt lat="46.87234" lon="-2.01265">
        <ele>2</ele>
        <time>2019-04-30T08:33:57Z</time>
      </trkpt>
      <trkpt lat="46.87034" lon="-2.0142">
        <ele>1</ele>
        <time>2019-04-30T08:34:57Z</time>
      </trkpt>
      <trkpt lat="46.86829" lon="-2.01597">
        <ele>1</ele>
        <time>2019-04-30T08:35:57Z</time>
      </trkpt>
      <trkpt lat="46.86779" lon="-2.01638">
        <ele>1</ele>
        <time>2019-04-30T08:36:57Z</time>
      </trkpt>
      <trkpt lat="46.86763" lon="-2.01642">
        <ele>1</ele>
        <time>2019-04-30T08:37:57Z</time>
      </trkpt>
      <trkpt lat="46.86732" lon="-2.01634">
        <ele>1</ele>
        <time>2019-04-30T08:38:57Z</time>
      </trkpt>
      <trkpt lat="46.85668" lon="-2.01122">
        <ele>2</ele>
        <time>2019-04-30T08:39:57Z</time>
      </trkpt>
      <trkpt lat="46.85563" lon="-2.01069">
        <ele>1</ele>
        <time>2019-04-30T08:40:57Z</time>
      </trkpt>
      <trkpt lat="46.85111" lon="-2.00857">
        <ele>2</ele>
        <time>2019-04-30T08:41:57Z</time>
      </trkpt>
      <trkpt lat="46.83641" lon="-2.00155">
        <ele>1</ele>
        <time>2019-04-30T08:42:57Z</time>
      </trkpt>
      <trkpt lat="46.83562" lon="-2.00115">
        <ele>1</ele>
        <time>2019-04-30T08:43:57Z</time>
      </trkpt>
      <trkpt lat="46.83383" lon="-2.00032">
        <ele>1</ele>
        <time>2019-04-30T08:44:57Z</time>
      </trkpt>
      <trkpt lat="46.83302" lon="-1.99992">
        <ele>1</ele>
        <time>2019-04-30T08:45:57Z</time>
      </trkpt>
      <trkpt lat="46.82925" lon="-1.99814">
        <ele>1</ele>
        <time>2019-04-30T08:46:57Z</time>
      </trkpt>
      <trkpt lat="46.82837" lon="-1.99772">
        <ele>2</ele>
        <time>2019-04-30T08:47:57Z</time>
      </trkpt>
      <trkpt lat="46.82783" lon="-1.99743">
        <ele>2</ele>
        <time>2019-04-30T08:48:57Z</time>
      </trkpt>
      <trkpt lat="46.82608" lon="-1.9966">
        <ele>1</ele>
        <time>2019-04-30T08:49:57Z</time>
      </trkpt>
      <trkpt lat="46.82481" lon="-1.99601">
        <ele>1</ele>
        <time>2019-04-30T08:50:57Z</time>
      </trkpt>
      <trkpt lat="46.82442" lon="-1.99589">
        <ele>2</ele>
        <time>2019-04-30T08:51:57Z</time>
      </trkpt>
      <trkpt lat="46.82437" lon="-1.99594">
        <ele>2</ele>
        <time>2019-04-30T08:52:57Z</time>
      </trkpt>
      <trkpt lat="46.82428" lon="-1.99592">
        <ele>2</ele>
        <time>2019-04-30T08:53:57Z</time>
      </trkpt>
      <trkpt lat="46.82425" lon="-1.99588">
        <ele>2</ele>
        <time>2019-04-30T08:54:57Z</time>
      </trkpt>
      <trkpt lat="46.82421" lon="-1.99576">
        <ele>2</ele>
        <time>2019-04-30T08:55:57Z</time>
      </trkpt>
      <trkpt lat="46.82417" lon="-1.99573">
        <ele>2</ele>
        <time>2019-04-30T08:56:57Z</time>
      </trkpt>
      <trkpt lat="46.82315" lon="-1.99518">
        <ele>2</ele>
        <time>2019-04-30T08:57:57Z</time>
      </trkpt>
      <trkpt lat="46.8225" lon="-1.99473">
        <ele>2</ele>
        <time>2019-04-30T08:58:57Z</time>
      </trkpt>
      <trkpt lat="46.82181" lon="-1.99421">
        <ele>1</ele>
        <time>2019-04-30T08:59:57Z</time>
      </trkpt>
      <trkpt lat="46.82144" lon="-1.99398">
        <ele>1</ele>
        <time>2019-04-30T09:00:57Z</time>
      </trkpt>
      <trkpt lat="46.82128" lon="-1.99386">
        <ele>1</ele>
        <time>2019-04-30T09:01:57Z</time>
      </trkpt>
      <trkpt lat="46.82113" lon="-1.99377">
        <ele>1</ele>
        <time>2019-04-30T09:02:57Z</time>
      </trkpt>
      <trkpt lat="46.82" lon="-1.99339">
        <ele>2</ele>
        <time>2019-04-30T09:03:57Z</time>
      </trkpt>
      <trkpt lat="46.81927" lon="-1.99305">
        <ele>2</ele>
        <time>2019-04-30T09:04:57Z</time>
      </trkpt>
      <trkpt lat="46.8191" lon="-1.99308">
        <ele>2</ele>
        <time>2019-04-30T09:05:57Z</time>
      </trkpt>
      <trkpt lat="46.81904" lon="-1.99311">
        <ele>2</ele>
        <time>2019-04-30T09:06:57Z</time>
      </trkpt>
      <trkpt lat="46.81896" lon="-1.99306">
        <ele>2</ele>
        <time>2019-04-30T09:07:57Z</time>
      </trkpt>
      <trkpt lat="46.81894" lon="-1.993">
        <ele>2</ele>
        <time>2019-04-30T09:08:57Z</time>
      </trkpt>
      <trkpt lat="46.81885" lon="-1.99291">
        <ele>2</ele>
        <time>2019-04-30T09:09:57Z</time>
      </trkpt>
      <trkpt lat="46.81867" lon="-1.99279">
        <ele>2</ele>
        <time>2019-04-30T09:10:57Z</time>
      </trkpt>
      <trkpt lat="46.81859" lon="-1.99276">
        <ele>2</ele>
        <time>2019-04-30T09:11:57Z</time>
      </trkpt>
      <trkpt lat="46.81714" lon="-1.9924">
        <ele>1</ele>
        <time>2019-04-30T09:12:57Z</time>
      </trkpt>
      <trkpt lat="46.8165" lon="-1.9922">
        <ele>2</ele>
        <time>2019-04-30T09:13:57Z</time>
      </trkpt>
      <trkpt lat="46.81621" lon="-1.99202">
        <ele>2</ele>
        <time>2019-04-30T09:14:57Z</time>
      </trkpt>
      <trkpt lat="46.81602" lon="-1.9919">
        <ele>1</ele>
        <time>2019-04-30T09:15:57Z</time>
      </trkpt>
      <trkpt lat="46.81573" lon="-1.99163">
        <ele>1</ele>
        <time>2019-04-30T09:16:57Z</time>
      </trkpt>
      <trkpt lat="46.81549" lon="-1.99137">
        <ele>2</ele>
        <time>2019-04-30T09:17:57Z</time>
      </trkpt>
      <trkpt lat="46.81535" lon="-1.99117">
        <ele>2</ele>
        <time>2019-04-30T09:18:57Z</time>
      </trkpt>
      <trkpt lat="46.81532" lon="-1.99119">
        <ele>2</ele>
        <time>2019-04-30T09:19:57Z</time>
      </trkpt>
      <trkpt lat="46.81526" lon="-1.99119">
        <ele>2</ele>
        <time>2019-04-30T09:20:57Z</time>
      </trkpt>
      <trkpt lat="46.81523" lon="-1.99117">
        <ele>2</ele>
        <time>2019-04-30T09:21:57Z</time>
      </trkpt>
      <trkpt lat="46.81521" lon="-1.99114">
        <ele>2</ele>
        <time>2019-04-30T09:22:57Z</time>
      </trkpt>
      <trkpt lat="46.81519" lon="-1.99105">
        <ele>3</ele>
        <time>2019-04-30T09:23:57Z</time>
      </trkpt>
      <trkpt lat="46.81519" lon="-1.991">
        <ele>3</ele>
        <time>2019-04-30T09:24:57Z</time>
      </trkpt>
      <trkpt lat="46.81505" lon="-1.99092">
        <ele>3</ele>
        <time>2019-04-30T09:25:57Z</time>
      </trkpt>
      <trkpt lat="46.81489" lon="-1.99079">
        <ele>3</ele>
        <time>2019-04-30T09:26:57Z</time>
      </trkpt>
      <trkpt lat="46.81244" lon="-1.98834">
        <ele>1.8</ele>
        <time>2019-04-30T09:27:57Z</time>
      </trkpt>
      <trkpt lat="46.81218" lon="-1.9882">
        <ele>1.2</ele>
        <time>2019-04-30T09:28:57Z</time>
      </trkpt>
      <trkpt lat="46.81198" lon="-1.98819">
        <ele>1.9</ele>
        <time>2019-04-30T09:29:57Z</time>
      </trkpt>
      <trkpt lat="46.81183" lon="-1.98825">
        <ele>2</ele>
        <time>2019-04-30T09:30:57Z</time>
      </trkpt>
      <trkpt lat="46.81162" lon="-1.98849">
        <ele>1</ele>
        <time>2019-04-30T09:31:57Z</time>
      </trkpt>
      <trkpt lat="46.81124" lon="-1.98903">
        <ele>1</ele>
        <time>2019-04-30T09:32:57Z</time>
      </trkpt>
      <trkpt lat="46.81113" lon="-1.98913">
        <ele>1</ele>
        <time>2019-04-30T09:33:57Z</time>
      </trkpt>
      <trkpt lat="46.811" lon="-1.98917">
        <ele>1</ele>
        <time>2019-04-30T09:34:57Z</time>
      </trkpt>
      <trkpt lat="46.81074" lon="-1.98916">
        <ele>1</ele>
        <time>2019-04-30T09:35:57Z</time>
      </trkpt>
      <trkpt lat="46.8105" lon="-1.98905">
        <ele>1</ele>
        <time>2019-04-30T09:36:57Z</time>
      </trkpt>
      <trkpt lat="46.81019" lon="-1.98882">
        <ele>1</ele>
        <time>2019-04-30T09:37:57Z</time>
      </trkpt>
      <trkpt lat="46.80837" lon="-1.98735">
        <ele>2</ele>
        <time>2019-04-30T09:38:57Z</time>
      </trkpt>
      <trkpt lat="46.808" lon="-1.98697">
        <ele>1.9</ele>
        <time>2019-04-30T09:39:57Z</time>
      </trkpt>
      <trkpt lat="46.80508" lon="-1.98386">
        <ele>2.7</ele>
        <time>2019-04-30T09:40:57Z</time>
      </trkpt>
      <trkpt lat="46.80486" lon="-1.98371">
        <ele>1</ele>
        <time>2019-04-30T09:41:57Z</time>
      </trkpt>
      <trkpt lat="46.80479" lon="-1.98369">
        <ele>1</ele>
        <time>2019-04-30T09:42:57Z</time>
      </trkpt>
      <trkpt lat="46.80468" lon="-1.98371">
        <ele>1</ele>
        <time>2019-04-30T09:43:57Z</time>
      </trkpt>
      <trkpt lat="46.8046" lon="-1.98365">
        <ele>1</ele>
        <time>2019-04-30T09:44:57Z</time>
      </trkpt>
      <trkpt lat="46.80454" lon="-1.98352">
        <ele>1</ele>
        <time>2019-04-30T09:45:57Z</time>
      </trkpt>
      <trkpt lat="46.80454" lon="-1.98339">
        <ele>1</ele>
        <time>2019-04-30T09:46:57Z</time>
      </trkpt>
      <trkpt lat="46.80448" lon="-1.98325">
        <ele>1</ele>
        <time>2019-04-30T09:47:57Z</time>
      </trkpt>
      <trkpt lat="46.80438" lon="-1.98308">
        <ele>1</ele>
        <time>2019-04-30T09:48:57Z</time>
      </trkpt>
      <trkpt lat="46.80293" lon="-1.9814">
        <ele>2</ele>
        <time>2019-04-30T09:49:57Z</time>
      </trkpt>
      <trkpt lat="46.80266" lon="-1.98112">
        <ele>2</ele>
        <time>2019-04-30T09:50:57Z</time>
      </trkpt>
      <trkpt lat="46.80231" lon="-1.98091">
        <ele>2</ele>
        <time>2019-04-30T09:51:57Z</time>
      </trkpt>
      <trkpt lat="46.80063" lon="-1.98019">
        <ele>2</ele>
        <time>2019-04-30T09:52:57Z</time>
      </trkpt>
      <trkpt lat="46.80029" lon="-1.98001">
        <ele>2.9</ele>
        <time>2019-04-30T09:53:57Z</time>
      </trkpt>
      <trkpt lat="46.80009" lon="-1.97984">
        <ele>2.1</ele>
        <time>2019-04-30T09:54:57Z</time>
      </trkpt>
      <trkpt lat="46.79936" lon="-1.97898">
        <ele>2</ele>
        <time>2019-04-30T09:55:57Z</time>
      </trkpt>
      <trkpt lat="46.79897" lon="-1.97866">
        <ele>2</ele>
        <time>2019-04-30T09:56:57Z</time>
      </trkpt>
      <trkpt lat="46.79856" lon="-1.97842">
        <ele>2</ele>
        <time>2019-04-30T09:57:57Z</time>
      </trkpt>
      <trkpt lat="46.79836" lon="-1.97832">
        <ele>2</ele>
        <time>2019-04-30T09:58:57Z</time>
      </trkpt>
      <trkpt lat="46.79817" lon="-1.97825">
        <ele>2</ele>
        <time>2019-04-30T09:59:57Z</time>
      </trkpt>
      <trkpt lat="46.79783" lon="-1.97822">
        <ele>1</ele>
        <time>2019-04-30T10:00:57Z</time>
      </trkpt>
      <trkpt lat="46.79744" lon="-1.9783">
        <ele>1</ele>
        <time>2019-04-30T10:01:57Z</time>
      </trkpt>
      <trkpt lat="46.79598" lon="-1.97888">
        <ele>2</ele>
        <time>2019-04-30T10:02:57Z</time>
      </trkpt>
      <trkpt lat="46.79571" lon="-1.97895">
        <ele>2</ele>
        <time>2019-04-30T10:03:57Z</time>
      </trkpt>
      <trkpt lat="46.79506" lon="-1.97906">
        <ele>1.9</ele>
        <time>2019-04-30T10:04:57Z</time>
      </trkpt>
      <trkpt lat="46.79341" lon="-1.97926">
        <ele>1</ele>
        <time>2019-04-30T10:05:57Z</time>
      </trkpt>
      <trkpt lat="46.79302" lon="-1.97928">
        <ele>1</ele>
        <time>2019-04-30T10:06:57Z</time>
      </trkpt>
      <trkpt lat="46.79285" lon="-1.97921">
        <ele>1</ele>
        <time>2019-04-30T10:07:57Z</time>
      </trkpt>
      <trkpt lat="46.79269" lon="-1.9791">
        <ele>1</ele>
        <time>2019-04-30T10:08:57Z</time>
      </trkpt>
      <trkpt lat="46.79248" lon="-1.97885">
        <ele>1</ele>
        <time>2019-04-30T10:09:57Z</time>
      </trkpt>
      <trkpt lat="46.7905" lon="-1.97507">
        <ele>1</ele>
        <time>2019-04-30T10:10:57Z</time>
      </trkpt>
      <trkpt lat="46.79038" lon="-1.97487">
        <ele>1</ele>
        <time>2019-04-30T10:11:57Z</time>
      </trkpt>
      <trkpt lat="46.79024" lon="-1.97468">
        <ele>1</ele>
        <time>2019-04-30T10:12:57Z</time>
      </trkpt>
      <trkpt lat="46.78993" lon="-1.97435">
        <ele>2</ele>
        <time>2019-04-30T10:13:57Z</time>
      </trkpt>
      <trkpt lat="46.78974" lon="-1.97421">
        <ele>2</ele>
        <time>2019-04-30T10:14:57Z</time>
      </trkpt>
      <trkpt lat="46.78954" lon="-1.97409">
        <ele>2</ele>
        <time>2019-04-30T10:15:57Z</time>
      </trkpt>
      <trkpt lat="46.78521" lon="-1.97243">
        <ele>5</ele>
        <time>2019-04-30T10:16:57Z</time>
      </trkpt>
      <trkpt lat="46.78423" lon="-1.972">
        <ele>5</ele>
        <time>2019-04-30T10:17:57Z</time>
      </trkpt>
      <trkpt lat="46.77947" lon="-1.96937">
        <ele>3</ele>
        <time>2019-04-30T10:18:57Z</time>
      </trkpt>
      <trkpt lat="46.77912" lon="-1.9692">
        <ele>3</ele>
        <time>2019-04-30T10:19:57Z</time>
      </trkpt>
      <trkpt lat="46.77766" lon="-1.96861">
        <ele>4</ele>
        <time>2019-04-30T10:20:57Z</time>
      </trkpt>
      <trkpt lat="46.77747" lon="-1.9685">
        <ele>4</ele>
        <time>2019-04-30T10:21:57Z</time>
      </trkpt>
      <trkpt lat="46.77713" lon="-1.96822">
        <ele>3</ele>
        <time>2019-04-30T10:22:57Z</time>
      </trkpt>
      <trkpt lat="46.7766" lon="-1.96774">
        <ele>3</ele>
        <time>2019-04-30T10:23:57Z</time>
      </trkpt>
      <trkpt lat="46.77223" lon="-1.96351">
        <ele>5</ele>
        <time>2019-04-30T10:24:57Z</time>
      </trkpt>
      <trkpt lat="46.77192" lon="-1.96329">
        <ele>6</ele>
        <time>2019-04-30T10:25:57Z</time>
      </trkpt>
      <trkpt lat="46.77171" lon="-1.96322">
        <ele>7</ele>
        <time>2019-04-30T10:26:57Z</time>
      </trkpt>
      <trkpt lat="46.7717" lon="-1.96326">
        <ele>7</ele>
        <time>2019-04-30T10:27:57Z</time>
      </trkpt>
      <trkpt lat="46.77164" lon="-1.96335">
        <ele>7</ele>
        <time>2019-04-30T10:28:57Z</time>
      </trkpt>
      <trkpt lat="46.77158" lon="-1.96336">
        <ele>7</ele>
        <time>2019-04-30T10:29:57Z</time>
      </trkpt>
      <trkpt lat="46.77153" lon="-1.9633">
        <ele>7</ele>
        <time>2019-04-30T10:30:57Z</time>
      </trkpt>
      <trkpt lat="46.77151" lon="-1.96321">
        <ele>7</ele>
        <time>2019-04-30T10:31:57Z</time>
      </trkpt>
      <trkpt lat="46.77151" lon="-1.96316">
        <ele>6</ele>
        <time>2019-04-30T10:32:57Z</time>
      </trkpt>
      <trkpt lat="46.7714" lon="-1.96309">
        <ele>6</ele>
        <time>2019-04-30T10:33:57Z</time>
      </trkpt>
      <trkpt lat="46.77126" lon="-1.96304">
        <ele>6</ele>
        <time>2019-04-30T10:34:57Z</time>
      </trkpt>
      <trkpt lat="46.76837" lon="-1.96265">
        <ele>3</ele>
        <time>2019-04-30T10:35:57Z</time>
      </trkpt>
      <trkpt lat="46.76805" lon="-1.96258">
        <ele>3</ele>
        <time>2019-04-30T10:36:57Z</time>
      </trkpt>
      <trkpt lat="46.76671" lon="-1.96208">
        <ele>3</ele>
        <time>2019-04-30T10:37:57Z</time>
      </trkpt>
      <trkpt lat="46.76378" lon="-1.96105">
        <ele>2</ele>
        <time>2019-04-30T10:38:57Z</time>
      </trkpt>
      <trkpt lat="46.76318" lon="-1.96079">
        <ele>3</ele>
        <time>2019-04-30T10:39:57Z</time>
      </trkpt>
      <trkpt lat="46.76203" lon="-1.96006">
        <ele>4</ele>
        <time>2019-04-30T10:40:57Z</time>
      </trkpt>
      <trkpt lat="46.7607" lon="-1.95948">
        <ele>4</ele>
        <time>2019-04-30T10:41:57Z</time>
      </trkpt>
      <trkpt lat="46.7603" lon="-1.95935">
        <ele>5</ele>
        <time>2019-04-30T10:42:57Z</time>
      </trkpt>
      <trkpt lat="46.76009" lon="-1.95931">
        <ele>5</ele>
        <time>2019-04-30T10:43:57Z</time>
      </trkpt>
      <trkpt lat="46.75719" lon="-1.95911">
        <ele>3</ele>
        <time>2019-04-30T10:44:57Z</time>
      </trkpt>
      <trkpt lat="46.75698" lon="-1.95907">
        <ele>3</ele>
        <time>2019-04-30T10:45:57Z</time>
      </trkpt>
      <trkpt lat="46.75586" lon="-1.95876">
        <ele>1</ele>
        <time>2019-04-30T10:46:57Z</time>
      </trkpt>
      <trkpt lat="46.75531" lon="-1.95858">
        <ele>2</ele>
        <time>2019-04-30T10:47:57Z</time>
      </trkpt>
      <trkpt lat="46.75298" lon="-1.95736">
        <ele>1</ele>
        <time>2019-04-30T10:48:57Z</time>
      </trkpt>
      <trkpt lat="46.75263" lon="-1.9572">
        <ele>1</ele>
        <time>2019-04-30T10:49:57Z</time>
      </trkpt>
      <trkpt lat="46.75243" lon="-1.95714">
        <ele>1</ele>
        <time>2019-04-30T10:50:57Z</time>
      </trkpt>
      <trkpt lat="46.75224" lon="-1.95711">
        <ele>1</ele>
        <time>2019-04-30T10:51:57Z</time>
      </trkpt>
      <trkpt lat="46.75116" lon="-1.95707">
        <ele>1</ele>
        <time>2019-04-30T10:52:57Z</time>
      </trkpt>
      <trkpt lat="46.75087" lon="-1.95702">
        <ele>1</ele>
        <time>2019-04-30T10:53:57Z</time>
      </trkpt>
      <trkpt lat="46.7506" lon="-1.95692">
        <ele>1</ele>
        <time>2019-04-30T10:54:57Z</time>
      </trkpt>
      <trkpt lat="46.74859" lon="-1.95595">
        <ele>1</ele>
        <time>2019-04-30T10:55:57Z</time>
      </trkpt>
      <trkpt lat="46.74821" lon="-1.9558">
        <ele>2</ele>
        <time>2019-04-30T10:56:57Z</time>
      </trkpt>
      <trkpt lat="46.74788" lon="-1.95573">
        <ele>2</ele>
        <time>2019-04-30T10:57:57Z</time>
      </trkpt>
      <trkpt lat="46.7477" lon="-1.95572">
        <ele>1</ele>
        <time>2019-04-30T10:58:57Z</time>
      </trkpt>
      <trkpt lat="46.74662" lon="-1.9558">
        <ele>2</ele>
        <time>2019-04-30T10:59:57Z</time>
      </trkpt>
      <trkpt lat="46.74638" lon="-1.95578">
        <ele>2</ele>
        <time>2019-04-30T11:00:57Z</time>
      </trkpt>
      <trkpt lat="46.74498" lon="-1.95548">
        <ele>2</ele>
        <time>2019-04-30T11:01:57Z</time>
      </trkpt>
      <trkpt lat="46.74497" lon="-1.95539">
        <ele>1</ele>
        <time>2019-04-30T11:02:57Z</time>
      </trkpt>
      <trkpt lat="46.74489" lon="-1.95524">
        <ele>1</ele>
        <time>2019-04-30T11:03:57Z</time>
      </trkpt>
      <trkpt lat="46.74487" lon="-1.95496">
        <ele>1</ele>
        <time>2019-04-30T11:04:57Z</time>
      </trkpt>
      <trkpt lat="46.74484" lon="-1.9549">
        <ele>1</ele>
        <time>2019-04-30T11:05:57Z</time>
      </trkpt>
      <trkpt lat="46.74546" lon="-1.95425">
        <ele>2</ele>
        <time>2019-04-30T11:06:57Z</time>
      </trkpt>
      <trkpt lat="46.74484" lon="-1.9549">
        <ele>1</ele>
        <time>2019-04-30T11:07:57Z</time>
      </trkpt>
      <trkpt lat="46.74473" lon="-1.95503">
        <ele>1</ele>
        <time>2019-04-30T11:08:57Z</time>
      </trkpt>
      <trkpt lat="46.74469" lon="-1.95508">
        <ele>1</ele>
        <time>2019-04-30T11:09:57Z</time>
      </trkpt>
      <trkpt lat="46.74465" lon="-1.9552">
        <ele>1</ele>
        <time>2019-04-30T11:10:57Z</time>
      </trkpt>
      <trkpt lat="46.74467" lon="-1.95525">
        <ele>1</ele>
        <time>2019-04-30T11:11:57Z</time>
      </trkpt>
      <trkpt lat="46.74469" lon="-1.95535">
        <ele>1</ele>
        <time>2019-04-30T11:12:57Z</time>
      </trkpt>
      <trkpt lat="46.74468" lon="-1.9554">
        <ele>1</ele>
        <time>2019-04-30T11:13:57Z</time>
      </trkpt>
      <trkpt lat="46.74462" lon="-1.9555">
        <ele>2</ele>
        <time>2019-04-30T11:14:57Z</time>
      </trkpt>
      <trkpt lat="46.74456" lon="-1.95552">
        <ele>1</ele>
        <time>2019-04-30T11:15:57Z</time>
      </trkpt>
      <trkpt lat="46.74449" lon="-1.95549">
        <ele>1</ele>
        <time>2019-04-30T11:16:57Z</time>
      </trkpt>
      <trkpt lat="46.74446" lon="-1.95546">
        <ele>1</ele>
        <time>2019-04-30T11:17:57Z</time>
      </trkpt>
      <trkpt lat="46.7444" lon="-1.95526">
        <ele>2</ele>
        <time>2019-04-30T11:18:57Z</time>
      </trkpt>
      <trkpt lat="46.74432" lon="-1.95513">
        <ele>2</ele>
        <time>2019-04-30T11:19:57Z</time>
      </trkpt>
      <trkpt lat="46.74423" lon="-1.95509">
        <ele>2</ele>
        <time>2019-04-30T11:20:57Z</time>
      </trkpt>
      <trkpt lat="46.74397" lon="-1.95503">
        <ele>2</ele>
        <time>2019-04-30T11:21:57Z</time>
      </trkpt>
      <trkpt lat="46.74285" lon="-1.95482">
        <ele>1</ele>
        <time>2019-04-30T11:22:57Z</time>
      </trkpt>
      <trkpt lat="46.74184" lon="-1.95449">
        <ele>2</ele>
        <time>2019-04-30T11:23:57Z</time>
      </trkpt>
      <trkpt lat="46.74103" lon="-1.95397">
        <ele>4</ele>
        <time>2019-04-30T11:24:57Z</time>
      </trkpt>
      <trkpt lat="46.73989" lon="-1.95314">
        <ele>5</ele>
        <time>2019-04-30T11:25:57Z</time>
      </trkpt>
      <trkpt lat="46.73872" lon="-1.95264">
        <ele>3</ele>
        <time>2019-04-30T11:26:57Z</time>
      </trkpt>
      <trkpt lat="46.73778" lon="-1.95229">
        <ele>4</ele>
        <time>2019-04-30T11:27:57Z</time>
      </trkpt>
      <trkpt lat="46.73549" lon="-1.95091">
        <ele>3</ele>
        <time>2019-04-30T11:28:57Z</time>
      </trkpt>
      <trkpt lat="46.7351" lon="-1.95075">
        <ele>4</ele>
        <time>2019-04-30T11:29:57Z</time>
      </trkpt>
      <trkpt lat="46.73493" lon="-1.95064">
        <ele>4</ele>
        <time>2019-04-30T11:30:57Z</time>
      </trkpt>
      <trkpt lat="46.73475" lon="-1.95069">
        <ele>4</ele>
        <time>2019-04-30T11:31:57Z</time>
      </trkpt>
      <trkpt lat="46.73387" lon="-1.95052">
        <ele>4</ele>
        <time>2019-04-30T11:32:57Z</time>
      </trkpt>
      <trkpt lat="46.73387" lon="-1.95046">
        <ele>4</ele>
        <time>2019-04-30T11:33:57Z</time>
      </trkpt>
      <trkpt lat="46.73438" lon="-1.95053">
        <ele>5</ele>
        <time>2019-04-30T11:34:57Z</time>
      </trkpt>
      <trkpt lat="46.73451" lon="-1.95054">
        <ele>5</ele>
        <time>2019-04-30T11:35:57Z</time>
      </trkpt>
      <trkpt lat="46.73438" lon="-1.95053">
        <ele>5</ele>
        <time>2019-04-30T11:36:57Z</time>
      </trkpt>
      <trkpt lat="46.73387" lon="-1.95046">
        <ele>4</ele>
        <time>2019-04-30T11:37:57Z</time>
      </trkpt>
      <trkpt lat="46.73128" lon="-1.95">
        <ele>7</ele>
        <time>2019-04-30T11:38:57Z</time>
      </trkpt>
      <trkpt lat="46.73037" lon="-1.94969">
        <ele>6</ele>
        <time>2019-04-30T11:39:57Z</time>
      </trkpt>
      <trkpt lat="46.72935" lon="-1.94931">
        <ele>4</ele>
        <time>2019-04-30T11:40:57Z</time>
      </trkpt>
      <trkpt lat="46.72898" lon="-1.94921">
        <ele>4</ele>
        <time>2019-04-30T11:41:57Z</time>
      </trkpt>
      <trkpt lat="46.72885" lon="-1.9492">
        <ele>4</ele>
        <time>2019-04-30T11:42:57Z</time>
      </trkpt>
      <trkpt lat="46.72837" lon="-1.94921">
        <ele>4</ele>
        <time>2019-04-30T11:43:57Z</time>
      </trkpt>
      <trkpt lat="46.72826" lon="-1.94913">
        <ele>4</ele>
        <time>2019-04-30T11:44:57Z</time>
      </trkpt>
      <trkpt lat="46.72827" lon="-1.94901">
        <ele>4</ele>
        <time>2019-04-30T11:45:57Z</time>
      </trkpt>
      <trkpt lat="46.72825" lon="-1.94874">
        <ele>4</ele>
        <time>2019-04-30T11:46:57Z</time>
      </trkpt>
      <trkpt lat="46.72823" lon="-1.94862">
        <ele>4</ele>
        <time>2019-04-30T11:47:57Z</time>
      </trkpt>
      <trkpt lat="46.72819" lon="-1.94858">
        <ele>4</ele>
        <time>2019-04-30T11:48:57Z</time>
      </trkpt>
      <trkpt lat="46.72812" lon="-1.94864">
        <ele>4</ele>
        <time>2019-04-30T11:49:57Z</time>
      </trkpt>
      <trkpt lat="46.728" lon="-1.94858">
        <ele>5</ele>
        <time>2019-04-30T11:50:57Z</time>
      </trkpt>
      <trkpt lat="46.72792" lon="-1.94862">
        <ele>5</ele>
        <time>2019-04-30T11:51:57Z</time>
      </trkpt>
      <trkpt lat="46.72786" lon="-1.94862">
        <ele>5</ele>
        <time>2019-04-30T11:52:57Z</time>
      </trkpt>
      <trkpt lat="46.72776" lon="-1.94853">
        <ele>5</ele>
        <time>2019-04-30T11:53:57Z</time>
      </trkpt>
      <trkpt lat="46.72772" lon="-1.94846">
        <ele>5</ele>
        <time>2019-04-30T11:54:57Z</time>
      </trkpt>
      <trkpt lat="46.72546" lon="-1.94447">
        <ele>4</ele>
        <time>2019-04-30T11:55:57Z</time>
      </trkpt>
      <trkpt lat="46.7253" lon="-1.9441">
        <ele>4</ele>
        <time>2019-04-30T11:56:57Z</time>
      </trkpt>
      <trkpt lat="46.72496" lon="-1.94356">
        <ele>4</ele>
        <time>2019-04-30T11:57:57Z</time>
      </trkpt>
      <trkpt lat="46.72485" lon="-1.94306">
        <ele>4</ele>
        <time>2019-04-30T11:58:57Z</time>
      </trkpt>
      <trkpt lat="46.72472" lon="-1.94301">
        <ele>4</ele>
        <time>2019-04-30T11:59:57Z</time>
      </trkpt>
      <trkpt lat="46.72463" lon="-1.94292">
        <ele>4</ele>
        <time>2019-04-30T12:00:57Z</time>
      </trkpt>
      <trkpt lat="46.72417" lon="-1.94215">
        <ele>3</ele>
        <time>2019-04-30T12:01:57Z</time>
      </trkpt>
      <trkpt lat="46.72382" lon="-1.94149">
        <ele>3</ele>
        <time>2019-04-30T12:02:57Z</time>
      </trkpt>
      <trkpt lat="46.72334" lon="-1.94067">
        <ele>3</ele>
        <time>2019-04-30T12:03:57Z</time>
      </trkpt>
      <trkpt lat="46.72302" lon="-1.94025">
        <ele>2</ele>
        <time>2019-04-30T12:04:57Z</time>
      </trkpt>
      <trkpt lat="46.72283" lon="-1.94012">
        <ele>1</ele>
        <time>2019-04-30T12:05:57Z</time>
      </trkpt>
      <trkpt lat="46.72224" lon="-1.93984">
        <ele>1</ele>
        <time>2019-04-30T12:06:57Z</time>
      </trkpt>
      <trkpt lat="46.72167" lon="-1.93951">
        <ele>3</ele>
        <time>2019-04-30T12:07:57Z</time>
      </trkpt>
      <trkpt lat="46.72134" lon="-1.93938">
        <ele>2</ele>
        <time>2019-04-30T12:08:57Z</time>
      </trkpt>
      <trkpt lat="46.72078" lon="-1.93925">
        <ele>2</ele>
        <time>2019-04-30T12:09:57Z</time>
      </trkpt>
      <trkpt lat="46.72043" lon="-1.93923">
        <ele>2</ele>
        <time>2019-04-30T12:10:57Z</time>
      </trkpt>
      <trkpt lat="46.71991" lon="-1.93928">
        <ele>1</ele>
        <time>2019-04-30T12:11:57Z</time>
      </trkpt>
      <trkpt lat="46.71931" lon="-1.93946">
        <ele>1</ele>
        <time>2019-04-30T12:12:57Z</time>
      </trkpt>
      <trkpt lat="46.71909" lon="-1.93948">
        <ele>1</ele>
        <time>2019-04-30T12:13:57Z</time>
      </trkpt>
      <trkpt lat="46.71826" lon="-1.93971">
        <ele>1</ele>
        <time>2019-04-30T12:14:57Z</time>
      </trkpt>
      <trkpt lat="46.71815" lon="-1.93965">
        <ele>1</ele>
        <time>2019-04-30T12:15:57Z</time>
      </trkpt>
      <trkpt lat="46.71807" lon="-1.93965">
        <ele>1</ele>
        <time>2019-04-30T12:16:57Z</time>
      </trkpt>
      <trkpt lat="46.71798" lon="-1.9397">
        <ele>1</ele>
        <time>2019-04-30T12:17:57Z</time>
      </trkpt>
      <trkpt lat="46.71793" lon="-1.93979">
        <ele>1</ele>
        <time>2019-04-30T12:18:57Z</time>
      </trkpt>
      <trkpt lat="46.71759" lon="-1.93992">
        <ele>1</ele>
        <time>2019-04-30T12:19:57Z</time>
      </trkpt>
      <trkpt lat="46.71446" lon="-1.94064">
        <ele>3</ele>
        <time>2019-04-30T12:20:57Z</time>
      </trkpt>
      <trkpt lat="46.71366" lon="-1.94081">
        <ele>4</ele>
        <time>2019-04-30T12:21:57Z</time>
      </trkpt>
      <trkpt lat="46.71342" lon="-1.94082">
        <ele>4</ele>
        <time>2019-04-30T12:22:57Z</time>
      </trkpt>
      <trkpt lat="46.71302" lon="-1.94088">
        <ele>4</ele>
        <time>2019-04-30T12:23:57Z</time>
      </trkpt>
      <trkpt lat="46.70949" lon="-1.94171">
        <ele>3</ele>
        <time>2019-04-30T12:24:57Z</time>
      </trkpt>
      <trkpt lat="46.70851" lon="-1.94195">
        <ele>4</ele>
        <time>2019-04-30T12:25:57Z</time>
      </trkpt>
      <trkpt lat="46.70793" lon="-1.94203">
        <ele>5</ele>
        <time>2019-04-30T12:26:57Z</time>
      </trkpt>
      <trkpt lat="46.70716" lon="-1.94204">
        <ele>6</ele>
        <time>2019-04-30T12:27:57Z</time>
      </trkpt>
      <trkpt lat="46.70707" lon="-1.94202">
        <ele>6</ele>
        <time>2019-04-30T12:28:57Z</time>
      </trkpt>
      <trkpt lat="46.70695" lon="-1.94195">
        <ele>6</ele>
        <time>2019-04-30T12:29:57Z</time>
      </trkpt>
      <trkpt lat="46.70685" lon="-1.94193">
        <ele>6</ele>
        <time>2019-04-30T12:30:57Z</time>
      </trkpt>
      <trkpt lat="46.70611" lon="-1.94188">
        <ele>5</ele>
        <time>2019-04-30T12:31:57Z</time>
      </trkpt>
      <trkpt lat="46.70564" lon="-1.9418">
        <ele>5</ele>
        <time>2019-04-30T12:32:57Z</time>
      </trkpt>
      <trkpt lat="46.70541" lon="-1.94169">
        <ele>4</ele>
        <time>2019-04-30T12:33:57Z</time>
      </trkpt>
      <trkpt lat="46.70502" lon="-1.94147">
        <ele>4</ele>
        <time>2019-04-30T12:34:57Z</time>
      </trkpt>
      <trkpt lat="46.70444" lon="-1.94121">
        <ele>4</ele>
        <time>2019-04-30T12:35:57Z</time>
      </trkpt>
      <trkpt lat="46.70408" lon="-1.94095">
        <ele>4</ele>
        <time>2019-04-30T12:36:57Z</time>
      </trkpt>
      <trkpt lat="46.70387" lon="-1.94076">
        <ele>4</ele>
        <time>2019-04-30T12:37:57Z</time>
      </trkpt>
      <trkpt lat="46.70376" lon="-1.94054">
        <ele>4</ele>
        <time>2019-04-30T12:38:57Z</time>
      </trkpt>
      <trkpt lat="46.70329" lon="-1.93995">
        <ele>3</ele>
        <time>2019-04-30T12:39:57Z</time>
      </trkpt>
      <trkpt lat="46.70287" lon="-1.93926">
        <ele>3</ele>
        <time>2019-04-30T12:40:57Z</time>
      </trkpt>
      <trkpt lat="46.7027" lon="-1.93942">
        <ele>2</ele>
        <time>2019-04-30T12:41:57Z</time>
      </trkpt>
      <trkpt lat="46.70259" lon="-1.93932">
        <ele>2</ele>
        <time>2019-04-30T12:42:57Z</time>
      </trkpt>
      <trkpt lat="46.70251" lon="-1.9393">
        <ele>2</ele>
        <time>2019-04-30T12:43:57Z</time>
      </trkpt>
      <trkpt lat="46.70244" lon="-1.9392">
        <ele>2</ele>
        <time>2019-04-30T12:44:57Z</time>
      </trkpt>
      <trkpt lat="46.70242" lon="-1.93906">
        <ele>2</ele>
        <time>2019-04-30T12:45:57Z</time>
      </trkpt>
      <trkpt lat="46.70244" lon="-1.93895">
        <ele>3</ele>
        <time>2019-04-30T12:46:57Z</time>
      </trkpt>
      <trkpt lat="46.70244" lon="-1.93888">
        <ele>3</ele>
        <time>2019-04-30T12:47:57Z</time>
      </trkpt>
      <trkpt lat="46.70242" lon="-1.93873">
        <ele>3</ele>
        <time>2019-04-30T12:48:57Z</time>
      </trkpt>
      <trkpt lat="46.70211" lon="-1.93766">
        <ele>3</ele>
        <time>2019-04-30T12:49:57Z</time>
      </trkpt>
      <trkpt lat="46.70135" lon="-1.93439">
        <ele>1</ele>
        <time>2019-04-30T12:50:57Z</time>
      </trkpt>
      <trkpt lat="46.70125" lon="-1.93409">
        <ele>1</ele>
        <time>2019-04-30T12:51:57Z</time>
      </trkpt>
      <trkpt lat="46.70118" lon="-1.93405">
        <ele>2</ele>
        <time>2019-04-30T12:52:57Z</time>
      </trkpt>
      <trkpt lat="46.70115" lon="-1.93399">
        <ele>2</ele>
        <time>2019-04-30T12:53:57Z</time>
      </trkpt>
      <trkpt lat="46.70113" lon="-1.93385">
        <ele>2</ele>
        <time>2019-04-30T12:54:57Z</time>
      </trkpt>
      <trkpt lat="46.70116" lon="-1.93375">
        <ele>2</ele>
        <time>2019-04-30T12:55:57Z</time>
      </trkpt>
      <trkpt lat="46.70113" lon="-1.93346">
        <ele>1</ele>
        <time>2019-04-30T12:56:57Z</time>
      </trkpt>
      <trkpt lat="46.70094" lon="-1.93269">
        <ele>2</ele>
        <time>2019-04-30T12:57:57Z</time>
      </trkpt>
      <trkpt lat="46.70089" lon="-1.93239">
        <ele>3</ele>
        <time>2019-04-30T12:58:57Z</time>
      </trkpt>
      <trkpt lat="46.69998" lon="-1.92846">
        <ele>4</ele>
        <time>2019-04-30T12:59:57Z</time>
      </trkpt>
      <trkpt lat="46.69964" lon="-1.92687">
        <ele>6</ele>
        <time>2019-04-30T13:00:57Z</time>
      </trkpt>
      <trkpt lat="46.69925" lon="-1.92525">
        <ele>5</ele>
        <time>2019-04-30T13:01:57Z</time>
      </trkpt>
      <trkpt lat="46.69776" lon="-1.91862">
        <ele>8</ele>
        <time>2019-04-30T13:02:57Z</time>
      </trkpt>
      <trkpt lat="46.69762" lon="-1.91808">
        <ele>8</ele>
        <time>2019-04-30T13:03:57Z</time>
      </trkpt>
      <trkpt lat="46.69747" lon="-1.91766">
        <ele>7</ele>
        <time>2019-04-30T13:04:57Z</time>
      </trkpt>
      <trkpt lat="46.69722" lon="-1.91705">
        <ele>6</ele>
        <time>2019-04-30T13:05:57Z</time>
      </trkpt>
      <trkpt lat="46.69697" lon="-1.91654">
        <ele>7</ele>
        <time>2019-04-30T13:06:57Z</time>
      </trkpt>
      <trkpt lat="46.69675" lon="-1.91618">
        <ele>8</ele>
        <time>2019-04-30T13:07:57Z</time>
      </trkpt>
      <trkpt lat="46.69653" lon="-1.91593">
        <ele>9</ele>
        <time>2019-04-30T13:08:57Z</time>
      </trkpt>
      <trkpt lat="46.6965" lon="-1.91592">
        <ele>9</ele>
        <time>2019-04-30T13:09:57Z</time>
      </trkpt>
      <trkpt lat="46.69645" lon="-1.91587">
        <ele>9</ele>
        <time>2019-04-30T13:10:57Z</time>
      </trkpt>
      <trkpt lat="46.69642" lon="-1.91579">
        <ele>10</ele>
        <time>2019-04-30T13:11:57Z</time>
      </trkpt>
      <trkpt lat="46.69638" lon="-1.9157">
        <ele>10</ele>
        <time>2019-04-30T13:12:57Z</time>
      </trkpt>
      <trkpt lat="46.69599" lon="-1.91526">
        <ele>12</ele>
        <time>2019-04-30T13:13:57Z</time>
      </trkpt>
      <trkpt lat="46.69574" lon="-1.91502">
        <ele>12</ele>
        <time>2019-04-30T13:14:57Z</time>
      </trkpt>
      <trkpt lat="46.69549" lon="-1.91481">
        <ele>13</ele>
        <time>2019-04-30T13:15:57Z</time>
      </trkpt>
      <trkpt lat="46.69512" lon="-1.91459">
        <ele>13</ele>
        <time>2019-04-30T13:16:57Z</time>
      </trkpt>
      <trkpt lat="46.69509" lon="-1.91466">
        <ele>13</ele>
        <time>2019-04-30T13:17:57Z</time>
      </trkpt>
      <trkpt lat="46.69494" lon="-1.91465">
        <ele>14</ele>
        <time>2019-04-30T13:18:57Z</time>
      </trkpt>
      <trkpt lat="46.69485" lon="-1.9147">
        <ele>14</ele>
        <time>2019-04-30T13:19:57Z</time>
      </trkpt>
      <trkpt lat="46.69478" lon="-1.91481">
        <ele>15</ele>
        <time>2019-04-30T13:20:57Z</time>
      </trkpt>
      <trkpt lat="46.69462" lon="-1.91477">
        <ele>15</ele>
        <time>2019-04-30T13:21:57Z</time>
      </trkpt>
      <trkpt lat="46.69457" lon="-1.91462">
        <ele>15</ele>
        <time>2019-04-30T13:22:57Z</time>
      </trkpt>
      <trkpt lat="46.6945" lon="-1.91456">
        <ele>16</ele>
        <time>2019-04-30T13:23:57Z</time>
      </trkpt>
      <trkpt lat="46.69444" lon="-1.91448">
        <ele>16</ele>
        <time>2019-04-30T13:24:57Z</time>
      </trkpt>
      <trkpt lat="46.6944" lon="-1.91438">
        <ele>16</ele>
        <time>2019-04-30T13:25:57Z</time>
      </trkpt>
      <trkpt lat="46.69437" lon="-1.91426">
        <ele>15</ele>
        <time>2019-04-30T13:26:57Z</time>
      </trkpt>
      <trkpt lat="46.69437" lon="-1.91413">
        <ele>15</ele>
        <time>2019-04-30T13:27:57Z</time>
      </trkpt>
      <trkpt lat="46.6944" lon="-1.914">
        <ele>15</ele>
        <time>2019-04-30T13:28:57Z</time>
      </trkpt>
      <trkpt lat="46.69445" lon="-1.91389">
        <ele>14</ele>
        <time>2019-04-30T13:29:57Z</time>
      </trkpt>
      <trkpt lat="46.69452" lon="-1.91381">
        <ele>14</ele>
        <time>2019-04-30T13:30:57Z</time>
      </trkpt>
      <trkpt lat="46.69452" lon="-1.91342">
        <ele>13</ele>
        <time>2019-04-30T13:31:57Z</time>
      </trkpt>
      <trkpt lat="46.69429" lon="-1.91009">
        <ele>16</ele>
        <time>2019-04-30T13:32:57Z</time>
      </trkpt>
      <trkpt lat="46.69424" lon="-1.90981">
        <ele>16</ele>
        <time>2019-04-30T13:33:57Z</time>
      </trkpt>
      <trkpt lat="46.69418" lon="-1.90975">
        <ele>16</ele>
        <time>2019-04-30T13:34:57Z</time>
      </trkpt>
      <trkpt lat="46.69418" lon="-1.90972">
        <ele>16</ele>
        <time>2019-04-30T13:35:57Z</time>
      </trkpt>
      <trkpt lat="46.6942" lon="-1.90961">
        <ele>16</ele>
        <time>2019-04-30T13:36:57Z</time>
      </trkpt>
      <trkpt lat="46.69423" lon="-1.90932">
        <ele>17</ele>
        <time>2019-04-30T13:37:57Z</time>
      </trkpt>
      <trkpt lat="46.69372" lon="-1.90239">
        <ele>21</ele>
        <time>2019-04-30T13:38:57Z</time>
      </trkpt>
      <trkpt lat="46.69364" lon="-1.90163">
        <ele>21</ele>
        <time>2019-04-30T13:39:57Z</time>
      </trkpt>
      <trkpt lat="46.69349" lon="-1.89966">
        <ele>24</ele>
        <time>2019-04-30T13:40:57Z</time>
      </trkpt>
      <trkpt lat="46.69343" lon="-1.8984">
        <ele>23</ele>
        <time>2019-04-30T13:41:57Z</time>
      </trkpt>
      <trkpt lat="46.69335" lon="-1.89815">
        <ele>23</ele>
        <time>2019-04-30T13:42:57Z</time>
      </trkpt>
      <trkpt lat="46.69331" lon="-1.8981">
        <ele>23</ele>
        <time>2019-04-30T13:43:57Z</time>
      </trkpt>
      <trkpt lat="46.69326" lon="-1.89797">
        <ele>23</ele>
        <time>2019-04-30T13:44:57Z</time>
      </trkpt>
      <trkpt lat="46.69327" lon="-1.89781">
        <ele>24</ele>
        <time>2019-04-30T13:45:57Z</time>
      </trkpt>
      <trkpt lat="46.6933" lon="-1.89774">
        <ele>24</ele>
        <time>2019-04-30T13:46:57Z</time>
      </trkpt>
      <trkpt lat="46.69335" lon="-1.89769">
        <ele>24</ele>
        <time>2019-04-30T13:47:57Z</time>
      </trkpt>
      <trkpt lat="46.6934" lon="-1.89734">
        <ele>24</ele>
        <time>2019-04-30T13:48:57Z</time>
      </trkpt>
      <trkpt lat="46.69338" lon="-1.8965">
        <ele>24</ele>
        <time>2019-04-30T13:49:57Z</time>
      </trkpt>
      <trkpt lat="46.69274" lon="-1.87964">
        <ele>27</ele>
        <time>2019-04-30T13:50:57Z</time>
      </trkpt>
      <trkpt lat="46.69268" lon="-1.87879">
        <ele>26</ele>
        <time>2019-04-30T13:51:57Z</time>
      </trkpt>
      <trkpt lat="46.69263" lon="-1.87879">
        <ele>26</ele>
        <time>2019-04-30T13:52:57Z</time>
      </trkpt>
      <trkpt lat="46.69258" lon="-1.87877">
        <ele>26</ele>
        <time>2019-04-30T13:53:57Z</time>
      </trkpt>
      <trkpt lat="46.69253" lon="-1.87872">
        <ele>26</ele>
        <time>2019-04-30T13:54:57Z</time>
      </trkpt>
      <trkpt lat="46.6925" lon="-1.87866">
        <ele>26</ele>
        <time>2019-04-30T13:55:57Z</time>
      </trkpt>
      <trkpt lat="46.69249" lon="-1.87858">
        <ele>26</ele>
        <time>2019-04-30T13:56:57Z</time>
      </trkpt>
      <trkpt lat="46.6925" lon="-1.8785">
        <ele>26</ele>
        <time>2019-04-30T13:57:57Z</time>
      </trkpt>
      <trkpt lat="46.69253" lon="-1.87843">
        <ele>26</ele>
        <time>2019-04-30T13:58:57Z</time>
      </trkpt>
      <trkpt lat="46.69257" lon="-1.87838">
        <ele>26</ele>
        <time>2019-04-30T13:59:57Z</time>
      </trkpt>
      <trkpt lat="46.69262" lon="-1.87835">
        <ele>26</ele>
        <time>2019-04-30T14:00:57Z</time>
      </trkpt>
      <trkpt lat="46.69267" lon="-1.87835">
        <ele>26</ele>
        <time>2019-04-30T14:01:57Z</time>
      </trkpt>
      <trkpt lat="46.69263" lon="-1.87681">
        <ele>27</ele>
        <time>2019-04-30T14:02:57Z</time>
      </trkpt>
      <trkpt lat="46.69216" lon="-1.86369">
        <ele>28</ele>
        <time>2019-04-30T14:03:57Z</time>
      </trkpt>
      <trkpt lat="46.69209" lon="-1.86334">
        <ele>29</ele>
        <time>2019-04-30T14:04:57Z</time>
      </trkpt>
      <trkpt lat="46.69204" lon="-1.86329">
        <ele>29</ele>
        <time>2019-04-30T14:05:57Z</time>
      </trkpt>
      <trkpt lat="46.69201" lon="-1.86316">
        <ele>29</ele>
        <time>2019-04-30T14:06:57Z</time>
      </trkpt>
      <trkpt lat="46.69203" lon="-1.86305">
        <ele>29</ele>
        <time>2019-04-30T14:07:57Z</time>
      </trkpt>
      <trkpt lat="46.69208" lon="-1.86298">
        <ele>29</ele>
        <time>2019-04-30T14:08:57Z</time>
      </trkpt>
      <trkpt lat="46.6921" lon="-1.86287">
        <ele>29</ele>
        <time>2019-04-30T14:09:57Z</time>
      </trkpt>
      <trkpt lat="46.69211" lon="-1.86244">
        <ele>29</ele>
        <time>2019-04-30T14:10:57Z</time>
      </trkpt>
      <trkpt lat="46.69173" lon="-1.85187">
        <ele>27</ele>
        <time>2019-04-30T14:11:57Z</time>
      </trkpt>
      <trkpt lat="46.69169" lon="-1.85102">
        <ele>26</ele>
        <time>2019-04-30T14:12:57Z</time>
      </trkpt>
      <trkpt lat="46.69164" lon="-1.85041">
        <ele>27</ele>
        <time>2019-04-30T14:13:57Z</time>
      </trkpt>
      <trkpt lat="46.69159" lon="-1.85009">
        <ele>27</ele>
        <time>2019-04-30T14:14:57Z</time>
      </trkpt>
      <trkpt lat="46.69151" lon="-1.84981">
        <ele>27</ele>
        <time>2019-04-30T14:15:57Z</time>
      </trkpt>
      <trkpt lat="46.69147" lon="-1.84976">
        <ele>27</ele>
        <time>2019-04-30T14:16:57Z</time>
      </trkpt>
      <trkpt lat="46.69141" lon="-1.84961">
        <ele>27</ele>
        <time>2019-04-30T14:17:57Z</time>
      </trkpt>
      <trkpt lat="46.69141" lon="-1.84952">
        <ele>27</ele>
        <time>2019-04-30T14:18:57Z</time>
      </trkpt>
      <trkpt lat="46.69134" lon="-1.8494">
        <ele>27</ele>
        <time>2019-04-30T14:19:57Z</time>
      </trkpt>
      <trkpt lat="46.69113" lon="-1.84914">
        <ele>27</ele>
        <time>2019-04-30T14:20:57Z</time>
      </trkpt>
      <trkpt lat="46.68981" lon="-1.84792">
        <ele>24</ele>
        <time>2019-04-30T14:21:57Z</time>
      </trkpt>
      <trkpt lat="46.68858" lon="-1.84666">
        <ele>22</ele>
        <time>2019-04-30T14:22:57Z</time>
      </trkpt>
      <trkpt lat="46.68756" lon="-1.84657">
        <ele>20</ele>
        <time>2019-04-30T14:23:57Z</time>
      </trkpt>
      <trkpt lat="46.68693" lon="-1.84683">
        <ele>19</ele>
        <time>2019-04-30T14:24:57Z</time>
      </trkpt>
      <trkpt lat="46.68609" lon="-1.84704">
        <ele>15</ele>
        <time>2019-04-30T14:25:57Z</time>
      </trkpt>
      <trkpt lat="46.68553" lon="-1.84684">
        <ele>11</ele>
        <time>2019-04-30T14:26:57Z</time>
      </trkpt>
      <trkpt lat="46.68503" lon="-1.84647">
        <ele>7</ele>
        <time>2019-04-30T14:27:57Z</time>
      </trkpt>
      <trkpt lat="46.68414" lon="-1.84568">
        <ele>6</ele>
        <time>2019-04-30T14:28:57Z</time>
      </trkpt>
      <trkpt lat="46.68372" lon="-1.84523">
        <ele>6</ele>
        <time>2019-04-30T14:29:57Z</time>
      </trkpt>
      <trkpt lat="46.68335" lon="-1.84478">
        <ele>8</ele>
        <time>2019-04-30T14:30:57Z</time>
      </trkpt>
      <trkpt lat="46.68275" lon="-1.84375">
        <ele>10</ele>
        <time>2019-04-30T14:31:57Z</time>
      </trkpt>
      <trkpt lat="46.68185" lon="-1.84201">
        <ele>12</ele>
        <time>2019-04-30T14:32:57Z</time>
      </trkpt>
      <trkpt lat="46.6816" lon="-1.84157">
        <ele>12</ele>
        <time>2019-04-30T14:33:57Z</time>
      </trkpt>
      <trkpt lat="46.67962" lon="-1.83881">
        <ele>18</ele>
        <time>2019-04-30T14:34:57Z</time>
      </trkpt>
      <trkpt lat="46.67798" lon="-1.83662">
        <ele>19</ele>
        <time>2019-04-30T14:35:57Z</time>
      </trkpt>
      <trkpt lat="46.67605" lon="-1.834">
        <ele>24</ele>
        <time>2019-04-30T14:36:57Z</time>
      </trkpt>
      <trkpt lat="46.67476" lon="-1.83231">
        <ele>26</ele>
        <time>2019-04-30T14:37:57Z</time>
      </trkpt>
      <trkpt lat="46.67342" lon="-1.83047">
        <ele>27</ele>
        <time>2019-04-30T14:38:57Z</time>
      </trkpt>
      <trkpt lat="46.67087" lon="-1.82689">
        <ele>22</ele>
        <time>2019-04-30T14:39:57Z</time>
      </trkpt>
      <trkpt lat="46.6708" lon="-1.82683">
        <ele>22</ele>
        <time>2019-04-30T14:40:57Z</time>
      </trkpt>
      <trkpt lat="46.67074" lon="-1.8269">
        <ele>22</ele>
        <time>2019-04-30T14:41:57Z</time>
      </trkpt>
      <trkpt lat="46.67067" lon="-1.82691">
        <ele>22</ele>
        <time>2019-04-30T14:42:57Z</time>
      </trkpt>
      <trkpt lat="46.67062" lon="-1.82685">
        <ele>22</ele>
        <time>2019-04-30T14:43:57Z</time>
      </trkpt>
      <trkpt lat="46.6706" lon="-1.8268">
        <ele>22</ele>
        <time>2019-04-30T14:44:57Z</time>
      </trkpt>
      <trkpt lat="46.67044" lon="-1.8269">
        <ele>21</ele>
        <time>2019-04-30T14:45:57Z</time>
      </trkpt>
      <trkpt lat="46.67033" lon="-1.82691">
        <ele>21</ele>
        <time>2019-04-30T14:46:57Z</time>
      </trkpt>
      <trkpt lat="46.66821" lon="-1.82687">
        <ele>21</ele>
        <time>2019-04-30T14:47:57Z</time>
      </trkpt>
      <trkpt lat="46.66794" lon="-1.82686">
        <ele>22</ele>
        <time>2019-04-30T14:48:57Z</time>
      </trkpt>
      <trkpt lat="46.66774" lon="-1.82681">
        <ele>23</ele>
        <time>2019-04-30T14:49:57Z</time>
      </trkpt>
      <trkpt lat="46.66758" lon="-1.82672">
        <ele>24</ele>
        <time>2019-04-30T14:50:57Z</time>
      </trkpt>
      <trkpt lat="46.66746" lon="-1.82661">
        <ele>25</ele>
        <time>2019-04-30T14:51:57Z</time>
      </trkpt>
      <trkpt lat="46.66684" lon="-1.82589">
        <ele>27</ele>
        <time>2019-04-30T14:52:57Z</time>
      </trkpt>
      <trkpt lat="46.66122" lon="-1.81952">
        <ele>23</ele>
        <time>2019-04-30T14:53:57Z</time>
      </trkpt>
      <trkpt lat="46.65835" lon="-1.81621">
        <ele>21</ele>
        <time>2019-04-30T14:54:57Z</time>
      </trkpt>
      <trkpt lat="46.65642" lon="-1.81402">
        <ele>19</ele>
        <time>2019-04-30T14:55:57Z</time>
      </trkpt>
      <trkpt lat="46.65624" lon="-1.81385">
        <ele>18</ele>
        <time>2019-04-30T14:56:57Z</time>
      </trkpt>
      <trkpt lat="46.65607" lon="-1.81371">
        <ele>17</ele>
        <time>2019-04-30T14:57:57Z</time>
      </trkpt>
      <trkpt lat="46.65583" lon="-1.81356">
        <ele>16</ele>
        <time>2019-04-30T14:58:57Z</time>
      </trkpt>
      <trkpt lat="46.65554" lon="-1.81343">
        <ele>13</ele>
        <time>2019-04-30T14:59:57Z</time>
      </trkpt>
      <trkpt lat="46.65529" lon="-1.81335">
        <ele>11</ele>
        <time>2019-04-30T15:00:57Z</time>
      </trkpt>
      <trkpt lat="46.65438" lon="-1.81322">
        <ele>7</ele>
        <time>2019-04-30T15:01:57Z</time>
      </trkpt>
      <trkpt lat="46.6538" lon="-1.81316">
        <ele>6</ele>
        <time>2019-04-30T15:02:57Z</time>
      </trkpt>
      <trkpt lat="46.6533" lon="-1.81314">
        <ele>5</ele>
        <time>2019-04-30T15:03:57Z</time>
      </trkpt>
      <trkpt lat="46.65309" lon="-1.81317">
        <ele>6</ele>
        <time>2019-04-30T15:04:57Z</time>
      </trkpt>
      <trkpt lat="46.65285" lon="-1.81325">
        <ele>7</ele>
        <time>2019-04-30T15:05:57Z</time>
      </trkpt>
      <trkpt lat="46.65076" lon="-1.81399">
        <ele>16</ele>
        <time>2019-04-30T15:06:57Z</time>
      </trkpt>
      <trkpt lat="46.65055" lon="-1.81402">
        <ele>18</ele>
        <time>2019-04-30T15:07:57Z</time>
      </trkpt>
      <trkpt lat="46.65038" lon="-1.81401">
        <ele>20</ele>
        <time>2019-04-30T15:08:57Z</time>
      </trkpt>
      <trkpt lat="46.65022" lon="-1.81396">
        <ele>22</ele>
        <time>2019-04-30T15:09:57Z</time>
      </trkpt>
      <trkpt lat="46.65007" lon="-1.81387">
        <ele>24</ele>
        <time>2019-04-30T15:10:57Z</time>
      </trkpt>
      <trkpt lat="46.64989" lon="-1.81372">
        <ele>26</ele>
        <time>2019-04-30T15:11:57Z</time>
      </trkpt>
      <trkpt lat="46.64863" lon="-1.81199">
        <ele>33</ele>
        <time>2019-04-30T15:12:57Z</time>
      </trkpt>
      <trkpt lat="46.64832" lon="-1.81164">
        <ele>32</ele>
        <time>2019-04-30T15:13:57Z</time>
      </trkpt>
      <trkpt lat="46.64818" lon="-1.81164">
        <ele>33</ele>
        <time>2019-04-30T15:14:57Z</time>
      </trkpt>
      <trkpt lat="46.64811" lon="-1.81169">
        <ele>33</ele>
        <time>2019-04-30T15:15:57Z</time>
      </trkpt>
      <trkpt lat="46.64804" lon="-1.81167">
        <ele>33</ele>
        <time>2019-04-30T15:16:57Z</time>
      </trkpt>
      <trkpt lat="46.64783" lon="-1.81137">
        <ele>35</ele>
        <time>2019-04-30T15:17:57Z</time>
      </trkpt>
      <trkpt lat="46.64773" lon="-1.81131">
        <ele>35</ele>
        <time>2019-04-30T15:18:57Z</time>
      </trkpt>
      <trkpt lat="46.64652" lon="-1.8108">
        <ele>37</ele>
        <time>2019-04-30T15:19:57Z</time>
      </trkpt>
      <trkpt lat="46.64618" lon="-1.81069">
        <ele>38</ele>
        <time>2019-04-30T15:20:57Z</time>
      </trkpt>
      <trkpt lat="46.64616" lon="-1.81077">
        <ele>38</ele>
        <time>2019-04-30T15:21:57Z</time>
      </trkpt>
      <trkpt lat="46.6461" lon="-1.81082">
        <ele>38</ele>
        <time>2019-04-30T15:22:57Z</time>
      </trkpt>
      <trkpt lat="46.64604" lon="-1.81082">
        <ele>39</ele>
        <time>2019-04-30T15:23:57Z</time>
      </trkpt>
      <trkpt lat="46.64601" lon="-1.81079">
        <ele>39</ele>
        <time>2019-04-30T15:24:57Z</time>
      </trkpt>
      <trkpt lat="46.64599" lon="-1.81076">
        <ele>39</ele>
        <time>2019-04-30T15:25:57Z</time>
      </trkpt>
      <trkpt lat="46.64597" lon="-1.81067">
        <ele>39</ele>
        <time>2019-04-30T15:26:57Z</time>
      </trkpt>
      <trkpt lat="46.64597" lon="-1.81062">
        <ele>39</ele>
        <time>2019-04-30T15:27:57Z</time>
      </trkpt>
      <trkpt lat="46.64573" lon="-1.8105">
        <ele>39</ele>
        <time>2019-04-30T15:28:57Z</time>
      </trkpt>
      <trkpt lat="46.64528" lon="-1.81022">
        <ele>38</ele>
        <time>2019-04-30T15:29:57Z</time>
      </trkpt>
      <trkpt lat="46.64352" lon="-1.80878">
        <ele>38</ele>
        <time>2019-04-30T15:30:57Z</time>
      </trkpt>
      <trkpt lat="46.64335" lon="-1.80859">
        <ele>37</ele>
        <time>2019-04-30T15:31:57Z</time>
      </trkpt>
      <trkpt lat="46.6433" lon="-1.80859">
        <ele>37</ele>
        <time>2019-04-30T15:32:57Z</time>
      </trkpt>
      <trkpt lat="46.64319" lon="-1.80852">
        <ele>37</ele>
        <time>2019-04-30T15:33:57Z</time>
      </trkpt>
      <trkpt lat="46.64311" lon="-1.80851">
        <ele>37</ele>
        <time>2019-04-30T15:34:57Z</time>
      </trkpt>
      <trkpt lat="46.64308" lon="-1.80842">
        <ele>36</ele>
        <time>2019-04-30T15:35:57Z</time>
      </trkpt>
      <trkpt lat="46.64294" lon="-1.80827">
        <ele>36</ele>
        <time>2019-04-30T15:36:57Z</time>
      </trkpt>
      <trkpt lat="46.64277" lon="-1.80817">
        <ele>36</ele>
        <time>2019-04-30T15:37:57Z</time>
      </trkpt>
      <trkpt lat="46.64248" lon="-1.80793">
        <ele>35</ele>
        <time>2019-04-30T15:38:57Z</time>
      </trkpt>
      <trkpt lat="46.64142" lon="-1.807">
        <ele>33</ele>
        <time>2019-04-30T15:39:57Z</time>
      </trkpt>
      <trkpt lat="46.64131" lon="-1.80685">
        <ele>32</ele>
        <time>2019-04-30T15:40:57Z</time>
      </trkpt>
      <trkpt lat="46.64121" lon="-1.80667">
        <ele>31</ele>
        <time>2019-04-30T15:41:57Z</time>
      </trkpt>
      <trkpt lat="46.64048" lon="-1.80516">
        <ele>29</ele>
        <time>2019-04-30T15:42:57Z</time>
      </trkpt>
      <trkpt lat="46.64038" lon="-1.80506">
        <ele>29</ele>
        <time>2019-04-30T15:43:57Z</time>
      </trkpt>
      <trkpt lat="46.63972" lon="-1.80485">
        <ele>26</ele>
        <time>2019-04-30T15:44:57Z</time>
      </trkpt>
      <trkpt lat="46.63953" lon="-1.80476">
        <ele>25</ele>
        <time>2019-04-30T15:45:57Z</time>
      </trkpt>
      <trkpt lat="46.6394" lon="-1.80468">
        <ele>25</ele>
        <time>2019-04-30T15:46:57Z</time>
      </trkpt>
      <trkpt lat="46.63931" lon="-1.80458">
        <ele>25</ele>
        <time>2019-04-30T15:47:57Z</time>
      </trkpt>
      <trkpt lat="46.63746" lon="-1.80134">
        <ele>28</ele>
        <time>2019-04-30T15:48:57Z</time>
      </trkpt>
      <trkpt lat="46.63234" lon="-1.79209">
        <ele>40</ele>
        <time>2019-04-30T15:49:57Z</time>
      </trkpt>
      <trkpt lat="46.63183" lon="-1.79119">
        <ele>38</ele>
        <time>2019-04-30T15:50:57Z</time>
      </trkpt>
      <trkpt lat="46.63075" lon="-1.78988">
        <ele>31</ele>
        <time>2019-04-30T15:51:57Z</time>
      </trkpt>
      <trkpt lat="46.63059" lon="-1.78971">
        <ele>30</ele>
        <time>2019-04-30T15:52:57Z</time>
      </trkpt>
      <trkpt lat="46.63034" lon="-1.78951">
        <ele>28</ele>
        <time>2019-04-30T15:53:57Z</time>
      </trkpt>
      <trkpt lat="46.63013" lon="-1.78944">
        <ele>27</ele>
        <time>2019-04-30T15:54:57Z</time>
      </trkpt>
      <trkpt lat="46.62919" lon="-1.78935">
        <ele>24</ele>
        <time>2019-04-30T15:55:57Z</time>
      </trkpt>
      <trkpt lat="46.62901" lon="-1.78933">
        <ele>25</ele>
        <time>2019-04-30T15:56:57Z</time>
      </trkpt>
      <trkpt lat="46.62889" lon="-1.78928">
        <ele>26</ele>
        <time>2019-04-30T15:57:57Z</time>
      </trkpt>
      <trkpt lat="46.62876" lon="-1.78917">
        <ele>26</ele>
        <time>2019-04-30T15:58:57Z</time>
      </trkpt>
      <trkpt lat="46.6284" lon="-1.78872">
        <ele>29</ele>
        <time>2019-04-30T15:59:57Z</time>
      </trkpt>
      <trkpt lat="46.62831" lon="-1.78862">
        <ele>30</ele>
        <time>2019-04-30T16:00:57Z</time>
      </trkpt>
      <trkpt lat="46.62806" lon="-1.78847">
        <ele>32</ele>
        <time>2019-04-30T16:01:57Z</time>
      </trkpt>
      <trkpt lat="46.62767" lon="-1.78836">
        <ele>35</ele>
        <time>2019-04-30T16:02:57Z</time>
      </trkpt>
      <trkpt lat="46.62749" lon="-1.78828">
        <ele>36</ele>
        <time>2019-04-30T16:03:57Z</time>
      </trkpt>
      <trkpt lat="46.62735" lon="-1.78819">
        <ele>37</ele>
        <time>2019-04-30T16:04:57Z</time>
      </trkpt>
      <trkpt lat="46.6272" lon="-1.78802">
        <ele>38</ele>
        <time>2019-04-30T16:05:57Z</time>
      </trkpt>
      <trkpt lat="46.62423" lon="-1.78415">
        <ele>47</ele>
        <time>2019-04-30T16:06:57Z</time>
      </trkpt>
      <trkpt lat="46.62321" lon="-1.78279">
        <ele>45</ele>
        <time>2019-04-30T16:07:57Z</time>
      </trkpt>
      <trkpt lat="46.61764" lon="-1.77557">
        <ele>52</ele>
        <time>2019-04-30T16:08:57Z</time>
      </trkpt>
      <trkpt lat="46.61495" lon="-1.77211">
        <ele>51</ele>
        <time>2019-04-30T16:09:57Z</time>
      </trkpt>
      <trkpt lat="46.61251" lon="-1.76906">
        <ele>50</ele>
        <time>2019-04-30T16:10:57Z</time>
      </trkpt>
      <trkpt lat="46.60573" lon="-1.76083">
        <ele>48</ele>
        <time>2019-04-30T16:11:57Z</time>
      </trkpt>
      <trkpt lat="46.60397" lon="-1.75866">
        <ele>48</ele>
        <time>2019-04-30T16:12:57Z</time>
      </trkpt>
      <trkpt lat="46.60366" lon="-1.75822">
        <ele>49</ele>
        <time>2019-04-30T16:13:57Z</time>
      </trkpt>
      <trkpt lat="46.60306" lon="-1.75709">
        <ele>51</ele>
        <time>2019-04-30T16:14:57Z</time>
      </trkpt>
      <trkpt lat="46.60281" lon="-1.75676">
        <ele>52</ele>
        <time>2019-04-30T16:15:57Z</time>
      </trkpt>
      <trkpt lat="46.60273" lon="-1.75667">
        <ele>52</ele>
        <time>2019-04-30T16:16:57Z</time>
      </trkpt>
      <trkpt lat="46.60193" lon="-1.75615">
        <ele>53</ele>
        <time>2019-04-30T16:17:57Z</time>
      </trkpt>
      <trkpt lat="46.60165" lon="-1.75617">
        <ele>52</ele>
        <time>2019-04-30T16:18:57Z</time>
      </trkpt>
      <trkpt lat="46.60158" lon="-1.75615">
        <ele>52</ele>
        <time>2019-04-30T16:19:57Z</time>
      </trkpt>
      <trkpt lat="46.60155" lon="-1.75622">
        <ele>52</ele>
        <time>2019-04-30T16:20:57Z</time>
      </trkpt>
      <trkpt lat="46.6015" lon="-1.7562">
        <ele>52</ele>
        <time>2019-04-30T16:21:57Z</time>
      </trkpt>
      <trkpt lat="46.60149" lon="-1.75617">
        <ele>52</ele>
        <time>2019-04-30T16:22:57Z</time>
      </trkpt>
      <trkpt lat="46.60149" lon="-1.75612">
        <ele>52</ele>
        <time>2019-04-30T16:23:57Z</time>
      </trkpt>
      <trkpt lat="46.60152" lon="-1.75609">
        <ele>52</ele>
        <time>2019-04-30T16:24:57Z</time>
      </trkpt>
      <trkpt lat="46.60141" lon="-1.75543">
        <ele>54</ele>
        <time>2019-04-30T16:25:57Z</time>
      </trkpt>
      <trkpt lat="46.6012" lon="-1.75445">
        <ele>55</ele>
        <time>2019-04-30T16:26:57Z</time>
      </trkpt>
      <trkpt lat="46.60119" lon="-1.75435">
        <ele>55</ele>
        <time>2019-04-30T16:27:57Z</time>
      </trkpt>
      <trkpt lat="46.60135" lon="-1.75377">
        <ele>55</ele>
        <time>2019-04-30T16:28:57Z</time>
      </trkpt>
      <trkpt lat="46.60138" lon="-1.75329">
        <ele>55</ele>
        <time>2019-04-30T16:29:57Z</time>
      </trkpt>
      <trkpt lat="46.60143" lon="-1.75304">
        <ele>55</ele>
        <time>2019-04-30T16:30:57Z</time>
      </trkpt>
      <trkpt lat="46.60173" lon="-1.75215">
        <ele>55</ele>
        <time>2019-04-30T16:31:57Z</time>
      </trkpt>
      <trkpt lat="46.60187" lon="-1.75183">
        <ele>55</ele>
        <time>2019-04-30T16:32:57Z</time>
      </trkpt>
      <trkpt lat="46.60208" lon="-1.75149">
        <ele>56</ele>
        <time>2019-04-30T16:33:57Z</time>
      </trkpt>
      <trkpt lat="46.60174" lon="-1.74988">
        <ele>57</ele>
        <time>2019-04-30T16:34:57Z</time>
      </trkpt>
      <trkpt lat="46.60155" lon="-1.74936">
        <ele>58</ele>
        <time>2019-04-30T16:35:57Z</time>
      </trkpt>
      <trkpt lat="46.60123" lon="-1.74867">
        <ele>59</ele>
        <time>2019-04-30T16:36:57Z</time>
      </trkpt>
      <trkpt lat="46.60098" lon="-1.74806">
        <ele>59</ele>
        <time>2019-04-30T16:37:57Z</time>
      </trkpt>
      <trkpt lat="46.60065" lon="-1.74717">
        <ele>58</ele>
        <time>2019-04-30T16:38:57Z</time>
      </trkpt>
      <trkpt lat="46.60039" lon="-1.74673">
        <ele>57</ele>
        <time>2019-04-30T16:39:57Z</time>
      </trkpt>
      <trkpt lat="46.59923" lon="-1.74525">
        <ele>54</ele>
        <time>2019-04-30T16:40:57Z</time>
      </trkpt>
      <trkpt lat="46.59845" lon="-1.74433">
        <ele>52</ele>
        <time>2019-04-30T16:41:57Z</time>
      </trkpt>
      <trkpt lat="46.59828" lon="-1.74424">
        <ele>52</ele>
        <time>2019-04-30T16:42:57Z</time>
      </trkpt>
      <trkpt lat="46.59773" lon="-1.74416">
        <ele>50</ele>
        <time>2019-04-30T16:43:57Z</time>
      </trkpt>
      <trkpt lat="46.59688" lon="-1.74358">
        <ele>46</ele>
        <time>2019-04-30T16:44:57Z</time>
      </trkpt>
      <trkpt lat="46.59611" lon="-1.74318">
        <ele>42</ele>
        <time>2019-04-30T16:45:57Z</time>
      </trkpt>
      <trkpt lat="46.59581" lon="-1.74296">
        <ele>41</ele>
        <time>2019-04-30T16:46:57Z</time>
      </trkpt>
      <trkpt lat="46.59543" lon="-1.74255">
        <ele>41</ele>
        <time>2019-04-30T16:47:57Z</time>
      </trkpt>
      <trkpt lat="46.59191" lon="-1.74067">
        <ele>37</ele>
        <time>2019-04-30T16:48:57Z</time>
      </trkpt>
      <trkpt lat="46.59132" lon="-1.74032">
        <ele>37</ele>
        <time>2019-04-30T16:49:57Z</time>
      </trkpt>
      <trkpt lat="46.59107" lon="-1.74012">
        <ele>38</ele>
        <time>2019-04-30T16:50:57Z</time>
      </trkpt>
      <trkpt lat="46.58993" lon="-1.73839">
        <ele>36</ele>
        <time>2019-04-30T16:51:57Z</time>
      </trkpt>
      <trkpt lat="46.58979" lon="-1.73809">
        <ele>35</ele>
        <time>2019-04-30T16:52:57Z</time>
      </trkpt>
      <trkpt lat="46.5891" lon="-1.7357">
        <ele>29</ele>
        <time>2019-04-30T16:53:57Z</time>
      </trkpt>
      <trkpt lat="46.589" lon="-1.73541">
        <ele>28</ele>
        <time>2019-04-30T16:54:57Z</time>
      </trkpt>
      <trkpt lat="46.58894" lon="-1.73482">
        <ele>26</ele>
        <time>2019-04-30T16:55:57Z</time>
      </trkpt>
      <trkpt lat="46.58893" lon="-1.73456">
        <ele>26</ele>
        <time>2019-04-30T16:56:57Z</time>
      </trkpt>
      <trkpt lat="46.58895" lon="-1.73439">
        <ele>25</ele>
        <time>2019-04-30T16:57:57Z</time>
      </trkpt>
      <trkpt lat="46.589" lon="-1.73417">
        <ele>25</ele>
        <time>2019-04-30T16:58:57Z</time>
      </trkpt>
      <trkpt lat="46.58927" lon="-1.73358">
        <ele>23</ele>
        <time>2019-04-30T16:59:57Z</time>
      </trkpt>
      <trkpt lat="46.58938" lon="-1.73327">
        <ele>23</ele>
        <time>2019-04-30T17:00:57Z</time>
      </trkpt>
      <trkpt lat="46.58942" lon="-1.73299">
        <ele>22</ele>
        <time>2019-04-30T17:01:57Z</time>
      </trkpt>
      <trkpt lat="46.58943" lon="-1.73278">
        <ele>21</ele>
        <time>2019-04-30T17:02:57Z</time>
      </trkpt>
      <trkpt lat="46.58941" lon="-1.73258">
        <ele>20</ele>
        <time>2019-04-30T17:03:57Z</time>
      </trkpt>
      <trkpt lat="46.58936" lon="-1.73235">
        <ele>19</ele>
        <time>2019-04-30T17:04:57Z</time>
      </trkpt>
      <trkpt lat="46.58929" lon="-1.73208">
        <ele>19</ele>
        <time>2019-04-30T17:05:57Z</time>
      </trkpt>
      <trkpt lat="46.58842" lon="-1.73047">
        <ele>10</ele>
        <time>2019-04-30T17:06:57Z</time>
      </trkpt>
      <trkpt lat="46.5883" lon="-1.73032">
        <ele>9</ele>
        <time>2019-04-30T17:07:57Z</time>
      </trkpt>
      <trkpt lat="46.58808" lon="-1.73026">
        <ele>11</ele>
        <time>2019-04-30T17:08:57Z</time>
      </trkpt>
      <trkpt lat="46.58788" lon="-1.73029">
        <ele>12</ele>
        <time>2019-04-30T17:09:57Z</time>
      </trkpt>
      <trkpt lat="46.58765" lon="-1.7304">
        <ele>13</ele>
        <time>2019-04-30T17:10:57Z</time>
      </trkpt>
      <trkpt lat="46.58749" lon="-1.73062">
        <ele>13</ele>
        <time>2019-04-30T17:11:57Z</time>
      </trkpt>
      <trkpt lat="46.58718" lon="-1.73136">
        <ele>13</ele>
        <time>2019-04-30T17:12:57Z</time>
      </trkpt>
      <trkpt lat="46.58708" lon="-1.73154">
        <ele>13</ele>
        <time>2019-04-30T17:13:57Z</time>
      </trkpt>
      <trkpt lat="46.5869" lon="-1.7317">
        <ele>14</ele>
        <time>2019-04-30T17:14:57Z</time>
      </trkpt>
      <trkpt lat="46.58632" lon="-1.73182">
        <ele>17</ele>
        <time>2019-04-30T17:15:57Z</time>
      </trkpt>
      <trkpt lat="46.58602" lon="-1.7318">
        <ele>18</ele>
        <time>2019-04-30T17:16:57Z</time>
      </trkpt>
      <trkpt lat="46.5858" lon="-1.73158">
        <ele>20</ele>
        <time>2019-04-30T17:17:57Z</time>
      </trkpt>
      <trkpt lat="46.58572" lon="-1.73126">
        <ele>22</ele>
        <time>2019-04-30T17:18:57Z</time>
      </trkpt>
      <trkpt lat="46.58577" lon="-1.72962">
        <ele>30</ele>
        <time>2019-04-30T17:19:57Z</time>
      </trkpt>
      <trkpt lat="46.58572" lon="-1.72882">
        <ele>31</ele>
        <time>2019-04-30T17:20:57Z</time>
      </trkpt>
      <trkpt lat="46.58554" lon="-1.72807">
        <ele>32</ele>
        <time>2019-04-30T17:21:57Z</time>
      </trkpt>
      <trkpt lat="46.58526" lon="-1.72758">
        <ele>33</ele>
        <time>2019-04-30T17:22:57Z</time>
      </trkpt>
      <trkpt lat="46.58453" lon="-1.72649">
        <ele>32</ele>
        <time>2019-04-30T17:23:57Z</time>
      </trkpt>
      <trkpt lat="46.58387" lon="-1.7257">
        <ele>28</ele>
        <time>2019-04-30T17:24:57Z</time>
      </trkpt>
      <trkpt lat="46.58264" lon="-1.72317">
        <ele>20</ele>
        <time>2019-04-30T17:25:57Z</time>
      </trkpt>
      <trkpt lat="46.58243" lon="-1.72278">
        <ele>19</ele>
        <time>2019-04-30T17:26:57Z</time>
      </trkpt>
      <trkpt lat="46.58208" lon="-1.72258">
        <ele>18</ele>
        <time>2019-04-30T17:27:57Z</time>
      </trkpt>
      <trkpt lat="46.58129" lon="-1.72235">
        <ele>14</ele>
        <time>2019-04-30T17:28:57Z</time>
      </trkpt>
      <trkpt lat="46.57988" lon="-1.72136">
        <ele>6</ele>
        <time>2019-04-30T17:29:57Z</time>
      </trkpt>
      <trkpt lat="46.57755" lon="-1.72028">
        <ele>20</ele>
        <time>2019-04-30T17:30:57Z</time>
      </trkpt>
      <trkpt lat="46.57713" lon="-1.71999">
        <ele>23</ele>
        <time>2019-04-30T17:31:57Z</time>
      </trkpt>
      <trkpt lat="46.57587" lon="-1.71952">
        <ele>28</ele>
        <time>2019-04-30T17:32:57Z</time>
      </trkpt>
      <trkpt lat="46.5738" lon="-1.71803">
        <ele>31</ele>
        <time>2019-04-30T17:33:57Z</time>
      </trkpt>
      <trkpt lat="46.57265" lon="-1.71732">
        <ele>33</ele>
        <time>2019-04-30T17:34:57Z</time>
      </trkpt>
      <trkpt lat="46.57163" lon="-1.71685">
        <ele>33</ele>
        <time>2019-04-30T17:35:57Z</time>
      </trkpt>
      <trkpt lat="46.57126" lon="-1.71674">
        <ele>33</ele>
        <time>2019-04-30T17:36:57Z</time>
      </trkpt>
      <trkpt lat="46.56966" lon="-1.71636">
        <ele>32</ele>
        <time>2019-04-30T17:37:57Z</time>
      </trkpt>
      <trkpt lat="46.56719" lon="-1.71599">
        <ele>27</ele>
        <time>2019-04-30T17:38:57Z</time>
      </trkpt>
      <trkpt lat="46.56695" lon="-1.71591">
        <ele>27</ele>
        <time>2019-04-30T17:39:57Z</time>
      </trkpt>
      <trkpt lat="46.56588" lon="-1.71517">
        <ele>29</ele>
        <time>2019-04-30T17:40:57Z</time>
      </trkpt>
      <trkpt lat="46.56486" lon="-1.71454">
        <ele>31</ele>
        <time>2019-04-30T17:41:57Z</time>
      </trkpt>
      <trkpt lat="46.56477" lon="-1.71441">
        <ele>31</ele>
        <time>2019-04-30T17:42:57Z</time>
      </trkpt>
      <trkpt lat="46.56424" lon="-1.71491">
        <ele>33</ele>
        <time>2019-04-30T17:43:57Z</time>
      </trkpt>
      <trkpt lat="46.56419" lon="-1.7148">
        <ele>33</ele>
        <time>2019-04-30T17:44:57Z</time>
      </trkpt>
      <trkpt lat="46.56418" lon="-1.71452">
        <ele>33</ele>
        <time>2019-04-30T17:45:57Z</time>
      </trkpt>
      <trkpt lat="46.56422" lon="-1.71399">
        <ele>33</ele>
        <time>2019-04-30T17:46:57Z</time>
      </trkpt>
      <trkpt lat="46.56434" lon="-1.713">
        <ele>33</ele>
        <time>2019-04-30T17:47:57Z</time>
      </trkpt>
      <trkpt lat="46.56434" lon="-1.71261">
        <ele>33</ele>
        <time>2019-04-30T17:48:57Z</time>
      </trkpt>
      <trkpt lat="46.56419" lon="-1.70929">
        <ele>34</ele>
        <time>2019-04-30T17:49:57Z</time>
      </trkpt>
      <trkpt lat="46.56413" lon="-1.70882">
        <ele>34</ele>
        <time>2019-04-30T17:50:57Z</time>
      </trkpt>
      <trkpt lat="46.56331" lon="-1.70401">
        <ele>31</ele>
        <time>2019-04-30T17:51:57Z</time>
      </trkpt>
      <trkpt lat="46.56324" lon="-1.70333">
        <ele>29</ele>
        <time>2019-04-30T17:52:57Z</time>
      </trkpt>
      <trkpt lat="46.56323" lon="-1.70282">
        <ele>29</ele>
        <time>2019-04-30T17:53:57Z</time>
      </trkpt>
      <trkpt lat="46.56333" lon="-1.70141">
        <ele>32</ele>
        <time>2019-04-30T17:54:57Z</time>
      </trkpt>
      <trkpt lat="46.56343" lon="-1.70025">
        <ele>32</ele>
        <time>2019-04-30T17:55:57Z</time>
      </trkpt>
      <trkpt lat="46.56365" lon="-1.69861">
        <ele>34</ele>
        <time>2019-04-30T17:56:57Z</time>
      </trkpt>
      <trkpt lat="46.56368" lon="-1.69826">
        <ele>34</ele>
        <time>2019-04-30T17:57:57Z</time>
      </trkpt>
      <trkpt lat="46.56372" lon="-1.69658">
        <ele>36</ele>
        <time>2019-04-30T17:58:57Z</time>
      </trkpt>
      <trkpt lat="46.56372" lon="-1.69133">
        <ele>37</ele>
        <time>2019-04-30T17:59:57Z</time>
      </trkpt>
      <trkpt lat="46.56377" lon="-1.69023">
        <ele>37</ele>
        <time>2019-04-30T18:00:57Z</time>
      </trkpt>
      <trkpt lat="46.56424" lon="-1.68664">
        <ele>35</ele>
        <time>2019-04-30T18:01:57Z</time>
      </trkpt>
      <trkpt lat="46.56451" lon="-1.68442">
        <ele>35</ele>
        <time>2019-04-30T18:02:57Z</time>
      </trkpt>
      <trkpt lat="46.56558" lon="-1.68178">
        <ele>33</ele>
        <time>2019-04-30T18:03:57Z</time>
      </trkpt>
      <trkpt lat="46.56585" lon="-1.68088">
        <ele>33</ele>
        <time>2019-04-30T18:04:57Z</time>
      </trkpt>
      <trkpt lat="46.56604" lon="-1.67941">
        <ele>33</ele>
        <time>2019-04-30T18:05:57Z</time>
      </trkpt>
      <trkpt lat="46.56602" lon="-1.67591">
        <ele>33</ele>
        <time>2019-04-30T18:06:57Z</time>
      </trkpt>
      <trkpt lat="46.56613" lon="-1.67537">
        <ele>34</ele>
        <time>2019-04-30T18:07:57Z</time>
      </trkpt>
      <trkpt lat="46.56626" lon="-1.67498">
        <ele>35</ele>
        <time>2019-04-30T18:08:57Z</time>
      </trkpt>
      <trkpt lat="46.56673" lon="-1.67422">
        <ele>36</ele>
        <time>2019-04-30T18:09:57Z</time>
      </trkpt>
      <trkpt lat="46.56758" lon="-1.673">
        <ele>37</ele>
        <time>2019-04-30T18:10:57Z</time>
      </trkpt>
      <trkpt lat="46.5677" lon="-1.6727">
        <ele>36</ele>
        <time>2019-04-30T18:11:57Z</time>
      </trkpt>
      <trkpt lat="46.56233" lon="-1.67198">
        <ele>36</ele>
        <time>2019-04-30T18:12:57Z</time>
      </trkpt>
      <trkpt lat="46.56069" lon="-1.6714">
        <ele>35</ele>
        <time>2019-04-30T18:13:57Z</time>
      </trkpt>
      <trkpt lat="46.55959" lon="-1.67106">
        <ele>35</ele>
        <time>2019-04-30T18:14:57Z</time>
      </trkpt>
      <trkpt lat="46.55741" lon="-1.67069">
        <ele>32</ele>
        <time>2019-04-30T18:15:57Z</time>
      </trkpt>
      <trkpt lat="46.55544" lon="-1.6708">
        <ele>30</ele>
        <time>2019-04-30T18:16:57Z</time>
      </trkpt>
      <trkpt lat="46.55494" lon="-1.67081">
        <ele>29</ele>
        <time>2019-04-30T18:17:57Z</time>
      </trkpt>
      <trkpt lat="46.55456" lon="-1.67073">
        <ele>26</ele>
        <time>2019-04-30T18:18:57Z</time>
      </trkpt>
      <trkpt lat="46.5542" lon="-1.67041">
        <ele>24</ele>
        <time>2019-04-30T18:19:57Z</time>
      </trkpt>
      <trkpt lat="46.55335" lon="-1.66938">
        <ele>19</ele>
        <time>2019-04-30T18:20:57Z</time>
      </trkpt>
      <trkpt lat="46.55304" lon="-1.66904">
        <ele>17</ele>
        <time>2019-04-30T18:21:57Z</time>
      </trkpt>
      <trkpt lat="46.55266" lon="-1.66888">
        <ele>15</ele>
        <time>2019-04-30T18:22:57Z</time>
      </trkpt>
      <trkpt lat="46.55152" lon="-1.66874">
        <ele>11</ele>
        <time>2019-04-30T18:23:57Z</time>
      </trkpt>
      <trkpt lat="46.55107" lon="-1.6687">
        <ele>13</ele>
        <time>2019-04-30T18:24:57Z</time>
      </trkpt>
      <trkpt lat="46.55082" lon="-1.66889">
        <ele>13</ele>
        <time>2019-04-30T18:25:57Z</time>
      </trkpt>
      <trkpt lat="46.54916" lon="-1.67057">
        <ele>15</ele>
        <time>2019-04-30T18:26:57Z</time>
      </trkpt>
      <trkpt lat="46.54898" lon="-1.67071">
        <ele>16</ele>
        <time>2019-04-30T18:27:57Z</time>
      </trkpt>
      <trkpt lat="46.54867" lon="-1.67073">
        <ele>16</ele>
        <time>2019-04-30T18:28:57Z</time>
      </trkpt>
      <trkpt lat="46.5481" lon="-1.67068">
        <ele>17</ele>
        <time>2019-04-30T18:29:57Z</time>
      </trkpt>
      <trkpt lat="46.54754" lon="-1.67057">
        <ele>19</ele>
        <time>2019-04-30T18:30:57Z</time>
      </trkpt>
      <trkpt lat="46.54669" lon="-1.67045">
        <ele>22</ele>
        <time>2019-04-30T18:31:57Z</time>
      </trkpt>
      <trkpt lat="46.54589" lon="-1.6704">
        <ele>25</ele>
        <time>2019-04-30T18:32:57Z</time>
      </trkpt>
      <trkpt lat="46.54529" lon="-1.6705">
        <ele>26</ele>
        <time>2019-04-30T18:33:57Z</time>
      </trkpt>
      <trkpt lat="46.54521" lon="-1.67088">
        <ele>27</ele>
        <time>2019-04-30T18:34:57Z</time>
      </trkpt>
      <trkpt lat="46.54518" lon="-1.6712">
        <ele>28</ele>
        <time>2019-04-30T18:35:57Z</time>
      </trkpt>
      <trkpt lat="46.54516" lon="-1.67181">
        <ele>27</ele>
        <time>2019-04-30T18:36:57Z</time>
      </trkpt>
      <trkpt lat="46.54523" lon="-1.67223">
        <ele>26</ele>
        <time>2019-04-30T18:37:57Z</time>
      </trkpt>
      <trkpt lat="46.54528" lon="-1.67225">
        <ele>26</ele>
        <time>2019-04-30T18:38:57Z</time>
      </trkpt>
      <trkpt lat="46.54529" lon="-1.67227">
        <ele>26</ele>
        <time>2019-04-30T18:39:57Z</time>
      </trkpt>
      <trkpt lat="46.54528" lon="-1.67234">
        <ele>26</ele>
        <time>2019-04-30T18:40:57Z</time>
      </trkpt>
      <trkpt lat="46.54525" lon="-1.67236">
        <ele>26</ele>
        <time>2019-04-30T18:41:57Z</time>
      </trkpt>
      <trkpt lat="46.54521" lon="-1.67235">
        <ele>26</ele>
        <time>2019-04-30T18:42:57Z</time>
      </trkpt>
      <trkpt lat="46.54519" lon="-1.67231">
        <ele>26</ele>
        <time>2019-04-30T18:43:57Z</time>
      </trkpt>
      <trkpt lat="46.545" lon="-1.67234">
        <ele>26</ele>
        <time>2019-04-30T18:44:57Z</time>
      </trkpt>
      <trkpt lat="46.54488" lon="-1.6724">
        <ele>26</ele>
        <time>2019-04-30T18:45:57Z</time>
      </trkpt>
      <trkpt lat="46.54448" lon="-1.67277">
        <ele>25</ele>
        <time>2019-04-30T18:46:57Z</time>
      </trkpt>
      <trkpt lat="46.54425" lon="-1.67292">
        <ele>25</ele>
        <time>2019-04-30T18:47:57Z</time>
      </trkpt>
      <trkpt lat="46.54398" lon="-1.67303">
        <ele>25</ele>
        <time>2019-04-30T18:48:57Z</time>
      </trkpt>
      <trkpt lat="46.54045" lon="-1.67391">
        <ele>22</ele>
        <time>2019-04-30T18:49:57Z</time>
      </trkpt>
      <trkpt lat="46.54002" lon="-1.67406">
        <ele>22</ele>
        <time>2019-04-30T18:50:57Z</time>
      </trkpt>
      <trkpt lat="46.53972" lon="-1.67424">
        <ele>22</ele>
        <time>2019-04-30T18:51:57Z</time>
      </trkpt>
      <trkpt lat="46.53809" lon="-1.67565">
        <ele>30</ele>
        <time>2019-04-30T18:52:57Z</time>
      </trkpt>
      <trkpt lat="46.53785" lon="-1.67581">
        <ele>31</ele>
        <time>2019-04-30T18:53:57Z</time>
      </trkpt>
      <trkpt lat="46.53752" lon="-1.67591">
        <ele>32</ele>
        <time>2019-04-30T18:54:57Z</time>
      </trkpt>
      <trkpt lat="46.53617" lon="-1.67601">
        <ele>33</ele>
        <time>2019-04-30T18:55:57Z</time>
      </trkpt>
      <trkpt lat="46.53357" lon="-1.67636">
        <ele>41</ele>
        <time>2019-04-30T18:56:57Z</time>
      </trkpt>
      <trkpt lat="46.5331" lon="-1.67649">
        <ele>42</ele>
        <time>2019-04-30T18:57:57Z</time>
      </trkpt>
      <trkpt lat="46.53269" lon="-1.67671">
        <ele>44</ele>
        <time>2019-04-30T18:58:57Z</time>
      </trkpt>
      <trkpt lat="46.53188" lon="-1.67736">
        <ele>47</ele>
        <time>2019-04-30T18:59:57Z</time>
      </trkpt>
      <trkpt lat="46.53164" lon="-1.67742">
        <ele>47</ele>
        <time>2019-04-30T19:00:57Z</time>
      </trkpt>
      <trkpt lat="46.52662" lon="-1.67773">
        <ele>48</ele>
        <time>2019-04-30T19:01:57Z</time>
      </trkpt>
      <trkpt lat="46.52611" lon="-1.67769">
        <ele>48</ele>
        <time>2019-04-30T19:02:57Z</time>
      </trkpt>
      <trkpt lat="46.52353" lon="-1.67606">
        <ele>52</ele>
        <time>2019-04-30T19:03:57Z</time>
      </trkpt>
      <trkpt lat="46.52228" lon="-1.67522">
        <ele>51</ele>
        <time>2019-04-30T19:04:57Z</time>
      </trkpt>
      <trkpt lat="46.52131" lon="-1.67462">
        <ele>51</ele>
        <time>2019-04-30T19:05:57Z</time>
      </trkpt>
      <trkpt lat="46.52001" lon="-1.67426">
        <ele>52</ele>
        <time>2019-04-30T19:06:57Z</time>
      </trkpt>
      <trkpt lat="46.51958" lon="-1.67404">
        <ele>53</ele>
        <time>2019-04-30T19:07:57Z</time>
      </trkpt>
      <trkpt lat="46.51938" lon="-1.67383">
        <ele>53</ele>
        <time>2019-04-30T19:08:57Z</time>
      </trkpt>
      <trkpt lat="46.51834" lon="-1.67194">
        <ele>55</ele>
        <time>2019-04-30T19:09:57Z</time>
      </trkpt>
      <trkpt lat="46.51692" lon="-1.66949">
        <ele>54</ele>
        <time>2019-04-30T19:10:57Z</time>
      </trkpt>
      <trkpt lat="46.51676" lon="-1.66931">
        <ele>54</ele>
        <time>2019-04-30T19:11:57Z</time>
      </trkpt>
      <trkpt lat="46.51659" lon="-1.66918">
        <ele>54</ele>
        <time>2019-04-30T19:12:57Z</time>
      </trkpt>
      <trkpt lat="46.51643" lon="-1.6691">
        <ele>54</ele>
        <time>2019-04-30T19:13:57Z</time>
      </trkpt>
      <trkpt lat="46.51555" lon="-1.66878">
        <ele>54</ele>
        <time>2019-04-30T19:14:57Z</time>
      </trkpt>
      <trkpt lat="46.51446" lon="-1.66844">
        <ele>54</ele>
        <time>2019-04-30T19:15:57Z</time>
      </trkpt>
      <trkpt lat="46.51406" lon="-1.66826">
        <ele>54</ele>
        <time>2019-04-30T19:16:57Z</time>
      </trkpt>
      <trkpt lat="46.51366" lon="-1.66804">
        <ele>53</ele>
        <time>2019-04-30T19:17:57Z</time>
      </trkpt>
      <trkpt lat="46.51271" lon="-1.66735">
        <ele>53</ele>
        <time>2019-04-30T19:18:57Z</time>
      </trkpt>
      <trkpt lat="46.51053" lon="-1.66567">
        <ele>51</ele>
        <time>2019-04-30T19:19:57Z</time>
      </trkpt>
      <trkpt lat="46.50994" lon="-1.66513">
        <ele>50</ele>
        <time>2019-04-30T19:20:57Z</time>
      </trkpt>
      <trkpt lat="46.5084" lon="-1.66359">
        <ele>48</ele>
        <time>2019-04-30T19:21:57Z</time>
      </trkpt>
      <trkpt lat="46.50815" lon="-1.66337">
        <ele>48</ele>
        <time>2019-04-30T19:22:57Z</time>
      </trkpt>
      <trkpt lat="46.50789" lon="-1.66308">
        <ele>48</ele>
        <time>2019-04-30T19:23:57Z</time>
      </trkpt>
      <trkpt lat="46.50744" lon="-1.66252">
        <ele>50</ele>
        <time>2019-04-30T19:24:57Z</time>
      </trkpt>
      <trkpt lat="46.5065" lon="-1.66108">
        <ele>50</ele>
        <time>2019-04-30T19:25:57Z</time>
      </trkpt>
      <trkpt lat="46.50626" lon="-1.66076">
        <ele>50</ele>
        <time>2019-04-30T19:26:57Z</time>
      </trkpt>
      <trkpt lat="46.50602" lon="-1.66052">
        <ele>50</ele>
        <time>2019-04-30T19:27:57Z</time>
      </trkpt>
      <trkpt lat="46.50533" lon="-1.66002">
        <ele>50</ele>
        <time>2019-04-30T19:28:57Z</time>
      </trkpt>
      <trkpt lat="46.50509" lon="-1.6598">
        <ele>50</ele>
        <time>2019-04-30T19:29:57Z</time>
      </trkpt>
      <trkpt lat="46.5049" lon="-1.65958">
        <ele>50</ele>
        <time>2019-04-30T19:30:57Z</time>
      </trkpt>
      <trkpt lat="46.50453" lon="-1.659">
        <ele>49</ele>
        <time>2019-04-30T19:31:57Z</time>
      </trkpt>
      <trkpt lat="46.4995" lon="-1.65066">
        <ele>42</ele>
        <time>2019-04-30T19:32:57Z</time>
      </trkpt>
      <trkpt lat="46.49899" lon="-1.6499">
        <ele>41</ele>
        <time>2019-04-30T19:33:57Z</time>
      </trkpt>
      <trkpt lat="46.4987" lon="-1.64953">
        <ele>42</ele>
        <time>2019-04-30T19:34:57Z</time>
      </trkpt>
      <trkpt lat="46.49849" lon="-1.64931">
        <ele>42</ele>
        <time>2019-04-30T19:35:57Z</time>
      </trkpt>
      <trkpt lat="46.49655" lon="-1.64772">
        <ele>44</ele>
        <time>2019-04-30T19:36:57Z</time>
      </trkpt>
      <trkpt lat="46.49312" lon="-1.64525">
        <ele>42</ele>
        <time>2019-04-30T19:37:57Z</time>
      </trkpt>
      <trkpt lat="46.49204" lon="-1.64451">
        <ele>43</ele>
        <time>2019-04-30T19:38:57Z</time>
      </trkpt>
      <trkpt lat="46.49133" lon="-1.64391">
        <ele>43</ele>
        <time>2019-04-30T19:39:57Z</time>
      </trkpt>
      <trkpt lat="46.48889" lon="-1.64151">
        <ele>39</ele>
        <time>2019-04-30T19:40:57Z</time>
      </trkpt>
      <trkpt lat="46.48832" lon="-1.64086">
        <ele>38</ele>
        <time>2019-04-30T19:41:57Z</time>
      </trkpt>
      <trkpt lat="46.48778" lon="-1.64011">
        <ele>39</ele>
        <time>2019-04-30T19:42:57Z</time>
      </trkpt>
      <trkpt lat="46.48657" lon="-1.63828">
        <ele>39</ele>
        <time>2019-04-30T19:43:57Z</time>
      </trkpt>
      <trkpt lat="46.48467" lon="-1.63527">
        <ele>37</ele>
        <time>2019-04-30T19:44:57Z</time>
      </trkpt>
      <trkpt lat="46.48436" lon="-1.63482">
        <ele>36</ele>
        <time>2019-04-30T19:45:57Z</time>
      </trkpt>
      <trkpt lat="46.48403" lon="-1.63447">
        <ele>37</ele>
        <time>2019-04-30T19:46:57Z</time>
      </trkpt>
      <trkpt lat="46.48371" lon="-1.63421">
        <ele>37</ele>
        <time>2019-04-30T19:47:57Z</time>
      </trkpt>
      <trkpt lat="46.48229" lon="-1.63334">
        <ele>36</ele>
        <time>2019-04-30T19:48:57Z</time>
      </trkpt>
      <trkpt lat="46.4819" lon="-1.63302">
        <ele>35</ele>
        <time>2019-04-30T19:49:57Z</time>
      </trkpt>
      <trkpt lat="46.48051" lon="-1.63134">
        <ele>34</ele>
        <time>2019-04-30T19:50:57Z</time>
      </trkpt>
      <trkpt lat="46.48001" lon="-1.6309">
        <ele>34</ele>
        <time>2019-04-30T19:51:57Z</time>
      </trkpt>
      <trkpt lat="46.47733" lon="-1.62862">
        <ele>34</ele>
        <time>2019-04-30T19:52:57Z</time>
      </trkpt>
      <trkpt lat="46.47693" lon="-1.62836">
        <ele>32</ele>
        <time>2019-04-30T19:53:57Z</time>
      </trkpt>
      <trkpt lat="46.47657" lon="-1.62816">
        <ele>31</ele>
        <time>2019-04-30T19:54:57Z</time>
      </trkpt>
      <trkpt lat="46.47625" lon="-1.62804">
        <ele>31</ele>
        <time>2019-04-30T19:55:57Z</time>
      </trkpt>
      <trkpt lat="46.47597" lon="-1.62787">
        <ele>32</ele>
        <time>2019-04-30T19:56:57Z</time>
      </trkpt>
      <trkpt lat="46.47545" lon="-1.62739">
        <ele>32</ele>
        <time>2019-04-30T19:57:57Z</time>
      </trkpt>
      <trkpt lat="46.47508" lon="-1.62695">
        <ele>31</ele>
        <time>2019-04-30T19:58:57Z</time>
      </trkpt>
      <trkpt lat="46.47308" lon="-1.62438">
        <ele>31</ele>
        <time>2019-04-30T19:59:57Z</time>
      </trkpt>
      <trkpt lat="46.4719" lon="-1.62293">
        <ele>30</ele>
        <time>2019-04-30T20:00:57Z</time>
      </trkpt>
      <trkpt lat="46.46982" lon="-1.62074">
        <ele>24</ele>
        <time>2019-04-30T20:01:57Z</time>
      </trkpt>
      <trkpt lat="46.46969" lon="-1.62055">
        <ele>24</ele>
        <time>2019-04-30T20:02:57Z</time>
      </trkpt>
      <trkpt lat="46.46962" lon="-1.62036">
        <ele>25</ele>
        <time>2019-04-30T20:03:57Z</time>
      </trkpt>
      <trkpt lat="46.46958" lon="-1.6201">
        <ele>25</ele>
        <time>2019-04-30T20:04:57Z</time>
      </trkpt>
      <trkpt lat="46.46958" lon="-1.61983">
        <ele>25</ele>
        <time>2019-04-30T20:05:57Z</time>
      </trkpt>
      <trkpt lat="46.4696" lon="-1.61944">
        <ele>26</ele>
        <time>2019-04-30T20:06:57Z</time>
      </trkpt>
      <trkpt lat="46.46974" lon="-1.61895">
        <ele>27</ele>
        <time>2019-04-30T20:07:57Z</time>
      </trkpt>
      <trkpt lat="46.46977" lon="-1.61878">
        <ele>27</ele>
        <time>2019-04-30T20:08:57Z</time>
      </trkpt>
      <trkpt lat="46.46967" lon="-1.61783">
        <ele>25</ele>
        <time>2019-04-30T20:09:57Z</time>
      </trkpt>
      <trkpt lat="46.46845" lon="-1.61828">
        <ele>21</ele>
        <time>2019-04-30T20:10:57Z</time>
      </trkpt>
      <trkpt lat="46.46818" lon="-1.61831">
        <ele>19</ele>
        <time>2019-04-30T20:11:57Z</time>
      </trkpt>
      <trkpt lat="46.46782" lon="-1.61823">
        <ele>13</ele>
        <time>2019-04-30T20:12:57Z</time>
      </trkpt>
      <trkpt lat="46.46774" lon="-1.61824">
        <ele>12</ele>
        <time>2019-04-30T20:13:57Z</time>
      </trkpt>
      <trkpt lat="46.46708" lon="-1.61861">
        <ele>9</ele>
        <time>2019-04-30T20:14:57Z</time>
      </trkpt>
      <trkpt lat="46.46704" lon="-1.61878">
        <ele>11</ele>
        <time>2019-04-30T20:15:57Z</time>
      </trkpt>
      <trkpt lat="46.46701" lon="-1.61882">
        <ele>11</ele>
        <time>2019-04-30T20:16:57Z</time>
      </trkpt>
      <trkpt lat="46.46661" lon="-1.61906">
        <ele>9</ele>
        <time>2019-04-30T20:17:57Z</time>
      </trkpt>
      <trkpt lat="46.46635" lon="-1.61917">
        <ele>8</ele>
        <time>2019-04-30T20:18:57Z</time>
      </trkpt>
      <trkpt lat="46.46629" lon="-1.61917">
        <ele>8</ele>
        <time>2019-04-30T20:19:57Z</time>
      </trkpt>
      <trkpt lat="46.46618" lon="-1.61911">
        <ele>7</ele>
        <time>2019-04-30T20:20:57Z</time>
      </trkpt>
      <trkpt lat="46.46612" lon="-1.61911">
        <ele>7</ele>
        <time>2019-04-30T20:21:57Z</time>
      </trkpt>
      <trkpt lat="46.4654" lon="-1.61928">
        <ele>6</ele>
        <time>2019-04-30T20:22:57Z</time>
      </trkpt>
      <trkpt lat="46.46526" lon="-1.61747">
        <ele>4</ele>
        <time>2019-04-30T20:23:57Z</time>
      </trkpt>
      <trkpt lat="46.4653" lon="-1.61694">
        <ele>6</ele>
        <time>2019-04-30T20:24:57Z</time>
      </trkpt>
      <trkpt lat="46.46544" lon="-1.61577">
        <ele>11</ele>
        <time>2019-04-30T20:25:57Z</time>
      </trkpt>
      <trkpt lat="46.46546" lon="-1.61548">
        <ele>11</ele>
        <time>2019-04-30T20:26:57Z</time>
      </trkpt>
      <trkpt lat="46.46529" lon="-1.61421">
        <ele>14</ele>
        <time>2019-04-30T20:27:57Z</time>
      </trkpt>
      <trkpt lat="46.46523" lon="-1.61322">
        <ele>15</ele>
        <time>2019-04-30T20:28:57Z</time>
      </trkpt>
      <trkpt lat="46.46494" lon="-1.60993">
        <ele>12</ele>
        <time>2019-04-30T20:29:57Z</time>
      </trkpt>
      <trkpt lat="46.46492" lon="-1.60914">
        <ele>13</ele>
        <time>2019-04-30T20:30:57Z</time>
      </trkpt>
      <trkpt lat="46.46491" lon="-1.60849">
        <ele>14</ele>
        <time>2019-04-30T20:31:57Z</time>
      </trkpt>
      <trkpt lat="46.46493" lon="-1.60746">
        <ele>15</ele>
        <time>2019-04-30T20:32:57Z</time>
      </trkpt>
      <trkpt lat="46.46503" lon="-1.60605">
        <ele>18</ele>
        <time>2019-04-30T20:33:57Z</time>
      </trkpt>
      <trkpt lat="46.46549" lon="-1.60193">
        <ele>12</ele>
        <time>2019-04-30T20:34:57Z</time>
      </trkpt>
      <trkpt lat="46.46552" lon="-1.60158">
        <ele>11</ele>
        <time>2019-04-30T20:35:57Z</time>
      </trkpt>
      <trkpt lat="46.46538" lon="-1.6011">
        <ele>10</ele>
        <time>2019-04-30T20:36:57Z</time>
      </trkpt>
      <trkpt lat="46.46528" lon="-1.60104">
        <ele>9</ele>
        <time>2019-04-30T20:37:57Z</time>
      </trkpt>
      <trkpt lat="46.46521" lon="-1.60093">
        <ele>9</ele>
        <time>2019-04-30T20:38:57Z</time>
      </trkpt>
      <trkpt lat="46.46518" lon="-1.60079">
        <ele>9</ele>
        <time>2019-04-30T20:39:57Z</time>
      </trkpt>
      <trkpt lat="46.46519" lon="-1.60072">
        <ele>9</ele>
        <time>2019-04-30T20:40:57Z</time>
      </trkpt>
      <trkpt lat="46.46524" lon="-1.60057">
        <ele>8</ele>
        <time>2019-04-30T20:41:57Z</time>
      </trkpt>
      <trkpt lat="46.4653" lon="-1.60049">
        <ele>8</ele>
        <time>2019-04-30T20:42:57Z</time>
      </trkpt>
      <trkpt lat="46.46543" lon="-1.60046">
        <ele>8</ele>
        <time>2019-04-30T20:43:57Z</time>
      </trkpt>
      <trkpt lat="46.46553" lon="-1.60037">
        <ele>8</ele>
        <time>2019-04-30T20:44:57Z</time>
      </trkpt>
      <trkpt lat="46.46571" lon="-1.59998">
        <ele>8</ele>
        <time>2019-04-30T20:45:57Z</time>
      </trkpt>
      <trkpt lat="46.46574" lon="-1.59984">
        <ele>8</ele>
        <time>2019-04-30T20:46:57Z</time>
      </trkpt>
      <trkpt lat="46.46807" lon="-1.58053">
        <ele>19</ele>
        <time>2019-04-30T20:47:57Z</time>
      </trkpt>
      <trkpt lat="46.46892" lon="-1.57374">
        <ele>20</ele>
        <time>2019-04-30T20:48:57Z</time>
      </trkpt>
      <trkpt lat="46.47072" lon="-1.55934">
        <ele>31</ele>
        <time>2019-04-30T20:49:57Z</time>
      </trkpt>
      <trkpt lat="46.47365" lon="-1.5363">
        <ele>36</ele>
        <time>2019-04-30T20:50:57Z</time>
      </trkpt>
      <trkpt lat="46.47568" lon="-1.51995">
        <ele>38</ele>
        <time>2019-04-30T20:51:57Z</time>
      </trkpt>
      <trkpt lat="46.47638" lon="-1.51428">
        <ele>43</ele>
        <time>2019-04-30T20:52:57Z</time>
      </trkpt>
      <trkpt lat="46.4764" lon="-1.51396">
        <ele>43</ele>
        <time>2019-04-30T20:53:57Z</time>
      </trkpt>
      <trkpt lat="46.4764" lon="-1.51339">
        <ele>44</ele>
        <time>2019-04-30T20:54:57Z</time>
      </trkpt>
      <trkpt lat="46.47635" lon="-1.51281">
        <ele>44</ele>
        <time>2019-04-30T20:55:57Z</time>
      </trkpt>
      <trkpt lat="46.47625" lon="-1.51227">
        <ele>44</ele>
        <time>2019-04-30T20:56:57Z</time>
      </trkpt>
      <trkpt lat="46.47601" lon="-1.51152">
        <ele>42</ele>
        <time>2019-04-30T20:57:57Z</time>
      </trkpt>
      <trkpt lat="46.47575" lon="-1.51078">
        <ele>40</ele>
        <time>2019-04-30T20:58:57Z</time>
      </trkpt>
      <trkpt lat="46.47231" lon="-1.50166">
        <ele>42</ele>
        <time>2019-04-30T20:59:57Z</time>
      </trkpt>
      <trkpt lat="46.47052" lon="-1.49687">
        <ele>50</ele>
        <time>2019-04-30T21:00:57Z</time>
      </trkpt>
      <trkpt lat="46.47007" lon="-1.4957">
        <ele>52</ele>
        <time>2019-04-30T21:01:57Z</time>
      </trkpt>
      <trkpt lat="46.46978" lon="-1.49504">
        <ele>51</ele>
        <time>2019-04-30T21:02:57Z</time>
      </trkpt>
      <trkpt lat="46.46974" lon="-1.4949">
        <ele>51</ele>
        <time>2019-04-30T21:03:57Z</time>
      </trkpt>
      <trkpt lat="46.46975" lon="-1.49483">
        <ele>51</ele>
        <time>2019-04-30T21:04:57Z</time>
      </trkpt>
      <trkpt lat="46.46979" lon="-1.49471">
        <ele>50</ele>
        <time>2019-04-30T21:05:57Z</time>
      </trkpt>
      <trkpt lat="46.47063" lon="-1.49361">
        <ele>46</ele>
        <time>2019-04-30T21:06:57Z</time>
      </trkpt>
      <trkpt lat="46.47069" lon="-1.49351">
        <ele>46</ele>
        <time>2019-04-30T21:07:57Z</time>
      </trkpt>
      <trkpt lat="46.47062" lon="-1.4933">
        <ele>46</ele>
        <time>2019-04-30T21:08:57Z</time>
      </trkpt>
      <trkpt lat="46.47049" lon="-1.49278">
        <ele>44</ele>
        <time>2019-04-30T21:09:57Z</time>
      </trkpt>
      <trkpt lat="46.47015" lon="-1.4913">
        <ele>41</ele>
        <time>2019-04-30T21:10:57Z</time>
      </trkpt>
      <trkpt lat="46.46934" lon="-1.48766">
        <ele>35</ele>
        <time>2019-04-30T21:11:57Z</time>
      </trkpt>
      <trkpt lat="46.46859" lon="-1.48438">
        <ele>36</ele>
        <time>2019-04-30T21:12:57Z</time>
      </trkpt>
      <trkpt lat="46.46774" lon="-1.48051">
        <ele>46</ele>
        <time>2019-04-30T21:13:57Z</time>
      </trkpt>
      <trkpt lat="46.4621" lon="-1.4553">
        <ele>41</ele>
        <time>2019-04-30T21:14:57Z</time>
      </trkpt>
      <trkpt lat="46.46202" lon="-1.45531">
        <ele>41</ele>
        <time>2019-04-30T21:15:57Z</time>
      </trkpt>
      <trkpt lat="46.46196" lon="-1.45525">
        <ele>41</ele>
        <time>2019-04-30T21:16:57Z</time>
      </trkpt>
      <trkpt lat="46.46192" lon="-1.45516">
        <ele>41</ele>
        <time>2019-04-30T21:17:57Z</time>
      </trkpt>
      <trkpt lat="46.46192" lon="-1.4551">
        <ele>40</ele>
        <time>2019-04-30T21:18:57Z</time>
      </trkpt>
      <trkpt lat="46.46195" lon="-1.455">
        <ele>40</ele>
        <time>2019-04-30T21:19:57Z</time>
      </trkpt>
      <trkpt lat="46.46202" lon="-1.45494">
        <ele>40</ele>
        <time>2019-04-30T21:20:57Z</time>
      </trkpt>
      <trkpt lat="46.45945" lon="-1.44352">
        <ele>40</ele>
        <time>2019-04-30T21:21:57Z</time>
      </trkpt>
      <trkpt lat="46.4566" lon="-1.43066">
        <ele>37</ele>
        <time>2019-04-30T21:22:57Z</time>
      </trkpt>
      <trkpt lat="46.45368" lon="-1.41764">
        <ele>16</ele>
        <time>2019-04-30T21:23:57Z</time>
      </trkpt>
      <trkpt lat="46.45348" lon="-1.41663">
        <ele>10</ele>
        <time>2019-04-30T21:24:57Z</time>
      </trkpt>
      <trkpt lat="46.45335" lon="-1.41576">
        <ele>9</ele>
        <time>2019-04-30T21:25:57Z</time>
      </trkpt>
      <trkpt lat="46.45328" lon="-1.41508">
        <ele>9</ele>
        <time>2019-04-30T21:26:57Z</time>
      </trkpt>
      <trkpt lat="46.45324" lon="-1.41438">
        <ele>11</ele>
        <time>2019-04-30T21:27:57Z</time>
      </trkpt>
      <trkpt lat="46.45323" lon="-1.4133">
        <ele>10</ele>
        <time>2019-04-30T21:28:57Z</time>
      </trkpt>
      <trkpt lat="46.4533" lon="-1.41227">
        <ele>10</ele>
        <time>2019-04-30T21:29:57Z</time>
      </trkpt>
      <trkpt lat="46.45343" lon="-1.4108">
        <ele>15</ele>
        <time>2019-04-30T21:30:57Z</time>
      </trkpt>
      <trkpt lat="46.45521" lon="-1.39243">
        <ele>19</ele>
        <time>2019-04-30T21:31:57Z</time>
      </trkpt>
      <trkpt lat="46.45661" lon="-1.3775">
        <ele>21</ele>
        <time>2019-04-30T21:32:57Z</time>
      </trkpt>
      <trkpt lat="46.45686" lon="-1.37492">
        <ele>19</ele>
        <time>2019-04-30T21:33:57Z</time>
      </trkpt>
      <trkpt lat="46.45774" lon="-1.36538">
        <ele>26</ele>
        <time>2019-04-30T21:34:57Z</time>
      </trkpt>
      <trkpt lat="46.45967" lon="-1.34393">
        <ele>19</ele>
        <time>2019-04-30T21:35:57Z</time>
      </trkpt>
      <trkpt lat="46.45985" lon="-1.34213">
        <ele>26</ele>
        <time>2019-04-30T21:36:57Z</time>
      </trkpt>
      <trkpt lat="46.4599" lon="-1.34154">
        <ele>31</ele>
        <time>2019-04-30T21:37:57Z</time>
      </trkpt>
      <trkpt lat="46.4599" lon="-1.34126">
        <ele>31</ele>
        <time>2019-04-30T21:38:57Z</time>
      </trkpt>
      <trkpt lat="46.45994" lon="-1.34083">
        <ele>32</ele>
        <time>2019-04-30T21:39:57Z</time>
      </trkpt>
      <trkpt lat="46.45997" lon="-1.34068">
        <ele>32</ele>
        <time>2019-04-30T21:40:57Z</time>
      </trkpt>
      <trkpt lat="46.46011" lon="-1.33934">
        <ele>33</ele>
        <time>2019-04-30T21:41:57Z</time>
      </trkpt>
      <trkpt lat="46.46019" lon="-1.33829">
        <ele>35</ele>
        <time>2019-04-30T21:42:57Z</time>
      </trkpt>
      <trkpt lat="46.4602" lon="-1.33763">
        <ele>36</ele>
        <time>2019-04-30T21:43:57Z</time>
      </trkpt>
      <trkpt lat="46.46016" lon="-1.33651">
        <ele>35</ele>
        <time>2019-04-30T21:44:57Z</time>
      </trkpt>
      <trkpt lat="46.46014" lon="-1.3364">
        <ele>35</ele>
        <time>2019-04-30T21:45:57Z</time>
      </trkpt>
      <trkpt lat="46.46013" lon="-1.33611">
        <ele>36</ele>
        <time>2019-04-30T21:46:57Z</time>
      </trkpt>
      <trkpt lat="46.46014" lon="-1.33597">
        <ele>36</ele>
        <time>2019-04-30T21:47:57Z</time>
      </trkpt>
      <trkpt lat="46.46013" lon="-1.33526">
        <ele>35</ele>
        <time>2019-04-30T21:48:57Z</time>
      </trkpt>
      <trkpt lat="46.46014" lon="-1.33501">
        <ele>35</ele>
        <time>2019-04-30T21:49:57Z</time>
      </trkpt>
      <trkpt lat="46.4602" lon="-1.3345">
        <ele>36</ele>
        <time>2019-04-30T21:50:57Z</time>
      </trkpt>
      <trkpt lat="46.46275" lon="-1.31847">
        <ele>19</ele>
        <time>2019-04-30T21:51:57Z</time>
      </trkpt>
      <trkpt lat="46.4639" lon="-1.31113">
        <ele>20</ele>
        <time>2019-04-30T21:52:57Z</time>
      </trkpt>
      <trkpt lat="46.4658" lon="-1.29924">
        <ele>19</ele>
        <time>2019-04-30T21:53:57Z</time>
      </trkpt>
      <trkpt lat="46.46588" lon="-1.2988">
        <ele>18</ele>
        <time>2019-04-30T21:54:57Z</time>
      </trkpt>
      <trkpt lat="46.46603" lon="-1.29823">
        <ele>18</ele>
        <time>2019-04-30T21:55:57Z</time>
      </trkpt>
      <trkpt lat="46.4662" lon="-1.29776">
        <ele>18</ele>
        <time>2019-04-30T21:56:57Z</time>
      </trkpt>
      <trkpt lat="46.46638" lon="-1.29734">
        <ele>18</ele>
        <time>2019-04-30T21:57:57Z</time>
      </trkpt>
      <trkpt lat="46.46728" lon="-1.29551">
        <ele>13</ele>
        <time>2019-04-30T21:58:57Z</time>
      </trkpt>
      <trkpt lat="46.46761" lon="-1.29475">
        <ele>8</ele>
        <time>2019-04-30T21:59:57Z</time>
      </trkpt>
      <trkpt lat="46.46793" lon="-1.29382">
        <ele>5</ele>
        <time>2019-04-30T22:00:57Z</time>
      </trkpt>
      <trkpt lat="46.46804" lon="-1.29345">
        <ele>4</ele>
        <time>2019-04-30T22:01:57Z</time>
      </trkpt>
      <trkpt lat="46.46824" lon="-1.29263">
        <ele>3</ele>
        <time>2019-04-30T22:02:57Z</time>
      </trkpt>
      <trkpt lat="46.47015" lon="-1.28431">
        <ele>3</ele>
        <time>2019-04-30T22:03:57Z</time>
      </trkpt>
      <trkpt lat="46.47033" lon="-1.28333">
        <ele>8</ele>
        <time>2019-04-30T22:04:57Z</time>
      </trkpt>
      <trkpt lat="46.47039" lon="-1.28276">
        <ele>10</ele>
        <time>2019-04-30T22:05:57Z</time>
      </trkpt>
      <trkpt lat="46.47044" lon="-1.28185">
        <ele>13</ele>
        <time>2019-04-30T22:06:57Z</time>
      </trkpt>
      <trkpt lat="46.47044" lon="-1.28133">
        <ele>14</ele>
        <time>2019-04-30T22:07:57Z</time>
      </trkpt>
      <trkpt lat="46.47041" lon="-1.2807">
        <ele>16</ele>
        <time>2019-04-30T22:08:57Z</time>
      </trkpt>
      <trkpt lat="46.47032" lon="-1.27983">
        <ele>17</ele>
        <time>2019-04-30T22:09:57Z</time>
      </trkpt>
      <trkpt lat="46.47023" lon="-1.27922">
        <ele>18</ele>
        <time>2019-04-30T22:10:57Z</time>
      </trkpt>
      <trkpt lat="46.46982" lon="-1.27699">
        <ele>19</ele>
        <time>2019-04-30T22:11:57Z</time>
      </trkpt>
      <trkpt lat="46.46974" lon="-1.27626">
        <ele>17</ele>
        <time>2019-04-30T22:12:57Z</time>
      </trkpt>
      <trkpt lat="46.46972" lon="-1.27589">
        <ele>16</ele>
        <time>2019-04-30T22:13:57Z</time>
      </trkpt>
      <trkpt lat="46.46972" lon="-1.27554">
        <ele>16</ele>
        <time>2019-04-30T22:14:57Z</time>
      </trkpt>
      <trkpt lat="46.47043" lon="-1.25798">
        <ele>16</ele>
        <time>2019-04-30T22:15:57Z</time>
      </trkpt>
      <trkpt lat="46.4705" lon="-1.256">
        <ele>19</ele>
        <time>2019-04-30T22:16:57Z</time>
      </trkpt>
      <trkpt lat="46.47051" lon="-1.25553">
        <ele>19</ele>
        <time>2019-04-30T22:17:57Z</time>
      </trkpt>
      <trkpt lat="46.47049" lon="-1.25488">
        <ele>18</ele>
        <time>2019-04-30T22:18:57Z</time>
      </trkpt>
      <trkpt lat="46.47047" lon="-1.25445">
        <ele>18</ele>
        <time>2019-04-30T22:19:57Z</time>
      </trkpt>
      <trkpt lat="46.47043" lon="-1.25413">
        <ele>18</ele>
        <time>2019-04-30T22:20:57Z</time>
      </trkpt>
      <trkpt lat="46.47037" lon="-1.2539">
        <ele>18</ele>
        <time>2019-04-30T22:21:57Z</time>
      </trkpt>
      <trkpt lat="46.4703" lon="-1.25384">
        <ele>18</ele>
        <time>2019-04-30T22:22:57Z</time>
      </trkpt>
      <trkpt lat="46.47027" lon="-1.25373">
        <ele>18</ele>
        <time>2019-04-30T22:23:57Z</time>
      </trkpt>
      <trkpt lat="46.47028" lon="-1.2536">
        <ele>18</ele>
        <time>2019-04-30T22:24:57Z</time>
      </trkpt>
      <trkpt lat="46.47034" lon="-1.25351">
        <ele>18</ele>
        <time>2019-04-30T22:25:57Z</time>
      </trkpt>
      <trkpt lat="46.47035" lon="-1.25333">
        <ele>18</ele>
        <time>2019-04-30T22:26:57Z</time>
      </trkpt>
      <trkpt lat="46.47035" lon="-1.25308">
        <ele>18</ele>
        <time>2019-04-30T22:27:57Z</time>
      </trkpt>
      <trkpt lat="46.46758" lon="-1.23792">
        <ele>11</ele>
        <time>2019-04-30T22:28:57Z</time>
      </trkpt>
      <trkpt lat="46.46745" lon="-1.23677">
        <ele>10</ele>
        <time>2019-04-30T22:29:57Z</time>
      </trkpt>
      <trkpt lat="46.46742" lon="-1.23574">
        <ele>9</ele>
        <time>2019-04-30T22:30:57Z</time>
      </trkpt>
      <trkpt lat="46.46743" lon="-1.23511">
        <ele>10</ele>
        <time>2019-04-30T22:31:57Z</time>
      </trkpt>
      <trkpt lat="46.46747" lon="-1.23444">
        <ele>9</ele>
        <time>2019-04-30T22:32:57Z</time>
      </trkpt>
      <trkpt lat="46.46754" lon="-1.23387">
        <ele>9</ele>
        <time>2019-04-30T22:33:57Z</time>
      </trkpt>
      <trkpt lat="46.46771" lon="-1.23287">
        <ele>8</ele>
        <time>2019-04-30T22:34:57Z</time>
      </trkpt>
      <trkpt lat="46.46829" lon="-1.22985">
        <ele>7</ele>
        <time>2019-04-30T22:35:57Z</time>
      </trkpt>
      <trkpt lat="46.46846" lon="-1.22882">
        <ele>6</ele>
        <time>2019-04-30T22:36:57Z</time>
      </trkpt>
      <trkpt lat="46.46851" lon="-1.22833">
        <ele>6</ele>
        <time>2019-04-30T22:37:57Z</time>
      </trkpt>
      <trkpt lat="46.46857" lon="-1.22761">
        <ele>7</ele>
        <time>2019-04-30T22:38:57Z</time>
      </trkpt>
      <trkpt lat="46.46861" lon="-1.22705">
        <ele>6</ele>
        <time>2019-04-30T22:39:57Z</time>
      </trkpt>
      <trkpt lat="46.46862" lon="-1.22639">
        <ele>5</ele>
        <time>2019-04-30T22:40:57Z</time>
      </trkpt>
      <trkpt lat="46.46861" lon="-1.22592">
        <ele>5</ele>
        <time>2019-04-30T22:41:57Z</time>
      </trkpt>
      <trkpt lat="46.46858" lon="-1.22522">
        <ele>6</ele>
        <time>2019-04-30T22:42:57Z</time>
      </trkpt>
      <trkpt lat="46.46854" lon="-1.22469">
        <ele>6</ele>
        <time>2019-04-30T22:43:57Z</time>
      </trkpt>
      <trkpt lat="46.46833" lon="-1.22293">
        <ele>6</ele>
        <time>2019-04-30T22:44:57Z</time>
      </trkpt>
      <trkpt lat="46.46761" lon="-1.21782">
        <ele>3</ele>
        <time>2019-04-30T22:45:57Z</time>
      </trkpt>
      <trkpt lat="46.46756" lon="-1.21737">
        <ele>4</ele>
        <time>2019-04-30T22:46:57Z</time>
      </trkpt>
      <trkpt lat="46.4675" lon="-1.21655">
        <ele>6</ele>
        <time>2019-04-30T22:47:57Z</time>
      </trkpt>
      <trkpt lat="46.46747" lon="-1.21592">
        <ele>8</ele>
        <time>2019-04-30T22:48:57Z</time>
      </trkpt>
      <trkpt lat="46.46747" lon="-1.21515">
        <ele>9</ele>
        <time>2019-04-30T22:49:57Z</time>
      </trkpt>
      <trkpt lat="46.46747" lon="-1.21487">
        <ele>9</ele>
        <time>2019-04-30T22:50:57Z</time>
      </trkpt>
      <trkpt lat="46.46752" lon="-1.2139">
        <ele>8</ele>
        <time>2019-04-30T22:51:57Z</time>
      </trkpt>
      <trkpt lat="46.46764" lon="-1.21285">
        <ele>8</ele>
        <time>2019-04-30T22:52:57Z</time>
      </trkpt>
      <trkpt lat="46.46778" lon="-1.21202">
        <ele>8</ele>
        <time>2019-04-30T22:53:57Z</time>
      </trkpt>
      <trkpt lat="46.46793" lon="-1.21128">
        <ele>9</ele>
        <time>2019-04-30T22:54:57Z</time>
      </trkpt>
      <trkpt lat="46.46809" lon="-1.21066">
        <ele>9</ele>
        <time>2019-04-30T22:55:57Z</time>
      </trkpt>
      <trkpt lat="46.46837" lon="-1.20976">
        <ele>9</ele>
        <time>2019-04-30T22:56:57Z</time>
      </trkpt>
      <trkpt lat="46.46864" lon="-1.209">
        <ele>10</ele>
        <time>2019-04-30T22:57:57Z</time>
      </trkpt>
      <trkpt lat="46.46989" lon="-1.20605">
        <ele>11</ele>
        <time>2019-04-30T22:58:57Z</time>
      </trkpt>
      <trkpt lat="46.47014" lon="-1.20534">
        <ele>12</ele>
        <time>2019-04-30T22:59:57Z</time>
      </trkpt>
      <trkpt lat="46.47049" lon="-1.20414">
        <ele>13</ele>
        <time>2019-04-30T23:00:57Z</time>
      </trkpt>
      <trkpt lat="46.47072" lon="-1.20324">
        <ele>13</ele>
        <time>2019-04-30T23:01:57Z</time>
      </trkpt>
      <trkpt lat="46.47094" lon="-1.20216">
        <ele>11</ele>
        <time>2019-04-30T23:02:57Z</time>
      </trkpt>
      <trkpt lat="46.47105" lon="-1.20149">
        <ele>11</ele>
        <time>2019-04-30T23:03:57Z</time>
      </trkpt>
      <trkpt lat="46.47116" lon="-1.20068">
        <ele>11</ele>
        <time>2019-04-30T23:04:57Z</time>
      </trkpt>
      <trkpt lat="46.47126" lon="-1.19949">
        <ele>12</ele>
        <time>2019-04-30T23:05:57Z</time>
      </trkpt>
      <trkpt lat="46.47131" lon="-1.19865">
        <ele>13</ele>
        <time>2019-04-30T23:06:57Z</time>
      </trkpt>
      <trkpt lat="46.47132" lon="-1.19767">
        <ele>13</ele>
        <time>2019-04-30T23:07:57Z</time>
      </trkpt>
      <trkpt lat="46.47093" lon="-1.1885">
        <ele>11</ele>
        <time>2019-04-30T23:08:57Z</time>
      </trkpt>
      <trkpt lat="46.47092" lon="-1.18767">
        <ele>9</ele>
        <time>2019-04-30T23:09:57Z</time>
      </trkpt>
      <trkpt lat="46.47096" lon="-1.18686">
        <ele>11</ele>
        <time>2019-04-30T23:10:57Z</time>
      </trkpt>
      <trkpt lat="46.47101" lon="-1.18634">
        <ele>12</ele>
        <time>2019-04-30T23:11:57Z</time>
      </trkpt>
      <trkpt lat="46.47109" lon="-1.18582">
        <ele>13</ele>
        <time>2019-04-30T23:12:57Z</time>
      </trkpt>
      <trkpt lat="46.4712" lon="-1.18527">
        <ele>14</ele>
        <time>2019-04-30T23:13:57Z</time>
      </trkpt>
      <trkpt lat="46.47136" lon="-1.1847">
        <ele>15</ele>
        <time>2019-04-30T23:14:57Z</time>
      </trkpt>
      <trkpt lat="46.47156" lon="-1.18408">
        <ele>15</ele>
        <time>2019-04-30T23:15:57Z</time>
      </trkpt>
      <trkpt lat="46.47295" lon="-1.18043">
        <ele>16</ele>
        <time>2019-04-30T23:16:57Z</time>
      </trkpt>
      <trkpt lat="46.47314" lon="-1.17984">
        <ele>17</ele>
        <time>2019-04-30T23:17:57Z</time>
      </trkpt>
      <trkpt lat="46.47336" lon="-1.17896">
        <ele>18</ele>
        <time>2019-04-30T23:18:57Z</time>
      </trkpt>
      <trkpt lat="46.47346" lon="-1.17862">
        <ele>18</ele>
        <time>2019-04-30T23:19:57Z</time>
      </trkpt>
      <trkpt lat="46.47371" lon="-1.17791">
        <ele>18</ele>
        <time>2019-04-30T23:20:57Z</time>
      </trkpt>
      <trkpt lat="46.4739" lon="-1.17751">
        <ele>18</ele>
        <time>2019-04-30T23:21:57Z</time>
      </trkpt>
      <trkpt lat="46.474" lon="-1.17734">
        <ele>18</ele>
        <time>2019-04-30T23:22:57Z</time>
      </trkpt>
      <trkpt lat="46.47405" lon="-1.1771">
        <ele>19</ele>
        <time>2019-04-30T23:23:57Z</time>
      </trkpt>
      <trkpt lat="46.47402" lon="-1.17703">
        <ele>19</ele>
        <time>2019-04-30T23:24:57Z</time>
      </trkpt>
      <trkpt lat="46.47401" lon="-1.17689">
        <ele>19</ele>
        <time>2019-04-30T23:25:57Z</time>
      </trkpt>
      <trkpt lat="46.47405" lon="-1.17673">
        <ele>20</ele>
        <time>2019-04-30T23:26:57Z</time>
      </trkpt>
      <trkpt lat="46.47402" lon="-1.17643">
        <ele>20</ele>
        <time>2019-04-30T23:27:57Z</time>
      </trkpt>
      <trkpt lat="46.47378" lon="-1.17584">
        <ele>19</ele>
        <time>2019-04-30T23:28:57Z</time>
      </trkpt>
      <trkpt lat="46.4736" lon="-1.17532">
        <ele>18</ele>
        <time>2019-04-30T23:29:57Z</time>
      </trkpt>
      <trkpt lat="46.47351" lon="-1.17497">
        <ele>18</ele>
        <time>2019-04-30T23:30:57Z</time>
      </trkpt>
      <trkpt lat="46.47338" lon="-1.17435">
        <ele>19</ele>
        <time>2019-04-30T23:31:57Z</time>
      </trkpt>
      <trkpt lat="46.47086" lon="-1.15995">
        <ele>19</ele>
        <time>2019-04-30T23:32:57Z</time>
      </trkpt>
      <trkpt lat="46.47065" lon="-1.15902">
        <ele>18</ele>
        <time>2019-04-30T23:33:57Z</time>
      </trkpt>
      <trkpt lat="46.47029" lon="-1.15783">
        <ele>16</ele>
        <time>2019-04-30T23:34:57Z</time>
      </trkpt>
      <trkpt lat="46.46996" lon="-1.15697">
        <ele>16</ele>
        <time>2019-04-30T23:35:57Z</time>
      </trkpt>
      <trkpt lat="46.4696" lon="-1.15621">
        <ele>16</ele>
        <time>2019-04-30T23:36:57Z</time>
      </trkpt>
      <trkpt lat="46.46937" lon="-1.15576">
        <ele>15</ele>
        <time>2019-04-30T23:37:57Z</time>
      </trkpt>
      <trkpt lat="46.46899" lon="-1.15513">
        <ele>15</ele>
        <time>2019-04-30T23:38:57Z</time>
      </trkpt>
      <trkpt lat="46.46847" lon="-1.1544">
        <ele>13</ele>
        <time>2019-04-30T23:39:57Z</time>
      </trkpt>
      <trkpt lat="46.4679" lon="-1.1537">
        <ele>14</ele>
        <time>2019-04-30T23:40:57Z</time>
      </trkpt>
      <trkpt lat="46.46744" lon="-1.15324">
        <ele>15</ele>
        <time>2019-04-30T23:41:57Z</time>
      </trkpt>
      <trkpt lat="46.46611" lon="-1.15194">
        <ele>11</ele>
        <time>2019-04-30T23:42:57Z</time>
      </trkpt>
      <trkpt lat="46.46575" lon="-1.15164">
        <ele>10</ele>
        <time>2019-04-30T23:43:57Z</time>
      </trkpt>
      <trkpt lat="46.46533" lon="-1.15137">
        <ele>11</ele>
        <time>2019-04-30T23:44:57Z</time>
      </trkpt>
      <trkpt lat="46.4643" lon="-1.15095">
        <ele>13</ele>
        <time>2019-04-30T23:45:57Z</time>
      </trkpt>
      <trkpt lat="46.4628" lon="-1.15041">
        <ele>12</ele>
        <time>2019-04-30T23:46:57Z</time>
      </trkpt>
      <trkpt lat="46.46253" lon="-1.15035">
        <ele>12</ele>
        <time>2019-04-30T23:47:57Z</time>
      </trkpt>
      <trkpt lat="46.46202" lon="-1.15016">
        <ele>12</ele>
        <time>2019-04-30T23:48:57Z</time>
      </trkpt>
      <trkpt lat="46.46182" lon="-1.15006">
        <ele>11</ele>
        <time>2019-04-30T23:49:57Z</time>
      </trkpt>
      <trkpt lat="46.46111" lon="-1.14977">
        <ele>10</ele>
        <time>2019-04-30T23:50:57Z</time>
      </trkpt>
      <trkpt lat="46.4608" lon="-1.14957">
        <ele>9</ele>
        <time>2019-04-30T23:51:57Z</time>
      </trkpt>
      <trkpt lat="46.46038" lon="-1.14916">
        <ele>10</ele>
        <time>2019-04-30T23:52:57Z</time>
      </trkpt>
      <trkpt lat="46.46016" lon="-1.14883">
        <ele>10</ele>
        <time>2019-04-30T23:53:57Z</time>
      </trkpt>
      <trkpt lat="46.46001" lon="-1.14856">
        <ele>10</ele>
        <time>2019-04-30T23:54:57Z</time>
      </trkpt>
      <trkpt lat="46.45989" lon="-1.14827">
        <ele>10</ele>
        <time>2019-04-30T23:55:57Z</time>
      </trkpt>
      <trkpt lat="46.45959" lon="-1.1474">
        <ele>9</ele>
        <time>2019-04-30T23:56:57Z</time>
      </trkpt>
      <trkpt lat="46.45951" lon="-1.14726">
        <ele>8</ele>
        <time>2019-04-30T23:57:57Z</time>
      </trkpt>
      <trkpt lat="46.45936" lon="-1.1471">
        <ele>8</ele>
        <time>2019-04-30T23:58:57Z</time>
      </trkpt>
      <trkpt lat="46.45916" lon="-1.14694">
        <ele>8</ele>
        <time>2019-04-30T23:59:57Z</time>
      </trkpt>
      <trkpt lat="46.45895" lon="-1.14695">
        <ele>8</ele>
        <time>2019-05-01T00:00:57Z</time>
      </trkpt>
      <trkpt lat="46.45889" lon="-1.14703">
        <ele>7</ele>
        <time>2019-05-01T00:01:57Z</time>
      </trkpt>
      <trkpt lat="46.45881" lon="-1.14708">
        <ele>7</ele>
        <time>2019-05-01T00:02:57Z</time>
      </trkpt>
      <trkpt lat="46.45873" lon="-1.1471">
        <ele>7</ele>
        <time>2019-05-01T00:03:57Z</time>
      </trkpt>
      <trkpt lat="46.45865" lon="-1.14709">
        <ele>7</ele>
        <time>2019-05-01T00:04:57Z</time>
      </trkpt>
      <trkpt lat="46.45857" lon="-1.14704">
        <ele>7</ele>
        <time>2019-05-01T00:05:57Z</time>
      </trkpt>
      <trkpt lat="46.4585" lon="-1.14696">
        <ele>7</ele>
        <time>2019-05-01T00:06:57Z</time>
      </trkpt>
      <trkpt lat="46.45846" lon="-1.14686">
        <ele>7</ele>
        <time>2019-05-01T00:07:57Z</time>
      </trkpt>
      <trkpt lat="46.45843" lon="-1.14675">
        <ele>6</ele>
        <time>2019-05-01T00:08:57Z</time>
      </trkpt>
      <trkpt lat="46.45842" lon="-1.14663">
        <ele>6</ele>
        <time>2019-05-01T00:09:57Z</time>
      </trkpt>
      <trkpt lat="46.45844" lon="-1.14652">
        <ele>6</ele>
        <time>2019-05-01T00:10:57Z</time>
      </trkpt>
      <trkpt lat="46.45847" lon="-1.14641">
        <ele>6</ele>
        <time>2019-05-01T00:11:57Z</time>
      </trkpt>
      <trkpt lat="46.45853" lon="-1.14632">
        <ele>6</ele>
        <time>2019-05-01T00:12:57Z</time>
      </trkpt>
      <trkpt lat="46.45857" lon="-1.14578">
        <ele>6</ele>
        <time>2019-05-01T00:13:57Z</time>
      </trkpt>
      <trkpt lat="46.45863" lon="-1.14561">
        <ele>6</ele>
        <time>2019-05-01T00:14:57Z</time>
      </trkpt>
      <trkpt lat="46.45887" lon="-1.14454">
        <ele>9</ele>
        <time>2019-05-01T00:15:57Z</time>
      </trkpt>
      <trkpt lat="46.45883" lon="-1.1445">
        <ele>9</ele>
        <time>2019-05-01T00:16:57Z</time>
      </trkpt>
      <trkpt lat="46.45902" lon="-1.14376">
        <ele>9</ele>
        <time>2019-05-01T00:17:57Z</time>
      </trkpt>
      <trkpt lat="46.45928" lon="-1.14258">
        <ele>9</ele>
        <time>2019-05-01T00:18:57Z</time>
      </trkpt>
      <trkpt lat="46.45933" lon="-1.14259">
        <ele>9</ele>
        <time>2019-05-01T00:19:57Z</time>
      </trkpt>
      <trkpt lat="46.46113" lon="-1.13499">
        <ele>11</ele>
        <time>2019-05-01T00:20:57Z</time>
      </trkpt>
      <trkpt lat="46.46117" lon="-1.13468">
        <ele>11</ele>
        <time>2019-05-01T00:21:57Z</time>
      </trkpt>
      <trkpt lat="46.46117" lon="-1.13458">
        <ele>11</ele>
        <time>2019-05-01T00:22:57Z</time>
      </trkpt>
      <trkpt lat="46.46116" lon="-1.13449">
        <ele>11</ele>
        <time>2019-05-01T00:23:57Z</time>
      </trkpt>
      <trkpt lat="46.46112" lon="-1.13441">
        <ele>11</ele>
        <time>2019-05-01T00:24:57Z</time>
      </trkpt>
      <trkpt lat="46.46109" lon="-1.13427">
        <ele>11</ele>
        <time>2019-05-01T00:25:57Z</time>
      </trkpt>
      <trkpt lat="46.4611" lon="-1.1341">
        <ele>11</ele>
        <time>2019-05-01T00:26:57Z</time>
      </trkpt>
      <trkpt lat="46.4612" lon="-1.13397">
        <ele>11</ele>
        <time>2019-05-01T00:27:57Z</time>
      </trkpt>
      <trkpt lat="46.46139" lon="-1.13304">
        <ele>10</ele>
        <time>2019-05-01T00:28:57Z</time>
      </trkpt>
      <trkpt lat="46.46143" lon="-1.1329">
        <ele>10</ele>
        <time>2019-05-01T00:29:57Z</time>
      </trkpt>
      <trkpt lat="46.46174" lon="-1.13227">
        <ele>9</ele>
        <time>2019-05-01T00:30:57Z</time>
      </trkpt>
      <trkpt lat="46.46192" lon="-1.13168">
        <ele>9</ele>
        <time>2019-05-01T00:31:57Z</time>
      </trkpt>
      <trkpt lat="46.46251" lon="-1.12928">
        <ele>13</ele>
        <time>2019-05-01T00:32:57Z</time>
      </trkpt>
      <trkpt lat="46.46246" lon="-1.12923">
        <ele>13</ele>
        <time>2019-05-01T00:33:57Z</time>
      </trkpt>
      <trkpt lat="46.46239" lon="-1.12909">
        <ele>13</ele>
        <time>2019-05-01T00:34:57Z</time>
      </trkpt>
      <trkpt lat="46.46237" lon="-1.12897">
        <ele>12</ele>
        <time>2019-05-01T00:35:57Z</time>
      </trkpt>
      <trkpt lat="46.46238" lon="-1.12891">
        <ele>12</ele>
        <time>2019-05-01T00:36:57Z</time>
      </trkpt>
      <trkpt lat="46.46243" lon="-1.12875">
        <ele>12</ele>
        <time>2019-05-01T00:37:57Z</time>
      </trkpt>
      <trkpt lat="46.46248" lon="-1.12869">
        <ele>12</ele>
        <time>2019-05-01T00:38:57Z</time>
      </trkpt>
      <trkpt lat="46.4626" lon="-1.12864">
        <ele>12</ele>
        <time>2019-05-01T00:39:57Z</time>
      </trkpt>
      <trkpt lat="46.46266" lon="-1.12866">
        <ele>12</ele>
        <time>2019-05-01T00:40:57Z</time>
      </trkpt>
      <trkpt lat="46.46558" lon="-1.11674">
        <ele>11</ele>
        <time>2019-05-01T00:41:57Z</time>
      </trkpt>
      <trkpt lat="46.46563" lon="-1.11622">
        <ele>11</ele>
        <time>2019-05-01T00:42:57Z</time>
      </trkpt>
      <trkpt lat="46.46562" lon="-1.11609">
        <ele>11</ele>
        <time>2019-05-01T00:43:57Z</time>
      </trkpt>
      <trkpt lat="46.4656" lon="-1.11603">
        <ele>11</ele>
        <time>2019-05-01T00:44:57Z</time>
      </trkpt>
      <trkpt lat="46.46558" lon="-1.1159">
        <ele>11</ele>
        <time>2019-05-01T00:45:57Z</time>
      </trkpt>
      <trkpt lat="46.46558" lon="-1.11583">
        <ele>11</ele>
        <time>2019-05-01T00:46:57Z</time>
      </trkpt>
      <trkpt lat="46.4656" lon="-1.11575">
        <ele>11</ele>
        <time>2019-05-01T00:47:57Z</time>
      </trkpt>
      <trkpt lat="46.46568" lon="-1.11564">
        <ele>10</ele>
        <time>2019-05-01T00:48:57Z</time>
      </trkpt>
      <trkpt lat="46.46576" lon="-1.11559">
        <ele>10</ele>
        <time>2019-05-01T00:49:57Z</time>
      </trkpt>
      <trkpt lat="46.46586" lon="-1.11543">
        <ele>10</ele>
        <time>2019-05-01T00:50:57Z</time>
      </trkpt>
      <trkpt lat="46.46602" lon="-1.11497">
        <ele>9</ele>
        <time>2019-05-01T00:51:57Z</time>
      </trkpt>
      <trkpt lat="46.46672" lon="-1.11215">
        <ele>11</ele>
        <time>2019-05-01T00:52:57Z</time>
      </trkpt>
      <trkpt lat="46.46714" lon="-1.11035">
        <ele>12</ele>
        <time>2019-05-01T00:53:57Z</time>
      </trkpt>
      <trkpt lat="46.46729" lon="-1.10978">
        <ele>11</ele>
        <time>2019-05-01T00:54:57Z</time>
      </trkpt>
      <trkpt lat="46.46738" lon="-1.10909">
        <ele>11</ele>
        <time>2019-05-01T00:55:57Z</time>
      </trkpt>
      <trkpt lat="46.46731" lon="-1.10893">
        <ele>11</ele>
        <time>2019-05-01T00:56:57Z</time>
      </trkpt>
      <trkpt lat="46.46729" lon="-1.10882">
        <ele>11</ele>
        <time>2019-05-01T00:57:57Z</time>
      </trkpt>
      <trkpt lat="46.46729" lon="-1.10871">
        <ele>11</ele>
        <time>2019-05-01T00:58:57Z</time>
      </trkpt>
      <trkpt lat="46.46731" lon="-1.1086">
        <ele>10</ele>
        <time>2019-05-01T00:59:57Z</time>
      </trkpt>
      <trkpt lat="46.46736" lon="-1.1085">
        <ele>10</ele>
        <time>2019-05-01T01:00:57Z</time>
      </trkpt>
      <trkpt lat="46.46743" lon="-1.1084">
        <ele>10</ele>
        <time>2019-05-01T01:01:57Z</time>
      </trkpt>
      <trkpt lat="46.46753" lon="-1.10834">
        <ele>10</ele>
        <time>2019-05-01T01:02:57Z</time>
      </trkpt>
      <trkpt lat="46.46762" lon="-1.10819">
        <ele>10</ele>
        <time>2019-05-01T01:03:57Z</time>
      </trkpt>
      <trkpt lat="46.46768" lon="-1.10803">
        <ele>9</ele>
        <time>2019-05-01T01:04:57Z</time>
      </trkpt>
      <trkpt lat="46.46782" lon="-1.10741">
        <ele>8</ele>
        <time>2019-05-01T01:05:57Z</time>
      </trkpt>
      <trkpt lat="46.46794" lon="-1.10702">
        <ele>8</ele>
        <time>2019-05-01T01:06:57Z</time>
      </trkpt>
      <trkpt lat="46.46872" lon="-1.10373">
        <ele>4</ele>
        <time>2019-05-01T01:07:57Z</time>
      </trkpt>
      <trkpt lat="46.4712" lon="-1.09359">
        <ele>7</ele>
        <time>2019-05-01T01:08:57Z</time>
      </trkpt>
      <trkpt lat="46.47176" lon="-1.09116">
        <ele>7</ele>
        <time>2019-05-01T01:09:57Z</time>
      </trkpt>
      <trkpt lat="46.47378" lon="-1.08275">
        <ele>4</ele>
        <time>2019-05-01T01:10:57Z</time>
      </trkpt>
      <trkpt lat="46.47395" lon="-1.08159">
        <ele>4</ele>
        <time>2019-05-01T01:11:57Z</time>
      </trkpt>
      <trkpt lat="46.47422" lon="-1.08083">
        <ele>5</ele>
        <time>2019-05-01T01:12:57Z</time>
      </trkpt>
      <trkpt lat="46.47479" lon="-1.07818">
        <ele>4</ele>
        <time>2019-05-01T01:13:57Z</time>
      </trkpt>
      <trkpt lat="46.4753" lon="-1.06506">
        <ele>8</ele>
        <time>2019-05-01T01:14:57Z</time>
      </trkpt>
      <trkpt lat="46.47529" lon="-1.06467">
        <ele>8</ele>
        <time>2019-05-01T01:15:57Z</time>
      </trkpt>
      <trkpt lat="46.4751" lon="-1.06407">
        <ele>7</ele>
        <time>2019-05-01T01:16:57Z</time>
      </trkpt>
      <trkpt lat="46.47504" lon="-1.06378">
        <ele>7</ele>
        <time>2019-05-01T01:17:57Z</time>
      </trkpt>
      <trkpt lat="46.47504" lon="-1.06223">
        <ele>8</ele>
        <time>2019-05-01T01:18:57Z</time>
      </trkpt>
      <trkpt lat="46.47498" lon="-1.06076">
        <ele>10</ele>
        <time>2019-05-01T01:19:57Z</time>
      </trkpt>
      <trkpt lat="46.47271" lon="-1.04411">
        <ele>10</ele>
        <time>2019-05-01T01:20:57Z</time>
      </trkpt>
      <trkpt lat="46.47142" lon="-1.03419">
        <ele>12</ele>
        <time>2019-05-01T01:21:57Z</time>
      </trkpt>
      <trkpt lat="46.47107" lon="-1.03173">
        <ele>11</ele>
        <time>2019-05-01T01:22:57Z</time>
      </trkpt>
      <trkpt lat="46.47106" lon="-1.03119">
        <ele>10</ele>
        <time>2019-05-01T01:23:57Z</time>
      </trkpt>
      <trkpt lat="46.47116" lon="-1.03082">
        <ele>10</ele>
        <time>2019-05-01T01:24:57Z</time>
      </trkpt>
      <trkpt lat="46.47142" lon="-1.03025">
        <ele>9</ele>
        <time>2019-05-01T01:25:57Z</time>
      </trkpt>
      <trkpt lat="46.47171" lon="-1.02982">
        <ele>8</ele>
        <time>2019-05-01T01:26:57Z</time>
      </trkpt>
      <trkpt lat="46.47185" lon="-1.02965">
        <ele>7</ele>
        <time>2019-05-01T01:27:57Z</time>
      </trkpt>
      <trkpt lat="46.47202" lon="-1.02929">
        <ele>7</ele>
        <time>2019-05-01T01:28:57Z</time>
      </trkpt>
      <trkpt lat="46.47212" lon="-1.02896">
        <ele>7</ele>
        <time>2019-05-01T01:29:57Z</time>
      </trkpt>
      <trkpt lat="46.47219" lon="-1.02861">
        <ele>7</ele>
        <time>2019-05-01T01:30:57Z</time>
      </trkpt>
      <trkpt lat="46.47221" lon="-1.02838">
        <ele>8</ele>
        <time>2019-05-01T01:31:57Z</time>
      </trkpt>
      <trkpt lat="46.47221" lon="-1.02792">
        <ele>8</ele>
        <time>2019-05-01T01:32:57Z</time>
      </trkpt>
      <trkpt lat="46.47216" lon="-1.02763">
        <ele>8</ele>
        <time>2019-05-01T01:33:57Z</time>
      </trkpt>
      <trkpt lat="46.47195" lon="-1.02682">
        <ele>8</ele>
        <time>2019-05-01T01:34:57Z</time>
      </trkpt>
      <trkpt lat="46.4718" lon="-1.02642">
        <ele>8</ele>
        <time>2019-05-01T01:35:57Z</time>
      </trkpt>
      <trkpt lat="46.47132" lon="-1.02525">
        <ele>8</ele>
        <time>2019-05-01T01:36:57Z</time>
      </trkpt>
      <trkpt lat="46.47064" lon="-1.024">
        <ele>9</ele>
        <time>2019-05-01T01:37:57Z</time>
      </trkpt>
      <trkpt lat="46.4701" lon="-1.0227">
        <ele>10</ele>
        <time>2019-05-01T01:38:57Z</time>
      </trkpt>
      <trkpt lat="46.46913" lon="-1.02023">
        <ele>11</ele>
        <time>2019-05-01T01:39:57Z</time>
      </trkpt>
      <trkpt lat="46.46891" lon="-1.01958">
        <ele>12</ele>
        <time>2019-05-01T01:40:57Z</time>
      </trkpt>
      <trkpt lat="46.46872" lon="-1.01895">
        <ele>13</ele>
        <time>2019-05-01T01:41:57Z</time>
      </trkpt>
      <trkpt lat="46.4686" lon="-1.01827">
        <ele>13</ele>
        <time>2019-05-01T01:42:57Z</time>
      </trkpt>
      <trkpt lat="46.46764" lon="-1.01143">
        <ele>15</ele>
        <time>2019-05-01T01:43:57Z</time>
      </trkpt>
      <trkpt lat="46.46728" lon="-1.00909">
        <ele>17</ele>
        <time>2019-05-01T01:44:57Z</time>
      </trkpt>
      <trkpt lat="46.46642" lon="-1.00282">
        <ele>15</ele>
        <time>2019-05-01T01:45:57Z</time>
      </trkpt>
      <trkpt lat="46.46488" lon="-0.99204">
        <ele>19</ele>
        <time>2019-05-01T01:46:57Z</time>
      </trkpt>
      <trkpt lat="46.46484" lon="-0.99161">
        <ele>19</ele>
        <time>2019-05-01T01:47:57Z</time>
      </trkpt>
      <trkpt lat="46.46484" lon="-0.99112">
        <ele>17</ele>
        <time>2019-05-01T01:48:57Z</time>
      </trkpt>
      <trkpt lat="46.46494" lon="-0.9889">
        <ele>9</ele>
        <time>2019-05-01T01:49:57Z</time>
      </trkpt>
      <trkpt lat="46.46488" lon="-0.98856">
        <ele>7</ele>
        <time>2019-05-01T01:50:57Z</time>
      </trkpt>
      <trkpt lat="46.46478" lon="-0.98817">
        <ele>7</ele>
        <time>2019-05-01T01:51:57Z</time>
      </trkpt>
      <trkpt lat="46.46477" lon="-0.98799">
        <ele>7</ele>
        <time>2019-05-01T01:52:57Z</time>
      </trkpt>
      <trkpt lat="46.46479" lon="-0.9878">
        <ele>7</ele>
        <time>2019-05-01T01:53:57Z</time>
      </trkpt>
      <trkpt lat="46.46484" lon="-0.98766">
        <ele>7</ele>
        <time>2019-05-01T01:54:57Z</time>
      </trkpt>
      <trkpt lat="46.46533" lon="-0.98688">
        <ele>7</ele>
        <time>2019-05-01T01:55:57Z</time>
      </trkpt>
      <trkpt lat="46.46581" lon="-0.98631">
        <ele>8</ele>
        <time>2019-05-01T01:56:57Z</time>
      </trkpt>
      <trkpt lat="46.46601" lon="-0.98604">
        <ele>9</ele>
        <time>2019-05-01T01:57:57Z</time>
      </trkpt>
      <trkpt lat="46.46604" lon="-0.98591">
        <ele>10</ele>
        <time>2019-05-01T01:58:57Z</time>
      </trkpt>
      <trkpt lat="46.46602" lon="-0.9858">
        <ele>10</ele>
        <time>2019-05-01T01:59:57Z</time>
      </trkpt>
      <trkpt lat="46.46554" lon="-0.98442">
        <ele>10</ele>
        <time>2019-05-01T02:00:57Z</time>
      </trkpt>
      <trkpt lat="46.46533" lon="-0.9836">
        <ele>12</ele>
        <time>2019-05-01T02:01:57Z</time>
      </trkpt>
      <trkpt lat="46.46527" lon="-0.98345">
        <ele>12</ele>
        <time>2019-05-01T02:02:57Z</time>
      </trkpt>
      <trkpt lat="46.46521" lon="-0.98334">
        <ele>12</ele>
        <time>2019-05-01T02:03:57Z</time>
      </trkpt>
      <trkpt lat="46.46505" lon="-0.98274">
        <ele>16</ele>
        <time>2019-05-01T02:04:57Z</time>
      </trkpt>
      <trkpt lat="46.46489" lon="-0.98226">
        <ele>17</ele>
        <time>2019-05-01T02:05:57Z</time>
      </trkpt>
      <trkpt lat="46.46473" lon="-0.98097">
        <ele>19</ele>
        <time>2019-05-01T02:06:57Z</time>
      </trkpt>
      <trkpt lat="46.46458" lon="-0.97897">
        <ele>19</ele>
        <time>2019-05-01T02:07:57Z</time>
      </trkpt>
      <trkpt lat="46.4645" lon="-0.97829">
        <ele>19</ele>
        <time>2019-05-01T02:08:57Z</time>
      </trkpt>
      <trkpt lat="46.46449" lon="-0.978">
        <ele>18</ele>
        <time>2019-05-01T02:09:57Z</time>
      </trkpt>
      <trkpt lat="46.46461" lon="-0.97238">
        <ele>21</ele>
        <time>2019-05-01T02:10:57Z</time>
      </trkpt>
      <trkpt lat="46.46457" lon="-0.97201">
        <ele>21</ele>
        <time>2019-05-01T02:11:57Z</time>
      </trkpt>
      <trkpt lat="46.46449" lon="-0.97193">
        <ele>22</ele>
        <time>2019-05-01T02:12:57Z</time>
      </trkpt>
      <trkpt lat="46.46447" lon="-0.9718">
        <ele>22</ele>
        <time>2019-05-01T02:13:57Z</time>
      </trkpt>
      <trkpt lat="46.46449" lon="-0.97174">
        <ele>22</ele>
        <time>2019-05-01T02:14:57Z</time>
      </trkpt>
      <trkpt lat="46.46455" lon="-0.97165">
        <ele>22</ele>
        <time>2019-05-01T02:15:57Z</time>
      </trkpt>
      <trkpt lat="46.46459" lon="-0.97155">
        <ele>21</ele>
        <time>2019-05-01T02:16:57Z</time>
      </trkpt>
      <trkpt lat="46.46462" lon="-0.97132">
        <ele>21</ele>
        <time>2019-05-01T02:17:57Z</time>
      </trkpt>
      <trkpt lat="46.46506" lon="-0.95054">
        <ele>24</ele>
        <time>2019-05-01T02:18:57Z</time>
      </trkpt>
      <trkpt lat="46.46537" lon="-0.93668">
        <ele>30</ele>
        <time>2019-05-01T02:19:57Z</time>
      </trkpt>
      <trkpt lat="46.46566" lon="-0.9243">
        <ele>34</ele>
        <time>2019-05-01T02:20:57Z</time>
      </trkpt>
      <trkpt lat="46.46562" lon="-0.9238">
        <ele>33</ele>
        <time>2019-05-01T02:21:57Z</time>
      </trkpt>
      <trkpt lat="46.4656" lon="-0.92371">
        <ele>33</ele>
        <time>2019-05-01T02:22:57Z</time>
      </trkpt>
      <trkpt lat="46.46554" lon="-0.9236">
        <ele>33</ele>
        <time>2019-05-01T02:23:57Z</time>
      </trkpt>
      <trkpt lat="46.46553" lon="-0.92353">
        <ele>33</ele>
        <time>2019-05-01T02:24:57Z</time>
      </trkpt>
      <trkpt lat="46.46556" lon="-0.9234">
        <ele>32</ele>
        <time>2019-05-01T02:25:57Z</time>
      </trkpt>
      <trkpt lat="46.46561" lon="-0.92333">
        <ele>32</ele>
        <time>2019-05-01T02:26:57Z</time>
      </trkpt>
      <trkpt lat="46.46566" lon="-0.92314">
        <ele>32</ele>
        <time>2019-05-01T02:27:57Z</time>
      </trkpt>
      <trkpt lat="46.4657" lon="-0.92257">
        <ele>32</ele>
        <time>2019-05-01T02:28:57Z</time>
      </trkpt>
      <trkpt lat="46.4657" lon="-0.92214">
        <ele>32</ele>
        <time>2019-05-01T02:29:57Z</time>
      </trkpt>
      <trkpt lat="46.46568" lon="-0.92173">
        <ele>33</ele>
        <time>2019-05-01T02:30:57Z</time>
      </trkpt>
      <trkpt lat="46.46563" lon="-0.92123">
        <ele>32</ele>
        <time>2019-05-01T02:31:57Z</time>
      </trkpt>
      <trkpt lat="46.46555" lon="-0.9207">
        <ele>32</ele>
        <time>2019-05-01T02:32:57Z</time>
      </trkpt>
      <trkpt lat="46.46545" lon="-0.92014">
        <ele>33</ele>
        <time>2019-05-01T02:33:57Z</time>
      </trkpt>
      <trkpt lat="46.46532" lon="-0.91961">
        <ele>34</ele>
        <time>2019-05-01T02:34:57Z</time>
      </trkpt>
      <trkpt lat="46.46499" lon="-0.91856">
        <ele>34</ele>
        <time>2019-05-01T02:35:57Z</time>
      </trkpt>
      <trkpt lat="46.46485" lon="-0.918">
        <ele>34</ele>
        <time>2019-05-01T02:36:57Z</time>
      </trkpt>
      <trkpt lat="46.46469" lon="-0.91714">
        <ele>35</ele>
        <time>2019-05-01T02:37:57Z</time>
      </trkpt>
      <trkpt lat="46.46461" lon="-0.91636">
        <ele>35</ele>
        <time>2019-05-01T02:38:57Z</time>
      </trkpt>
      <trkpt lat="46.46458" lon="-0.9155">
        <ele>36</ele>
        <time>2019-05-01T02:39:57Z</time>
      </trkpt>
      <trkpt lat="46.46458" lon="-0.91522">
        <ele>37</ele>
        <time>2019-05-01T02:40:57Z</time>
      </trkpt>
      <trkpt lat="46.46462" lon="-0.91462">
        <ele>38</ele>
        <time>2019-05-01T02:41:57Z</time>
      </trkpt>
      <trkpt lat="46.46468" lon="-0.91409">
        <ele>38</ele>
        <time>2019-05-01T02:42:57Z</time>
      </trkpt>
      <trkpt lat="46.46477" lon="-0.91352">
        <ele>39</ele>
        <time>2019-05-01T02:43:57Z</time>
      </trkpt>
      <trkpt lat="46.46489" lon="-0.91296">
        <ele>39</ele>
        <time>2019-05-01T02:44:57Z</time>
      </trkpt>
      <trkpt lat="46.46497" lon="-0.91265">
        <ele>39</ele>
        <time>2019-05-01T02:45:57Z</time>
      </trkpt>
      <trkpt lat="46.46562" lon="-0.91047">
        <ele>36</ele>
        <time>2019-05-01T02:46:57Z</time>
      </trkpt>
      <trkpt lat="46.4658" lon="-0.90973">
        <ele>36</ele>
        <time>2019-05-01T02:47:57Z</time>
      </trkpt>
      <trkpt lat="46.46593" lon="-0.90901">
        <ele>37</ele>
        <time>2019-05-01T02:48:57Z</time>
      </trkpt>
      <trkpt lat="46.46601" lon="-0.90827">
        <ele>37</ele>
        <time>2019-05-01T02:49:57Z</time>
      </trkpt>
      <trkpt lat="46.46604" lon="-0.90752">
        <ele>36</ele>
        <time>2019-05-01T02:50:57Z</time>
      </trkpt>
      <trkpt lat="46.46672" lon="-0.87722">
        <ele>30</ele>
        <time>2019-05-01T02:51:57Z</time>
      </trkpt>
      <trkpt lat="46.4667" lon="-0.87701">
        <ele>31</ele>
        <time>2019-05-01T02:52:57Z</time>
      </trkpt>
      <trkpt lat="46.46665" lon="-0.87682">
        <ele>31</ele>
        <time>2019-05-01T02:53:57Z</time>
      </trkpt>
      <trkpt lat="46.46658" lon="-0.87675">
        <ele>31</ele>
        <time>2019-05-01T02:54:57Z</time>
      </trkpt>
      <trkpt lat="46.46654" lon="-0.87666">
        <ele>31</ele>
        <time>2019-05-01T02:55:57Z</time>
      </trkpt>
      <trkpt lat="46.46652" lon="-0.87655">
        <ele>31</ele>
        <time>2019-05-01T02:56:57Z</time>
      </trkpt>
      <trkpt lat="46.46653" lon="-0.87644">
        <ele>30</ele>
        <time>2019-05-01T02:57:57Z</time>
      </trkpt>
      <trkpt lat="46.46658" lon="-0.87632">
        <ele>30</ele>
        <time>2019-05-01T02:58:57Z</time>
      </trkpt>
      <trkpt lat="46.46666" lon="-0.87624">
        <ele>30</ele>
        <time>2019-05-01T02:59:57Z</time>
      </trkpt>
      <trkpt lat="46.46674" lon="-0.87622">
        <ele>30</ele>
        <time>2019-05-01T03:00:57Z</time>
      </trkpt>
      <trkpt lat="46.46682" lon="-0.87624">
        <ele>30</ele>
        <time>2019-05-01T03:01:57Z</time>
      </trkpt>
      <trkpt lat="46.46691" lon="-0.87633">
        <ele>30</ele>
        <time>2019-05-01T03:02:57Z</time>
      </trkpt>
      <trkpt lat="46.46695" lon="-0.87643">
        <ele>30</ele>
        <time>2019-05-01T03:03:57Z</time>
      </trkpt>
      <trkpt lat="46.46707" lon="-0.87651">
        <ele>30</ele>
        <time>2019-05-01T03:04:57Z</time>
      </trkpt>
      <trkpt lat="46.46726" lon="-0.87656">
        <ele>30</ele>
        <time>2019-05-01T03:05:57Z</time>
      </trkpt>
      <trkpt lat="46.46926" lon="-0.87667">
        <ele>27</ele>
        <time>2019-05-01T03:06:57Z</time>
      </trkpt>
      <trkpt lat="46.46977" lon="-0.87664">
        <ele>29</ele>
        <time>2019-05-01T03:07:57Z</time>
      </trkpt>
      <trkpt lat="46.47052" lon="-0.87651">
        <ele>32</ele>
        <time>2019-05-01T03:08:57Z</time>
      </trkpt>
      <trkpt lat="46.47153" lon="-0.87617">
        <ele>33</ele>
        <time>2019-05-01T03:09:57Z</time>
      </trkpt>
      <trkpt lat="46.47206" lon="-0.87592">
        <ele>34</ele>
        <time>2019-05-01T03:10:57Z</time>
      </trkpt>
      <trkpt lat="46.47305" lon="-0.87523">
        <ele>35</ele>
        <time>2019-05-01T03:11:57Z</time>
      </trkpt>
      <trkpt lat="46.47617" lon="-0.87273">
        <ele>27</ele>
        <time>2019-05-01T03:12:57Z</time>
      </trkpt>
      <trkpt lat="46.47639" lon="-0.8725">
        <ele>27</ele>
        <time>2019-05-01T03:13:57Z</time>
      </trkpt>
      <trkpt lat="46.47731" lon="-0.87173">
        <ele>30</ele>
        <time>2019-05-01T03:14:57Z</time>
      </trkpt>
      <trkpt lat="46.47815" lon="-0.87097">
        <ele>33</ele>
        <time>2019-05-01T03:15:57Z</time>
      </trkpt>
      <trkpt lat="46.4784" lon="-0.87078">
        <ele>34</ele>
        <time>2019-05-01T03:16:57Z</time>
      </trkpt>
      <trkpt lat="46.48326" lon="-0.86588">
        <ele>38</ele>
        <time>2019-05-01T03:17:57Z</time>
      </trkpt>
      <trkpt lat="46.48408" lon="-0.8648">
        <ele>40</ele>
        <time>2019-05-01T03:18:57Z</time>
      </trkpt>
      <trkpt lat="46.48473" lon="-0.86371">
        <ele>41</ele>
        <time>2019-05-01T03:19:57Z</time>
      </trkpt>
      <trkpt lat="46.48519" lon="-0.86273">
        <ele>41</ele>
        <time>2019-05-01T03:20:57Z</time>
      </trkpt>
      <trkpt lat="46.48558" lon="-0.86166">
        <ele>41</ele>
        <time>2019-05-01T03:21:57Z</time>
      </trkpt>
      <trkpt lat="46.4859" lon="-0.8605">
        <ele>39</ele>
        <time>2019-05-01T03:22:57Z</time>
      </trkpt>
      <trkpt lat="46.4861" lon="-0.85949">
        <ele>32</ele>
        <time>2019-05-01T03:23:57Z</time>
      </trkpt>
      <trkpt lat="46.48635" lon="-0.85766">
        <ele>25</ele>
        <time>2019-05-01T03:24:57Z</time>
      </trkpt>
      <trkpt lat="46.48672" lon="-0.85599">
        <ele>20</ele>
        <time>2019-05-01T03:25:57Z</time>
      </trkpt>
      <trkpt lat="46.48695" lon="-0.85524">
        <ele>16</ele>
        <time>2019-05-01T03:26:57Z</time>
      </trkpt>
      <trkpt lat="46.48719" lon="-0.8546">
        <ele>14</ele>
        <time>2019-05-01T03:27:57Z</time>
      </trkpt>
      <trkpt lat="46.48837" lon="-0.85165">
        <ele>30</ele>
        <time>2019-05-01T03:28:57Z</time>
      </trkpt>
      <trkpt lat="46.4888" lon="-0.85033">
        <ele>34</ele>
        <time>2019-05-01T03:29:57Z</time>
      </trkpt>
      <trkpt lat="46.48918" lon="-0.84887">
        <ele>34</ele>
        <time>2019-05-01T03:30:57Z</time>
      </trkpt>
      <trkpt lat="46.48946" lon="-0.84739">
        <ele>31</ele>
        <time>2019-05-01T03:31:57Z</time>
      </trkpt>
      <trkpt lat="46.49064" lon="-0.83968">
        <ele>35</ele>
        <time>2019-05-01T03:32:57Z</time>
      </trkpt>
      <trkpt lat="46.49097" lon="-0.83799">
        <ele>40</ele>
        <time>2019-05-01T03:33:57Z</time>
      </trkpt>
      <trkpt lat="46.49121" lon="-0.83708">
        <ele>43</ele>
        <time>2019-05-01T03:34:57Z</time>
      </trkpt>
      <trkpt lat="46.49147" lon="-0.8362">
        <ele>44</ele>
        <time>2019-05-01T03:35:57Z</time>
      </trkpt>
      <trkpt lat="46.49183" lon="-0.8351">
        <ele>47</ele>
        <time>2019-05-01T03:36:57Z</time>
      </trkpt>
      <trkpt lat="46.49252" lon="-0.8334">
        <ele>50</ele>
        <time>2019-05-01T03:37:57Z</time>
      </trkpt>
      <trkpt lat="46.4928" lon="-0.83262">
        <ele>50</ele>
        <time>2019-05-01T03:38:57Z</time>
      </trkpt>
      <trkpt lat="46.49295" lon="-0.83211">
        <ele>51</ele>
        <time>2019-05-01T03:39:57Z</time>
      </trkpt>
      <trkpt lat="46.49325" lon="-0.83063">
        <ele>54</ele>
        <time>2019-05-01T03:40:57Z</time>
      </trkpt>
      <trkpt lat="46.49334" lon="-0.83032">
        <ele>54</ele>
        <time>2019-05-01T03:41:57Z</time>
      </trkpt>
      <trkpt lat="46.49351" lon="-0.83017">
        <ele>55</ele>
        <time>2019-05-01T03:42:57Z</time>
      </trkpt>
      <trkpt lat="46.49371" lon="-0.83008">
        <ele>56</ele>
        <time>2019-05-01T03:43:57Z</time>
      </trkpt>
      <trkpt lat="46.4942" lon="-0.82993">
        <ele>57</ele>
        <time>2019-05-01T03:44:57Z</time>
      </trkpt>
      <trkpt lat="46.49451" lon="-0.82994">
        <ele>58</ele>
        <time>2019-05-01T03:45:57Z</time>
      </trkpt>
      <trkpt lat="46.49699" lon="-0.82609">
        <ele>74</ele>
        <time>2019-05-01T03:46:57Z</time>
      </trkpt>
      <trkpt lat="46.49784" lon="-0.8252">
        <ele>77</ele>
        <time>2019-05-01T03:47:57Z</time>
      </trkpt>
      <trkpt lat="46.50072" lon="-0.82251">
        <ele>77</ele>
        <time>2019-05-01T03:48:57Z</time>
      </trkpt>
      <trkpt lat="46.5012" lon="-0.82211">
        <ele>76</ele>
        <time>2019-05-01T03:49:57Z</time>
      </trkpt>
      <trkpt lat="46.50168" lon="-0.82178">
        <ele>75</ele>
        <time>2019-05-01T03:50:57Z</time>
      </trkpt>
      <trkpt lat="46.50521" lon="-0.81969">
        <ele>78</ele>
        <time>2019-05-01T03:51:57Z</time>
      </trkpt>
      <trkpt lat="46.50596" lon="-0.81912">
        <ele>82</ele>
        <time>2019-05-01T03:52:57Z</time>
      </trkpt>
      <trkpt lat="46.50676" lon="-0.81836">
        <ele>85</ele>
        <time>2019-05-01T03:53:57Z</time>
      </trkpt>
      <trkpt lat="46.50742" lon="-0.81755">
        <ele>85</ele>
        <time>2019-05-01T03:54:57Z</time>
      </trkpt>
      <trkpt lat="46.51291" lon="-0.80976">
        <ele>81</ele>
        <time>2019-05-01T03:55:57Z</time>
      </trkpt>
      <trkpt lat="46.51326" lon="-0.8093">
        <ele>80</ele>
        <time>2019-05-01T03:56:57Z</time>
      </trkpt>
      <trkpt lat="46.51344" lon="-0.80912">
        <ele>80</ele>
        <time>2019-05-01T03:57:57Z</time>
      </trkpt>
      <trkpt lat="46.51383" lon="-0.80879">
        <ele>81</ele>
        <time>2019-05-01T03:58:57Z</time>
      </trkpt>
      <trkpt lat="46.51424" lon="-0.80854">
        <ele>83</ele>
        <time>2019-05-01T03:59:57Z</time>
      </trkpt>
      <trkpt lat="46.51464" lon="-0.80839">
        <ele>86</ele>
        <time>2019-05-01T04:00:57Z</time>
      </trkpt>
      <trkpt lat="46.51485" lon="-0.80834">
        <ele>87</ele>
        <time>2019-05-01T04:01:57Z</time>
      </trkpt>
      <trkpt lat="46.51573" lon="-0.80831">
        <ele>90</ele>
        <time>2019-05-01T04:02:57Z</time>
      </trkpt>
      <trkpt lat="46.51574" lon="-0.80823">
        <ele>90</ele>
        <time>2019-05-01T04:03:57Z</time>
      </trkpt>
      <trkpt lat="46.5158" lon="-0.8081">
        <ele>90</ele>
        <time>2019-05-01T04:04:57Z</time>
      </trkpt>
      <trkpt lat="46.51591" lon="-0.80803">
        <ele>90</ele>
        <time>2019-05-01T04:05:57Z</time>
      </trkpt>
      <trkpt lat="46.51602" lon="-0.80807">
        <ele>90</ele>
        <time>2019-05-01T04:06:57Z</time>
      </trkpt>
      <trkpt lat="46.51611" lon="-0.80819">
        <ele>90</ele>
        <time>2019-05-01T04:07:57Z</time>
      </trkpt>
      <trkpt lat="46.51612" lon="-0.80827">
        <ele>89</ele>
        <time>2019-05-01T04:08:57Z</time>
      </trkpt>
      <trkpt lat="46.51632" lon="-0.80819">
        <ele>89</ele>
        <time>2019-05-01T04:09:57Z</time>
      </trkpt>
      <trkpt lat="46.51659" lon="-0.80811">
        <ele>89</ele>
        <time>2019-05-01T04:10:57Z</time>
      </trkpt>
      <trkpt lat="46.517" lon="-0.80805">
        <ele>88</ele>
        <time>2019-05-01T04:11:57Z</time>
      </trkpt>
      <trkpt lat="46.52369" lon="-0.80776">
        <ele>83</ele>
        <time>2019-05-01T04:12:57Z</time>
      </trkpt>
      <trkpt lat="46.52606" lon="-0.80769">
        <ele>86</ele>
        <time>2019-05-01T04:13:57Z</time>
      </trkpt>
      <trkpt lat="46.52635" lon="-0.80766">
        <ele>86</ele>
        <time>2019-05-01T04:14:57Z</time>
      </trkpt>
      <trkpt lat="46.52636" lon="-0.8076">
        <ele>86</ele>
        <time>2019-05-01T04:15:57Z</time>
      </trkpt>
      <trkpt lat="46.5264" lon="-0.8075">
        <ele>86</ele>
        <time>2019-05-01T04:16:57Z</time>
      </trkpt>
      <trkpt lat="46.52648" lon="-0.80745">
        <ele>87</ele>
        <time>2019-05-01T04:17:57Z</time>
      </trkpt>
      <trkpt lat="46.52657" lon="-0.80748">
        <ele>87</ele>
        <time>2019-05-01T04:18:57Z</time>
      </trkpt>
      <trkpt lat="46.52663" lon="-0.80759">
        <ele>87</ele>
        <time>2019-05-01T04:19:57Z</time>
      </trkpt>
      <trkpt lat="46.52664" lon="-0.80765">
        <ele>87</ele>
        <time>2019-05-01T04:20:57Z</time>
      </trkpt>
      <trkpt lat="46.52747" lon="-0.8076">
        <ele>88</ele>
        <time>2019-05-01T04:21:57Z</time>
      </trkpt>
      <trkpt lat="46.52968" lon="-0.8075">
        <ele>92</ele>
        <time>2019-05-01T04:22:57Z</time>
      </trkpt>
      <trkpt lat="46.54371" lon="-0.80692">
        <ele>111</ele>
        <time>2019-05-01T04:23:57Z</time>
      </trkpt>
      <trkpt lat="46.54519" lon="-0.80686">
        <ele>112</ele>
        <time>2019-05-01T04:24:57Z</time>
      </trkpt>
      <trkpt lat="46.54697" lon="-0.80673">
        <ele>113</ele>
        <time>2019-05-01T04:25:57Z</time>
      </trkpt>
      <trkpt lat="46.54764" lon="-0.8066">
        <ele>115</ele>
        <time>2019-05-01T04:26:57Z</time>
      </trkpt>
      <trkpt lat="46.54841" lon="-0.80635">
        <ele>116</ele>
        <time>2019-05-01T04:27:57Z</time>
      </trkpt>
      <trkpt lat="46.54916" lon="-0.80599">
        <ele>114</ele>
        <time>2019-05-01T04:28:57Z</time>
      </trkpt>
      <trkpt lat="46.54975" lon="-0.80561">
        <ele>111</ele>
        <time>2019-05-01T04:29:57Z</time>
      </trkpt>
      <trkpt lat="46.54995" lon="-0.80546">
        <ele>110</ele>
        <time>2019-05-01T04:30:57Z</time>
      </trkpt>
      <trkpt lat="46.55056" lon="-0.80494">
        <ele>108</ele>
        <time>2019-05-01T04:31:57Z</time>
      </trkpt>
      <trkpt lat="46.55198" lon="-0.80394">
        <ele>103</ele>
        <time>2019-05-01T04:32:57Z</time>
      </trkpt>
      <trkpt lat="46.5536" lon="-0.80256">
        <ele>106</ele>
        <time>2019-05-01T04:33:57Z</time>
      </trkpt>
      <trkpt lat="46.55587" lon="-0.80095">
        <ele>99</ele>
        <time>2019-05-01T04:34:57Z</time>
      </trkpt>
      <trkpt lat="46.55667" lon="-0.80051">
        <ele>91</ele>
        <time>2019-05-01T04:35:57Z</time>
      </trkpt>
      <trkpt lat="46.55695" lon="-0.80041">
        <ele>88</ele>
        <time>2019-05-01T04:36:57Z</time>
      </trkpt>
      <trkpt lat="46.55753" lon="-0.80027">
        <ele>84</ele>
        <time>2019-05-01T04:37:57Z</time>
      </trkpt>
      <trkpt lat="46.5578" lon="-0.80025">
        <ele>82</ele>
        <time>2019-05-01T04:38:57Z</time>
      </trkpt>
      <trkpt lat="46.55859" lon="-0.80026">
        <ele>81</ele>
        <time>2019-05-01T04:39:57Z</time>
      </trkpt>
      <trkpt lat="46.55986" lon="-0.80037">
        <ele>85</ele>
        <time>2019-05-01T04:40:57Z</time>
      </trkpt>
      <trkpt lat="46.56021" lon="-0.80037">
        <ele>84</ele>
        <time>2019-05-01T04:41:57Z</time>
      </trkpt>
      <trkpt lat="46.56057" lon="-0.80035">
        <ele>81</ele>
        <time>2019-05-01T04:42:57Z</time>
      </trkpt>
      <trkpt lat="46.56092" lon="-0.80027">
        <ele>79</ele>
        <time>2019-05-01T04:43:57Z</time>
      </trkpt>
      <trkpt lat="46.56126" lon="-0.80017">
        <ele>77</ele>
        <time>2019-05-01T04:44:57Z</time>
      </trkpt>
      <trkpt lat="46.56378" lon="-0.79905">
        <ele>60</ele>
        <time>2019-05-01T04:45:57Z</time>
      </trkpt>
      <trkpt lat="46.56567" lon="-0.79818">
        <ele>76</ele>
        <time>2019-05-01T04:46:57Z</time>
      </trkpt>
      <trkpt lat="46.56607" lon="-0.79798">
        <ele>78</ele>
        <time>2019-05-01T04:47:57Z</time>
      </trkpt>
      <trkpt lat="46.56643" lon="-0.79776">
        <ele>78</ele>
        <time>2019-05-01T04:48:57Z</time>
      </trkpt>
      <trkpt lat="46.56736" lon="-0.79711">
        <ele>82</ele>
        <time>2019-05-01T04:49:57Z</time>
      </trkpt>
      <trkpt lat="46.5681" lon="-0.79665">
        <ele>83</ele>
        <time>2019-05-01T04:50:57Z</time>
      </trkpt>
      <trkpt lat="46.56864" lon="-0.7964">
        <ele>84</ele>
        <time>2019-05-01T04:51:57Z</time>
      </trkpt>
      <trkpt lat="46.56919" lon="-0.79621">
        <ele>84</ele>
        <time>2019-05-01T04:52:57Z</time>
      </trkpt>
      <trkpt lat="46.56964" lon="-0.7961">
        <ele>86</ele>
        <time>2019-05-01T04:53:57Z</time>
      </trkpt>
      <trkpt lat="46.57012" lon="-0.79601">
        <ele>87</ele>
        <time>2019-05-01T04:54:57Z</time>
      </trkpt>
      <trkpt lat="46.57277" lon="-0.7956">
        <ele>98</ele>
        <time>2019-05-01T04:55:57Z</time>
      </trkpt>
      <trkpt lat="46.58004" lon="-0.79436">
        <ele>103</ele>
        <time>2019-05-01T04:56:57Z</time>
      </trkpt>
      <trkpt lat="46.58492" lon="-0.79355">
        <ele>98</ele>
        <time>2019-05-01T04:57:57Z</time>
      </trkpt>
      <trkpt lat="46.59005" lon="-0.79265">
        <ele>86</ele>
        <time>2019-05-01T04:58:57Z</time>
      </trkpt>
      <trkpt lat="46.59447" lon="-0.79183">
        <ele>86</ele>
        <time>2019-05-01T04:59:57Z</time>
      </trkpt>
      <trkpt lat="46.59982" lon="-0.79088">
        <ele>79</ele>
        <time>2019-05-01T05:00:57Z</time>
      </trkpt>
      <trkpt lat="46.60071" lon="-0.7907">
        <ele>84</ele>
        <time>2019-05-01T05:01:57Z</time>
      </trkpt>
      <trkpt lat="46.6011" lon="-0.79057">
        <ele>84</ele>
        <time>2019-05-01T05:02:57Z</time>
      </trkpt>
      <trkpt lat="46.60687" lon="-0.78769">
        <ele>96</ele>
        <time>2019-05-01T05:03:57Z</time>
      </trkpt>
      <trkpt lat="46.6187" lon="-0.78193">
        <ele>102</ele>
        <time>2019-05-01T05:04:57Z</time>
      </trkpt>
      <trkpt lat="46.61903" lon="-0.78173">
        <ele>101</ele>
        <time>2019-05-01T05:05:57Z</time>
      </trkpt>
      <trkpt lat="46.61933" lon="-0.78148">
        <ele>100</ele>
        <time>2019-05-01T05:06:57Z</time>
      </trkpt>
      <trkpt lat="46.61978" lon="-0.781">
        <ele>96</ele>
        <time>2019-05-01T05:07:57Z</time>
      </trkpt>
      <trkpt lat="46.62013" lon="-0.78056">
        <ele>93</ele>
        <time>2019-05-01T05:08:57Z</time>
      </trkpt>
      <trkpt lat="46.62197" lon="-0.77801">
        <ele>91</ele>
        <time>2019-05-01T05:09:57Z</time>
      </trkpt>
      <trkpt lat="46.62502" lon="-0.77383">
        <ele>88</ele>
        <time>2019-05-01T05:10:57Z</time>
      </trkpt>
      <trkpt lat="46.62545" lon="-0.77326">
        <ele>86</ele>
        <time>2019-05-01T05:11:57Z</time>
      </trkpt>
      <trkpt lat="46.62591" lon="-0.77255">
        <ele>84</ele>
        <time>2019-05-01T05:12:57Z</time>
      </trkpt>
      <trkpt lat="46.62606" lon="-0.77235">
        <ele>84</ele>
        <time>2019-05-01T05:13:57Z</time>
      </trkpt>
      <trkpt lat="46.62614" lon="-0.77219">
        <ele>83</ele>
        <time>2019-05-01T05:14:57Z</time>
      </trkpt>
      <trkpt lat="46.62614" lon="-0.77209">
        <ele>83</ele>
        <time>2019-05-01T05:15:57Z</time>
      </trkpt>
      <trkpt lat="46.62617" lon="-0.77198">
        <ele>83</ele>
        <time>2019-05-01T05:16:57Z</time>
      </trkpt>
      <trkpt lat="46.62621" lon="-0.77192">
        <ele>83</ele>
        <time>2019-05-01T05:17:57Z</time>
      </trkpt>
      <trkpt lat="46.6264" lon="-0.77184">
        <ele>82</ele>
        <time>2019-05-01T05:18:57Z</time>
      </trkpt>
      <trkpt lat="46.62647" lon="-0.77178">
        <ele>82</ele>
        <time>2019-05-01T05:19:57Z</time>
      </trkpt>
      <trkpt lat="46.62666" lon="-0.77153">
        <ele>81</ele>
        <time>2019-05-01T05:20:57Z</time>
      </trkpt>
      <trkpt lat="46.62714" lon="-0.77096">
        <ele>78</ele>
        <time>2019-05-01T05:21:57Z</time>
      </trkpt>
      <trkpt lat="46.62833" lon="-0.76931">
        <ele>80</ele>
        <time>2019-05-01T05:22:57Z</time>
      </trkpt>
      <trkpt lat="46.62865" lon="-0.76882">
        <ele>81</ele>
        <time>2019-05-01T05:23:57Z</time>
      </trkpt>
      <trkpt lat="46.62898" lon="-0.76835">
        <ele>82</ele>
        <time>2019-05-01T05:24:57Z</time>
      </trkpt>
      <trkpt lat="46.62997" lon="-0.76701">
        <ele>84</ele>
        <time>2019-05-01T05:25:57Z</time>
      </trkpt>
      <trkpt lat="46.63065" lon="-0.76615">
        <ele>84</ele>
        <time>2019-05-01T05:26:57Z</time>
      </trkpt>
      <trkpt lat="46.63326" lon="-0.76261">
        <ele>92</ele>
        <time>2019-05-01T05:27:57Z</time>
      </trkpt>
      <trkpt lat="46.63806" lon="-0.75599">
        <ele>96</ele>
        <time>2019-05-01T05:28:57Z</time>
      </trkpt>
      <trkpt lat="46.64007" lon="-0.75329">
        <ele>100</ele>
        <time>2019-05-01T05:29:57Z</time>
      </trkpt>
      <trkpt lat="46.64018" lon="-0.75309">
        <ele>100</ele>
        <time>2019-05-01T05:30:57Z</time>
      </trkpt>
      <trkpt lat="46.64041" lon="-0.75242">
        <ele>99</ele>
        <time>2019-05-01T05:31:57Z</time>
      </trkpt>
      <trkpt lat="46.64045" lon="-0.75224">
        <ele>100</ele>
        <time>2019-05-01T05:32:57Z</time>
      </trkpt>
      <trkpt lat="46.64046" lon="-0.75209">
        <ele>100</ele>
        <time>2019-05-01T05:33:57Z</time>
      </trkpt>
      <trkpt lat="46.64038" lon="-0.75195">
        <ele>101</ele>
        <time>2019-05-01T05:34:57Z</time>
      </trkpt>
      <trkpt lat="46.64034" lon="-0.75176">
        <ele>101</ele>
        <time>2019-05-01T05:35:57Z</time>
      </trkpt>
      <trkpt lat="46.64034" lon="-0.75157">
        <ele>101</ele>
        <time>2019-05-01T05:36:57Z</time>
      </trkpt>
      <trkpt lat="46.64038" lon="-0.75139">
        <ele>101</ele>
        <time>2019-05-01T05:37:57Z</time>
      </trkpt>
      <trkpt lat="46.64046" lon="-0.75125">
        <ele>101</ele>
        <time>2019-05-01T05:38:57Z</time>
      </trkpt>
      <trkpt lat="46.64057" lon="-0.75116">
        <ele>102</ele>
        <time>2019-05-01T05:39:57Z</time>
      </trkpt>
      <trkpt lat="46.64067" lon="-0.75113">
        <ele>102</ele>
        <time>2019-05-01T05:40:57Z</time>
      </trkpt>
      <trkpt lat="46.64078" lon="-0.75114">
        <ele>102</ele>
        <time>2019-05-01T05:41:57Z</time>
      </trkpt>
      <trkpt lat="46.6409" lon="-0.75119">
        <ele>103</ele>
        <time>2019-05-01T05:42:57Z</time>
      </trkpt>
      <trkpt lat="46.64096" lon="-0.75128">
        <ele>103</ele>
        <time>2019-05-01T05:43:57Z</time>
      </trkpt>
      <trkpt lat="46.64105" lon="-0.75129">
        <ele>103</ele>
        <time>2019-05-01T05:44:57Z</time>
      </trkpt>
      <trkpt lat="46.64115" lon="-0.75128">
        <ele>103</ele>
        <time>2019-05-01T05:45:57Z</time>
      </trkpt>
      <trkpt lat="46.6414" lon="-0.75117">
        <ele>103</ele>
        <time>2019-05-01T05:46:57Z</time>
      </trkpt>
      <trkpt lat="46.64167" lon="-0.75099">
        <ele>104</ele>
        <time>2019-05-01T05:47:57Z</time>
      </trkpt>
      <trkpt lat="46.6421" lon="-0.7505">
        <ele>106</ele>
        <time>2019-05-01T05:48:57Z</time>
      </trkpt>
      <trkpt lat="46.6422" lon="-0.75024">
        <ele>106</ele>
        <time>2019-05-01T05:49:57Z</time>
      </trkpt>
      <trkpt lat="46.64237" lon="-0.75013">
        <ele>107</ele>
        <time>2019-05-01T05:50:57Z</time>
      </trkpt>
      <trkpt lat="46.64585" lon="-0.74541">
        <ele>125</ele>
        <time>2019-05-01T05:51:57Z</time>
      </trkpt>
      <trkpt lat="46.64582" lon="-0.74531">
        <ele>125</ele>
        <time>2019-05-01T05:52:57Z</time>
      </trkpt>
      <trkpt lat="46.64586" lon="-0.74522">
        <ele>125</ele>
        <time>2019-05-01T05:53:57Z</time>
      </trkpt>
      <trkpt lat="46.64594" lon="-0.74525">
        <ele>125</ele>
        <time>2019-05-01T05:54:57Z</time>
      </trkpt>
      <trkpt lat="46.64806" lon="-0.74236">
        <ele>147</ele>
        <time>2019-05-01T05:55:57Z</time>
      </trkpt>
      <trkpt lat="46.64814" lon="-0.7422">
        <ele>149</ele>
        <time>2019-05-01T05:56:57Z</time>
      </trkpt>
      <trkpt lat="46.64848" lon="-0.74204">
        <ele>152</ele>
        <time>2019-05-01T05:57:57Z</time>
      </trkpt>
      <trkpt lat="46.6488" lon="-0.74192">
        <ele>156</ele>
        <time>2019-05-01T05:58:57Z</time>
      </trkpt>
      <trkpt lat="46.64905" lon="-0.74192">
        <ele>158</ele>
        <time>2019-05-01T05:59:57Z</time>
      </trkpt>
      <trkpt lat="46.64923" lon="-0.74198">
        <ele>159</ele>
        <time>2019-05-01T06:00:57Z</time>
      </trkpt>
      <trkpt lat="46.64935" lon="-0.74206">
        <ele>160</ele>
        <time>2019-05-01T06:01:57Z</time>
      </trkpt>
      <trkpt lat="46.64944" lon="-0.74226">
        <ele>159</ele>
        <time>2019-05-01T06:02:57Z</time>
      </trkpt>
      <trkpt lat="46.64954" lon="-0.74262">
        <ele>158</ele>
        <time>2019-05-01T06:03:57Z</time>
      </trkpt>
      <trkpt lat="46.6498" lon="-0.74279">
        <ele>159</ele>
        <time>2019-05-01T06:04:57Z</time>
      </trkpt>
      <trkpt lat="46.65012" lon="-0.74291">
        <ele>160</ele>
        <time>2019-05-01T06:05:57Z</time>
      </trkpt>
      <trkpt lat="46.65034" lon="-0.74294">
        <ele>160</ele>
        <time>2019-05-01T06:06:57Z</time>
      </trkpt>
      <trkpt lat="46.65055" lon="-0.7429">
        <ele>161</ele>
        <time>2019-05-01T06:07:57Z</time>
      </trkpt>
      <trkpt lat="46.65111" lon="-0.74269">
        <ele>162</ele>
        <time>2019-05-01T06:08:57Z</time>
      </trkpt>
      <trkpt lat="46.65136" lon="-0.7425">
        <ele>164</ele>
        <time>2019-05-01T06:09:57Z</time>
      </trkpt>
      <trkpt lat="46.65152" lon="-0.74282">
        <ele>162</ele>
        <time>2019-05-01T06:10:57Z</time>
      </trkpt>
      <trkpt lat="46.65171" lon="-0.74339">
        <ele>160</ele>
        <time>2019-05-01T06:11:57Z</time>
      </trkpt>
      <trkpt lat="46.65205" lon="-0.74471">
        <ele>156</ele>
        <time>2019-05-01T06:12:57Z</time>
      </trkpt>
      <trkpt lat="46.65256" lon="-0.74647">
        <ele>159</ele>
        <time>2019-05-01T06:13:57Z</time>
      </trkpt>
      <trkpt lat="46.65257" lon="-0.74665">
        <ele>159</ele>
        <time>2019-05-01T06:14:57Z</time>
      </trkpt>
      <trkpt lat="46.65264" lon="-0.74669">
        <ele>160</ele>
        <time>2019-05-01T06:15:57Z</time>
      </trkpt>
      <trkpt lat="46.65265" lon="-0.74672">
        <ele>160</ele>
        <time>2019-05-01T06:16:57Z</time>
      </trkpt>
      <trkpt lat="46.65268" lon="-0.74671">
        <ele>160</ele>
        <time>2019-05-01T06:17:57Z</time>
      </trkpt>
      <trkpt lat="46.65282" lon="-0.74728">
        <ele>160</ele>
        <time>2019-05-01T06:18:57Z</time>
      </trkpt>
      <trkpt lat="46.65284" lon="-0.74746">
        <ele>159</ele>
        <time>2019-05-01T06:19:57Z</time>
      </trkpt>
      <trkpt lat="46.65405" lon="-0.75169">
        <ele>150</ele>
        <time>2019-05-01T06:20:57Z</time>
      </trkpt>
      <trkpt lat="46.65407" lon="-0.75192">
        <ele>149</ele>
        <time>2019-05-01T06:21:57Z</time>
      </trkpt>
      <trkpt lat="46.65406" lon="-0.75229">
        <ele>147</ele>
        <time>2019-05-01T06:22:57Z</time>
      </trkpt>
      <trkpt lat="46.65414" lon="-0.75233">
        <ele>147</ele>
        <time>2019-05-01T06:23:57Z</time>
      </trkpt>
      <trkpt lat="46.65426" lon="-0.75243">
        <ele>147</ele>
        <time>2019-05-01T06:24:57Z</time>
      </trkpt>
      <trkpt lat="46.65431" lon="-0.75252">
        <ele>147</ele>
        <time>2019-05-01T06:25:57Z</time>
      </trkpt>
      <trkpt lat="46.65447" lon="-0.75299">
        <ele>147</ele>
        <time>2019-05-01T06:26:57Z</time>
      </trkpt>
      <trkpt lat="46.65462" lon="-0.7533">
        <ele>146</ele>
        <time>2019-05-01T06:27:57Z</time>
      </trkpt>
      <trkpt lat="46.65497" lon="-0.75451">
        <ele>141</ele>
        <time>2019-05-01T06:28:57Z</time>
      </trkpt>
      <trkpt lat="46.65502" lon="-0.75478">
        <ele>139</ele>
        <time>2019-05-01T06:29:57Z</time>
      </trkpt>
      <trkpt lat="46.65512" lon="-0.75507">
        <ele>138</ele>
        <time>2019-05-01T06:30:57Z</time>
      </trkpt>
      <trkpt lat="46.65593" lon="-0.75785">
        <ele>124</ele>
        <time>2019-05-01T06:31:57Z</time>
      </trkpt>
      <trkpt lat="46.65616" lon="-0.75858">
        <ele>122</ele>
        <time>2019-05-01T06:32:57Z</time>
      </trkpt>
      <trkpt lat="46.65669" lon="-0.75986">
        <ele>118</ele>
        <time>2019-05-01T06:33:57Z</time>
      </trkpt>
      <trkpt lat="46.65689" lon="-0.76044">
        <ele>116</ele>
        <time>2019-05-01T06:34:57Z</time>
      </trkpt>
      <trkpt lat="46.65712" lon="-0.76135">
        <ele>113</ele>
        <time>2019-05-01T06:35:57Z</time>
      </trkpt>
      <trkpt lat="46.65718" lon="-0.76168">
        <ele>111</ele>
        <time>2019-05-01T06:36:57Z</time>
      </trkpt>
      <trkpt lat="46.65722" lon="-0.76206">
        <ele>110</ele>
        <time>2019-05-01T06:37:57Z</time>
      </trkpt>
      <trkpt lat="46.65722" lon="-0.76257">
        <ele>109</ele>
        <time>2019-05-01T06:38:57Z</time>
      </trkpt>
      <trkpt lat="46.65719" lon="-0.76334">
        <ele>111</ele>
        <time>2019-05-01T06:39:57Z</time>
      </trkpt>
      <trkpt lat="46.657" lon="-0.76508">
        <ele>114</ele>
        <time>2019-05-01T06:40:57Z</time>
      </trkpt>
      <trkpt lat="46.65694" lon="-0.76544">
        <ele>113</ele>
        <time>2019-05-01T06:41:57Z</time>
      </trkpt>
      <trkpt lat="46.65687" lon="-0.76578">
        <ele>111</ele>
        <time>2019-05-01T06:42:57Z</time>
      </trkpt>
      <trkpt lat="46.65666" lon="-0.76647">
        <ele>108</ele>
        <time>2019-05-01T06:43:57Z</time>
      </trkpt>
      <trkpt lat="46.65656" lon="-0.76689">
        <ele>108</ele>
        <time>2019-05-01T06:44:57Z</time>
      </trkpt>
      <trkpt lat="46.65651" lon="-0.76723">
        <ele>108</ele>
        <time>2019-05-01T06:45:57Z</time>
      </trkpt>
      <trkpt lat="46.65647" lon="-0.76787">
        <ele>107</ele>
        <time>2019-05-01T06:46:57Z</time>
      </trkpt>
      <trkpt lat="46.65653" lon="-0.76857">
        <ele>104</ele>
        <time>2019-05-01T06:47:57Z</time>
      </trkpt>
      <trkpt lat="46.6566" lon="-0.76875">
        <ele>103</ele>
        <time>2019-05-01T06:48:57Z</time>
      </trkpt>
      <trkpt lat="46.65661" lon="-0.76904">
        <ele>102</ele>
        <time>2019-05-01T06:49:57Z</time>
      </trkpt>
      <trkpt lat="46.65678" lon="-0.76993">
        <ele>100</ele>
        <time>2019-05-01T06:50:57Z</time>
      </trkpt>
      <trkpt lat="46.6577" lon="-0.77456">
        <ele>110</ele>
        <time>2019-05-01T06:51:57Z</time>
      </trkpt>
      <trkpt lat="46.65774" lon="-0.77471">
        <ele>111</ele>
        <time>2019-05-01T06:52:57Z</time>
      </trkpt>
      <trkpt lat="46.65783" lon="-0.77485">
        <ele>111</ele>
        <time>2019-05-01T06:53:57Z</time>
      </trkpt>
      <trkpt lat="46.65786" lon="-0.77497">
        <ele>112</ele>
        <time>2019-05-01T06:54:57Z</time>
      </trkpt>
      <trkpt lat="46.65784" lon="-0.77525">
        <ele>112</ele>
        <time>2019-05-01T06:55:57Z</time>
      </trkpt>
      <trkpt lat="46.65871" lon="-0.77962">
        <ele>117</ele>
        <time>2019-05-01T06:56:57Z</time>
      </trkpt>
      <trkpt lat="46.65876" lon="-0.77975">
        <ele>118</ele>
        <time>2019-05-01T06:57:57Z</time>
      </trkpt>
      <trkpt lat="46.65881" lon="-0.78">
        <ele>118</ele>
        <time>2019-05-01T06:58:57Z</time>
      </trkpt>
      <trkpt lat="46.65881" lon="-0.78014">
        <ele>117</ele>
        <time>2019-05-01T06:59:57Z</time>
      </trkpt>
      <trkpt lat="46.65937" lon="-0.78291">
        <ele>120</ele>
        <time>2019-05-01T07:00:57Z</time>
      </trkpt>
      <trkpt lat="46.65948" lon="-0.78355">
        <ele>120</ele>
        <time>2019-05-01T07:01:57Z</time>
      </trkpt>
      <trkpt lat="46.65963" lon="-0.78424">
        <ele>120</ele>
        <time>2019-05-01T07:02:57Z</time>
      </trkpt>
      <trkpt lat="46.65972" lon="-0.78462">
        <ele>120</ele>
        <time>2019-05-01T07:03:57Z</time>
      </trkpt>
      <trkpt lat="46.66001" lon="-0.78554">
        <ele>119</ele>
        <time>2019-05-01T07:04:57Z</time>
      </trkpt>
      <trkpt lat="46.6603" lon="-0.78628">
        <ele>119</ele>
        <time>2019-05-01T07:05:57Z</time>
      </trkpt>
      <trkpt lat="46.6607" lon="-0.78707">
        <ele>119</ele>
        <time>2019-05-01T07:06:57Z</time>
      </trkpt>
      <trkpt lat="46.66111" lon="-0.78775">
        <ele>117</ele>
        <time>2019-05-01T07:07:57Z</time>
      </trkpt>
      <trkpt lat="46.66117" lon="-0.78789">
        <ele>117</ele>
        <time>2019-05-01T07:08:57Z</time>
      </trkpt>
      <trkpt lat="46.66125" lon="-0.78796">
        <ele>117</ele>
        <time>2019-05-01T07:09:57Z</time>
      </trkpt>
      <trkpt lat="46.66126" lon="-0.78812">
        <ele>117</ele>
        <time>2019-05-01T07:10:57Z</time>
      </trkpt>
      <trkpt lat="46.66162" lon="-0.78862">
        <ele>117</ele>
        <time>2019-05-01T07:11:57Z</time>
      </trkpt>
      <trkpt lat="46.66165" lon="-0.78871">
        <ele>116</ele>
        <time>2019-05-01T07:12:57Z</time>
      </trkpt>
      <trkpt lat="46.66167" lon="-0.78884">
        <ele>115</ele>
        <time>2019-05-01T07:13:57Z</time>
      </trkpt>
      <trkpt lat="46.66171" lon="-0.78892">
        <ele>115</ele>
        <time>2019-05-01T07:14:57Z</time>
      </trkpt>
      <trkpt lat="46.66174" lon="-0.78902">
        <ele>114</ele>
        <time>2019-05-01T07:15:57Z</time>
      </trkpt>
      <trkpt lat="46.66182" lon="-0.78909">
        <ele>114</ele>
        <time>2019-05-01T07:16:57Z</time>
      </trkpt>
      <trkpt lat="46.66232" lon="-0.78942">
        <ele>115</ele>
        <time>2019-05-01T07:17:57Z</time>
      </trkpt>
      <trkpt lat="46.66433" lon="-0.79092">
        <ele>106</ele>
        <time>2019-05-01T07:18:57Z</time>
      </trkpt>
      <trkpt lat="46.66455" lon="-0.79107">
        <ele>106</ele>
        <time>2019-05-01T07:19:57Z</time>
      </trkpt>
      <trkpt lat="46.66526" lon="-0.79145">
        <ele>103</ele>
        <time>2019-05-01T07:20:57Z</time>
      </trkpt>
      <trkpt lat="46.66542" lon="-0.79155">
        <ele>102</ele>
        <time>2019-05-01T07:21:57Z</time>
      </trkpt>
      <trkpt lat="46.66602" lon="-0.79212">
        <ele>103</ele>
        <time>2019-05-01T07:22:57Z</time>
      </trkpt>
      <trkpt lat="46.66613" lon="-0.7922">
        <ele>103</ele>
        <time>2019-05-01T07:23:57Z</time>
      </trkpt>
      <trkpt lat="46.66618" lon="-0.79216">
        <ele>103</ele>
        <time>2019-05-01T07:24:57Z</time>
      </trkpt>
      <trkpt lat="46.66629" lon="-0.79215">
        <ele>103</ele>
        <time>2019-05-01T07:25:57Z</time>
      </trkpt>
      <trkpt lat="46.66638" lon="-0.79224">
        <ele>103</ele>
        <time>2019-05-01T07:26:57Z</time>
      </trkpt>
      <trkpt lat="46.6664" lon="-0.7923">
        <ele>104</ele>
        <time>2019-05-01T07:27:57Z</time>
      </trkpt>
      <trkpt lat="46.66641" lon="-0.79246">
        <ele>105</ele>
        <time>2019-05-01T07:28:57Z</time>
      </trkpt>
      <trkpt lat="46.66637" lon="-0.79259">
        <ele>106</ele>
        <time>2019-05-01T07:29:57Z</time>
      </trkpt>
      <trkpt lat="46.66633" lon="-0.79263">
        <ele>106</ele>
        <time>2019-05-01T07:30:57Z</time>
      </trkpt>
      <trkpt lat="46.66634" lon="-0.7928">
        <ele>107</ele>
        <time>2019-05-01T07:31:57Z</time>
      </trkpt>
      <trkpt lat="46.66648" lon="-0.79361">
        <ele>112</ele>
        <time>2019-05-01T07:32:57Z</time>
      </trkpt>
      <trkpt lat="46.66657" lon="-0.79398">
        <ele>113</ele>
        <time>2019-05-01T07:33:57Z</time>
      </trkpt>
      <trkpt lat="46.66663" lon="-0.79433">
        <ele>115</ele>
        <time>2019-05-01T07:34:57Z</time>
      </trkpt>
      <trkpt lat="46.66673" lon="-0.7955">
        <ele>118</ele>
        <time>2019-05-01T07:35:57Z</time>
      </trkpt>
      <trkpt lat="46.66682" lon="-0.7962">
        <ele>121</ele>
        <time>2019-05-01T07:36:57Z</time>
      </trkpt>
      <trkpt lat="46.66691" lon="-0.79657">
        <ele>122</ele>
        <time>2019-05-01T07:37:57Z</time>
      </trkpt>
      <trkpt lat="46.66705" lon="-0.79701">
        <ele>124</ele>
        <time>2019-05-01T07:38:57Z</time>
      </trkpt>
      <trkpt lat="46.66986" lon="-0.80501">
        <ele>100</ele>
        <time>2019-05-01T07:39:57Z</time>
      </trkpt>
      <trkpt lat="46.67002" lon="-0.80538">
        <ele>100</ele>
        <time>2019-05-01T07:40:57Z</time>
      </trkpt>
      <trkpt lat="46.67018" lon="-0.80569">
        <ele>100</ele>
        <time>2019-05-01T07:41:57Z</time>
      </trkpt>
      <trkpt lat="46.67037" lon="-0.80599">
        <ele>101</ele>
        <time>2019-05-01T07:42:57Z</time>
      </trkpt>
      <trkpt lat="46.67114" lon="-0.80708">
        <ele>106</ele>
        <time>2019-05-01T07:43:57Z</time>
      </trkpt>
      <trkpt lat="46.67147" lon="-0.80764">
        <ele>109</ele>
        <time>2019-05-01T07:44:57Z</time>
      </trkpt>
      <trkpt lat="46.67174" lon="-0.80818">
        <ele>112</ele>
        <time>2019-05-01T07:45:57Z</time>
      </trkpt>
      <trkpt lat="46.67203" lon="-0.80881">
        <ele>115</ele>
        <time>2019-05-01T07:46:57Z</time>
      </trkpt>
      <trkpt lat="46.67228" lon="-0.8094">
        <ele>117</ele>
        <time>2019-05-01T07:47:57Z</time>
      </trkpt>
      <trkpt lat="46.67254" lon="-0.81021">
        <ele>119</ele>
        <time>2019-05-01T07:48:57Z</time>
      </trkpt>
      <trkpt lat="46.6728" lon="-0.81113">
        <ele>122</ele>
        <time>2019-05-01T07:49:57Z</time>
      </trkpt>
      <trkpt lat="46.67315" lon="-0.81255">
        <ele>126</ele>
        <time>2019-05-01T07:50:57Z</time>
      </trkpt>
      <trkpt lat="46.67614" lon="-0.8253">
        <ele>144</ele>
        <time>2019-05-01T07:51:57Z</time>
      </trkpt>
      <trkpt lat="46.67632" lon="-0.82614">
        <ele>146</ele>
        <time>2019-05-01T07:52:57Z</time>
      </trkpt>
      <trkpt lat="46.67637" lon="-0.82658">
        <ele>147</ele>
        <time>2019-05-01T07:53:57Z</time>
      </trkpt>
      <trkpt lat="46.67702" lon="-0.83397">
        <ele>138</ele>
        <time>2019-05-01T07:54:57Z</time>
      </trkpt>
      <trkpt lat="46.67739" lon="-0.83794">
        <ele>122</ele>
        <time>2019-05-01T07:55:57Z</time>
      </trkpt>
      <trkpt lat="46.67748" lon="-0.83899">
        <ele>117</ele>
        <time>2019-05-01T07:56:57Z</time>
      </trkpt>
      <trkpt lat="46.67754" lon="-0.83928">
        <ele>116</ele>
        <time>2019-05-01T07:57:57Z</time>
      </trkpt>
      <trkpt lat="46.6776" lon="-0.83934">
        <ele>116</ele>
        <time>2019-05-01T07:58:57Z</time>
      </trkpt>
      <trkpt lat="46.67762" lon="-0.83942">
        <ele>116</ele>
        <time>2019-05-01T07:59:57Z</time>
      </trkpt>
      <trkpt lat="46.67761" lon="-0.83951">
        <ele>116</ele>
        <time>2019-05-01T08:00:57Z</time>
      </trkpt>
      <trkpt lat="46.67759" lon="-0.83957">
        <ele>116</ele>
        <time>2019-05-01T08:01:57Z</time>
      </trkpt>
      <trkpt lat="46.67754" lon="-0.8396">
        <ele>116</ele>
        <time>2019-05-01T08:02:57Z</time>
      </trkpt>
      <trkpt lat="46.67748" lon="-0.8396">
        <ele>116</ele>
        <time>2019-05-01T08:03:57Z</time>
      </trkpt>
      <trkpt lat="46.67752" lon="-0.83974">
        <ele>115</ele>
        <time>2019-05-01T08:04:57Z</time>
      </trkpt>
      <trkpt lat="46.67758" lon="-0.84005">
        <ele>115</ele>
        <time>2019-05-01T08:05:57Z</time>
      </trkpt>
      <trkpt lat="46.67775" lon="-0.84207">
        <ele>113</ele>
        <time>2019-05-01T08:06:57Z</time>
      </trkpt>
      <trkpt lat="46.67776" lon="-0.84259">
        <ele>112</ele>
        <time>2019-05-01T08:07:57Z</time>
      </trkpt>
      <trkpt lat="46.67773" lon="-0.84319">
        <ele>110</ele>
        <time>2019-05-01T08:08:57Z</time>
      </trkpt>
      <trkpt lat="46.67768" lon="-0.84372">
        <ele>110</ele>
        <time>2019-05-01T08:09:57Z</time>
      </trkpt>
      <trkpt lat="46.67744" lon="-0.84544">
        <ele>108</ele>
        <time>2019-05-01T08:10:57Z</time>
      </trkpt>
      <trkpt lat="46.67739" lon="-0.84604">
        <ele>108</ele>
        <time>2019-05-01T08:11:57Z</time>
      </trkpt>
      <trkpt lat="46.67729" lon="-0.84826">
        <ele>109</ele>
        <time>2019-05-01T08:12:57Z</time>
      </trkpt>
      <trkpt lat="46.67729" lon="-0.84863">
        <ele>110</ele>
        <time>2019-05-01T08:13:57Z</time>
      </trkpt>
      <trkpt lat="46.67731" lon="-0.84897">
        <ele>111</ele>
        <time>2019-05-01T08:14:57Z</time>
      </trkpt>
      <trkpt lat="46.67736" lon="-0.84963">
        <ele>113</ele>
        <time>2019-05-01T08:15:57Z</time>
      </trkpt>
      <trkpt lat="46.6774" lon="-0.84996">
        <ele>114</ele>
        <time>2019-05-01T08:16:57Z</time>
      </trkpt>
      <trkpt lat="46.67745" lon="-0.85071">
        <ele>114</ele>
        <time>2019-05-01T08:17:57Z</time>
      </trkpt>
      <trkpt lat="46.67746" lon="-0.8517">
        <ele>113</ele>
        <time>2019-05-01T08:18:57Z</time>
      </trkpt>
      <trkpt lat="46.67744" lon="-0.85245">
        <ele>113</ele>
        <time>2019-05-01T08:19:57Z</time>
      </trkpt>
      <trkpt lat="46.67739" lon="-0.85341">
        <ele>111</ele>
        <time>2019-05-01T08:20:57Z</time>
      </trkpt>
      <trkpt lat="46.67742" lon="-0.85391">
        <ele>110</ele>
        <time>2019-05-01T08:21:57Z</time>
      </trkpt>
      <trkpt lat="46.6774" lon="-0.85407">
        <ele>109</ele>
        <time>2019-05-01T08:22:57Z</time>
      </trkpt>
      <trkpt lat="46.67744" lon="-0.85416">
        <ele>109</ele>
        <time>2019-05-01T08:23:57Z</time>
      </trkpt>
      <trkpt lat="46.67754" lon="-0.85425">
        <ele>109</ele>
        <time>2019-05-01T08:24:57Z</time>
      </trkpt>
      <trkpt lat="46.67775" lon="-0.85463">
        <ele>110</ele>
        <time>2019-05-01T08:25:57Z</time>
      </trkpt>
      <trkpt lat="46.67834" lon="-0.8553">
        <ele>113</ele>
        <time>2019-05-01T08:26:57Z</time>
      </trkpt>
      <trkpt lat="46.67887" lon="-0.85586">
        <ele>117</ele>
        <time>2019-05-01T08:27:57Z</time>
      </trkpt>
      <trkpt lat="46.67936" lon="-0.85651">
        <ele>121</ele>
        <time>2019-05-01T08:28:57Z</time>
      </trkpt>
      <trkpt lat="46.67964" lon="-0.85678">
        <ele>122</ele>
        <time>2019-05-01T08:29:57Z</time>
      </trkpt>
      <trkpt lat="46.67991" lon="-0.85701">
        <ele>123</ele>
        <time>2019-05-01T08:30:57Z</time>
      </trkpt>
      <trkpt lat="46.6803" lon="-0.85725">
        <ele>124</ele>
        <time>2019-05-01T08:31:57Z</time>
      </trkpt>
      <trkpt lat="46.68087" lon="-0.85753">
        <ele>124</ele>
        <time>2019-05-01T08:32:57Z</time>
      </trkpt>
      <trkpt lat="46.68119" lon="-0.85773">
        <ele>126</ele>
        <time>2019-05-01T08:33:57Z</time>
      </trkpt>
      <trkpt lat="46.68148" lon="-0.85794">
        <ele>127</ele>
        <time>2019-05-01T08:34:57Z</time>
      </trkpt>
      <trkpt lat="46.6821" lon="-0.85854">
        <ele>131</ele>
        <time>2019-05-01T08:35:57Z</time>
      </trkpt>
      <trkpt lat="46.68236" lon="-0.85888">
        <ele>134</ele>
        <time>2019-05-01T08:36:57Z</time>
      </trkpt>
      <trkpt lat="46.68344" lon="-0.86078">
        <ele>135</ele>
        <time>2019-05-01T08:37:57Z</time>
      </trkpt>
      <trkpt lat="46.68385" lon="-0.86156">
        <ele>134</ele>
        <time>2019-05-01T08:38:57Z</time>
      </trkpt>
      <trkpt lat="46.68404" lon="-0.86197">
        <ele>133</ele>
        <time>2019-05-01T08:39:57Z</time>
      </trkpt>
      <trkpt lat="46.68426" lon="-0.86255">
        <ele>133</ele>
        <time>2019-05-01T08:40:57Z</time>
      </trkpt>
      <trkpt lat="46.68478" lon="-0.86405">
        <ele>137</ele>
        <time>2019-05-01T08:41:57Z</time>
      </trkpt>
      <trkpt lat="46.68494" lon="-0.86456">
        <ele>139</ele>
        <time>2019-05-01T08:42:57Z</time>
      </trkpt>
      <trkpt lat="46.68504" lon="-0.86503">
        <ele>140</ele>
        <time>2019-05-01T08:43:57Z</time>
      </trkpt>
      <trkpt lat="46.6852" lon="-0.86593">
        <ele>138</ele>
        <time>2019-05-01T08:44:57Z</time>
      </trkpt>
      <trkpt lat="46.68529" lon="-0.86619">
        <ele>138</ele>
        <time>2019-05-01T08:45:57Z</time>
      </trkpt>
      <trkpt lat="46.6854" lon="-0.86644">
        <ele>138</ele>
        <time>2019-05-01T08:46:57Z</time>
      </trkpt>
      <trkpt lat="46.68557" lon="-0.8667">
        <ele>137</ele>
        <time>2019-05-01T08:47:57Z</time>
      </trkpt>
      <trkpt lat="46.68659" lon="-0.86813">
        <ele>137</ele>
        <time>2019-05-01T08:48:57Z</time>
      </trkpt>
      <trkpt lat="46.68681" lon="-0.86833">
        <ele>136</ele>
        <time>2019-05-01T08:49:57Z</time>
      </trkpt>
      <trkpt lat="46.68738" lon="-0.8687">
        <ele>135</ele>
        <time>2019-05-01T08:50:57Z</time>
      </trkpt>
      <trkpt lat="46.68787" lon="-0.86896">
        <ele>134</ele>
        <time>2019-05-01T08:51:57Z</time>
      </trkpt>
      <trkpt lat="46.68912" lon="-0.86934">
        <ele>130</ele>
        <time>2019-05-01T08:52:57Z</time>
      </trkpt>
      <trkpt lat="46.68933" lon="-0.86943">
        <ele>129</ele>
        <time>2019-05-01T08:53:57Z</time>
      </trkpt>
      <trkpt lat="46.68951" lon="-0.86954">
        <ele>128</ele>
        <time>2019-05-01T08:54:57Z</time>
      </trkpt>
      <trkpt lat="46.68971" lon="-0.86969">
        <ele>127</ele>
        <time>2019-05-01T08:55:57Z</time>
      </trkpt>
      <trkpt lat="46.69055" lon="-0.87044">
        <ele>124</ele>
        <time>2019-05-01T08:56:57Z</time>
      </trkpt>
      <trkpt lat="46.69132" lon="-0.87145">
        <ele>121</ele>
        <time>2019-05-01T08:57:57Z</time>
      </trkpt>
      <trkpt lat="46.69144" lon="-0.87159">
        <ele>121</ele>
        <time>2019-05-01T08:58:57Z</time>
      </trkpt>
      <trkpt lat="46.69213" lon="-0.8721">
        <ele>122</ele>
        <time>2019-05-01T08:59:57Z</time>
      </trkpt>
      <trkpt lat="46.6923" lon="-0.87225">
        <ele>122</ele>
        <time>2019-05-01T09:00:57Z</time>
      </trkpt>
      <trkpt lat="46.69297" lon="-0.8731">
        <ele>123</ele>
        <time>2019-05-01T09:01:57Z</time>
      </trkpt>
      <trkpt lat="46.69335" lon="-0.87351">
        <ele>121</ele>
        <time>2019-05-01T09:02:57Z</time>
      </trkpt>
      <trkpt lat="46.69354" lon="-0.87376">
        <ele>120</ele>
        <time>2019-05-01T09:03:57Z</time>
      </trkpt>
      <trkpt lat="46.69399" lon="-0.87466">
        <ele>115</ele>
        <time>2019-05-01T09:04:57Z</time>
      </trkpt>
      <trkpt lat="46.6943" lon="-0.87521">
        <ele>113</ele>
        <time>2019-05-01T09:05:57Z</time>
      </trkpt>
      <trkpt lat="46.69467" lon="-0.87573">
        <ele>114</ele>
        <time>2019-05-01T09:06:57Z</time>
      </trkpt>
      <trkpt lat="46.69625" lon="-0.87776">
        <ele>110</ele>
        <time>2019-05-01T09:07:57Z</time>
      </trkpt>
      <trkpt lat="46.6966" lon="-0.87834">
        <ele>106</ele>
        <time>2019-05-01T09:08:57Z</time>
      </trkpt>
      <trkpt lat="46.69674" lon="-0.87861">
        <ele>105</ele>
        <time>2019-05-01T09:09:57Z</time>
      </trkpt>
      <trkpt lat="46.69686" lon="-0.87892">
        <ele>104</ele>
        <time>2019-05-01T09:10:57Z</time>
      </trkpt>
      <trkpt lat="46.69696" lon="-0.87924">
        <ele>104</ele>
        <time>2019-05-01T09:11:57Z</time>
      </trkpt>
      <trkpt lat="46.69737" lon="-0.88094">
        <ele>107</ele>
        <time>2019-05-01T09:12:57Z</time>
      </trkpt>
      <trkpt lat="46.69747" lon="-0.88128">
        <ele>107</ele>
        <time>2019-05-01T09:13:57Z</time>
      </trkpt>
      <trkpt lat="46.69758" lon="-0.88159">
        <ele>107</ele>
        <time>2019-05-01T09:14:57Z</time>
      </trkpt>
      <trkpt lat="46.69769" lon="-0.88181">
        <ele>107</ele>
        <time>2019-05-01T09:15:57Z</time>
      </trkpt>
      <trkpt lat="46.69791" lon="-0.88217">
        <ele>105</ele>
        <time>2019-05-01T09:16:57Z</time>
      </trkpt>
      <trkpt lat="46.69915" lon="-0.8838">
        <ele>106</ele>
        <time>2019-05-01T09:17:57Z</time>
      </trkpt>
      <trkpt lat="46.69952" lon="-0.88421">
        <ele>105</ele>
        <time>2019-05-01T09:18:57Z</time>
      </trkpt>
      <trkpt lat="46.69997" lon="-0.88461">
        <ele>106</ele>
        <time>2019-05-01T09:19:57Z</time>
      </trkpt>
      <trkpt lat="46.70013" lon="-0.88472">
        <ele>105</ele>
        <time>2019-05-01T09:20:57Z</time>
      </trkpt>
      <trkpt lat="46.7015" lon="-0.88541">
        <ele>95</ele>
        <time>2019-05-01T09:21:57Z</time>
      </trkpt>
      <trkpt lat="46.70176" lon="-0.88557">
        <ele>93</ele>
        <time>2019-05-01T09:22:57Z</time>
      </trkpt>
      <trkpt lat="46.70198" lon="-0.88575">
        <ele>91</ele>
        <time>2019-05-01T09:23:57Z</time>
      </trkpt>
      <trkpt lat="46.70235" lon="-0.88614">
        <ele>88</ele>
        <time>2019-05-01T09:24:57Z</time>
      </trkpt>
      <trkpt lat="46.70269" lon="-0.88661">
        <ele>84</ele>
        <time>2019-05-01T09:25:57Z</time>
      </trkpt>
      <trkpt lat="46.70283" lon="-0.88677">
        <ele>83</ele>
        <time>2019-05-01T09:26:57Z</time>
      </trkpt>
      <trkpt lat="46.70297" lon="-0.88689">
        <ele>81</ele>
        <time>2019-05-01T09:27:57Z</time>
      </trkpt>
      <trkpt lat="46.70311" lon="-0.88698">
        <ele>79</ele>
        <time>2019-05-01T09:28:57Z</time>
      </trkpt>
      <trkpt lat="46.70325" lon="-0.88701">
        <ele>77</ele>
        <time>2019-05-01T09:29:57Z</time>
      </trkpt>
      <trkpt lat="46.70378" lon="-0.88702">
        <ele>74</ele>
        <time>2019-05-01T09:30:57Z</time>
      </trkpt>
      <trkpt lat="46.70411" lon="-0.88706">
        <ele>73</ele>
        <time>2019-05-01T09:31:57Z</time>
      </trkpt>
      <trkpt lat="46.70441" lon="-0.88713">
        <ele>73</ele>
        <time>2019-05-01T09:32:57Z</time>
      </trkpt>
      <trkpt lat="46.70472" lon="-0.88727">
        <ele>74</ele>
        <time>2019-05-01T09:33:57Z</time>
      </trkpt>
      <trkpt lat="46.70513" lon="-0.88752">
        <ele>76</ele>
        <time>2019-05-01T09:34:57Z</time>
      </trkpt>
      <trkpt lat="46.70532" lon="-0.88767">
        <ele>77</ele>
        <time>2019-05-01T09:35:57Z</time>
      </trkpt>
      <trkpt lat="46.7058" lon="-0.88798">
        <ele>79</ele>
        <time>2019-05-01T09:36:57Z</time>
      </trkpt>
      <trkpt lat="46.70631" lon="-0.88836">
        <ele>81</ele>
        <time>2019-05-01T09:37:57Z</time>
      </trkpt>
      <trkpt lat="46.70659" lon="-0.8886">
        <ele>82</ele>
        <time>2019-05-01T09:38:57Z</time>
      </trkpt>
      <trkpt lat="46.70741" lon="-0.88945">
        <ele>85</ele>
        <time>2019-05-01T09:39:57Z</time>
      </trkpt>
      <trkpt lat="46.70763" lon="-0.88976">
        <ele>85</ele>
        <time>2019-05-01T09:40:57Z</time>
      </trkpt>
      <trkpt lat="46.70777" lon="-0.89001">
        <ele>86</ele>
        <time>2019-05-01T09:41:57Z</time>
      </trkpt>
      <trkpt lat="46.70788" lon="-0.89026">
        <ele>87</ele>
        <time>2019-05-01T09:42:57Z</time>
      </trkpt>
      <trkpt lat="46.70798" lon="-0.89052">
        <ele>87</ele>
        <time>2019-05-01T09:43:57Z</time>
      </trkpt>
      <trkpt lat="46.70806" lon="-0.89081">
        <ele>88</ele>
        <time>2019-05-01T09:44:57Z</time>
      </trkpt>
      <trkpt lat="46.71019" lon="-0.89972">
        <ele>103</ele>
        <time>2019-05-01T09:45:57Z</time>
      </trkpt>
      <trkpt lat="46.71026" lon="-0.9001">
        <ele>102</ele>
        <time>2019-05-01T09:46:57Z</time>
      </trkpt>
      <trkpt lat="46.71028" lon="-0.90037">
        <ele>102</ele>
        <time>2019-05-01T09:47:57Z</time>
      </trkpt>
      <trkpt lat="46.71028" lon="-0.90063">
        <ele>101</ele>
        <time>2019-05-01T09:48:57Z</time>
      </trkpt>
      <trkpt lat="46.71023" lon="-0.90116">
        <ele>101</ele>
        <time>2019-05-01T09:49:57Z</time>
      </trkpt>
      <trkpt lat="46.71003" lon="-0.90239">
        <ele>104</ele>
        <time>2019-05-01T09:50:57Z</time>
      </trkpt>
      <trkpt lat="46.71001" lon="-0.90278">
        <ele>104</ele>
        <time>2019-05-01T09:51:57Z</time>
      </trkpt>
      <trkpt lat="46.71006" lon="-0.9032">
        <ele>105</ele>
        <time>2019-05-01T09:52:57Z</time>
      </trkpt>
      <trkpt lat="46.71011" lon="-0.90338">
        <ele>105</ele>
        <time>2019-05-01T09:53:57Z</time>
      </trkpt>
      <trkpt lat="46.71017" lon="-0.90355">
        <ele>104</ele>
        <time>2019-05-01T09:54:57Z</time>
      </trkpt>
      <trkpt lat="46.71025" lon="-0.9037">
        <ele>104</ele>
        <time>2019-05-01T09:55:57Z</time>
      </trkpt>
      <trkpt lat="46.7111" lon="-0.90487">
        <ele>101</ele>
        <time>2019-05-01T09:56:57Z</time>
      </trkpt>
      <trkpt lat="46.71129" lon="-0.90519">
        <ele>101</ele>
        <time>2019-05-01T09:57:57Z</time>
      </trkpt>
      <trkpt lat="46.71142" lon="-0.90543">
        <ele>101</ele>
        <time>2019-05-01T09:58:57Z</time>
      </trkpt>
      <trkpt lat="46.71152" lon="-0.90568">
        <ele>101</ele>
        <time>2019-05-01T09:59:57Z</time>
      </trkpt>
      <trkpt lat="46.71171" lon="-0.90628">
        <ele>101</ele>
        <time>2019-05-01T10:00:57Z</time>
      </trkpt>
      <trkpt lat="46.71306" lon="-0.91076">
        <ele>101</ele>
        <time>2019-05-01T10:01:57Z</time>
      </trkpt>
      <trkpt lat="46.7132" lon="-0.91113">
        <ele>101</ele>
        <time>2019-05-01T10:02:57Z</time>
      </trkpt>
      <trkpt lat="46.71329" lon="-0.9113">
        <ele>100</ele>
        <time>2019-05-01T10:03:57Z</time>
      </trkpt>
      <trkpt lat="46.71358" lon="-0.91165">
        <ele>100</ele>
        <time>2019-05-01T10:04:57Z</time>
      </trkpt>
      <trkpt lat="46.71386" lon="-0.91185">
        <ele>100</ele>
        <time>2019-05-01T10:05:57Z</time>
      </trkpt>
      <trkpt lat="46.71427" lon="-0.91206">
        <ele>99</ele>
        <time>2019-05-01T10:06:57Z</time>
      </trkpt>
      <trkpt lat="46.71438" lon="-0.91215">
        <ele>99</ele>
        <time>2019-05-01T10:07:57Z</time>
      </trkpt>
      <trkpt lat="46.71449" lon="-0.91227">
        <ele>99</ele>
        <time>2019-05-01T10:08:57Z</time>
      </trkpt>
      <trkpt lat="46.71463" lon="-0.91247">
        <ele>99</ele>
        <time>2019-05-01T10:09:57Z</time>
      </trkpt>
      <trkpt lat="46.71477" lon="-0.91271">
        <ele>99</ele>
        <time>2019-05-01T10:10:57Z</time>
      </trkpt>
      <trkpt lat="46.71516" lon="-0.91354">
        <ele>100</ele>
        <time>2019-05-01T10:11:57Z</time>
      </trkpt>
      <trkpt lat="46.71538" lon="-0.91412">
        <ele>100</ele>
        <time>2019-05-01T10:12:57Z</time>
      </trkpt>
      <trkpt lat="46.71557" lon="-0.91475">
        <ele>99</ele>
        <time>2019-05-01T10:13:57Z</time>
      </trkpt>
      <trkpt lat="46.71585" lon="-0.91539">
        <ele>100</ele>
        <time>2019-05-01T10:14:57Z</time>
      </trkpt>
      <trkpt lat="46.71616" lon="-0.91608">
        <ele>101</ele>
        <time>2019-05-01T10:15:57Z</time>
      </trkpt>
      <trkpt lat="46.71642" lon="-0.91655">
        <ele>101</ele>
        <time>2019-05-01T10:16:57Z</time>
      </trkpt>
      <trkpt lat="46.71676" lon="-0.91705">
        <ele>102</ele>
        <time>2019-05-01T10:17:57Z</time>
      </trkpt>
      <trkpt lat="46.71687" lon="-0.91725">
        <ele>101</ele>
        <time>2019-05-01T10:18:57Z</time>
      </trkpt>
      <trkpt lat="46.71696" lon="-0.91745">
        <ele>101</ele>
        <time>2019-05-01T10:19:57Z</time>
      </trkpt>
      <trkpt lat="46.71725" lon="-0.91822">
        <ele>101</ele>
        <time>2019-05-01T10:20:57Z</time>
      </trkpt>
      <trkpt lat="46.71729" lon="-0.91827">
        <ele>101</ele>
        <time>2019-05-01T10:21:57Z</time>
      </trkpt>
      <trkpt lat="46.71725" lon="-0.91843">
        <ele>101</ele>
        <time>2019-05-01T10:22:57Z</time>
      </trkpt>
      <trkpt lat="46.71718" lon="-0.91884">
        <ele>102</ele>
        <time>2019-05-01T10:23:57Z</time>
      </trkpt>
      <trkpt lat="46.71709" lon="-0.91913">
        <ele>103</ele>
        <time>2019-05-01T10:24:57Z</time>
      </trkpt>
      <trkpt lat="46.71749" lon="-0.91936">
        <ele>102</ele>
        <time>2019-05-01T10:25:57Z</time>
      </trkpt>
      <trkpt lat="46.71758" lon="-0.91946">
        <ele>102</ele>
        <time>2019-05-01T10:26:57Z</time>
      </trkpt>
      <trkpt lat="46.7177" lon="-0.91967">
        <ele>102</ele>
        <time>2019-05-01T10:27:57Z</time>
      </trkpt>
      <trkpt lat="46.71786" lon="-0.92">
        <ele>103</ele>
        <time>2019-05-01T10:28:57Z</time>
      </trkpt>
      <trkpt lat="46.71823" lon="-0.92063">
        <ele>101</ele>
        <time>2019-05-01T10:29:57Z</time>
      </trkpt>
      <trkpt lat="46.71867" lon="-0.92118">
        <ele>99</ele>
        <time>2019-05-01T10:30:57Z</time>
      </trkpt>
      <trkpt lat="46.71931" lon="-0.92178">
        <ele>96</ele>
        <time>2019-05-01T10:31:57Z</time>
      </trkpt>
      <trkpt lat="46.71968" lon="-0.92206">
        <ele>95</ele>
        <time>2019-05-01T10:32:57Z</time>
      </trkpt>
      <trkpt lat="46.72028" lon="-0.92241">
        <ele>92</ele>
        <time>2019-05-01T10:33:57Z</time>
      </trkpt>
      <trkpt lat="46.72281" lon="-0.92354">
        <ele>78</ele>
        <time>2019-05-01T10:34:57Z</time>
      </trkpt>
      <trkpt lat="46.72299" lon="-0.92368">
        <ele>77</ele>
        <time>2019-05-01T10:35:57Z</time>
      </trkpt>
      <trkpt lat="46.72313" lon="-0.92384">
        <ele>76</ele>
        <time>2019-05-01T10:36:57Z</time>
      </trkpt>
      <trkpt lat="46.72323" lon="-0.92401">
        <ele>75</ele>
        <time>2019-05-01T10:37:57Z</time>
      </trkpt>
      <trkpt lat="46.72337" lon="-0.92433">
        <ele>74</ele>
        <time>2019-05-01T10:38:57Z</time>
      </trkpt>
      <trkpt lat="46.72342" lon="-0.92454">
        <ele>73</ele>
        <time>2019-05-01T10:39:57Z</time>
      </trkpt>
      <trkpt lat="46.72352" lon="-0.92503">
        <ele>72</ele>
        <time>2019-05-01T10:40:57Z</time>
      </trkpt>
      <trkpt lat="46.72359" lon="-0.92526">
        <ele>72</ele>
        <time>2019-05-01T10:41:57Z</time>
      </trkpt>
      <trkpt lat="46.72367" lon="-0.92549">
        <ele>71</ele>
        <time>2019-05-01T10:42:57Z</time>
      </trkpt>
      <trkpt lat="46.72374" lon="-0.92567">
        <ele>70</ele>
        <time>2019-05-01T10:43:57Z</time>
      </trkpt>
      <trkpt lat="46.72398" lon="-0.92614">
        <ele>69</ele>
        <time>2019-05-01T10:44:57Z</time>
      </trkpt>
      <trkpt lat="46.72415" lon="-0.92637">
        <ele>69</ele>
        <time>2019-05-01T10:45:57Z</time>
      </trkpt>
      <trkpt lat="46.72502" lon="-0.92729">
        <ele>75</ele>
        <time>2019-05-01T10:46:57Z</time>
      </trkpt>
      <trkpt lat="46.72528" lon="-0.92764">
        <ele>78</ele>
        <time>2019-05-01T10:47:57Z</time>
      </trkpt>
      <trkpt lat="46.72557" lon="-0.92804">
        <ele>80</ele>
        <time>2019-05-01T10:48:57Z</time>
      </trkpt>
      <trkpt lat="46.72629" lon="-0.92934">
        <ele>88</ele>
        <time>2019-05-01T10:49:57Z</time>
      </trkpt>
      <trkpt lat="46.72649" lon="-0.92976">
        <ele>90</ele>
        <time>2019-05-01T10:50:57Z</time>
      </trkpt>
      <trkpt lat="46.72678" lon="-0.93023">
        <ele>92</ele>
        <time>2019-05-01T10:51:57Z</time>
      </trkpt>
      <trkpt lat="46.72953" lon="-0.93374">
        <ele>102</ele>
        <time>2019-05-01T10:52:57Z</time>
      </trkpt>
      <trkpt lat="46.72996" lon="-0.9344">
        <ele>101</ele>
        <time>2019-05-01T10:53:57Z</time>
      </trkpt>
      <trkpt lat="46.73012" lon="-0.9347">
        <ele>101</ele>
        <time>2019-05-01T10:54:57Z</time>
      </trkpt>
      <trkpt lat="46.73026" lon="-0.93502">
        <ele>101</ele>
        <time>2019-05-01T10:55:57Z</time>
      </trkpt>
      <trkpt lat="46.73062" lon="-0.93617">
        <ele>102</ele>
        <time>2019-05-01T10:56:57Z</time>
      </trkpt>
      <trkpt lat="46.73075" lon="-0.93651">
        <ele>102</ele>
        <time>2019-05-01T10:57:57Z</time>
      </trkpt>
      <trkpt lat="46.731" lon="-0.93701">
        <ele>102</ele>
        <time>2019-05-01T10:58:57Z</time>
      </trkpt>
      <trkpt lat="46.73215" lon="-0.93862">
        <ele>105</ele>
        <time>2019-05-01T10:59:57Z</time>
      </trkpt>
      <trkpt lat="46.73463" lon="-0.94203">
        <ele>98</ele>
        <time>2019-05-01T11:00:57Z</time>
      </trkpt>
      <trkpt lat="46.73483" lon="-0.94227">
        <ele>97</ele>
        <time>2019-05-01T11:01:57Z</time>
      </trkpt>
      <trkpt lat="46.73555" lon="-0.94303">
        <ele>96</ele>
        <time>2019-05-01T11:02:57Z</time>
      </trkpt>
      <trkpt lat="46.73586" lon="-0.94332">
        <ele>97</ele>
        <time>2019-05-01T11:03:57Z</time>
      </trkpt>
      <trkpt lat="46.73624" lon="-0.94359">
        <ele>97</ele>
        <time>2019-05-01T11:04:57Z</time>
      </trkpt>
      <trkpt lat="46.73641" lon="-0.94366">
        <ele>97</ele>
        <time>2019-05-01T11:05:57Z</time>
      </trkpt>
      <trkpt lat="46.73772" lon="-0.94401">
        <ele>100</ele>
        <time>2019-05-01T11:06:57Z</time>
      </trkpt>
      <trkpt lat="46.73825" lon="-0.94423">
        <ele>103</ele>
        <time>2019-05-01T11:07:57Z</time>
      </trkpt>
      <trkpt lat="46.73853" lon="-0.94442">
        <ele>105</ele>
        <time>2019-05-01T11:08:57Z</time>
      </trkpt>
      <trkpt lat="46.73874" lon="-0.94459">
        <ele>106</ele>
        <time>2019-05-01T11:09:57Z</time>
      </trkpt>
      <trkpt lat="46.73917" lon="-0.94504">
        <ele>108</ele>
        <time>2019-05-01T11:10:57Z</time>
      </trkpt>
      <trkpt lat="46.7398" lon="-0.94581">
        <ele>108</ele>
        <time>2019-05-01T11:11:57Z</time>
      </trkpt>
      <trkpt lat="46.74013" lon="-0.94641">
        <ele>108</ele>
        <time>2019-05-01T11:12:57Z</time>
      </trkpt>
      <trkpt lat="46.74059" lon="-0.94737">
        <ele>107</ele>
        <time>2019-05-01T11:13:57Z</time>
      </trkpt>
      <trkpt lat="46.7408" lon="-0.94774">
        <ele>107</ele>
        <time>2019-05-01T11:14:57Z</time>
      </trkpt>
      <trkpt lat="46.74125" lon="-0.94838">
        <ele>108</ele>
        <time>2019-05-01T11:15:57Z</time>
      </trkpt>
      <trkpt lat="46.74143" lon="-0.94857">
        <ele>108</ele>
        <time>2019-05-01T11:16:57Z</time>
      </trkpt>
      <trkpt lat="46.74165" lon="-0.94873">
        <ele>108</ele>
        <time>2019-05-01T11:17:57Z</time>
      </trkpt>
      <trkpt lat="46.74213" lon="-0.94893">
        <ele>107</ele>
        <time>2019-05-01T11:18:57Z</time>
      </trkpt>
      <trkpt lat="46.74291" lon="-0.94909">
        <ele>105</ele>
        <time>2019-05-01T11:19:57Z</time>
      </trkpt>
      <trkpt lat="46.74385" lon="-0.94918">
        <ele>100</ele>
        <time>2019-05-01T11:20:57Z</time>
      </trkpt>
      <trkpt lat="46.74396" lon="-0.94916">
        <ele>100</ele>
        <time>2019-05-01T11:21:57Z</time>
      </trkpt>
      <trkpt lat="46.74437" lon="-0.949">
        <ele>99</ele>
        <time>2019-05-01T11:22:57Z</time>
      </trkpt>
      <trkpt lat="46.74447" lon="-0.94898">
        <ele>99</ele>
        <time>2019-05-01T11:23:57Z</time>
      </trkpt>
      <trkpt lat="46.74453" lon="-0.949">
        <ele>99</ele>
        <time>2019-05-01T11:24:57Z</time>
      </trkpt>
      <trkpt lat="46.74474" lon="-0.94924">
        <ele>98</ele>
        <time>2019-05-01T11:25:57Z</time>
      </trkpt>
      <trkpt lat="46.74479" lon="-0.94918">
        <ele>98</ele>
        <time>2019-05-01T11:26:57Z</time>
      </trkpt>
      <trkpt lat="46.74486" lon="-0.94916">
        <ele>98</ele>
        <time>2019-05-01T11:27:57Z</time>
      </trkpt>
      <trkpt lat="46.74492" lon="-0.94918">
        <ele>98</ele>
        <time>2019-05-01T11:28:57Z</time>
      </trkpt>
      <trkpt lat="46.74497" lon="-0.94935">
        <ele>97</ele>
        <time>2019-05-01T11:29:57Z</time>
      </trkpt>
      <trkpt lat="46.74497" lon="-0.94947">
        <ele>97</ele>
        <time>2019-05-01T11:30:57Z</time>
      </trkpt>
      <trkpt lat="46.74505" lon="-0.94951">
        <ele>96</ele>
        <time>2019-05-01T11:31:57Z</time>
      </trkpt>
      <trkpt lat="46.74509" lon="-0.94958">
        <ele>95</ele>
        <time>2019-05-01T11:32:57Z</time>
      </trkpt>
      <trkpt lat="46.74517" lon="-0.94984">
        <ele>94</ele>
        <time>2019-05-01T11:33:57Z</time>
      </trkpt>
      <trkpt lat="46.74536" lon="-0.95018">
        <ele>92</ele>
        <time>2019-05-01T11:34:57Z</time>
      </trkpt>
      <trkpt lat="46.74555" lon="-0.95044">
        <ele>91</ele>
        <time>2019-05-01T11:35:57Z</time>
      </trkpt>
      <trkpt lat="46.74571" lon="-0.95061">
        <ele>90</ele>
        <time>2019-05-01T11:36:57Z</time>
      </trkpt>
      <trkpt lat="46.7461" lon="-0.95085">
        <ele>88</ele>
        <time>2019-05-01T11:37:57Z</time>
      </trkpt>
      <trkpt lat="46.74656" lon="-0.95097">
        <ele>86</ele>
        <time>2019-05-01T11:38:57Z</time>
      </trkpt>
      <trkpt lat="46.74675" lon="-0.95106">
        <ele>84</ele>
        <time>2019-05-01T11:39:57Z</time>
      </trkpt>
      <trkpt lat="46.74689" lon="-0.95116">
        <ele>83</ele>
        <time>2019-05-01T11:40:57Z</time>
      </trkpt>
      <trkpt lat="46.74726" lon="-0.95163">
        <ele>80</ele>
        <time>2019-05-01T11:41:57Z</time>
      </trkpt>
      <trkpt lat="46.74735" lon="-0.95171">
        <ele>78</ele>
        <time>2019-05-01T11:42:57Z</time>
      </trkpt>
      <trkpt lat="46.74747" lon="-0.95177">
        <ele>77</ele>
        <time>2019-05-01T11:43:57Z</time>
      </trkpt>
      <trkpt lat="46.7476" lon="-0.95177">
        <ele>76</ele>
        <time>2019-05-01T11:44:57Z</time>
      </trkpt>
      <trkpt lat="46.74774" lon="-0.95173">
        <ele>75</ele>
        <time>2019-05-01T11:45:57Z</time>
      </trkpt>
      <trkpt lat="46.74797" lon="-0.95157">
        <ele>74</ele>
        <time>2019-05-01T11:46:57Z</time>
      </trkpt>
      <trkpt lat="46.74812" lon="-0.9515">
        <ele>74</ele>
        <time>2019-05-01T11:47:57Z</time>
      </trkpt>
      <trkpt lat="46.74823" lon="-0.95148">
        <ele>74</ele>
        <time>2019-05-01T11:48:57Z</time>
      </trkpt>
      <trkpt lat="46.74855" lon="-0.95156">
        <ele>72</ele>
        <time>2019-05-01T11:49:57Z</time>
      </trkpt>
      <trkpt lat="46.7487" lon="-0.95157">
        <ele>71</ele>
        <time>2019-05-01T11:50:57Z</time>
      </trkpt>
      <trkpt lat="46.74888" lon="-0.95152">
        <ele>70</ele>
        <time>2019-05-01T11:51:57Z</time>
      </trkpt>
      <trkpt lat="46.74919" lon="-0.95136">
        <ele>71</ele>
        <time>2019-05-01T11:52:57Z</time>
      </trkpt>
      <trkpt lat="46.74932" lon="-0.95132">
        <ele>70</ele>
        <time>2019-05-01T11:53:57Z</time>
      </trkpt>
      <trkpt lat="46.74942" lon="-0.95132">
        <ele>70</ele>
        <time>2019-05-01T11:54:57Z</time>
      </trkpt>
      <trkpt lat="46.74968" lon="-0.95137">
        <ele>67</ele>
        <time>2019-05-01T11:55:57Z</time>
      </trkpt>
      <trkpt lat="46.74999" lon="-0.95155">
        <ele>64</ele>
        <time>2019-05-01T11:56:57Z</time>
      </trkpt>
      <trkpt lat="46.75014" lon="-0.95168">
        <ele>64</ele>
        <time>2019-05-01T11:57:57Z</time>
      </trkpt>
      <trkpt lat="46.75035" lon="-0.95191">
        <ele>66</ele>
        <time>2019-05-01T11:58:57Z</time>
      </trkpt>
      <trkpt lat="46.75049" lon="-0.95215">
        <ele>68</ele>
        <time>2019-05-01T11:59:57Z</time>
      </trkpt>
      <trkpt lat="46.75064" lon="-0.95252">
        <ele>71</ele>
        <time>2019-05-01T12:00:57Z</time>
      </trkpt>
      <trkpt lat="46.75071" lon="-0.95278">
        <ele>73</ele>
        <time>2019-05-01T12:01:57Z</time>
      </trkpt>
      <trkpt lat="46.75076" lon="-0.95307">
        <ele>75</ele>
        <time>2019-05-01T12:02:57Z</time>
      </trkpt>
      <trkpt lat="46.75089" lon="-0.95405">
        <ele>76</ele>
        <time>2019-05-01T12:03:57Z</time>
      </trkpt>
      <trkpt lat="46.75096" lon="-0.9543">
        <ele>78</ele>
        <time>2019-05-01T12:04:57Z</time>
      </trkpt>
      <trkpt lat="46.75113" lon="-0.95467">
        <ele>80</ele>
        <time>2019-05-01T12:05:57Z</time>
      </trkpt>
      <trkpt lat="46.75139" lon="-0.95505">
        <ele>82</ele>
        <time>2019-05-01T12:06:57Z</time>
      </trkpt>
      <trkpt lat="46.75152" lon="-0.95522">
        <ele>82</ele>
        <time>2019-05-01T12:07:57Z</time>
      </trkpt>
      <trkpt lat="46.75172" lon="-0.95544">
        <ele>82</ele>
        <time>2019-05-01T12:08:57Z</time>
      </trkpt>
      <trkpt lat="46.75222" lon="-0.95582">
        <ele>85</ele>
        <time>2019-05-01T12:09:57Z</time>
      </trkpt>
      <trkpt lat="46.75236" lon="-0.95596">
        <ele>86</ele>
        <time>2019-05-01T12:10:57Z</time>
      </trkpt>
      <trkpt lat="46.75263" lon="-0.95631">
        <ele>88</ele>
        <time>2019-05-01T12:11:57Z</time>
      </trkpt>
      <trkpt lat="46.75288" lon="-0.95675">
        <ele>91</ele>
        <time>2019-05-01T12:12:57Z</time>
      </trkpt>
      <trkpt lat="46.753" lon="-0.95701">
        <ele>93</ele>
        <time>2019-05-01T12:13:57Z</time>
      </trkpt>
      <trkpt lat="46.75332" lon="-0.9578">
        <ele>97</ele>
        <time>2019-05-01T12:14:57Z</time>
      </trkpt>
      <trkpt lat="46.7534" lon="-0.95776">
        <ele>97</ele>
        <time>2019-05-01T12:15:57Z</time>
      </trkpt>
      <trkpt lat="46.75348" lon="-0.9578">
        <ele>98</ele>
        <time>2019-05-01T12:16:57Z</time>
      </trkpt>
      <trkpt lat="46.75351" lon="-0.95785">
        <ele>98</ele>
        <time>2019-05-01T12:17:57Z</time>
      </trkpt>
      <trkpt lat="46.75353" lon="-0.9579">
        <ele>98</ele>
        <time>2019-05-01T12:18:57Z</time>
      </trkpt>
      <trkpt lat="46.75352" lon="-0.95802">
        <ele>98</ele>
        <time>2019-05-01T12:19:57Z</time>
      </trkpt>
      <trkpt lat="46.75347" lon="-0.95811">
        <ele>97</ele>
        <time>2019-05-01T12:20:57Z</time>
      </trkpt>
      <trkpt lat="46.75378" lon="-0.95854">
        <ele>99</ele>
        <time>2019-05-01T12:21:57Z</time>
      </trkpt>
      <trkpt lat="46.75412" lon="-0.95891">
        <ele>99</ele>
        <time>2019-05-01T12:22:57Z</time>
      </trkpt>
      <trkpt lat="46.75514" lon="-0.95973">
        <ele>102</ele>
        <time>2019-05-01T12:23:57Z</time>
      </trkpt>
      <trkpt lat="46.75524" lon="-0.95989">
        <ele>102</ele>
        <time>2019-05-01T12:24:57Z</time>
      </trkpt>
      <trkpt lat="46.75529" lon="-0.96004">
        <ele>102</ele>
        <time>2019-05-01T12:25:57Z</time>
      </trkpt>
      <trkpt lat="46.75557" lon="-0.96063">
        <ele>103</ele>
        <time>2019-05-01T12:26:57Z</time>
      </trkpt>
      <trkpt lat="46.75585" lon="-0.9614">
        <ele>104</ele>
        <time>2019-05-01T12:27:57Z</time>
      </trkpt>
      <trkpt lat="46.75647" lon="-0.96302">
        <ele>107</ele>
        <time>2019-05-01T12:28:57Z</time>
      </trkpt>
      <trkpt lat="46.75669" lon="-0.96287">
        <ele>108</ele>
        <time>2019-05-01T12:29:57Z</time>
      </trkpt>
      <trkpt lat="46.75755" lon="-0.96199">
        <ele>109</ele>
        <time>2019-05-01T12:30:57Z</time>
      </trkpt>
      <trkpt lat="46.75775" lon="-0.96183">
        <ele>110</ele>
        <time>2019-05-01T12:31:57Z</time>
      </trkpt>
      <trkpt lat="46.75799" lon="-0.96166">
        <ele>111</ele>
        <time>2019-05-01T12:32:57Z</time>
      </trkpt>
      <trkpt lat="46.75885" lon="-0.96131">
        <ele>110</ele>
        <time>2019-05-01T12:33:57Z</time>
      </trkpt>
      <trkpt lat="46.75902" lon="-0.96127">
        <ele>110</ele>
        <time>2019-05-01T12:34:57Z</time>
      </trkpt>
      <trkpt lat="46.75941" lon="-0.96123">
        <ele>109</ele>
        <time>2019-05-01T12:35:57Z</time>
      </trkpt>
      <trkpt lat="46.75961" lon="-0.96118">
        <ele>108</ele>
        <time>2019-05-01T12:36:57Z</time>
      </trkpt>
      <trkpt lat="46.7598" lon="-0.96108">
        <ele>108</ele>
        <time>2019-05-01T12:37:57Z</time>
      </trkpt>
      <trkpt lat="46.75997" lon="-0.96096">
        <ele>107</ele>
        <time>2019-05-01T12:38:57Z</time>
      </trkpt>
      <trkpt lat="46.76041" lon="-0.96049">
        <ele>105</ele>
        <time>2019-05-01T12:39:57Z</time>
      </trkpt>
      <trkpt lat="46.76041" lon="-0.96043">
        <ele>105</ele>
        <time>2019-05-01T12:40:57Z</time>
      </trkpt>
      <trkpt lat="46.76043" lon="-0.9603">
        <ele>105</ele>
        <time>2019-05-01T12:41:57Z</time>
      </trkpt>
      <trkpt lat="46.76046" lon="-0.96025">
        <ele>105</ele>
        <time>2019-05-01T12:42:57Z</time>
      </trkpt>
      <trkpt lat="46.7605" lon="-0.96022">
        <ele>105</ele>
        <time>2019-05-01T12:43:57Z</time>
      </trkpt>
      <trkpt lat="46.76058" lon="-0.9602">
        <ele>105</ele>
        <time>2019-05-01T12:44:57Z</time>
      </trkpt>
      <trkpt lat="46.76062" lon="-0.96022">
        <ele>105</ele>
        <time>2019-05-01T12:45:57Z</time>
      </trkpt>
      <trkpt lat="46.76082" lon="-0.95983">
        <ele>104</ele>
        <time>2019-05-01T12:46:57Z</time>
      </trkpt>
      <trkpt lat="46.76093" lon="-0.95966">
        <ele>103</ele>
        <time>2019-05-01T12:47:57Z</time>
      </trkpt>
      <trkpt lat="46.76121" lon="-0.95937">
        <ele>103</ele>
        <time>2019-05-01T12:48:57Z</time>
      </trkpt>
      <trkpt lat="46.76221" lon="-0.95838">
        <ele>107</ele>
        <time>2019-05-01T12:49:57Z</time>
      </trkpt>
      <trkpt lat="46.76226" lon="-0.95845">
        <ele>107</ele>
        <time>2019-05-01T12:50:57Z</time>
      </trkpt>
      <trkpt lat="46.76326" lon="-0.95868">
        <ele>109</ele>
        <time>2019-05-01T12:51:57Z</time>
      </trkpt>
      <trkpt lat="46.76367" lon="-0.95882">
        <ele>110</ele>
        <time>2019-05-01T12:52:57Z</time>
      </trkpt>
      <trkpt lat="46.76465" lon="-0.95927">
        <ele>110</ele>
        <time>2019-05-01T12:53:57Z</time>
      </trkpt>
      <trkpt lat="46.76498" lon="-0.95949">
        <ele>110</ele>
        <time>2019-05-01T12:54:57Z</time>
      </trkpt>
      <trkpt lat="46.76573" lon="-0.96028">
        <ele>110</ele>
        <time>2019-05-01T12:55:57Z</time>
      </trkpt>
      <trkpt lat="46.76596" lon="-0.96046">
        <ele>110</ele>
        <time>2019-05-01T12:56:57Z</time>
      </trkpt>
      <trkpt lat="46.76632" lon="-0.96059">
        <ele>110</ele>
        <time>2019-05-01T12:57:57Z</time>
      </trkpt>
      <trkpt lat="46.76712" lon="-0.96074">
        <ele>110</ele>
        <time>2019-05-01T12:58:57Z</time>
      </trkpt>
      <trkpt lat="46.76742" lon="-0.96075">
        <ele>110</ele>
        <time>2019-05-01T12:59:57Z</time>
      </trkpt>
      <trkpt lat="46.76863" lon="-0.96073">
        <ele>107</ele>
        <time>2019-05-01T13:00:57Z</time>
      </trkpt>
      <trkpt lat="46.76886" lon="-0.96075">
        <ele>107</ele>
        <time>2019-05-01T13:01:57Z</time>
      </trkpt>
      <trkpt lat="46.76907" lon="-0.96081">
        <ele>106</ele>
        <time>2019-05-01T13:02:57Z</time>
      </trkpt>
      <trkpt lat="46.76925" lon="-0.96091">
        <ele>107</ele>
        <time>2019-05-01T13:03:57Z</time>
      </trkpt>
      <trkpt lat="46.76953" lon="-0.96116">
        <ele>108</ele>
        <time>2019-05-01T13:04:57Z</time>
      </trkpt>
      <trkpt lat="46.76985" lon="-0.96149">
        <ele>111</ele>
        <time>2019-05-01T13:05:57Z</time>
      </trkpt>
      <trkpt lat="46.77111" lon="-0.96294">
        <ele>119</ele>
        <time>2019-05-01T13:06:57Z</time>
      </trkpt>
      <trkpt lat="46.77169" lon="-0.96351">
        <ele>122</ele>
        <time>2019-05-01T13:07:57Z</time>
      </trkpt>
      <trkpt lat="46.77197" lon="-0.96375">
        <ele>124</ele>
        <time>2019-05-01T13:08:57Z</time>
      </trkpt>
      <trkpt lat="46.77214" lon="-0.96386">
        <ele>124</ele>
        <time>2019-05-01T13:09:57Z</time>
      </trkpt>
      <trkpt lat="46.77234" lon="-0.9639">
        <ele>124</ele>
        <time>2019-05-01T13:10:57Z</time>
      </trkpt>
      <trkpt lat="46.77263" lon="-0.96389">
        <ele>124</ele>
        <time>2019-05-01T13:11:57Z</time>
      </trkpt>
      <trkpt lat="46.7735" lon="-0.96372">
        <ele>128</ele>
        <time>2019-05-01T13:12:57Z</time>
      </trkpt>
      <trkpt lat="46.77446" lon="-0.96343">
        <ele>129</ele>
        <time>2019-05-01T13:13:57Z</time>
      </trkpt>
      <trkpt lat="46.77471" lon="-0.96338">
        <ele>130</ele>
        <time>2019-05-01T13:14:57Z</time>
      </trkpt>
      <trkpt lat="46.775" lon="-0.96334">
        <ele>130</ele>
        <time>2019-05-01T13:15:57Z</time>
      </trkpt>
      <trkpt lat="46.77527" lon="-0.96334">
        <ele>130</ele>
        <time>2019-05-01T13:16:57Z</time>
      </trkpt>
      <trkpt lat="46.77558" lon="-0.96337">
        <ele>131</ele>
        <time>2019-05-01T13:17:57Z</time>
      </trkpt>
      <trkpt lat="46.77576" lon="-0.96346">
        <ele>131</ele>
        <time>2019-05-01T13:18:57Z</time>
      </trkpt>
      <trkpt lat="46.7759" lon="-0.96355">
        <ele>132</ele>
        <time>2019-05-01T13:19:57Z</time>
      </trkpt>
      <trkpt lat="46.7761" lon="-0.96377">
        <ele>133</ele>
        <time>2019-05-01T13:20:57Z</time>
      </trkpt>
      <trkpt lat="46.77663" lon="-0.9644">
        <ele>134</ele>
        <time>2019-05-01T13:21:57Z</time>
      </trkpt>
      <trkpt lat="46.77793" lon="-0.96557">
        <ele>130</ele>
        <time>2019-05-01T13:22:57Z</time>
      </trkpt>
      <trkpt lat="46.77834" lon="-0.96582">
        <ele>127</ele>
        <time>2019-05-01T13:23:57Z</time>
      </trkpt>
      <trkpt lat="46.77879" lon="-0.96606">
        <ele>127</ele>
        <time>2019-05-01T13:24:57Z</time>
      </trkpt>
      <trkpt lat="46.78025" lon="-0.96653">
        <ele>124</ele>
        <time>2019-05-01T13:25:57Z</time>
      </trkpt>
      <trkpt lat="46.78104" lon="-0.96682">
        <ele>122</ele>
        <time>2019-05-01T13:26:57Z</time>
      </trkpt>
      <trkpt lat="46.78188" lon="-0.96734">
        <ele>121</ele>
        <time>2019-05-01T13:27:57Z</time>
      </trkpt>
      <trkpt lat="46.7823" lon="-0.96753">
        <ele>120</ele>
        <time>2019-05-01T13:28:57Z</time>
      </trkpt>
      <trkpt lat="46.78319" lon="-0.96764">
        <ele>120</ele>
        <time>2019-05-01T13:29:57Z</time>
      </trkpt>
      <trkpt lat="46.78338" lon="-0.96767">
        <ele>120</ele>
        <time>2019-05-01T13:30:57Z</time>
      </trkpt>
      <trkpt lat="46.78357" lon="-0.96774">
        <ele>121</ele>
        <time>2019-05-01T13:31:57Z</time>
      </trkpt>
      <trkpt lat="46.78612" lon="-0.96948">
        <ele>121</ele>
        <time>2019-05-01T13:32:57Z</time>
      </trkpt>
      <trkpt lat="46.78637" lon="-0.9696">
        <ele>119</ele>
        <time>2019-05-01T13:33:57Z</time>
      </trkpt>
      <trkpt lat="46.78772" lon="-0.97009">
        <ele>110</ele>
        <time>2019-05-01T13:34:57Z</time>
      </trkpt>
      <trkpt lat="46.78851" lon="-0.97046">
        <ele>108</ele>
        <time>2019-05-01T13:35:57Z</time>
      </trkpt>
      <trkpt lat="46.78917" lon="-0.97084">
        <ele>107</ele>
        <time>2019-05-01T13:36:57Z</time>
      </trkpt>
      <trkpt lat="46.79015" lon="-0.97156">
        <ele>105</ele>
        <time>2019-05-01T13:37:57Z</time>
      </trkpt>
      <trkpt lat="46.79046" lon="-0.97182">
        <ele>104</ele>
        <time>2019-05-01T13:38:57Z</time>
      </trkpt>
      <trkpt lat="46.79092" lon="-0.97225">
        <ele>105</ele>
        <time>2019-05-01T13:39:57Z</time>
      </trkpt>
      <trkpt lat="46.79134" lon="-0.97271">
        <ele>106</ele>
        <time>2019-05-01T13:40:57Z</time>
      </trkpt>
      <trkpt lat="46.79214" lon="-0.97365">
        <ele>109</ele>
        <time>2019-05-01T13:41:57Z</time>
      </trkpt>
      <trkpt lat="46.79255" lon="-0.97424">
        <ele>109</ele>
        <time>2019-05-01T13:42:57Z</time>
      </trkpt>
      <trkpt lat="46.79295" lon="-0.97493">
        <ele>111</ele>
        <time>2019-05-01T13:43:57Z</time>
      </trkpt>
      <trkpt lat="46.7933" lon="-0.97566">
        <ele>112</ele>
        <time>2019-05-01T13:44:57Z</time>
      </trkpt>
      <trkpt lat="46.79341" lon="-0.97595">
        <ele>113</ele>
        <time>2019-05-01T13:45:57Z</time>
      </trkpt>
      <trkpt lat="46.79349" lon="-0.97628">
        <ele>113</ele>
        <time>2019-05-01T13:46:57Z</time>
      </trkpt>
      <trkpt lat="46.79356" lon="-0.97672">
        <ele>113</ele>
        <time>2019-05-01T13:47:57Z</time>
      </trkpt>
      <trkpt lat="46.79362" lon="-0.97766">
        <ele>113</ele>
        <time>2019-05-01T13:48:57Z</time>
      </trkpt>
      <trkpt lat="46.79369" lon="-0.97808">
        <ele>113</ele>
        <time>2019-05-01T13:49:57Z</time>
      </trkpt>
      <trkpt lat="46.79384" lon="-0.97862">
        <ele>112</ele>
        <time>2019-05-01T13:50:57Z</time>
      </trkpt>
      <trkpt lat="46.79397" lon="-0.97902">
        <ele>111</ele>
        <time>2019-05-01T13:51:57Z</time>
      </trkpt>
      <trkpt lat="46.79412" lon="-0.97942">
        <ele>111</ele>
        <time>2019-05-01T13:52:57Z</time>
      </trkpt>
      <trkpt lat="46.79449" lon="-0.98012">
        <ele>110</ele>
        <time>2019-05-01T13:53:57Z</time>
      </trkpt>
      <trkpt lat="46.79472" lon="-0.98045">
        <ele>109</ele>
        <time>2019-05-01T13:54:57Z</time>
      </trkpt>
      <trkpt lat="46.79528" lon="-0.98102">
        <ele>107</ele>
        <time>2019-05-01T13:55:57Z</time>
      </trkpt>
      <trkpt lat="46.79557" lon="-0.98136">
        <ele>106</ele>
        <time>2019-05-01T13:56:57Z</time>
      </trkpt>
      <trkpt lat="46.7957" lon="-0.98156">
        <ele>106</ele>
        <time>2019-05-01T13:57:57Z</time>
      </trkpt>
      <trkpt lat="46.79606" lon="-0.98229">
        <ele>103</ele>
        <time>2019-05-01T13:58:57Z</time>
      </trkpt>
      <trkpt lat="46.79628" lon="-0.9827">
        <ele>101</ele>
        <time>2019-05-01T13:59:57Z</time>
      </trkpt>
      <trkpt lat="46.7964" lon="-0.98287">
        <ele>100</ele>
        <time>2019-05-01T14:00:57Z</time>
      </trkpt>
      <trkpt lat="46.79661" lon="-0.98314">
        <ele>97</ele>
        <time>2019-05-01T14:01:57Z</time>
      </trkpt>
      <trkpt lat="46.79679" lon="-0.98329">
        <ele>96</ele>
        <time>2019-05-01T14:02:57Z</time>
      </trkpt>
      <trkpt lat="46.7972" lon="-0.98354">
        <ele>94</ele>
        <time>2019-05-01T14:03:57Z</time>
      </trkpt>
      <trkpt lat="46.79758" lon="-0.98369">
        <ele>94</ele>
        <time>2019-05-01T14:04:57Z</time>
      </trkpt>
      <trkpt lat="46.79779" lon="-0.9837">
        <ele>94</ele>
        <time>2019-05-01T14:05:57Z</time>
      </trkpt>
      <trkpt lat="46.79806" lon="-0.98366">
        <ele>94</ele>
        <time>2019-05-01T14:06:57Z</time>
      </trkpt>
      <trkpt lat="46.79831" lon="-0.98356">
        <ele>95</ele>
        <time>2019-05-01T14:07:57Z</time>
      </trkpt>
      <trkpt lat="46.79857" lon="-0.9835">
        <ele>95</ele>
        <time>2019-05-01T14:08:57Z</time>
      </trkpt>
      <trkpt lat="46.79883" lon="-0.98352">
        <ele>97</ele>
        <time>2019-05-01T14:09:57Z</time>
      </trkpt>
      <trkpt lat="46.79896" lon="-0.98357">
        <ele>97</ele>
        <time>2019-05-01T14:10:57Z</time>
      </trkpt>
      <trkpt lat="46.79919" lon="-0.98374">
        <ele>99</ele>
        <time>2019-05-01T14:11:57Z</time>
      </trkpt>
      <trkpt lat="46.79935" lon="-0.98393">
        <ele>99</ele>
        <time>2019-05-01T14:12:57Z</time>
      </trkpt>
      <trkpt lat="46.79952" lon="-0.98418">
        <ele>99</ele>
        <time>2019-05-01T14:13:57Z</time>
      </trkpt>
      <trkpt lat="46.79973" lon="-0.98443">
        <ele>100</ele>
        <time>2019-05-01T14:14:57Z</time>
      </trkpt>
      <trkpt lat="46.79995" lon="-0.98465">
        <ele>101</ele>
        <time>2019-05-01T14:15:57Z</time>
      </trkpt>
      <trkpt lat="46.80019" lon="-0.98481">
        <ele>102</ele>
        <time>2019-05-01T14:16:57Z</time>
      </trkpt>
      <trkpt lat="46.80305" lon="-0.9864">
        <ele>107</ele>
        <time>2019-05-01T14:17:57Z</time>
      </trkpt>
      <trkpt lat="46.8032" lon="-0.98647">
        <ele>107</ele>
        <time>2019-05-01T14:18:57Z</time>
      </trkpt>
      <trkpt lat="46.80338" lon="-0.98653">
        <ele>106</ele>
        <time>2019-05-01T14:19:57Z</time>
      </trkpt>
      <trkpt lat="46.80354" lon="-0.98653">
        <ele>106</ele>
        <time>2019-05-01T14:20:57Z</time>
      </trkpt>
      <trkpt lat="46.80372" lon="-0.9865">
        <ele>106</ele>
        <time>2019-05-01T14:21:57Z</time>
      </trkpt>
      <trkpt lat="46.80887" lon="-0.98494">
        <ele>111</ele>
        <time>2019-05-01T14:22:57Z</time>
      </trkpt>
      <trkpt lat="46.8091" lon="-0.9849">
        <ele>111</ele>
        <time>2019-05-01T14:23:57Z</time>
      </trkpt>
      <trkpt lat="46.80931" lon="-0.9849">
        <ele>110</ele>
        <time>2019-05-01T14:24:57Z</time>
      </trkpt>
      <trkpt lat="46.80976" lon="-0.985">
        <ele>107</ele>
        <time>2019-05-01T14:25:57Z</time>
      </trkpt>
      <trkpt lat="46.81159" lon="-0.98562">
        <ele>97</ele>
        <time>2019-05-01T14:26:57Z</time>
      </trkpt>
      <trkpt lat="46.81404" lon="-0.98641">
        <ele>101</ele>
        <time>2019-05-01T14:27:57Z</time>
      </trkpt>
      <trkpt lat="46.81572" lon="-0.987">
        <ele>110</ele>
        <time>2019-05-01T14:28:57Z</time>
      </trkpt>
      <trkpt lat="46.81654" lon="-0.98724">
        <ele>112</ele>
        <time>2019-05-01T14:29:57Z</time>
      </trkpt>
      <trkpt lat="46.81728" lon="-0.9875">
        <ele>113</ele>
        <time>2019-05-01T14:30:57Z</time>
      </trkpt>
      <trkpt lat="46.81762" lon="-0.98767">
        <ele>113</ele>
        <time>2019-05-01T14:31:57Z</time>
      </trkpt>
      <trkpt lat="46.82038" lon="-0.98948">
        <ele>108</ele>
        <time>2019-05-01T14:32:57Z</time>
      </trkpt>
      <trkpt lat="46.82115" lon="-0.98994">
        <ele>111</ele>
        <time>2019-05-01T14:33:57Z</time>
      </trkpt>
      <trkpt lat="46.82152" lon="-0.99019">
        <ele>113</ele>
        <time>2019-05-01T14:34:57Z</time>
      </trkpt>
      <trkpt lat="46.82169" lon="-0.99033">
        <ele>114</ele>
        <time>2019-05-01T14:35:57Z</time>
      </trkpt>
      <trkpt lat="46.82189" lon="-0.99054">
        <ele>116</ele>
        <time>2019-05-01T14:36:57Z</time>
      </trkpt>
      <trkpt lat="46.82199" lon="-0.9907">
        <ele>116</ele>
        <time>2019-05-01T14:37:57Z</time>
      </trkpt>
      <trkpt lat="46.82208" lon="-0.99087">
        <ele>117</ele>
        <time>2019-05-01T14:38:57Z</time>
      </trkpt>
      <trkpt lat="46.8224" lon="-0.99256">
        <ele>117</ele>
        <time>2019-05-01T14:39:57Z</time>
      </trkpt>
      <trkpt lat="46.82254" lon="-0.99322">
        <ele>114</ele>
        <time>2019-05-01T14:40:57Z</time>
      </trkpt>
      <trkpt lat="46.8226" lon="-0.99367">
        <ele>113</ele>
        <time>2019-05-01T14:41:57Z</time>
      </trkpt>
      <trkpt lat="46.82259" lon="-0.99448">
        <ele>110</ele>
        <time>2019-05-01T14:42:57Z</time>
      </trkpt>
      <trkpt lat="46.82273" lon="-0.9946">
        <ele>109</ele>
        <time>2019-05-01T14:43:57Z</time>
      </trkpt>
      <trkpt lat="46.82303" lon="-0.99478">
        <ele>109</ele>
        <time>2019-05-01T14:44:57Z</time>
      </trkpt>
      <trkpt lat="46.82311" lon="-0.99486">
        <ele>109</ele>
        <time>2019-05-01T14:45:57Z</time>
      </trkpt>
      <trkpt lat="46.82317" lon="-0.99495">
        <ele>109</ele>
        <time>2019-05-01T14:46:57Z</time>
      </trkpt>
      <trkpt lat="46.82339" lon="-0.99555">
        <ele>106</ele>
        <time>2019-05-01T14:47:57Z</time>
      </trkpt>
      <trkpt lat="46.82347" lon="-0.99571">
        <ele>104</ele>
        <time>2019-05-01T14:48:57Z</time>
      </trkpt>
      <trkpt lat="46.82358" lon="-0.99589">
        <ele>103</ele>
        <time>2019-05-01T14:49:57Z</time>
      </trkpt>
      <trkpt lat="46.82369" lon="-0.99601">
        <ele>101</ele>
        <time>2019-05-01T14:50:57Z</time>
      </trkpt>
      <trkpt lat="46.8238" lon="-0.99609">
        <ele>100</ele>
        <time>2019-05-01T14:51:57Z</time>
      </trkpt>
      <trkpt lat="46.82392" lon="-0.99616">
        <ele>99</ele>
        <time>2019-05-01T14:52:57Z</time>
      </trkpt>
      <trkpt lat="46.82404" lon="-0.9962">
        <ele>99</ele>
        <time>2019-05-01T14:53:57Z</time>
      </trkpt>
      <trkpt lat="46.82534" lon="-0.99639">
        <ele>93</ele>
        <time>2019-05-01T14:54:57Z</time>
      </trkpt>
      <trkpt lat="46.82566" lon="-0.99646">
        <ele>92</ele>
        <time>2019-05-01T14:55:57Z</time>
      </trkpt>
      <trkpt lat="46.8258" lon="-0.99653">
        <ele>91</ele>
        <time>2019-05-01T14:56:57Z</time>
      </trkpt>
      <trkpt lat="46.826" lon="-0.99666">
        <ele>92</ele>
        <time>2019-05-01T14:57:57Z</time>
      </trkpt>
      <trkpt lat="46.82619" lon="-0.9969">
        <ele>94</ele>
        <time>2019-05-01T14:58:57Z</time>
      </trkpt>
      <trkpt lat="46.82637" lon="-0.99724">
        <ele>95</ele>
        <time>2019-05-01T14:59:57Z</time>
      </trkpt>
      <trkpt lat="46.82675" lon="-0.99834">
        <ele>99</ele>
        <time>2019-05-01T15:00:57Z</time>
      </trkpt>
      <trkpt lat="46.82771" lon="-1.00128">
        <ele>108</ele>
        <time>2019-05-01T15:01:57Z</time>
      </trkpt>
      <trkpt lat="46.82796" lon="-1.00194">
        <ele>109</ele>
        <time>2019-05-01T15:02:57Z</time>
      </trkpt>
      <trkpt lat="46.82826" lon="-1.00254">
        <ele>110</ele>
        <time>2019-05-01T15:03:57Z</time>
      </trkpt>
      <trkpt lat="46.82843" lon="-1.00277">
        <ele>111</ele>
        <time>2019-05-01T15:04:57Z</time>
      </trkpt>
      <trkpt lat="46.8288" lon="-1.00315">
        <ele>112</ele>
        <time>2019-05-01T15:05:57Z</time>
      </trkpt>
      <trkpt lat="46.82896" lon="-1.00326">
        <ele>112</ele>
        <time>2019-05-01T15:06:57Z</time>
      </trkpt>
      <trkpt lat="46.82918" lon="-1.00337">
        <ele>112</ele>
        <time>2019-05-01T15:07:57Z</time>
      </trkpt>
      <trkpt lat="46.82942" lon="-1.00346">
        <ele>113</ele>
        <time>2019-05-01T15:08:57Z</time>
      </trkpt>
      <trkpt lat="46.82971" lon="-1.00352">
        <ele>114</ele>
        <time>2019-05-01T15:09:57Z</time>
      </trkpt>
      <trkpt lat="46.83189" lon="-1.0037">
        <ele>122</ele>
        <time>2019-05-01T15:10:57Z</time>
      </trkpt>
      <trkpt lat="46.83326" lon="-1.00377">
        <ele>126</ele>
        <time>2019-05-01T15:11:57Z</time>
      </trkpt>
      <trkpt lat="46.83506" lon="-1.00398">
        <ele>127</ele>
        <time>2019-05-01T15:12:57Z</time>
      </trkpt>
      <trkpt lat="46.83613" lon="-1.00403">
        <ele>129</ele>
        <time>2019-05-01T15:13:57Z</time>
      </trkpt>
      <trkpt lat="46.83875" lon="-1.00422">
        <ele>125</ele>
        <time>2019-05-01T15:14:57Z</time>
      </trkpt>
      <trkpt lat="46.83876" lon="-1.00437">
        <ele>125</ele>
        <time>2019-05-01T15:15:57Z</time>
      </trkpt>
      <trkpt lat="46.84259" lon="-1.00464">
        <ele>117</ele>
        <time>2019-05-01T15:16:57Z</time>
      </trkpt>
      <trkpt lat="46.84435" lon="-1.00485">
        <ele>113</ele>
        <time>2019-05-01T15:17:57Z</time>
      </trkpt>
      <trkpt lat="46.84468" lon="-1.00511">
        <ele>112</ele>
        <time>2019-05-01T15:18:57Z</time>
      </trkpt>
      <trkpt lat="46.8448" lon="-1.00517">
        <ele>111</ele>
        <time>2019-05-01T15:19:57Z</time>
      </trkpt>
      <trkpt lat="46.84486" lon="-1.00515">
        <ele>111</ele>
        <time>2019-05-01T15:20:57Z</time>
      </trkpt>
      <trkpt lat="46.84487" lon="-1.00498">
        <ele>111</ele>
        <time>2019-05-01T15:21:57Z</time>
      </trkpt>
      <trkpt lat="46.84482" lon="-1.00497">
        <ele>111</ele>
        <time>2019-05-01T15:22:57Z</time>
      </trkpt>
      <trkpt lat="46.84474" lon="-1.0049">
        <ele>112</ele>
        <time>2019-05-01T15:23:57Z</time>
      </trkpt>
      <trkpt lat="46.8447" lon="-1.00477">
        <ele>112</ele>
        <time>2019-05-01T15:24:57Z</time>
      </trkpt>
      <trkpt lat="46.8447" lon="-1.00471">
        <ele>112</ele>
        <time>2019-05-01T15:25:57Z</time>
      </trkpt>
      <trkpt lat="46.84474" lon="-1.00458">
        <ele>112</ele>
        <time>2019-05-01T15:26:57Z</time>
      </trkpt>
      <trkpt lat="46.84482" lon="-1.00451">
        <ele>112</ele>
        <time>2019-05-01T15:27:57Z</time>
      </trkpt>
      <trkpt lat="46.84491" lon="-1.00451">
        <ele>111</ele>
        <time>2019-05-01T15:28:57Z</time>
      </trkpt>
      <trkpt lat="46.845" lon="-1.0046">
        <ele>111</ele>
        <time>2019-05-01T15:29:57Z</time>
      </trkpt>
      <trkpt lat="46.84503" lon="-1.00474">
        <ele>111</ele>
        <time>2019-05-01T15:30:57Z</time>
      </trkpt>
      <trkpt lat="46.84571" lon="-1.00469">
        <ele>111</ele>
        <time>2019-05-01T15:31:57Z</time>
      </trkpt>
      <trkpt lat="46.84648" lon="-1.00451">
        <ele>113</ele>
        <time>2019-05-01T15:32:57Z</time>
      </trkpt>
      <trkpt lat="46.84749" lon="-1.00414">
        <ele>116</ele>
        <time>2019-05-01T15:33:57Z</time>
      </trkpt>
      <trkpt lat="46.84763" lon="-1.00428">
        <ele>116</ele>
        <time>2019-05-01T15:34:57Z</time>
      </trkpt>
      <trkpt lat="46.8478" lon="-1.00418">
        <ele>116</ele>
        <time>2019-05-01T15:35:57Z</time>
      </trkpt>
      <trkpt lat="46.8479" lon="-1.00401">
        <ele>116</ele>
        <time>2019-05-01T15:36:57Z</time>
      </trkpt>
      <trkpt lat="46.84833" lon="-1.00388">
        <ele>115</ele>
        <time>2019-05-01T15:37:57Z</time>
      </trkpt>
      <trkpt lat="46.84867" lon="-1.00381">
        <ele>115</ele>
        <time>2019-05-01T15:38:57Z</time>
      </trkpt>
      <trkpt lat="46.849" lon="-1.00379">
        <ele>114</ele>
        <time>2019-05-01T15:39:57Z</time>
      </trkpt>
      <trkpt lat="46.84953" lon="-1.0038">
        <ele>113</ele>
        <time>2019-05-01T15:40:57Z</time>
      </trkpt>
      <trkpt lat="46.84991" lon="-1.00387">
        <ele>113</ele>
        <time>2019-05-01T15:41:57Z</time>
      </trkpt>
      <trkpt lat="46.85028" lon="-1.00398">
        <ele>112</ele>
        <time>2019-05-01T15:42:57Z</time>
      </trkpt>
      <trkpt lat="46.85054" lon="-1.0041">
        <ele>111</ele>
        <time>2019-05-01T15:43:57Z</time>
      </trkpt>
      <trkpt lat="46.85102" lon="-1.0044">
        <ele>110</ele>
        <time>2019-05-01T15:44:57Z</time>
      </trkpt>
      <trkpt lat="46.85261" lon="-1.00556">
        <ele>110</ele>
        <time>2019-05-01T15:45:57Z</time>
      </trkpt>
      <trkpt lat="46.85285" lon="-1.00572">
        <ele>110</ele>
        <time>2019-05-01T15:46:57Z</time>
      </trkpt>
      <trkpt lat="46.85347" lon="-1.00588">
        <ele>109</ele>
        <time>2019-05-01T15:47:57Z</time>
      </trkpt>
      <trkpt lat="46.85442" lon="-1.00633">
        <ele>108</ele>
        <time>2019-05-01T15:48:57Z</time>
      </trkpt>
      <trkpt lat="46.85483" lon="-1.00655">
        <ele>108</ele>
        <time>2019-05-01T15:49:57Z</time>
      </trkpt>
      <trkpt lat="46.85539" lon="-1.00693">
        <ele>108</ele>
        <time>2019-05-01T15:50:57Z</time>
      </trkpt>
      <trkpt lat="46.85562" lon="-1.00711">
        <ele>108</ele>
        <time>2019-05-01T15:51:57Z</time>
      </trkpt>
      <trkpt lat="46.85689" lon="-1.0083">
        <ele>112</ele>
        <time>2019-05-01T15:52:57Z</time>
      </trkpt>
      <trkpt lat="46.85838" lon="-1.00917">
        <ele>113</ele>
        <time>2019-05-01T15:53:57Z</time>
      </trkpt>
      <trkpt lat="46.85844" lon="-1.00907">
        <ele>113</ele>
        <time>2019-05-01T15:54:57Z</time>
      </trkpt>
      <trkpt lat="46.85852" lon="-1.00904">
        <ele>113</ele>
        <time>2019-05-01T15:55:57Z</time>
      </trkpt>
      <trkpt lat="46.85856" lon="-1.00905">
        <ele>113</ele>
        <time>2019-05-01T15:56:57Z</time>
      </trkpt>
      <trkpt lat="46.85862" lon="-1.00912">
        <ele>113</ele>
        <time>2019-05-01T15:57:57Z</time>
      </trkpt>
      <trkpt lat="46.85864" lon="-1.00921">
        <ele>113</ele>
        <time>2019-05-01T15:58:57Z</time>
      </trkpt>
      <trkpt lat="46.85864" lon="-1.00927">
        <ele>113</ele>
        <time>2019-05-01T15:59:57Z</time>
      </trkpt>
      <trkpt lat="46.85861" lon="-1.00937">
        <ele>113</ele>
        <time>2019-05-01T16:00:57Z</time>
      </trkpt>
      <trkpt lat="46.85854" lon="-1.00943">
        <ele>113</ele>
        <time>2019-05-01T16:01:57Z</time>
      </trkpt>
      <trkpt lat="46.8585" lon="-1.0095">
        <ele>113</ele>
        <time>2019-05-01T16:02:57Z</time>
      </trkpt>
      <trkpt lat="46.85826" lon="-1.01044">
        <ele>111</ele>
        <time>2019-05-01T16:03:57Z</time>
      </trkpt>
      <trkpt lat="46.85816" lon="-1.01095">
        <ele>111</ele>
        <time>2019-05-01T16:04:57Z</time>
      </trkpt>
      <trkpt lat="46.8581" lon="-1.01143">
        <ele>110</ele>
        <time>2019-05-01T16:05:57Z</time>
      </trkpt>
      <trkpt lat="46.85808" lon="-1.01187">
        <ele>110</ele>
        <time>2019-05-01T16:06:57Z</time>
      </trkpt>
      <trkpt lat="46.85809" lon="-1.01235">
        <ele>110</ele>
        <time>2019-05-01T16:07:57Z</time>
      </trkpt>
      <trkpt lat="46.85813" lon="-1.01276">
        <ele>110</ele>
        <time>2019-05-01T16:08:57Z</time>
      </trkpt>
      <trkpt lat="46.85818" lon="-1.01302">
        <ele>111</ele>
        <time>2019-05-01T16:09:57Z</time>
      </trkpt>
      <trkpt lat="46.85838" lon="-1.01378">
        <ele>110</ele>
        <time>2019-05-01T16:10:57Z</time>
      </trkpt>
      <trkpt lat="46.85856" lon="-1.01431">
        <ele>109</ele>
        <time>2019-05-01T16:11:57Z</time>
      </trkpt>
      <trkpt lat="46.85866" lon="-1.01449">
        <ele>109</ele>
        <time>2019-05-01T16:12:57Z</time>
      </trkpt>
      <trkpt lat="46.85872" lon="-1.01456">
        <ele>109</ele>
        <time>2019-05-01T16:13:57Z</time>
      </trkpt>
      <trkpt lat="46.85874" lon="-1.01466">
        <ele>109</ele>
        <time>2019-05-01T16:14:57Z</time>
      </trkpt>
      <trkpt lat="46.85919" lon="-1.01553">
        <ele>108</ele>
        <time>2019-05-01T16:15:57Z</time>
      </trkpt>
      <trkpt lat="46.85976" lon="-1.01709">
        <ele>109</ele>
        <time>2019-05-01T16:16:57Z</time>
      </trkpt>
      <trkpt lat="46.8606" lon="-1.01872">
        <ele>112</ele>
        <time>2019-05-01T16:17:57Z</time>
      </trkpt>
      <trkpt lat="46.86069" lon="-1.01886">
        <ele>112</ele>
        <time>2019-05-01T16:18:57Z</time>
      </trkpt>
      <trkpt lat="46.86075" lon="-1.01892">
        <ele>112</ele>
        <time>2019-05-01T16:19:57Z</time>
      </trkpt>
      <trkpt lat="46.86092" lon="-1.01896">
        <ele>113</ele>
        <time>2019-05-01T16:20:57Z</time>
      </trkpt>
      <trkpt lat="46.86103" lon="-1.01919">
        <ele>113</ele>
        <time>2019-05-01T16:21:57Z</time>
      </trkpt>
      <trkpt lat="46.86097" lon="-1.01927">
        <ele>113</ele>
        <time>2019-05-01T16:22:57Z</time>
      </trkpt>
      <trkpt lat="46.86091" lon="-1.01948">
        <ele>113</ele>
        <time>2019-05-01T16:23:57Z</time>
      </trkpt>
      <trkpt lat="46.86098" lon="-1.0197">
        <ele>113</ele>
        <time>2019-05-01T16:24:57Z</time>
      </trkpt>
      <trkpt lat="46.86161" lon="-1.02099">
        <ele>111</ele>
        <time>2019-05-01T16:25:57Z</time>
      </trkpt>
      <trkpt lat="46.8616" lon="-1.02111">
        <ele>112</ele>
        <time>2019-05-01T16:26:57Z</time>
      </trkpt>
      <trkpt lat="46.86194" lon="-1.02178">
        <ele>112</ele>
        <time>2019-05-01T16:27:57Z</time>
      </trkpt>
      <trkpt lat="46.86218" lon="-1.02214">
        <ele>112</ele>
        <time>2019-05-01T16:28:57Z</time>
      </trkpt>
      <trkpt lat="46.86227" lon="-1.02215">
        <ele>112</ele>
        <time>2019-05-01T16:29:57Z</time>
      </trkpt>
      <trkpt lat="46.86234" lon="-1.02218">
        <ele>112</ele>
        <time>2019-05-01T16:30:57Z</time>
      </trkpt>
      <trkpt lat="46.86238" lon="-1.02224">
        <ele>112</ele>
        <time>2019-05-01T16:31:57Z</time>
      </trkpt>
      <trkpt lat="46.86266" lon="-1.02251">
        <ele>112</ele>
        <time>2019-05-01T16:32:57Z</time>
      </trkpt>
      <trkpt lat="46.86281" lon="-1.02262">
        <ele>111</ele>
        <time>2019-05-01T16:33:57Z</time>
      </trkpt>
      <trkpt lat="46.86306" lon="-1.02276">
        <ele>111</ele>
        <time>2019-05-01T16:34:57Z</time>
      </trkpt>
      <trkpt lat="46.86382" lon="-1.02306">
        <ele>109</ele>
        <time>2019-05-01T16:35:57Z</time>
      </trkpt>
      <trkpt lat="46.86416" lon="-1.02323">
        <ele>108</ele>
        <time>2019-05-01T16:36:57Z</time>
      </trkpt>
      <trkpt lat="46.86423" lon="-1.02327">
        <ele>108</ele>
        <time>2019-05-01T16:37:57Z</time>
      </trkpt>
      <trkpt lat="46.86425" lon="-1.02334">
        <ele>108</ele>
        <time>2019-05-01T16:38:57Z</time>
      </trkpt>
      <trkpt lat="46.86425" lon="-1.02338">
        <ele>108</ele>
        <time>2019-05-01T16:39:57Z</time>
      </trkpt>
      <trkpt lat="46.86469" lon="-1.02368">
        <ele>106</ele>
        <time>2019-05-01T16:40:57Z</time>
      </trkpt>
      <trkpt lat="46.86499" lon="-1.02395">
        <ele>106</ele>
        <time>2019-05-01T16:41:57Z</time>
      </trkpt>
      <trkpt lat="46.86504" lon="-1.02391">
        <ele>105</ele>
        <time>2019-05-01T16:42:57Z</time>
      </trkpt>
      <trkpt lat="46.86508" lon="-1.02392">
        <ele>105</ele>
        <time>2019-05-01T16:43:57Z</time>
      </trkpt>
      <trkpt lat="46.86529" lon="-1.02416">
        <ele>105</ele>
        <time>2019-05-01T16:44:57Z</time>
      </trkpt>
      <trkpt lat="46.86591" lon="-1.02496">
        <ele>106</ele>
        <time>2019-05-01T16:45:57Z</time>
      </trkpt>
      <trkpt lat="46.86629" lon="-1.02546">
        <ele>104</ele>
        <time>2019-05-01T16:46:57Z</time>
      </trkpt>
      <trkpt lat="46.86633" lon="-1.02554">
        <ele>104</ele>
        <time>2019-05-01T16:47:57Z</time>
      </trkpt>
      <trkpt lat="46.86668" lon="-1.02593">
        <ele>102</ele>
        <time>2019-05-01T16:48:57Z</time>
      </trkpt>
      <trkpt lat="46.8667" lon="-1.026">
        <ele>102</ele>
        <time>2019-05-01T16:49:57Z</time>
      </trkpt>
      <trkpt lat="46.86666" lon="-1.02608">
        <ele>102</ele>
        <time>2019-05-01T16:50:57Z</time>
      </trkpt>
      <trkpt lat="46.86659" lon="-1.02613">
        <ele>102</ele>
        <time>2019-05-01T16:51:57Z</time>
      </trkpt>
      <trkpt lat="46.86657" lon="-1.02617">
        <ele>102</ele>
        <time>2019-05-01T16:52:57Z</time>
      </trkpt>
      <trkpt lat="46.86657" lon="-1.02649">
        <ele>102</ele>
        <time>2019-05-01T16:53:57Z</time>
      </trkpt>
      <trkpt lat="46.86654" lon="-1.02662">
        <ele>102</ele>
        <time>2019-05-01T16:54:57Z</time>
      </trkpt>
      <trkpt lat="46.86661" lon="-1.02672">
        <ele>101</ele>
        <time>2019-05-01T16:55:57Z</time>
      </trkpt>
      <trkpt lat="46.86667" lon="-1.02685">
        <ele>101</ele>
        <time>2019-05-01T16:56:57Z</time>
      </trkpt>
      <trkpt lat="46.8669" lon="-1.02683">
        <ele>101</ele>
        <time>2019-05-01T16:57:57Z</time>
      </trkpt>
      <trkpt lat="46.86699" lon="-1.02677">
        <ele>100</ele>
        <time>2019-05-01T16:58:57Z</time>
      </trkpt>
      <trkpt lat="46.86708" lon="-1.02667">
        <ele>100</ele>
        <time>2019-05-01T16:59:57Z</time>
      </trkpt>
      <trkpt lat="46.86717" lon="-1.02661">
        <ele>100</ele>
        <time>2019-05-01T17:00:57Z</time>
      </trkpt>
      <trkpt lat="46.86746" lon="-1.02655">
        <ele>99</ele>
        <time>2019-05-01T17:01:57Z</time>
      </trkpt>
      <trkpt lat="46.86756" lon="-1.02654">
        <ele>99</ele>
        <time>2019-05-01T17:02:57Z</time>
      </trkpt>
      <trkpt lat="46.86815" lon="-1.02659">
        <ele>97</ele>
        <time>2019-05-01T17:03:57Z</time>
      </trkpt>
      <trkpt lat="46.86854" lon="-1.02679">
        <ele>96</ele>
        <time>2019-05-01T17:04:57Z</time>
      </trkpt>
      <trkpt lat="46.86954" lon="-1.02765">
        <ele>94</ele>
        <time>2019-05-01T17:05:57Z</time>
      </trkpt>
      <trkpt lat="46.86979" lon="-1.02775">
        <ele>94</ele>
        <time>2019-05-01T17:06:57Z</time>
      </trkpt>
      <trkpt lat="46.86996" lon="-1.02777">
        <ele>94</ele>
        <time>2019-05-01T17:07:57Z</time>
      </trkpt>
      <trkpt lat="46.87019" lon="-1.02775">
        <ele>94</ele>
        <time>2019-05-01T17:08:57Z</time>
      </trkpt>
      <trkpt lat="46.87044" lon="-1.02768">
        <ele>94</ele>
        <time>2019-05-01T17:09:57Z</time>
      </trkpt>
      <trkpt lat="46.87125" lon="-1.02734">
        <ele>96</ele>
        <time>2019-05-01T17:10:57Z</time>
      </trkpt>
      <trkpt lat="46.87124" lon="-1.02721">
        <ele>96</ele>
        <time>2019-05-01T17:11:57Z</time>
      </trkpt>
      <trkpt lat="46.87133" lon="-1.02719">
        <ele>96</ele>
        <time>2019-05-01T17:12:57Z</time>
      </trkpt>
      <trkpt lat="46.87134" lon="-1.0271">
        <ele>97</ele>
        <time>2019-05-01T17:13:57Z</time>
      </trkpt>
      <trkpt lat="46.87139" lon="-1.02694">
        <ele>97</ele>
        <time>2019-05-01T17:14:57Z</time>
      </trkpt>
      <trkpt lat="46.87144" lon="-1.02688">
        <ele>98</ele>
        <time>2019-05-01T17:15:57Z</time>
      </trkpt>
      <trkpt lat="46.8715" lon="-1.02683">
        <ele>98</ele>
        <time>2019-05-01T17:16:57Z</time>
      </trkpt>
      <trkpt lat="46.87157" lon="-1.02682">
        <ele>98</ele>
        <time>2019-05-01T17:17:57Z</time>
      </trkpt>
      <trkpt lat="46.87164" lon="-1.02685">
        <ele>98</ele>
        <time>2019-05-01T17:18:57Z</time>
      </trkpt>
      <trkpt lat="46.8717" lon="-1.0269">
        <ele>98</ele>
        <time>2019-05-01T17:19:57Z</time>
      </trkpt>
      <trkpt lat="46.87175" lon="-1.02698">
        <ele>98</ele>
        <time>2019-05-01T17:20:57Z</time>
      </trkpt>
      <trkpt lat="46.87177" lon="-1.02706">
        <ele>98</ele>
        <time>2019-05-01T17:21:57Z</time>
      </trkpt>
      <trkpt lat="46.87177" lon="-1.02724">
        <ele>97</ele>
        <time>2019-05-01T17:22:57Z</time>
      </trkpt>
      <trkpt lat="46.87175" lon="-1.02732">
        <ele>96</ele>
        <time>2019-05-01T17:23:57Z</time>
      </trkpt>
      <trkpt lat="46.87171" lon="-1.02739">
        <ele>96</ele>
        <time>2019-05-01T17:24:57Z</time>
      </trkpt>
      <trkpt lat="46.8716" lon="-1.02748">
        <ele>95</ele>
        <time>2019-05-01T17:25:57Z</time>
      </trkpt>
      <trkpt lat="46.87154" lon="-1.02748">
        <ele>95</ele>
        <time>2019-05-01T17:26:57Z</time>
      </trkpt>
      <trkpt lat="46.8715" lon="-1.02876">
        <ele>94</ele>
        <time>2019-05-01T17:27:57Z</time>
      </trkpt>
      <trkpt lat="46.8715" lon="-1.02917">
        <ele>94</ele>
        <time>2019-05-01T17:28:57Z</time>
      </trkpt>
      <trkpt lat="46.87156" lon="-1.02991">
        <ele>92</ele>
        <time>2019-05-01T17:29:57Z</time>
      </trkpt>
      <trkpt lat="46.8718" lon="-1.03261">
        <ele>90</ele>
        <time>2019-05-01T17:30:57Z</time>
      </trkpt>
      <trkpt lat="46.87181" lon="-1.03298">
        <ele>90</ele>
        <time>2019-05-01T17:31:57Z</time>
      </trkpt>
      <trkpt lat="46.8718" lon="-1.03336">
        <ele>91</ele>
        <time>2019-05-01T17:32:57Z</time>
      </trkpt>
      <trkpt lat="46.87176" lon="-1.03388">
        <ele>91</ele>
        <time>2019-05-01T17:33:57Z</time>
      </trkpt>
      <trkpt lat="46.87167" lon="-1.03443">
        <ele>91</ele>
        <time>2019-05-01T17:34:57Z</time>
      </trkpt>
      <trkpt lat="46.87124" lon="-1.03601">
        <ele>91</ele>
        <time>2019-05-01T17:35:57Z</time>
      </trkpt>
      <trkpt lat="46.87116" lon="-1.03652">
        <ele>91</ele>
        <time>2019-05-01T17:36:57Z</time>
      </trkpt>
      <trkpt lat="46.87117" lon="-1.03691">
        <ele>91</ele>
        <time>2019-05-01T17:37:57Z</time>
      </trkpt>
      <trkpt lat="46.87126" lon="-1.03779">
        <ele>90</ele>
        <time>2019-05-01T17:38:57Z</time>
      </trkpt>
      <trkpt lat="46.87135" lon="-1.03783">
        <ele>90</ele>
        <time>2019-05-01T17:39:57Z</time>
      </trkpt>
      <trkpt lat="46.8714" lon="-1.03789">
        <ele>90</ele>
        <time>2019-05-01T17:40:57Z</time>
      </trkpt>
      <trkpt lat="46.87142" lon="-1.03799">
        <ele>90</ele>
        <time>2019-05-01T17:41:57Z</time>
      </trkpt>
      <trkpt lat="46.8714" lon="-1.0381">
        <ele>90</ele>
        <time>2019-05-01T17:42:57Z</time>
      </trkpt>
      <trkpt lat="46.87136" lon="-1.03817">
        <ele>90</ele>
        <time>2019-05-01T17:43:57Z</time>
      </trkpt>
      <trkpt lat="46.8717" lon="-1.03886">
        <ele>91</ele>
        <time>2019-05-01T17:44:57Z</time>
      </trkpt>
      <trkpt lat="46.87184" lon="-1.03937">
        <ele>92</ele>
        <time>2019-05-01T17:45:57Z</time>
      </trkpt>
    </trkseg>
  </trk>
</gpx>